# Wetter Temperatur Luftdruck Luftfeuchtigkeit Sichtweite Windgeschwindigkeit Windrichtung Zeit
1 Clouds 21 1024 26 16093 3.6 230 22:25 24.01.2020
2 Clouds 20 1024 26 16093 3.6 230 21:43 24.01.2020
3 Clouds 20 1024 32 12874 3.1 230 21:21 24.01.2020
4 Clouds 20 1024 32 12874 3.1 230 21:21 24.01.2020
5 Clouds 20 1025 32 11265 2.1 100 20:57 24.01.2020
6 Clouds 20 1025 32 11265 2.1 100 20:39 24.01.2020
7 Clouds 20 1025 32 11265 2.1 100 20:20 24.01.2020
8 Clouds 20 1026 34 9656 3.1 100 19:56 24.01.2020
9 Clouds 19 1027 42 8047 3.1 140 19:38 24.01.2020
10 Clouds 19 1027 42 8047 3.1 140 19:20 24.01.2020
11 Clouds 17 1028 48 8047 1.17 206 18:43 24.01.2020
12 Clouds 17 1028 48 8047 1.17 206 18:23 24.01.2020
13 Clouds 15 1027 54 11265 2.1 50 17:46 24.01.2020
14 Clouds 15 1027 54 11265 2.1 50 17:23 24.01.2020
15 Clouds 14 1027 58 11265 2.1 100 16:59 24.01.2020
16 Clouds 14 1027 58 11265 2.1 100 16:39 24.01.2020
17 Clouds 14 1027 58 11265 2.1 100 16:20 24.01.2020
18 Clouds 12 1026 62 12874 2.1 190 15:43 24.01.2020
19 Clouds 12 1026 62 12874 2.1 190 15:22 24.01.2020
20 -273 0 0 0 0 0 15:22 24.01.2020
21 Clouds 12 1020 55 19312 1.5 360 14:57 24.01.2020
22 Clouds 10 1025 62 12874 1 160 14:38 24.01.2020
23 Clouds 10 1025 62 12874 1 160 14:20 24.01.2020
24 Clouds 10 1024 71 12874 2.1 60 13:42 24.01.2020
25 Clouds 10 1024 71 12874 2.1 60 13:23 24.01.2020
26 Clouds 10 1024 71 12874 2.1 60 12:44 24.01.2020
27 Clouds 10 1024 71 12874 2.1 60 12:22 24.01.2020
28 Clouds 10 1025 66 12874 2.1 70 11:45 24.01.2020
29 Clouds 10 1025 66 12874 2.1 70 11:20 24.01.2020
30 Clouds 10 1025 66 12874 1.5 60 10:59 24.01.2020
31 Clouds 10 1025 66 12874 1.5 60 10:41 24.01.2020
32 Clouds 10 1025 66 12874 1.5 60 10:19 24.01.2020
33 Clouds 11 1025 62 14484 2.1 80 09:42 24.01.2020
34 Clouds 11 1025 62 14484 2.1 80 09:42 24.01.2020
35 Clouds 11 1025 62 14484 2.1 80 09:24 24.01.2020
36 Clouds 11 1026 62 14484 1.5 280 08:59 24.01.2020
37 Clouds 11 1026 62 14484 1.5 280 08:36 24.01.2020
38 Clouds 11 1026 62 14484 1.5 280 08:18 24.01.2020
39 Clouds 11 1026 62 14484 5.1 310 07:42 24.01.2020
40 Clouds 11 1026 62 14484 5.1 310 07:21 24.01.2020
41 Clouds 12 1026 58 14484 4.1 340 06:43 24.01.2020
42 Clouds 12 1026 58 14484 4.1 340 06:43 24.01.2020
43 Clouds 12 1026 58 14484 4.1 340 06:23 24.01.2020
44 Clouds 12 1026 50 12874 3.1 360 05:21 24.01.2020
45 Clouds 13 1024 36 14484 2.1 30 03:29 24.01.2020
46 Clouds 17 1023 29 14484 3.6 320 02:39 24.01.2020
47 Clouds 17 1023 29 14484 3.6 320 02:19 24.01.2020
48 Clouds 18 1022 31 14484 1.5 320 01:38 24.01.2020
49 Clouds 18 1022 31 12874 2.1 300 00:40 24.01.2020
50 Clouds 18 1022 31 12874 2.1 300 00:19 24.01.2020
51 Clouds 19 1022 31 12874 5.1 310 23:41 23.01.2020
52 Clouds 19 1022 31 12874 5.1 310 23:21 23.01.2020
53 Clouds 19 1023 32 12874 3.6 320 22:58 23.01.2020
54 Clouds 20 1023 32 12874 3.6 320 22:37 23.01.2020
55 Clouds 20 1023 32 12874 3.6 320 22:18 23.01.2020
56 Clouds 19 1023 34 11265 3.1 320 21:55 23.01.2020
57 Clouds 20 1023 34 11265 3.1 320 21:37 23.01.2020
58 Clouds 20 1023 34 11265 3.1 320 21:18 23.01.2020
59 Clouds 19 1024 32 11265 3.6 260 20:41 23.01.2020
60 Clouds 20 1024 32 11265 3.6 260 20:22 23.01.2020
61 Clouds 18 1025 39 9656 4.6 270 19:57 23.01.2020
62 Clouds 18 1025 39 9656 4.6 270 19:39 23.01.2020
63 Clouds 19 1025 39 9656 4.6 270 19:21 23.01.2020
64 Clouds 18 1026 42 8047 1.5 170 18:56 23.01.2020
65 Clouds 18 1026 42 8047 1.5 170 18:38 23.01.2020
66 Clouds 18 1026 42 8047 1.5 170 18:19 23.01.2020
67 Clouds 16 1026 48 8047 2.1 110 17:45 23.01.2020
68 Clouds 15 1026 54 9656 2.1 70 17:21 23.01.2020
69 Clouds 13 1026 58 11265 1.5 120 16:59 23.01.2020
70 Clouds 13 1026 58 11265 1.5 120 16:39 23.01.2020
71 Clouds 13 1026 58 11265 1.5 120 16:19 23.01.2020
72 Clouds 11 1025 66 12874 2.1 270 15:58 23.01.2020
73 Clouds 11 1025 66 12874 2.1 270 15:38 23.01.2020
74 Clouds 11 1025 66 12874 2.1 270 15:38 23.01.2020
75 Clouds 11 1025 66 12874 2.1 270 15:19 23.01.2020
76 -273 0 0 0 0 0 14:58 23.01.2020
77 Clouds 8 1024 71 11265 3.1 240 14:40 23.01.2020
78 Clouds 8 1024 71 11265 3.1 240 14:21 23.01.2020
79 Clouds 9 1024 71 11265 1.82 165 13:46 23.01.2020
80 Clouds 8 1024 71 11265 1.82 165 13:21 23.01.2020
81 Clear 9 1023 66 11265 2.05 149 12:57 23.01.2020
82 Clear 9 1023 66 11265 2.05 149 12:57 23.01.2020
83 Clear 9 1023 66 11265 2.05 149 12:39 23.01.2020
84 Clear 8 1023 66 11265 1.48 149 12:20 23.01.2020
85 Clear 8 1023 62 11265 2.05 149 11:45 23.01.2020
86 Clear 8 1023 62 11265 1.48 149 11:25 23.01.2020
87 Clear 9 1024 62 14484 1.5 120 10:59 23.01.2020
88 Clear 9 1024 62 14484 1.5 120 10:40 23.01.2020
89 Clear 8 1024 62 14484 1.5 120 10:19 23.01.2020
90 Clear 10 1024 62 12874 2.1 143 09:41 23.01.2020
91 Clear 10 1024 62 12874 2.1 143 09:22 23.01.2020
92 Clear 11 1025 62 12874 2.1 260 08:56 23.01.2020
93 Clear 11 1025 62 12874 2.1 260 08:38 23.01.2020
94 Clear 11 1025 62 12874 2.1 260 08:19 23.01.2020
95 Clear 12 1025 58 12874 1.5 240 07:39 23.01.2020
96 Clear 12 1025 58 12874 1.5 240 07:18 23.01.2020
97 Clear 13 1026 54 12874 1.5 150 06:44 23.01.2020
98 Clear 13 1026 54 12874 1.5 150 06:18 23.01.2020
99 Clouds 14 1025 39 16093 5.1 250 04:25 23.01.2020
100 Clouds 16 1025 36 14484 4.1 250 03:47 23.01.2020
101 Clouds 20 1023 34 9656 3.6 250 01:55 23.01.2020
102 Clouds 21 1022 26 9656 3.1 200 00:46 23.01.2020
103 Clouds 21 1022 26 9656 3.1 200 00:24 23.01.2020
104 Clouds 21 1022 24 9656 2.6 130 23:46 22.01.2020
105 Clouds 21 1022 24 9656 2.6 130 23:28 22.01.2020
106 Clear 22 1023 24 9656 3.1 100 22:55 22.01.2020
107 Clear 22 1023 24 9656 3.1 100 22:36 22.01.2020
108 Clear 22 1023 24 9656 3.1 100 22:18 22.01.2020
109 Clear 22 1024 24 9656 3.6 70 21:38 22.01.2020
110 Clear 22 1024 24 9656 3.6 70 21:19 22.01.2020
111 Clear 21 1024 24 9656 2.6 120 20:55 22.01.2020
112 Clear 20 1025 24 11265 3.1 100 20:36 22.01.2020
113 Clear 20 1025 24 11265 3.1 100 20:18 22.01.2020
114 Clear 19 1027 29 9656 1.5 180 19:41 22.01.2020
115 Clear 19 1027 29 9656 1.5 180 19:21 22.01.2020
116 Clear 19 1027 29 9656 1.5 180 19:21 22.01.2020
117 Clear 18 1027 34 8047 2.6 100 18:59 22.01.2020
118 Clear 18 1027 34 8047 2.6 100 18:40 22.01.2020
119 Clear 17 1028 44 8047 2.1 80 18:21 22.01.2020
120 Clear 15 1028 47 8047 2.6 100 17:59 22.01.2020
121 Clear 15 1028 54 9656 0.79 196 17:39 22.01.2020
122 Clear 11 1028 62 9656 1.5 60 17:20 22.01.2020
123 Clear 11 1028 62 9656 1.5 60 16:56 22.01.2020
124 Clear 11 1028 62 9656 1.5 60 16:37 22.01.2020
125 Clear 11 1028 62 9656 1.5 60 16:18 22.01.2020
126 Clear 6 1028 81 11265 2.1 90 15:42 22.01.2020
127 Clear 6 1028 81 11265 2.1 90 15:24 22.01.2020
128 Clear 6 1027 87 9656 1.5 50 14:59 22.01.2020
129 Clear 6 1027 87 9656 1.5 50 14:38 22.01.2020
130 Clear 6 1027 87 9656 1.5 50 14:20 22.01.2020
131 Clear 5 1027 81 9656 2.6 70 13:56 22.01.2020
132 Clear 5 1027 81 9656 2.6 70 13:56 22.01.2020
133 Clear 5 1027 81 9656 2.6 70 13:37 22.01.2020
134 Clear 5 1027 81 9656 2.6 70 13:19 22.01.2020
135 Clear 5 1027 75 9656 2.1 230 12:56 22.01.2020
136 Clear 6 1027 75 9656 2.1 230 12:38 22.01.2020
137 Clear 6 1027 75 9656 2.1 230 12:18 22.01.2020
138 Clear 6 1027 75 9656 0.42 133 11:56 22.01.2020
139 Clear 6 1027 75 9656 0.42 133 11:38 22.01.2020
140 Clear 6 1027 75 9656 0.8 58 11:19 22.01.2020
141 Clear 6 1028 81 9656 0.8 58 10:44 22.01.2020
142 Clear 6 1028 81 9656 0.8 58 10:21 22.01.2020
143 Clouds 7 1029 70 11265 1.5 70 09:45 22.01.2020
144 Clouds 7 1029 70 11265 1.5 70 09:26 22.01.2020
145 Clouds 9 1029 62 11265 2.1 200 08:59 22.01.2020
146 Clouds 9 1029 62 11265 2.1 200 08:40 22.01.2020
147 Clouds 9 1029 62 11265 2.1 200 08:21 22.01.2020
148 Clouds 10 1029 58 12874 2.1 130 07:59 22.01.2020
149 Clouds 10 1029 58 12874 2.1 130 07:40 22.01.2020
150 Clouds 10 1029 58 12874 2.1 130 07:40 22.01.2020
151 Clouds 10 1029 58 12874 2.1 130 07:21 22.01.2020
152 Clouds 10 1029 62 12874 1 10 06:31 22.01.2020
153 Clouds 11 1029 62 12874 2.6 70 05:42 22.01.2020
154 Clear 16 1027 31 0 2.68 30 04:23 22.01.2020
155 Clear 15 1028 31 12874 3.1 30 03:26 22.01.2020
156 Clear 16 1027 29 9656 5.1 350 02:32 22.01.2020
157 Clear 19 1027 34 6437 2.6 50 00:46 22.01.2020
158 Clear 19 1027 34 6437 2.6 50 00:27 22.01.2020
159 Clear 17 1028 34 6437 2.6 330 23:55 21.01.2020
160 Clear 17 1028 34 6437 2.6 330 23:36 21.01.2020
161 Clear 17 1028 34 6437 2.6 330 23:18 21.01.2020
162 Clear 19 1029 34 8047 2.6 280 22:40 21.01.2020
163 Clear 19 1029 34 8047 2.6 280 22:20 21.01.2020
164 Clear 19 1029 34 8047 2.6 280 22:20 21.01.2020
165 Clear 19 1030 45 8047 2.6 150 21:56 21.01.2020
166 Clear 19 1030 45 8047 2.6 150 21:38 21.01.2020
167 Clear 19 1030 45 8047 2.6 150 21:19 21.01.2020
168 Clear 17 1031 48 6437 2.1 180 20:56 21.01.2020
169 Clear 17 1032 54 6437 2.1 110 20:37 21.01.2020
170 Clear 17 1032 54 6437 2.1 110 20:18 21.01.2020
171 Clouds 15 1034 58 6437 2.6 120 19:56 21.01.2020
172 Clouds 15 1034 58 6437 2.6 120 19:37 21.01.2020
173 Clouds 15 1034 58 6437 2.6 120 19:37 21.01.2020
174 Clouds 15 1034 58 6437 2.6 120 19:19 21.01.2020
175 Clouds 12 1034 62 6437 2.18 338 18:55 21.01.2020
176 Clouds 11 1034 71 6437 3.1 90 18:36 21.01.2020
177 Clouds 11 1034 71 6437 3.1 90 18:18 21.01.2020
178 Clouds 10 1034 76 6437 2.18 338 17:43 21.01.2020
179 Clouds 10 1034 76 6437 2.75 8 17:20 21.01.2020
180 Clouds 8 1034 81 8047 2.6 260 16:58 21.01.2020
181 Clouds 8 1034 81 8047 2.6 260 16:37 21.01.2020
182 Clouds 8 1034 81 8047 2.6 260 16:18 21.01.2020
183 Clouds 6 1033 81 8047 2.6 90 15:42 21.01.2020
184 Clouds 6 1033 81 8047 2.6 90 15:21 21.01.2020
185 Clouds 6 1031 87 11265 2.75 8 14:59 21.01.2020
186 Clouds 6 1031 87 11265 2.75 8 14:37 21.01.2020
187 Clouds 6 1031 87 11265 1.84 6 14:19 21.01.2020
188 Clouds 4 1031 93 16093 1.5 100 13:40 21.01.2020
189 Clouds 4 1031 93 16093 1.5 100 13:19 21.01.2020
190 Clouds 4 1030 93 16093 1.5 30 12:43 21.01.2020
191 Clouds 4 1030 93 16093 1.5 30 12:43 21.01.2020
192 Clouds 4 1030 93 16093 1.5 30 12:25 21.01.2020
193 Clouds 4 1030 93 16093 2.1 80 11:57 21.01.2020
194 Clouds 4 1030 93 16093 2.1 80 11:38 21.01.2020
195 Clouds 4 1030 93 16093 2.1 80 11:20 21.01.2020
196 Clouds 5 1031 81 16093 3.1 70 10:44 21.01.2020
197 Clouds 5 1031 81 16093 3.1 70 10:24 21.01.2020
198 Fog 6 1033 93 402 1.39 21 09:59 21.01.2020
199 Clouds 7 1031 76 16093 2.6 300 09:41 21.01.2020
200 Clouds 7 1031 76 16093 2.6 300 09:22 21.01.2020
201 Fog 7 1033 86 402 1.39 21 08:48 21.01.2020
202 Clouds 7 1032 76 16093 2.6 280 08:29 21.01.2020
203 Clouds 8 1033 71 16093 2.6 300 07:57 21.01.2020
204 Clouds 8 1033 71 16093 2.6 300 07:38 21.01.2020
205 Clouds 8 1033 71 16093 2.6 300 07:20 21.01.2020
206 Clouds 9 1033 66 16093 3.1 340 06:45 21.01.2020
207 Clouds 9 1033 66 16093 3.1 340 06:23 21.01.2020
208 Clouds 10 1033 62 16093 3.6 300 05:41 21.01.2020
209 Clouds 10 1032 62 14484 4.6 290 04:39 21.01.2020
210 Clouds 14 1031 62 11265 3.45 1 02:55 21.01.2020
211 Clouds 14 1031 62 11265 3.1 270 01:47 21.01.2020
212 Clouds 15 1031 58 12874 2.1 250 00:57 21.01.2020
213 Clouds 15 1031 58 12874 2.1 250 00:35 21.01.2020
214 Clouds 16 1031 54 12874 2.6 30 23:57 20.01.2020
215 Clouds 16 1031 54 12874 2.6 30 23:37 20.01.2020
216 Clouds 16 1031 54 12874 2.6 30 23:18 20.01.2020
217 Clouds 16 1031 54 12874 2.6 30 23:18 20.01.2020
218 Clouds 15 1032 62 12874 4.1 10 22:56 20.01.2020
219 Clouds 16 1032 62 12874 4.1 10 22:37 20.01.2020
220 Clouds 16 1032 62 12874 4.1 10 22:18 20.01.2020
221 Clouds 14 1033 66 11265 3.6 330 21:57 20.01.2020
222 Clouds 14 1033 66 11265 3.6 330 21:36 20.01.2020
223 Clouds 14 1033 66 11265 3.6 330 21:18 20.01.2020
224 Clouds 14 1033 66 9656 3.6 310 20:55 20.01.2020
225 Clouds 14 1033 66 9656 3.6 310 20:36 20.01.2020
226 Clouds 15 1033 66 9656 3.6 310 20:18 20.01.2020
227 Rain 13 1035 71 9656 3.6 360 19:56 20.01.2020
228 Rain 13 1035 71 9656 3.6 360 19:37 20.01.2020
229 Rain 13 1035 71 9656 3.6 360 19:18 20.01.2020
230 Rain 12 1035 66 11265 4.6 300 18:42 20.01.2020
231 Rain 13 1035 66 11265 4.6 300 18:21 20.01.2020
232 Clouds 13 1035 62 11265 4.1 360 17:39 20.01.2020
233 Clouds 13 1035 62 11265 4.1 360 17:19 20.01.2020
234 Rain 12 1036 76 11265 6.7 90 16:55 20.01.2020
235 Clouds 12 1034 66 11265 4.6 20 16:36 20.01.2020
236 Clouds 12 1033 71 11265 3.6 290 16:18 20.01.2020
237 Clouds 12 1033 71 11265 3.6 290 15:41 20.01.2020
238 Clouds 13 1033 71 11265 3.6 290 15:22 20.01.2020
239 Clouds 12 1033 71 12874 2.6 320 14:59 20.01.2020
240 Clouds 11 1033 71 12874 2.6 320 14:40 20.01.2020
241 Clouds 11 1033 71 12874 2.6 320 14:21 20.01.2020
242 Clouds 11 1032 76 12874 3.1 330 13:57 20.01.2020
243 Clouds 10 1032 76 12874 3.1 330 13:38 20.01.2020
244 Clouds 10 1032 76 12874 3.1 330 13:20 20.01.2020
245 Clouds 10 1031 76 12874 4.1 320 12:42 20.01.2020
246 Clouds 10 1031 76 12874 4.1 320 12:23 20.01.2020
247 Clouds 10 1031 81 12874 4.1 290 11:56 20.01.2020
248 Clouds 10 1031 81 12874 4.1 290 11:37 20.01.2020
249 Clouds 10 1031 81 12874 4.1 290 11:18 20.01.2020
250 Clouds 11 1031 76 16093 3.6 350 10:46 20.01.2020
251 Clouds 11 1031 76 16093 3.6 350 10:20 20.01.2020
252 Clouds 11 1032 71 16093 4.1 330 09:42 20.01.2020
253 Clouds 11 1032 71 16093 4.1 330 09:24 20.01.2020
254 Clouds 11 1033 76 16093 2.6 300 08:56 20.01.2020
255 Clouds 11 1033 76 16093 2.6 300 08:34 20.01.2020
256 Clouds 11 1033 76 16093 4.1 310 07:59 20.01.2020
257 Clouds 11 1033 76 16093 4.1 310 07:41 20.01.2020
258 Clouds 11 1033 76 16093 4.1 310 07:21 20.01.2020
259 Clouds 11 1032 76 16093 4.6 360 06:42 20.01.2020
260 Clouds 11 1032 76 16093 4.6 360 06:21 20.01.2020
261 Clouds 11 1033 76 16093 4.1 350 05:38 20.01.2020
262 Clouds 11 1033 76 16093 4.1 350 05:19 20.01.2020
263 Clouds 12 1031 81 12874 3.1 310 03:55 20.01.2020
264 Clouds 16 1029 76 12874 3.1 330 01:58 20.01.2020
265 Clouds 16 1029 76 12874 3.1 330 01:39 20.01.2020
266 Clouds 16 1029 71 11265 4.1 360 00:56 20.01.2020
267 Clouds 16 1029 71 11265 4.1 360 00:38 20.01.2020
268 Clouds 17 1029 71 11265 4.1 360 00:20 20.01.2020
269 Clouds 18 1029 76 11265 5.1 20 23:38 19.01.2020
270 Clouds 17 1029 76 11265 5.1 20 23:18 19.01.2020
271 Clouds 16 1029 82 9656 3.6 360 22:55 19.01.2020
272 Rain 17 1029 76 9656 3.1 360 22:37 19.01.2020
273 Rain 17 1029 76 9656 3.1 360 22:19 19.01.2020
274 Rain 17 1029 76 9656 6.7 30 21:56 19.01.2020
275 Clouds 18 1029 63 11265 5.1 310 21:37 19.01.2020
276 Clouds 18 1029 63 11265 5.1 310 21:19 19.01.2020
277 Clouds 18 1030 55 11265 3.1 290 20:56 19.01.2020
278 Clouds 19 1030 55 11265 3.1 290 20:38 19.01.2020
279 Clouds 19 1030 55 11265 3.1 290 20:19 19.01.2020
280 Clouds 18 1031 63 11265 2.1 280 19:55 19.01.2020
281 Clouds 18 1031 63 11265 2.1 280 19:37 19.01.2020
282 Clouds 18 1031 63 11265 2.1 280 19:19 19.01.2020
283 Clouds 17 1032 67 11265 2.6 230 18:55 19.01.2020
284 Clouds 17 1032 67 11265 2.6 230 18:37 19.01.2020
285 Clouds 17 1032 67 11265 2.6 230 18:19 19.01.2020
286 Clouds 16 1033 51 11265 3.1 100 17:57 19.01.2020
287 Clouds 16 1032 71 11265 3.1 340 17:38 19.01.2020
288 Clouds 16 1032 71 11265 3.1 340 17:19 19.01.2020
289 Mist 14 1033 66 4828 3.39 7 16:57 19.01.2020
290 Mist 14 1033 66 4828 3.39 7 16:57 19.01.2020
291 Clouds 14 1031 71 11265 3.6 40 16:37 19.01.2020
292 Clouds 14 1031 71 11265 3.6 40 16:37 19.01.2020
293 Clouds 14 1031 71 11265 3.6 40 16:37 19.01.2020
294 Clouds 14 1031 71 11265 3.6 40 16:19 19.01.2020
295 Mist 12 1031 81 4828 2.1 290 15:55 19.01.2020
296 Mist 12 1031 81 4828 2.1 290 15:55 19.01.2020
297 Clouds 12 1030 76 11265 2.1 350 15:36 19.01.2020
298 Clouds 12 1030 76 11265 2.1 350 15:18 19.01.2020
299 Clouds 12 1030 76 11265 2.1 350 15:18 19.01.2020
300 Clouds 12 1030 76 11265 2.6 30 14:41 19.01.2020
301 Clouds 11 1030 76 11265 2.6 30 14:21 19.01.2020
302 Clouds 11 1029 71 9656 3.6 20 13:59 19.01.2020
303 Clouds 11 1029 71 9656 3.6 20 13:40 19.01.2020
304 Clouds 11 1029 71 9656 3.6 20 13:22 19.01.2020
305 Clouds 11 1029 71 9656 3.6 20 13:22 19.01.2020
306 Clouds 11 1028 76 9656 2.1 310 12:59 19.01.2020
307 Clouds 11 1028 76 9656 2.1 310 12:41 19.01.2020
308 Clouds 11 1028 76 9656 2.1 310 12:21 19.01.2020
309 Clouds 11 1029 81 11265 2.47 0 11:57 19.01.2020
310 Clouds 11 1029 81 11265 2.47 0 11:38 19.01.2020
311 Clouds 10 1029 81 11265 2.71 357 11:18 19.01.2020
312 Clouds 11 1029 81 12874 1.5 80 10:41 19.01.2020
313 Clouds 11 1029 81 12874 1.5 80 10:21 19.01.2020
314 Clouds 12 1029 82 12874 2.6 60 09:57 19.01.2020
315 Clouds 12 1029 82 12874 2.6 60 09:38 19.01.2020
316 Clouds 12 1029 82 12874 2.6 60 09:20 19.01.2020
317 Drizzle 13 1029 82 12874 3.6 100 08:55 19.01.2020
318 Clouds 13 1029 71 16093 2.1 20 08:33 19.01.2020
319 Clouds 13 1030 71 16093 1.5 350 07:58 19.01.2020
320 Clouds 13 1030 71 16093 2.1 290 07:29 19.01.2020
321 Clouds 13 1029 76 16093 3.6 310 06:55 19.01.2020
322 Clouds 13 1029 76 16093 3.6 310 06:23 19.01.2020
323 Clouds 14 1028 62 11265 4.1 360 04:18 19.01.2020
324 Thunderstorm 17 1027 63 11265 7.2 40 02:34 19.01.2020
325 Thunderstorm 16 1027 67 9656 6.2 60 01:43 19.01.2020
326 Thunderstorm 18 1026 63 9656 7.2 50 01:20 19.01.2020
327 Thunderstorm 19 1026 55 9656 7.2 40 00:44 19.01.2020
328 Smoke 19 1027 36 11265 6.2 70 00:24 19.01.2020
329 Clouds 22 1025 30 11265 4.39 12 23:54 18.01.2020
330 Clouds 22 1025 30 11265 4.39 12 23:36 18.01.2020
331 Clouds 22 1025 30 11265 1.7 300 23:18 18.01.2020
332 Clouds 23 1025 30 11265 2.1 280 22:41 18.01.2020
333 Clouds 23 1025 30 11265 2.1 280 22:23 18.01.2020
334 Clouds 22 1026 30 12874 3.1 70 21:58 18.01.2020
335 Clouds 22 1026 30 12874 3.1 70 21:39 18.01.2020
336 Clouds 22 1026 30 12874 3.1 70 21:20 18.01.2020
337 Clouds 22 1027 32 9656 3.6 40 20:56 18.01.2020
338 Clouds 22 1027 32 9656 3.6 40 20:38 18.01.2020
339 Clouds 22 1027 32 9656 3.6 40 20:18 18.01.2020
340 Clear 21 1028 37 9656 2.6 320 19:43 18.01.2020
341 Clear 21 1028 37 9656 2.6 320 19:24 18.01.2020
342 Clear 19 1029 45 9656 1.5 220 18:43 18.01.2020
343 Clear 19 1029 45 9656 1.5 220 18:25 18.01.2020
344 Clear 18 1030 51 8047 1.5 80 17:59 18.01.2020
345 Clear 17 1030 51 8047 1.5 80 17:40 18.01.2020
346 Clear 17 1030 51 8047 1.5 80 17:20 18.01.2020
347 Clouds 14 1030 62 9656 2.6 80 16:56 18.01.2020
348 Clouds 14 1030 62 9656 2.6 80 16:37 18.01.2020
349 Clouds 14 1030 62 9656 2.6 80 16:19 18.01.2020
350 Clear 11 1029 76 9656 2.1 30 15:44 18.01.2020
351 Clear 11 1029 76 9656 2.1 30 15:25 18.01.2020
352 Mist 10 1030 86 3219 2.1 70 14:59 18.01.2020
353 Clouds 11 1028 71 11265 2.1 80 14:40 18.01.2020
354 Clouds 8 1028 71 11265 2.1 80 14:19 18.01.2020
355 Clouds 8 1028 71 11265 3.1 70 13:55 18.01.2020
356 Clouds 8 1028 71 11265 3.1 70 13:36 18.01.2020
357 Clouds 8 1028 71 11265 3.1 70 13:18 18.01.2020
358 Clouds 8 1028 71 11265 3.1 70 13:18 18.01.2020
359 Clouds 9 1027 76 11265 2.1 50 12:40 18.01.2020
360 Clouds 9 1027 76 11265 2.1 50 12:21 18.01.2020
361 Clouds 9 1028 81 12874 1.5 60 11:45 18.01.2020
362 Clouds 8 1028 81 12874 1.5 60 11:24 18.01.2020
363 Clouds 9 1028 76 12874 2.1 60 10:58 18.01.2020
364 Clouds 10 1028 76 12874 2.1 60 10:39 18.01.2020
365 Clouds 9 1028 76 12874 2.1 60 10:20 18.01.2020
366 Clouds 9 1028 76 12874 2.1 60 10:20 18.01.2020
367 Clouds 9 1028 76 12874 2.1 60 10:20 18.01.2020
368 Clouds 10 1028 66 12874 1.5 80 09:48 18.01.2020
369 Clouds 10 1028 66 12874 1.5 80 09:30 18.01.2020
370 Clouds 11 1029 58 14484 2.1 280 08:57 18.01.2020
371 Clouds 12 1029 58 14484 2.1 280 08:39 18.01.2020
372 Clouds 12 1029 58 14484 2.1 280 08:19 18.01.2020
373 Clouds 13 1028 58 16093 1 250 07:50 18.01.2020
374 Clouds 13 1028 58 16093 1 250 07:31 18.01.2020
375 Clouds 14 1028 45 16093 4.1 300 06:47 18.01.2020
376 Clouds 15 1028 39 16093 3.1 290 05:59 18.01.2020
377 Clouds 16 1028 39 16093 3.1 290 05:21 18.01.2020
378 Clouds 19 1026 34 17702 3.1 230 02:56 18.01.2020
379 Clouds 21 1025 30 17702 1.5 200 01:54 18.01.2020
380 Clouds 21 1025 30 17702 1.5 200 01:30 18.01.2020
381 Clouds 22 1025 26 17702 4.1 170 00:37 18.01.2020
382 Clouds 22 1025 26 17702 4.1 170 00:37 18.01.2020
383 Clouds 22 1025 26 17702 4.1 170 00:37 18.01.2020
384 Clouds 22 1025 35 16093 4.1 140 00:18 18.01.2020
385 Clouds 23 1025 35 16093 4.1 140 23:41 17.01.2020
386 Clouds 23 1025 32 16093 4.1 140 23:20 17.01.2020
387 Clouds 23 1025 28 14484 4.1 90 22:45 17.01.2020
388 Clouds 23 1025 28 14484 4.1 90 22:22 17.01.2020
389 Clouds 22 1027 30 12874 1.5 110 21:59 17.01.2020
390 Clouds 22 1027 30 12874 1.5 110 21:41 17.01.2020
391 Clouds 22 1027 30 12874 1.5 110 21:22 17.01.2020
392 Clouds 22 1028 32 12874 2.6 130 20:57 17.01.2020
393 Clouds 22 1028 32 12874 2.6 130 20:38 17.01.2020
394 Clouds 22 1028 32 12874 2.6 130 20:20 17.01.2020
395 Clouds 21 1028 30 12874 2.4 318 19:55 17.01.2020
396 Clouds 21 1028 30 12874 2.4 318 19:55 17.01.2020
397 Clouds 21 1029 39 9656 2.1 90 19:37 17.01.2020
398 Clouds 21 1029 39 9656 2.1 90 19:37 17.01.2020
399 Clouds 20 1029 39 9656 2.1 90 19:18 17.01.2020
400 Clouds 19 1030 48 9656 2.1 20 18:47 17.01.2020
401 Clouds 18 1030 55 9656 1.5 130 18:29 17.01.2020
402 Clouds 16 1031 55 9656 1.5 130 17:58 17.01.2020
403 Clouds 15 1031 67 9656 1.5 80 17:39 17.01.2020
404 Clouds 13 1030 76 9656 3.1 80 17:20 17.01.2020
405 Clouds 11 1030 76 9656 3.1 80 16:43 17.01.2020
406 Clouds 12 1030 76 9656 3.1 80 16:21 17.01.2020
407 Mist 10 1031 86 4828 1.65 25 15:55 17.01.2020
408 Mist 10 1031 86 4828 1.65 25 15:37 17.01.2020
409 Mist 10 1031 86 4828 1.65 25 15:19 17.01.2020
410 Clouds 9 1029 81 9656 2.1 80 14:43 17.01.2020
411 Clouds 9 1029 81 9656 2.1 80 14:23 17.01.2020
412 Clouds 8 1029 81 9656 3.6 70 13:42 17.01.2020
413 Clouds 7 1029 81 9656 3.6 70 13:23 17.01.2020
414 Clouds 8 1029 81 11265 2.1 70 12:47 17.01.2020
415 Clouds 8 1029 81 11265 2.1 70 12:23 17.01.2020
416 Clouds 8 1028 87 11265 2.1 70 11:43 17.01.2020
417 Clouds 8 1028 87 11265 2.1 70 11:20 17.01.2020
418 Dust 9 1028 81 12874 2.6 60 10:56 17.01.2020
419 Dust 9 1028 81 12874 2.6 60 10:38 17.01.2020
420 Dust 9 1028 81 12874 2.6 60 10:20 17.01.2020
421 Dust 9 1029 81 12874 2.6 110 09:44 17.01.2020
422 Dust 9 1029 81 12874 2.6 110 09:21 17.01.2020
423 Dust 10 1029 76 12874 2.6 90 08:58 17.01.2020
424 Clouds 10 1029 71 12874 3.1 290 08:40 17.01.2020
425 Clouds 10 1029 71 12874 3.1 290 08:21 17.01.2020
426 Clouds 12 1029 67 12874 5.1 320 07:46 17.01.2020
427 Clouds 12 1029 67 12874 5.1 320 07:28 17.01.2020
428 Clouds 13 1029 62 12874 4.1 310 06:55 17.01.2020
429 Clouds 13 1029 62 12874 4.1 310 06:35 17.01.2020
430 Clouds 17 1027 55 0 4.92 300 04:32 17.01.2020
431 Clouds 16 1020 58 0 3.15 350 03:19 17.01.2020
432 Clouds 16 1020 58 0 3.15 350 02:39 17.01.2020
433 Clouds 21 1024 30 0 4.92 160 01:44 17.01.2020
434 Clouds 21 1024 30 0 4.92 160 01:25 17.01.2020
435 Clouds 23 1018 26 16093 3.04 139 00:37 17.01.2020
436 Clouds 23 1018 26 16093 3.04 139 00:19 17.01.2020
437 Clouds 23 1025 33 8047 3.1 120 23:41 16.01.2020
438 Clouds 23 1025 33 8047 3.1 120 23:22 16.01.2020
439 Clouds 23 1025 33 8047 4.1 100 22:41 16.01.2020
440 Clouds 23 1025 33 8047 4.1 100 22:21 16.01.2020
441 Clouds 22 1026 37 6437 4.1 70 21:57 16.01.2020
442 Clouds 22 1026 37 6437 4.1 70 21:38 16.01.2020
443 Clouds 22 1026 37 6437 4.1 70 21:19 16.01.2020
444 Clouds 22 1026 37 6437 1.5 0 20:57 16.01.2020
445 Clouds 21 1028 42 6437 1.5 20 20:38 16.01.2020
446 Haze 20 1028 48 4828 2.6 360 20:19 16.01.2020
447 Haze 19 1028 48 4828 2.6 360 19:56 16.01.2020
448 Haze 20 1028 48 4828 2.6 360 19:37 16.01.2020
449 Haze 20 1028 48 4828 2.6 360 19:19 16.01.2020
450 Haze 19 1029 48 4828 3.1 360 18:55 16.01.2020
451 Haze 18 1030 59 4828 2.1 290 18:37 16.01.2020
452 Haze 18 1030 59 4828 2.1 290 18:18 16.01.2020
453 Haze 17 1030 63 4828 2.6 300 17:42 16.01.2020
454 Clouds 16 1030 67 6437 2.6 130 17:23 16.01.2020
455 Clouds 14 1030 67 6437 2.1 120 16:57 16.01.2020
456 Mist 13 1030 81 4828 3.6 100 16:39 16.01.2020
457 Mist 12 1030 81 4828 3.6 100 16:19 16.01.2020
458 Mist 12 1030 93 3219 2.36 45 15:44 16.01.2020
459 Mist 11 1029 81 4828 2.1 100 15:23 16.01.2020
460 Mist 10 1028 87 4828 3.1 70 14:57 16.01.2020
461 Mist 10 1028 87 4828 3.1 70 14:39 16.01.2020
462 Mist 10 1028 87 4828 3.1 70 14:20 16.01.2020
463 Mist 9 1028 81 6437 3.6 60 13:45 16.01.2020
464 Mist 9 1028 81 6437 3.6 60 13:26 16.01.2020
465 Clouds 9 1027 87 8047 2.6 60 12:47 16.01.2020
466 Clouds 8 1027 87 8047 2.6 60 12:29 16.01.2020
467 Clouds 9 1027 87 8047 2.6 60 12:29 16.01.2020
468 Clouds 9 1027 81 8047 2.6 50 11:59 16.01.2020
469 Clouds 9 1027 81 8047 2.6 50 11:41 16.01.2020
470 Clouds 9 1027 81 8047 2.6 50 11:23 16.01.2020
471 Clouds 10 1028 81 8047 2.1 60 10:55 16.01.2020
472 Clouds 10 1028 81 8047 2.1 60 10:36 16.01.2020
473 Clouds 10 1028 81 8047 2.1 60 10:18 16.01.2020
474 Clouds 11 1028 76 8047 2.6 300 09:42 16.01.2020
475 Clouds 11 1028 76 8047 2.6 300 09:24 16.01.2020
476 Clouds 12 1028 71 9656 4.1 300 08:56 16.01.2020
477 Clouds 12 1028 71 9656 4.1 300 08:36 16.01.2020
478 Clouds 12 1028 71 9656 4.1 300 08:18 16.01.2020
479 Clouds 13 1028 67 12874 4.1 320 07:42 16.01.2020
480 Clouds 13 1028 67 12874 4.1 320 07:23 16.01.2020
481 Clouds 13 1028 62 12874 2.1 80 06:48 16.01.2020
482 Clouds 13 1028 62 12874 2.1 80 06:28 16.01.2020
483 Clouds 13 1028 62 12874 5.1 60 05:46 16.01.2020
484 Clouds 14 1027 63 12874 5.1 60 04:46 16.01.2020
485 Clouds 18 1026 45 12874 2.6 180 03:29 16.01.2020
486 Clouds 20 1025 37 11265 5.1 130 02:45 16.01.2020
487 Clouds 22 1024 33 9656 4.1 120 01:28 16.01.2020
488 Clouds 24 1024 31 9656 2.6 120 00:42 16.01.2020
489 Clouds 24 1024 31 9656 2.6 120 00:22 16.01.2020
490 Clouds 24 1024 28 9656 2.6 100 23:40 15.01.2020
491 Clouds 24 1024 28 9656 2.6 100 23:22 15.01.2020
492 Clouds 24 1024 28 9656 2.6 100 23:21 15.01.2020
493 Clouds 25 1017 28 16093 2.6 150 22:56 15.01.2020
494 Clouds 23 1024 27 11265 4.1 250 22:37 15.01.2020
495 Clouds 23 1025 27 11265 2.1 210 22:18 15.01.2020
496 Clouds 23 1024 27 11265 4.1 250 22:18 15.01.2020
497 Clouds 23 1025 27 11265 2.1 210 21:55 15.01.2020
498 Clouds 23 1025 27 11265 2.1 210 21:36 15.01.2020
499 Clouds 23 1025 27 11265 2.1 210 21:18 15.01.2020
500 Clouds 22 1026 31 9656 2.6 210 20:54 15.01.2020
501 Clouds 21 1027 37 9656 2.1 30 20:36 15.01.2020
502 Clouds 20 1027 37 9656 2.1 30 20:18 15.01.2020
503 Clouds 20 1027 37 9656 2.1 30 20:18 15.01.2020
504 Clouds 20 1028 45 8047 1.5 110 19:54 15.01.2020
505 Clouds 20 1028 45 8047 1.5 110 19:36 15.01.2020
506 Clouds 20 1028 45 8047 1.5 110 19:18 15.01.2020
507 Clouds 19 1029 42 8047 1.5 140 18:55 15.01.2020
508 Clouds 18 1029 52 8047 2.1 316 18:36 15.01.2020
509 Clouds 18 1029 52 8047 2.1 316 18:18 15.01.2020
510 Clouds 15 1029 62 8047 2.6 90 17:40 15.01.2020
511 Clouds 15 1029 62 8047 2.6 90 17:22 15.01.2020
512 Clouds 13 1029 62 8047 2.6 90 16:57 15.01.2020
513 Clouds 10 1029 81 8047 2.6 70 16:38 15.01.2020
514 Clouds 10 1029 81 8047 2.6 70 16:20 15.01.2020
515 Clouds 10 1029 81 8047 2.6 70 16:20 15.01.2020
516 Clouds 10 1029 81 8047 2.6 70 16:20 15.01.2020
517 Clouds 10 1029 81 8047 2.6 70 16:20 15.01.2020
518 Clouds 10 1029 81 8047 2.6 70 16:20 15.01.2020
519 Clouds 9 1029 81 8047 2.6 60 15:43 15.01.2020
520 Clouds 8 1028 81 8047 3.6 60 15:21 15.01.2020
521 Clear 8 1028 81 8047 1.5 90 14:56 15.01.2020
522 Clear 8 1028 81 8047 1.5 90 14:37 15.01.2020
523 Clear 8 1028 81 8047 1.5 90 14:18 15.01.2020
524 Clear 7 1027 76 9656 3.1 80 13:44 15.01.2020
525 Clear 8 1027 76 9656 3.1 80 13:23 15.01.2020
526 Clear 8 1027 81 9656 2.6 60 12:56 15.01.2020
527 Clear 8 1027 81 9656 2.6 60 12:37 15.01.2020
528 Clear 8 1027 81 9656 2.6 60 12:19 15.01.2020
529 Clear 8 1027 76 9656 2.1 70 11:54 15.01.2020
530 Clear 8 1027 76 9656 2.1 70 11:36 15.01.2020
531 Clear 8 1027 76 9656 2.1 70 11:18 15.01.2020
532 Dust 9 1027 81 11265 3.1 70 10:41 15.01.2020
533 Dust 9 1027 81 11265 3.1 70 10:21 15.01.2020
534 Dust 10 1028 67 12874 2.1 100 09:41 15.01.2020
535 Dust 10 1028 67 12874 2.1 100 09:22 15.01.2020
536 Dust 11 1027 62 16093 1.5 80 08:45 15.01.2020
537 Dust 11 1027 62 16093 1.5 80 08:27 15.01.2020
538 Clear 12 1028 62 16093 2.6 70 07:56 15.01.2020
539 Clear 12 1028 62 16093 2.6 70 07:35 15.01.2020
540 Clear 13 1028 59 16093 2.6 50 06:57 15.01.2020
541 Clear 13 1028 59 16093 2.6 50 06:57 15.01.2020
542 Clouds 14 1028 52 16093 2.1 320 06:38 15.01.2020
543 Clouds 15 1028 52 16093 1.5 250 05:43 15.01.2020
544 Clear 16 1026 45 14484 2.6 180 03:35 15.01.2020
545 Clouds 21 1025 37 9656 7.2 130 01:49 15.01.2020
546 Clouds 21 1025 37 9656 7.2 130 01:22 15.01.2020
547 Clouds 22 1025 31 8047 4.1 180 00:38 15.01.2020
548 Clouds 23 1025 31 8047 4.1 180 00:20 15.01.2020
549 Clouds 22 1027 32 12874 5.1 180 23:47 14.01.2020
550 Clouds 23 1027 32 12874 5.1 180 23:28 14.01.2020
551 Clouds 23 1025 25 11265 4.6 140 22:58 14.01.2020
552 Clouds 23 1025 25 11265 4.6 140 22:40 14.01.2020
553 Clouds 23 1025 25 11265 4.6 140 22:19 14.01.2020
554 Clouds 23 1026 28 8047 4.1 90 21:57 14.01.2020
555 Clouds 23 1026 28 8047 4.1 90 21:39 14.01.2020
556 Clouds 23 1026 28 8047 4.1 90 21:19 14.01.2020
557 Clouds 22 1027 31 8047 2.1 150 20:54 14.01.2020
558 Clear 21 1028 35 0 4.02 110 20:36 14.01.2020
559 Clear 21 1028 35 0 4.02 110 20:36 14.01.2020
560 Clouds 19 1031 37 14484 4.6 160 20:18 14.01.2020
561 Clouds 19 1031 37 14484 4.6 160 20:18 14.01.2020
562 Clouds 20 1029 40 8047 2.6 130 19:55 14.01.2020
563 Clouds 20 1029 40 8047 2.6 130 19:36 14.01.2020
564 Clouds 20 1029 40 8047 2.6 130 19:18 14.01.2020
565 Clouds 17 1030 48 8047 1.28 308 18:40 14.01.2020
566 Clouds 17 1030 48 8047 1.28 308 18:20 14.01.2020
567 Clouds 17 1030 48 8047 1.28 308 17:56 14.01.2020
568 Clouds 16 1030 55 8047 2.1 100 17:36 14.01.2020
569 Clouds 16 1030 55 8047 2.1 100 17:18 14.01.2020
570 Clouds 11 1031 62 8047 2.6 90 16:42 14.01.2020
571 Clouds 11 1031 62 8047 2.6 90 16:22 14.01.2020
572 Clouds 7 1030 76 9656 2.1 90 15:56 14.01.2020
573 Clouds 7 1030 76 9656 2.1 90 15:38 14.01.2020
574 Clouds 7 1030 76 9656 2.1 90 15:19 14.01.2020
575 Clouds 7 1030 76 9656 2.1 90 15:19 14.01.2020
576 Clear 7 1029 81 11265 1.5 80 14:43 14.01.2020
577 Clear 7 1029 81 11265 1.5 80 14:20 14.01.2020
578 Clear 6 1028 87 12874 2.6 80 13:55 14.01.2020
579 Clear 6 1028 87 12874 2.6 80 13:37 14.01.2020
580 Clear 6 1028 87 12874 2.6 80 13:18 14.01.2020
581 Clear 7 1028 71 12874 2.1 50 12:41 14.01.2020
582 Clear 8 1028 71 12874 2.1 50 12:20 14.01.2020
583 Clear 9 1028 71 12874 1.5 40 11:43 14.01.2020
584 Clear 9 1028 71 12874 1.5 40 11:23 14.01.2020
585 Clear 9 1028 66 12874 1 130 10:59 14.01.2020
586 Clear 10 1028 66 12874 1 130 10:40 14.01.2020
587 Clear 10 1028 66 12874 1 130 10:20 14.01.2020
588 Clear 11 1029 62 12874 1.5 220 09:58 14.01.2020
589 Clear 11 1029 62 12874 1.5 220 09:40 14.01.2020
590 Clear 11 1029 62 12874 1.5 220 09:20 14.01.2020
591 Clear 12 1029 58 12874 2.6 300 08:48 14.01.2020
592 Clear 12 1029 58 12874 2.6 300 08:25 14.01.2020
593 Clear 12 1029 59 12874 3.1 270 07:53 14.01.2020
594 Clear 12 1029 59 12874 3.1 270 07:33 14.01.2020
595 Clear 14 1029 51 12874 2.1 300 06:56 14.01.2020
596 Clear 14 1029 51 12874 2.1 300 06:33 14.01.2020
597 Clouds 14 1029 51 14484 3.1 40 05:27 14.01.2020
598 Clear 17 1028 42 12874 3.1 140 03:52 14.01.2020
599 Clouds 20 1027 40 12874 5.1 120 02:43 14.01.2020
600 Clouds 22 1026 37 11265 4.1 130 01:53 14.01.2020
601 Clouds 23 1026 26 9656 1.95 144 00:51 14.01.2020
602 Clouds 23 1026 26 9656 1.95 144 00:32 14.01.2020
603 Clouds 23 1026 26 9656 1.95 144 00:32 14.01.2020
604 Clouds 24 1026 25 9656 3.1 40 23:55 13.01.2020
605 Clouds 24 1026 25 9656 3.1 40 23:37 13.01.2020
606 Clouds 24 1026 25 9656 3.1 40 23:18 13.01.2020
607 Clouds 24 1026 25 9656 3.1 40 23:18 13.01.2020
608 Clouds 24 1026 27 9656 2.1 100 22:42 13.01.2020
609 Clouds 24 1026 27 9656 2.1 100 22:21 13.01.2020
610 Clear 25 1027 27 9656 2.6 100 21:57 13.01.2020
611 Clear 25 1027 27 9656 2.6 100 21:38 13.01.2020
612 Clear 24 1028 27 9656 2.1 120 21:19 13.01.2020
613 Clear 24 1028 27 9656 2.1 120 20:58 13.01.2020
614 Clouds 23 1029 30 9656 2.6 100 20:40 13.01.2020
615 Clouds 22 1029 30 9656 2.6 100 20:22 13.01.2020
616 Clouds 22 1029 32 9656 2.1 120 19:58 13.01.2020
617 Clouds 21 1030 37 9656 1.98 316 19:39 13.01.2020
618 Clouds 21 1030 37 9656 1.98 316 19:20 13.01.2020
619 Clouds 20 1030 37 9656 2.1 40 18:56 13.01.2020
620 Clouds 20 1030 37 9656 2.1 40 18:37 13.01.2020
621 Clouds 20 1030 37 9656 2.1 40 18:37 13.01.2020
622 Clouds 20 1030 37 9656 2.1 40 18:18 13.01.2020
623 Clouds 17 1031 44 9656 2.6 100 17:42 13.01.2020
624 Clouds 17 1031 44 9656 2.6 100 17:24 13.01.2020
625 Clouds 17 1031 44 9656 2.6 100 17:24 13.01.2020
626 Clear 14 1031 54 11265 2.6 50 16:57 13.01.2020
627 Clear 13 1030 54 0 2.24 50 16:38 13.01.2020
628 Clear 13 1030 54 0 2.24 50 16:20 13.01.2020
629 Clear 10 1029 61 0 2.68 100 15:44 13.01.2020
630 Clear 10 1029 61 0 2.68 100 15:24 13.01.2020
631 Clear 10 1029 61 0 2.68 100 14:58 13.01.2020
632 Clear 8 1029 70 0 2.24 70 14:38 13.01.2020
633 Clouds 8 1029 70 0 2.24 70 14:20 13.01.2020
634 Clouds 10 1028 66 0 1.57 28 13:43 13.01.2020
635 Clouds 13 1020 62 0 1.4 30 13:25 13.01.2020
636 Clouds 13 1020 62 0 1.4 30 12:59 13.01.2020
637 Clouds 13 1020 62 0 1.4 30 12:41 13.01.2020
638 Clouds 13 1020 62 0 1.4 30 12:23 13.01.2020
639 Clouds 6 1027 70 19312 1.5 60 11:57 13.01.2020
640 Clouds 6 1027 70 19312 1.5 60 11:37 13.01.2020
641 Clouds 7 1027 70 19312 1.5 60 11:19 13.01.2020
642 Clouds 7 1027 66 19312 2.6 80 10:56 13.01.2020
643 Clouds 9 1028 58 19312 1.35 10 10:37 13.01.2020
644 Clouds 9 1028 58 19312 1.35 10 10:37 13.01.2020
645 Clouds 9 1028 58 19312 1.35 10 10:19 13.01.2020
646 Clear 9 1028 54 19312 1.35 10 09:43 13.01.2020
647 Clear 9 1028 54 19312 1.35 10 09:24 13.01.2020
648 Clear 10 1028 50 16093 1.5 60 08:56 13.01.2020
649 Clear 11 1029 44 16093 2.6 280 08:36 13.01.2020
650 Clear 11 1029 44 16093 2.6 280 08:18 13.01.2020
651 Clear 12 1029 41 16093 2.1 290 07:42 13.01.2020
652 Clear 12 1029 41 16093 2.1 290 07:21 13.01.2020
653 Clear 13 1029 38 16093 3.6 330 06:37 13.01.2020
654 Clear 14 1028 36 16093 1.5 340 05:37 13.01.2020
655 Clear 15 1028 42 16093 3.1 30 04:56 13.01.2020
656 Clear 16 1027 32 14484 5.1 20 03:41 13.01.2020
657 Clear 19 1025 37 12874 4.1 130 02:50 13.01.2020
658 Clear 19 1025 37 12874 4.1 130 02:30 13.01.2020
659 Clouds 21 1025 21 12874 3.1 80 01:33 13.01.2020
660 Clouds 22 1025 17 12874 3.1 20 00:46 13.01.2020
661 Clouds 22 1025 17 12874 3.1 20 00:26 13.01.2020
662 Clouds 24 1025 17 12874 2.1 120 23:58 12.01.2020
663 Clouds 24 1025 17 12874 2.1 120 23:40 12.01.2020
664 Clouds 24 1025 17 12874 2.1 120 23:21 12.01.2020
665 Clouds 25 1025 17 12874 2.1 110 22:56 12.01.2020
666 Clouds 25 1025 17 12874 2.1 110 22:37 12.01.2020
667 Clouds 24 1025 17 12874 2.1 110 22:18 12.01.2020
668 Clouds 23 1026 20 11265 2.6 140 21:42 12.01.2020
669 Clouds 23 1026 20 11265 2.6 140 21:20 12.01.2020
670 Clouds 23 1028 24 11265 2.47 307 20:59 12.01.2020
671 Clouds 22 1028 24 11265 2.47 307 20:39 12.01.2020
672 Clouds 22 1028 24 11265 1.06 310 20:21 12.01.2020
673 Clouds 21 1028 26 11265 1.06 310 19:57 12.01.2020
674 Clouds 20 1029 34 8047 2.1 150 19:38 12.01.2020
675 Clouds 20 1029 34 8047 2.1 150 19:19 12.01.2020
676 Clouds 19 1030 42 8047 1.06 310 18:58 12.01.2020
677 Clouds 18 1030 42 8047 1.06 310 18:40 12.01.2020
678 Clouds 18 1030 42 8047 1.06 310 18:21 12.01.2020
679 Clouds 16 1030 47 8047 2.1 140 17:58 12.01.2020
680 Clouds 16 1030 47 8047 2.1 140 17:40 12.01.2020
681 Clouds 16 1030 47 8047 2.1 140 17:19 12.01.2020
682 Clouds 13 1030 66 8047 1.5 90 16:56 12.01.2020
683 Clouds 12 1030 66 8047 1.5 90 16:37 12.01.2020
684 Clouds 12 1030 66 8047 1.5 90 16:19 12.01.2020
685 Clouds 9 1031 70 8047 0.44 84 15:43 12.01.2020
686 Clouds 9 1030 80 8047 0.44 84 15:24 12.01.2020
687 Clouds 8 1028 81 9656 2.1 80 14:57 12.01.2020
688 Clouds 9 1028 81 9656 2.1 80 14:38 12.01.2020
689 Clouds 8 1028 81 9656 2.1 80 14:20 12.01.2020
690 Clear 4 1027 87 11265 3.1 60 13:54 12.01.2020
691 Clear 4 1027 87 11265 3.1 60 13:36 12.01.2020
692 Clear 4 1027 87 11265 3.1 60 13:18 12.01.2020
693 Clear 6 1027 75 11265 2.6 80 12:42 12.01.2020
694 Clear 6 1027 75 11265 2.6 80 12:20 12.01.2020
695 Clear 6 1026 75 11265 3.1 60 11:58 12.01.2020
696 Clear 6 1026 75 11265 3.1 60 11:39 12.01.2020
697 Clear 6 1026 75 11265 3.1 60 11:20 12.01.2020
698 Clouds 8 1026 66 11265 4.1 80 10:41 12.01.2020
699 Clouds 8 1026 66 11265 4.1 80 10:22 12.01.2020
700 Clear 8 1027 57 12874 3.1 90 09:57 12.01.2020
701 Clear 8 1027 57 12874 3.1 90 09:38 12.01.2020
702 Clear 8 1027 57 12874 3.1 90 09:19 12.01.2020
703 Clear 9 1027 54 12874 2.1 100 08:45 12.01.2020
704 Clear 10 1027 50 12874 2.6 300 08:20 12.01.2020
705 Clear 11 1027 47 12874 3.6 300 07:41 12.01.2020
706 Clear 11 1027 47 12874 3.6 300 07:41 12.01.2020
707 Clear 12 1027 47 12874 3.6 300 07:23 12.01.2020
708 Clear 13 1027 41 12874 4.1 300 06:48 12.01.2020
709 Clear 13 1027 41 12874 4.1 300 06:30 12.01.2020
710 Clear 14 1026 36 12874 3.6 310 05:32 12.01.2020
711 Clear 14 1026 36 16093 3.1 360 04:30 12.01.2020
712 Clear 16 1025 43 16093 2.1 150 03:25 12.01.2020
713 Clouds 20 1024 32 16093 5.1 140 02:34 12.01.2020
714 Clouds 22 1024 22 14484 3.1 100 01:51 12.01.2020
715 Clouds 22 1024 22 14484 3.1 100 01:29 12.01.2020
716 Clouds 24 1023 19 12874 2.1 120 00:41 12.01.2020
717 Clouds 24 1023 19 12874 2.1 120 00:20 12.01.2020
718 Clouds 24 1024 18 12874 2.1 90 23:42 11.01.2020
719 Clouds 24 1024 18 12874 2.1 90 23:42 11.01.2020
720 Clouds 24 1024 18 12874 2.1 90 23:42 11.01.2020
721 Clouds 24 1024 18 12874 2.1 90 23:20 11.01.2020
722 Clouds 24 1024 21 12874 4.1 130 22:59 11.01.2020
723 Clouds 24 1024 21 12874 4.1 130 22:41 11.01.2020
724 Clouds 24 1024 21 12874 4.1 130 22:20 11.01.2020
725 Clouds 24 1025 20 11265 1.5 140 21:58 11.01.2020
726 Clouds 24 1025 20 11265 1.5 140 21:40 11.01.2020
727 Clouds 24 1025 20 11265 1.5 140 21:18 11.01.2020
728 Clear 23 1027 20 11265 2.1 60 20:41 11.01.2020
729 Clear 22 1027 27 11265 2.1 60 20:22 11.01.2020
730 Clouds 22 1028 28 11265 2.42 343 19:58 11.01.2020
731 Clouds 21 1028 28 11265 2.42 343 19:39 11.01.2020
732 Clouds 21 1028 28 11265 2.42 343 19:21 11.01.2020
733 Clouds 20 1030 33 9656 1.5 200 18:59 11.01.2020
734 Clouds 19 1029 29 11265 2.1 340 18:39 11.01.2020
735 Clouds 19 1029 29 11265 2.1 340 18:20 11.01.2020
736 Clouds 18 1030 36 12874 2.42 343 17:57 11.01.2020
737 Clouds 18 1030 36 12874 2.42 343 17:57 11.01.2020
738 Clouds 17 1030 36 12874 2.42 343 17:39 11.01.2020
739 Clouds 17 1030 36 12874 0.96 324 17:19 11.01.2020
740 Clouds 13 1031 70 8047 1.5 110 16:45 11.01.2020
741 Clouds 12 1030 46 14484 2.1 110 16:27 11.01.2020
742 Clouds 10 1031 34 8047 2.1 80 15:59 11.01.2020
743 Clouds 9 1029 34 16093 3.1 90 15:41 11.01.2020
744 Clouds 9 1029 34 16093 3.1 90 15:22 11.01.2020
745 Clouds 8 1028 53 16093 1.5 290 14:57 11.01.2020
746 Clouds 8 1028 53 16093 1.5 290 14:38 11.01.2020
747 Clouds 6 1027 57 16093 2.1 320 14:20 11.01.2020
748 Clouds 6 1027 57 16093 2.1 320 13:40 11.01.2020
749 Clouds 6 1027 57 16093 2.1 320 13:20 11.01.2020
750 Clouds 6 1027 57 19312 2.1 360 12:58 11.01.2020
751 Clouds 5 1027 57 19312 2.1 360 12:40 11.01.2020
752 Clouds 5 1027 57 19312 2.1 360 12:21 11.01.2020
753 Clouds 4 1026 57 19312 1.5 80 11:48 11.01.2020
754 Clouds 4 1026 57 19312 1.5 80 11:26 11.01.2020
755 Clouds 3 1026 57 19312 1.63 115 10:51 11.01.2020
756 Clear 5 1027 50 19312 1.5 250 10:30 11.01.2020
757 Dust 8 1027 50 19312 1.5 230 09:58 11.01.2020
758 Dust 8 1027 50 19312 1.5 230 09:38 11.01.2020
759 Dust 8 1027 50 19312 1.5 230 09:20 11.01.2020
760 Dust 9 1027 46 19312 1.63 115 08:42 11.01.2020
761 Dust 9 1027 46 19312 1.35 134 08:21 11.01.2020
762 Clouds 12 1027 44 19312 1.5 230 07:44 11.01.2020
763 Clouds 12 1027 44 19312 1.5 230 07:25 11.01.2020
764 Clouds 13 1027 41 16093 2.1 240 06:50 11.01.2020
765 Clear 13 1027 38 16093 1.21 123 05:40 11.01.2020
766 Clear 14 1026 36 16093 2.1 160 04:46 11.01.2020
767 Clear 14 1026 36 16093 2.1 160 04:27 11.01.2020
768 Clouds 19 1024 29 14484 4.1 140 02:49 11.01.2020
769 Clouds 19 1024 29 14484 4.1 140 02:20 11.01.2020
770 Clouds 21 1024 24 14484 4.6 150 01:42 11.01.2020
771 Clouds 22 1024 24 14484 4.6 150 01:18 11.01.2020
772 Clouds 23 1023 20 14484 3.1 180 00:38 11.01.2020
773 Clouds 24 1023 20 16093 4.6 180 23:59 10.01.2020
774 Clouds 24 1023 20 16093 4.6 180 23:40 10.01.2020
775 Clouds 24 1023 20 16093 4.6 180 23:21 10.01.2020
776 Clear 24 1023 17 16093 6.7 150 22:57 10.01.2020
777 Clear 24 1023 17 16093 6.7 150 22:39 10.01.2020
778 Clear 24 1023 17 16093 6.7 150 22:20 10.01.2020
779 Clear 24 1024 19 16093 2.6 220 21:56 10.01.2020
780 Clear 24 1024 19 16093 2.6 220 21:36 10.01.2020
781 Clear 24 1024 19 16093 2.6 220 21:18 10.01.2020
782 Clear 23 1024 20 16093 3.1 220 20:43 10.01.2020
783 Clear 23 1024 20 16093 3.1 220 20:43 10.01.2020
784 Clear 22 1025 26 16093 1.15 229 20:24 10.01.2020
785 Clear 21 1026 30 16093 2.1 60 19:56 10.01.2020
786 Clear 21 1026 30 16093 2.1 60 19:37 10.01.2020
787 Clear 21 1026 30 16093 2.1 60 19:19 10.01.2020
788 Clear 20 1026 30 16093 2.1 60 19:19 10.01.2020
789 Clear 18 1028 36 16093 2.1 160 18:42 10.01.2020
790 Clear 18 1028 36 16093 2.1 160 18:19 10.01.2020
791 Clear 17 1030 17 8047 1.15 229 17:57 10.01.2020
792 Clear 14 1029 36 16093 2.1 60 17:39 10.01.2020
793 Clear 16 1029 36 16093 2.1 60 17:20 10.01.2020
794 Clear 14 1031 29 6437 1.5 100 16:56 10.01.2020
795 Clear 14 1031 29 6437 1.5 100 16:37 10.01.2020
796 Clear 14 1031 29 6437 1.5 100 16:19 10.01.2020
797 Clear 9 1031 80 6437 1.5 80 15:56 10.01.2020
798 Clear 8 1028 29 12874 1.5 280 15:36 10.01.2020
799 Clear 8 1028 29 12874 1.5 280 15:18 10.01.2020
800 Clear 8 1027 29 12874 1 50 14:54 10.01.2020
801 Clear 8 1027 29 12874 1 50 14:36 10.01.2020
802 Clear 8 1027 33 12874 1 50 14:18 10.01.2020
803 Clear 4 1027 56 12874 2.6 60 13:42 10.01.2020
804 Clear 4 1027 56 12874 2.6 60 13:23 10.01.2020
805 Clear 4 1026 36 12874 3.6 60 12:58 10.01.2020
806 Clear 4 1026 36 12874 3.6 60 12:39 10.01.2020
807 Clear 4 1026 36 12874 3.6 60 12:39 10.01.2020
808 Clear 4 1026 36 12874 3.6 60 12:19 10.01.2020
809 Clear 5 1026 57 12874 1 230 11:55 10.01.2020
810 Clear 5 1026 57 12874 1 230 11:37 10.01.2020
811 Clear 7 1026 57 12874 1 230 11:18 10.01.2020
812 Clear 5 1026 40 12874 1.5 60 10:44 10.01.2020
813 Clear 5 1026 40 12874 1.5 60 10:24 10.01.2020
814 Clear 6 1026 40 12874 1 50 09:59 10.01.2020
815 Clear 5 1026 40 12874 1 50 09:40 10.01.2020
816 Clear 9 1026 40 12874 2.6 40 09:22 10.01.2020
817 Clear 11 1027 33 12874 3.1 260 08:43 10.01.2020
818 Clear 11 1027 33 12874 3.1 260 08:24 10.01.2020
819 Clear 11 1026 33 12874 2.1 200 07:46 10.01.2020
820 Clear 11 1026 33 12874 2.1 200 07:28 10.01.2020
821 Clear 12 1026 42 12874 3.1 160 06:50 10.01.2020
822 Clear 12 1026 42 12874 3.1 160 06:26 10.01.2020
823 Clouds 13 1027 42 12874 2.6 150 05:51 10.01.2020
824 Clear 16 1026 39 16093 3.1 100 03:46 10.01.2020
825 Clear 16 1026 39 16093 3.1 100 03:27 10.01.2020
826 Clouds 18 1025 39 16093 6.2 120 02:50 10.01.2020
827 Clouds 21 1024 20 14484 5.1 140 01:47 10.01.2020
828 Clouds 21 1024 20 14484 5.1 140 01:47 10.01.2020
829 Clouds 21 1024 18 14484 5.1 140 01:28 10.01.2020
830 Clouds 23 1024 11 11265 2.1 240 00:44 10.01.2020
831 Clouds 23 1024 11 11265 2.1 240 00:19 10.01.2020
832 Clouds 24 1024 9 9656 2.1 200 23:39 09.01.2020
833 Clouds 24 1024 9 9656 2.1 200 23:39 09.01.2020
834 Clouds 24 1024 9 9656 2.1 200 23:20 09.01.2020
835 Clouds 24 1024 14 8047 2.1 320 22:58 09.01.2020
836 Clouds 24 1024 14 8047 2.1 320 22:39 09.01.2020
837 Clouds 24 1024 14 8047 2.1 320 22:39 09.01.2020
838 Clouds 24 1024 14 8047 2.1 320 22:19 09.01.2020
839 Clouds 24 1024 14 8047 2.1 320 22:19 09.01.2020
840 Clouds 24 1026 13 6437 2.1 40 21:57 09.01.2020
841 Clouds 24 1026 13 6437 2.1 40 21:38 09.01.2020
842 Clouds 23 1026 13 6437 2.1 40 21:19 09.01.2020
843 Clear 23 1026 15 6437 2.6 150 20:58 09.01.2020
844 Clear 23 1026 15 6437 2.6 150 20:39 09.01.2020
845 Clear 22 1027 19 8047 3.1 240 20:20 09.01.2020
846 Clouds 21 1027 30 6437 2.1 280 19:57 09.01.2020
847 Clouds 21 1027 30 6437 2.1 280 19:38 09.01.2020
848 Clouds 21 1028 30 8047 2.1 200 19:19 09.01.2020
849 Clouds 18 1030 36 8047 0.57 346 18:55 09.01.2020
850 Clouds 18 1030 36 8047 0.57 346 18:36 09.01.2020
851 Clouds 18 1030 36 8047 0.57 346 18:18 09.01.2020
852 Clouds 15 1030 50 9656 2.1 100 17:41 09.01.2020
853 Clouds 14 1030 50 9656 2.1 100 17:18 09.01.2020
854 Haze 11 1031 65 4828 0.63 138 16:49 09.01.2020
855 Clear 11 1030 61 9656 2.1 60 16:24 09.01.2020
856 Clear 9 1030 61 9656 2.1 70 15:59 09.01.2020
857 Clear 8 1030 61 9656 2.1 70 15:40 09.01.2020
858 Clear 8 1030 61 9656 2.1 70 15:19 09.01.2020
859 Clear 6 1029 42 9656 1.5 90 14:43 09.01.2020
860 Clear 6 1029 49 9656 1.5 90 14:22 09.01.2020
861 Clouds 7 1028 65 9656 0.57 121 13:57 09.01.2020
862 Clouds 7 1028 65 9656 0.57 121 13:39 09.01.2020
863 Clouds 7 1028 65 9656 1.02 112 13:20 09.01.2020
864 Clouds 5 1027 65 11265 1.02 112 12:59 09.01.2020
865 Clouds 5 1027 65 11265 1.02 112 12:40 09.01.2020
866 Clouds 5 1027 65 11265 1.02 112 12:40 09.01.2020
867 Clouds 5 1027 65 11265 1.02 112 12:20 09.01.2020
868 Clouds 4 1027 65 11265 2.1 60 11:57 09.01.2020
869 Clouds 4 1027 65 11265 2.1 60 11:38 09.01.2020
870 Clouds 5 1027 65 11265 2.1 60 11:20 09.01.2020
871 Clouds 7 1028 61 11265 2.1 70 10:43 09.01.2020
872 Clouds 7 1028 61 11265 2.1 70 10:22 09.01.2020
873 Clouds 7 1028 61 11265 2.1 60 09:58 09.01.2020
874 Clouds 5 1028 61 11265 2.1 60 09:38 09.01.2020
875 Dust 8 1029 57 12874 2.1 80 09:19 09.01.2020
876 Clouds 8 1029 57 12874 1.5 70 08:55 09.01.2020
877 Clouds 8 1029 57 12874 1.5 70 08:37 09.01.2020
878 Clouds 8 1029 57 12874 1.5 70 08:19 09.01.2020
879 Clouds 9 1029 58 12874 1.36 32 07:42 09.01.2020
880 Clouds 9 1029 58 12874 1.36 32 07:23 09.01.2020
881 Clear 12 1029 47 12874 3.6 30 06:38 09.01.2020
882 Clear 12 1029 47 12874 3.6 30 06:20 09.01.2020
883 Clear 13 1029 36 12874 3.6 300 05:48 09.01.2020
884 Clear 14 1028 39 16093 3.1 260 04:43 09.01.2020
885 Clear 14 1027 42 16093 4.6 120 03:31 09.01.2020
886 Clouds 17 1026 39 12874 4.1 130 02:52 09.01.2020
887 Clouds 17 1026 39 12874 4.1 130 02:24 09.01.2020
888 Clouds 19 1026 36 12874 7.2 120 01:38 09.01.2020
889 Clear 21 1026 15 8047 2.1 30 00:42 09.01.2020
890 Clear 21 1026 15 8047 2.1 30 00:42 09.01.2020
891 Clear 21 1026 15 8047 2.1 30 00:21 09.01.2020
892 Clear 22 1026 15 8047 1.5 20 23:42 08.01.2020
893 Clear 22 1026 15 8047 1.5 20 23:42 08.01.2020
894 Clear 22 1026 15 8047 1.5 20 23:24 08.01.2020
895 Clear 22 1027 16 8047 1.5 140 22:58 08.01.2020
896 Clear 22 1027 16 8047 1.5 140 22:38 08.01.2020
897 Clear 22 1027 16 8047 1.5 140 22:20 08.01.2020
898 Clear 22 1028 19 6437 1.87 345 21:57 08.01.2020
899 Clear 22 1028 19 6437 1.87 345 21:38 08.01.2020
900 Clear 22 1028 19 6437 1.87 345 21:19 08.01.2020
901 Clear 20 1029 27 6437 2.1 80 20:57 08.01.2020
902 Clear 20 1029 27 6437 2.1 80 20:38 08.01.2020
903 Clear 20 1029 27 6437 2.1 80 20:19 08.01.2020
904 Clear 19 1030 27 6437 2.6 170 19:55 08.01.2020
905 Clear 19 1030 27 6437 2.6 170 19:55 08.01.2020
906 Clear 19 1030 27 6437 2.6 170 19:36 08.01.2020
907 Clear 18 1031 36 6437 0.75 293 19:18 08.01.2020
908 Clear 16 1032 41 6437 2.6 90 18:54 08.01.2020
909 Clear 16 1032 41 6437 2.6 90 18:54 08.01.2020
910 Clear 16 1032 41 6437 2.6 90 18:36 08.01.2020
911 Clear 15 1032 50 6437 2.1 80 18:18 08.01.2020
912 Clear 15 1032 50 6437 2.1 80 18:18 08.01.2020
913 Haze 13 1033 32 4828 2.1 160 17:42 08.01.2020
914 Clear 14 1033 57 8047 1.3 16 17:23 08.01.2020
915 Clear 9 1033 65 9656 2.1 110 16:57 08.01.2020
916 Clear 9 1033 65 9656 2.1 110 16:39 08.01.2020
917 Clear 9 1033 65 9656 2.1 110 16:19 08.01.2020
918 Clear 9 1033 65 9656 2.1 110 16:19 08.01.2020
919 Clear 6 1033 75 9656 1.5 50 15:57 08.01.2020
920 Clear 6 1033 75 9656 1.5 50 15:39 08.01.2020
921 Clear 6 1033 75 9656 1.5 50 15:18 08.01.2020
922 Clear 5 1032 80 11265 1.5 80 14:55 08.01.2020
923 Clear 5 1032 80 11265 1.5 80 14:36 08.01.2020
924 Clear 3 1032 80 11265 1.5 80 14:18 08.01.2020
925 Clear 3 1031 80 12874 3.1 70 13:38 08.01.2020
926 Clear 3 1031 80 12874 3.1 70 13:18 08.01.2020
927 Clear 4 1031 75 12874 2.6 70 12:41 08.01.2020
928 Clear 4 1031 65 12874 1.5 100 12:18 08.01.2020
929 Clear 4 1031 61 12874 1 70 11:55 08.01.2020
930 Clear 4 1031 61 12874 1 70 11:36 08.01.2020
931 Clear 4 1031 59 12874 1 70 11:18 08.01.2020
932 Clouds 7 1031 59 12874 2.1 100 10:41 08.01.2020
933 Clouds 7 1031 59 12874 2.1 100 10:22 08.01.2020
934 Clouds 6 1031 59 12874 2.1 80 09:58 08.01.2020
935 Clouds 6 1031 59 12874 2.1 80 09:38 08.01.2020
936 Clouds 6 1031 59 12874 2.1 80 09:18 08.01.2020
937 Clouds 6 1031 59 12874 2.1 70 08:42 08.01.2020
938 Clouds 6 1031 59 12874 2.1 70 08:24 08.01.2020
939 Clouds 8 1031 55 12874 2.6 280 07:59 08.01.2020
940 Clouds 8 1031 55 12874 2.6 280 07:59 08.01.2020
941 Clouds 8 1031 55 12874 2.6 280 07:59 08.01.2020
942 Clouds 8 1031 55 12874 2.6 280 07:41 08.01.2020
943 Clouds 8 1031 55 12874 2.6 280 07:20 08.01.2020
944 Clouds 10 1031 43 12874 4.1 290 06:44 08.01.2020
945 Clouds 11 1031 55 12874 3.6 290 05:57 08.01.2020
946 Clouds 11 1031 50 12874 3.6 290 05:27 08.01.2020
947 Clouds 12 1031 37 16093 3.42 3 04:37 08.01.2020
948 Clouds 17 1030 21 14484 2.6 360 02:48 08.01.2020
949 Clouds 17 1030 21 14484 2.6 360 02:30 08.01.2020
950 Clouds 19 1029 13 12874 3.1 360 01:58 08.01.2020
951 Clouds 19 1029 13 12874 3.1 360 01:38 08.01.2020
952 Clouds 22 1028 55 12874 3.1 290 00:52 08.01.2020
953 Clouds 21 1028 55 12874 3.1 290 00:24 08.01.2020
954 Clouds 21 1028 10 14484 5.65 10 23:46 07.01.2020
955 Clouds 21 1028 10 14484 3.8 353 23:21 07.01.2020
956 Clouds 21 1028 10 14484 3.8 353 23:21 07.01.2020
957 Clouds 22 1029 10 16093 5.1 350 22:57 07.01.2020
958 Clouds 22 1029 10 16093 5.1 350 22:38 07.01.2020
959 Clouds 22 1029 10 16093 5.1 350 22:19 07.01.2020
960 Clouds 21 1029 11 16093 2.1 330 21:42 07.01.2020
961 Clouds 21 1029 11 16093 2.1 330 21:22 07.01.2020
962 Clouds 21 1029 11 16093 2.1 330 21:22 07.01.2020
963 Clouds 20 1031 9 16093 5.1 60 20:58 07.01.2020
964 Clouds 20 1031 9 16093 5.1 60 20:40 07.01.2020
965 Clouds 19 1031 9 16093 5.1 60 20:21 07.01.2020
966 Clouds 19 1032 8 16093 5.1 30 19:57 07.01.2020
967 Clouds 19 1032 8 16093 5.1 30 19:37 07.01.2020
968 Clouds 19 1032 8 16093 5.1 30 19:19 07.01.2020
969 Clouds 18 1033 13 16093 3.6 320 18:56 07.01.2020
970 Clouds 18 1033 13 16093 3.6 320 18:38 07.01.2020
971 Clouds 18 1033 13 16093 3.6 320 18:18 07.01.2020
972 Clear 16 1033 16 16093 4.1 10 17:54 07.01.2020
973 Clear 16 1033 16 16093 4.1 10 17:36 07.01.2020
974 Clear 16 1033 16 16093 4.1 10 17:18 07.01.2020
975 Clear 12 1033 22 16093 2.52 356 16:54 07.01.2020
976 Clear 12 1033 22 16093 2.52 356 16:36 07.01.2020
977 Clear 12 1033 29 16093 2.1 320 16:18 07.01.2020
978 Clear 12 1033 29 16093 2.1 320 16:18 07.01.2020
979 Clear 8 1031 34 16093 2.1 280 15:42 07.01.2020
980 Clear 8 1031 34 16093 2.1 280 15:23 07.01.2020
981 Clear 7 1030 45 12874 2.52 356 14:58 07.01.2020
982 Clear 7 1030 45 12874 2.52 356 14:38 07.01.2020
983 Clear 4 1030 45 12874 1.9 350 14:19 07.01.2020
984 Clear 4 1030 45 12874 1.9 350 14:19 07.01.2020
985 Clear 4 1030 45 12874 2.6 70 13:44 07.01.2020
986 Clear 4 1030 45 12874 2.6 70 13:20 07.01.2020
987 Clear 4 1030 45 12874 2.6 60 12:55 07.01.2020
988 Clear 4 1030 45 12874 2.6 60 12:36 07.01.2020
989 Clear 5 1030 39 12874 2.05 351 12:18 07.01.2020
990 Clouds 5 1029 42 16093 2.05 351 11:41 07.01.2020
991 Clouds 6 1029 42 16093 2.03 7 11:22 07.01.2020
992 Clouds 6 1030 42 16093 2.03 7 10:55 07.01.2020
993 Clouds 6 1030 42 16093 2.03 7 10:37 07.01.2020
994 Clouds 7 1030 39 16093 2.6 60 10:19 07.01.2020
995 Dust 8 1030 37 16093 2.03 7 09:38 07.01.2020
996 Dust 7 1030 37 16093 2.03 7 09:20 07.01.2020
997 Dust 7 1030 37 16093 2.03 7 09:20 07.01.2020
998 Dust 7 1030 25 16093 1.5 70 08:47 07.01.2020
999 Clouds 9 1030 35 16093 2.1 20 08:28 07.01.2020
1000 Clouds 11 1030 20 12874 1.5 260 07:55 07.01.2020
1001 Clouds 11 1030 20 12874 1.5 260 07:35 07.01.2020
1002 Clouds 11 1030 41 12874 2.6 270 06:54 07.01.2020
1003 Clouds 11 1030 41 12874 2.6 270 06:35 07.01.2020
1004 Clouds 12 1029 44 12874 1.24 334 05:58 07.01.2020
1005 Clouds 12 1029 44 12874 1.24 334 05:39 07.01.2020
1006 Clouds 16 1028 32 14484 3.1 110 03:44 07.01.2020
1007 Clouds 19 1027 28 12874 3.6 70 02:38 07.01.2020
1008 Clouds 21 1026 26 9656 4.1 120 01:59 07.01.2020
1009 Clouds 21 1026 26 9656 4.1 120 01:35 07.01.2020
1010 Clouds 24 1025 13 8047 3.1 40 00:51 07.01.2020
1011 Clouds 24 1025 13 8047 3.1 40 00:20 07.01.2020
1012 Clouds 24 1025 13 8047 2.1 70 23:56 06.01.2020
1013 Clouds 24 1025 13 8047 2.1 70 23:37 06.01.2020
1014 Clouds 24 1025 13 8047 2.1 70 23:18 06.01.2020
1015 Clouds 24 1026 15 9656 5.7 360 22:43 06.01.2020
1016 Clouds 24 1026 15 9656 5.7 360 22:24 06.01.2020
1017 Clouds 23 1027 17 9656 2.6 140 21:58 06.01.2020
1018 Clouds 23 1027 17 9656 2.6 140 21:39 06.01.2020
1019 Clouds 23 1027 17 9656 2.6 140 21:20 06.01.2020
1020 Clouds 23 1027 17 9656 2.6 140 21:20 06.01.2020
1021 Clear 22 1028 16 9656 2.15 0 20:57 06.01.2020
1022 Clear 22 1028 16 9656 2.15 0 20:38 06.01.2020
1023 Clear 22 1028 16 9656 0.5 343 20:20 06.01.2020
1024 Clear 20 1030 25 9656 2.1 50 19:56 06.01.2020
1025 Clear 20 1030 25 9656 2.1 50 19:38 06.01.2020
1026 Clear 19 1030 25 9656 2.1 50 19:19 06.01.2020
1027 Clear 18 1031 25 9656 2.1 70 18:47 06.01.2020
1028 Clear 18 1031 25 9656 2.1 70 18:47 06.01.2020
1029 Clear 17 1031 28 11265 0.5 343 18:21 06.01.2020
1030 Clear 15 1031 30 12874 1.5 140 17:58 06.01.2020
1031 Clear 15 1031 30 12874 1.5 140 17:38 06.01.2020
1032 Clear 15 1031 30 12874 1.5 140 17:18 06.01.2020
1033 Clear 11 1031 39 16093 1.5 110 16:44 06.01.2020
1034 Clear 11 1031 39 16093 1.5 110 16:25 06.01.2020
1035 Clear 6 1031 52 16093 2.6 70 15:59 06.01.2020
1036 Clear 6 1031 52 16093 2.6 70 15:38 06.01.2020
1037 Clear 6 1031 52 16093 2.6 70 15:18 06.01.2020
1038 Clear 5 1031 60 12874 2.6 70 14:56 06.01.2020
1039 Clear 5 1031 60 12874 2.6 70 14:37 06.01.2020
1040 Clear 3 1031 48 12874 1.5 100 14:18 06.01.2020
1041 Clear 3 1031 48 12874 1.5 100 14:18 06.01.2020
1042 Clear 4 1030 48 12874 1 50 13:41 06.01.2020
1043 Clear 4 1030 48 12874 1 50 13:22 06.01.2020
1044 Clear 3 1031 33 8047 0.97 20 12:59 06.01.2020
1045 Clear 2 1031 33 8047 0.97 20 12:41 06.01.2020
1046 Clear 3 1031 33 8047 0.97 20 12:20 06.01.2020
1047 Clear 4 1030 52 12874 2.6 60 11:55 06.01.2020
1048 Clear 4 1030 52 12874 2.6 60 11:37 06.01.2020
1049 Clear 4 1030 52 12874 2.6 60 11:18 06.01.2020
1050 Clear 4 1030 52 12874 2.6 60 10:42 06.01.2020
1051 Clear 4 1030 52 12874 2.6 60 10:21 06.01.2020
1052 Clear 6 1031 45 12874 2.1 70 09:42 06.01.2020
1053 Clear 6 1031 45 12874 2.1 70 09:24 06.01.2020
1054 Clear 7 1031 37 12874 3.1 100 08:58 06.01.2020
1055 Clear 7 1031 37 12874 3.1 100 08:38 06.01.2020
1056 Clear 8 1031 37 12874 3.1 100 08:19 06.01.2020
1057 Clear 8 1031 37 12874 2.1 90 07:44 06.01.2020
1058 Clear 11 1031 22 12874 3.1 280 06:55 06.01.2020
1059 Clear 11 1031 22 12874 3.1 280 06:35 06.01.2020
1060 Clear 12 1031 21 12874 1.5 340 05:48 06.01.2020
1061 Clear 13 1031 21 12874 1.5 340 05:24 06.01.2020
1062 Clear 13 1031 17 16093 2.1 360 04:24 06.01.2020
1063 Clear 14 1030 15 16093 2.1 220 03:51 06.01.2020
1064 Clouds 18 1029 9 16093 2.1 20 02:28 06.01.2020
1065 Clouds 21 1028 12 16093 1.5 50 01:53 06.01.2020
1066 Clouds 21 1028 12 16093 1.5 50 01:30 06.01.2020
1067 Clear 22 1028 11 16093 2.1 120 00:46 06.01.2020
1068 Clear 22 1028 11 16093 2.1 120 00:28 06.01.2020
1069 Clear 23 1028 13 16093 3.1 50 23:57 05.01.2020
1070 Clear 23 1028 13 16093 3.1 50 23:57 05.01.2020
1071 Clear 23 1028 13 16093 3.1 50 23:38 05.01.2020
1072 Clear 22 1028 13 16093 3.1 50 23:20 05.01.2020
1073 Clear 22 1029 24 16093 2.1 350 22:40 05.01.2020
1074 Clear 22 1029 24 16093 2.1 350 22:21 05.01.2020
1075 Clear 21 1030 10 16093 2.1 130 21:58 05.01.2020
1076 Clear 20 1030 10 16093 2.1 130 21:40 05.01.2020
1077 Clear 20 1030 10 16093 2.1 130 21:20 05.01.2020
1078 Clear 20 1032 13 16093 2.1 240 20:56 05.01.2020
1079 Clear 19 1032 13 16093 2.1 240 20:38 05.01.2020
1080 Clear 19 1032 13 16093 2.1 240 20:19 05.01.2020
1081 Clear 18 1033 16 16093 2.1 240 19:58 05.01.2020
1082 Clear 18 1033 16 16093 2.1 240 19:38 05.01.2020
1083 Clear 17 1034 21 16093 2.1 310 19:20 05.01.2020
1084 Clear 15 1035 26 16093 1.77 334 18:55 05.01.2020
1085 Clear 15 1035 26 16093 1.77 334 18:37 05.01.2020
1086 Clear 15 1035 26 16093 1.77 334 18:37 05.01.2020
1087 Clear 15 1035 37 16093 1.77 334 18:19 05.01.2020
1088 Clear 12 1036 40 16093 1.77 334 17:57 05.01.2020
1089 Clear 12 1036 40 16093 1.77 334 17:38 05.01.2020
1090 Clear 12 1036 40 16093 1.77 334 17:38 05.01.2020
1091 Clear 11 1036 45 17702 3.1 90 17:19 05.01.2020
1092 Clear 9 1036 56 19312 2.6 70 16:56 05.01.2020
1093 Clear 9 1036 56 19312 2.6 70 16:38 05.01.2020
1094 Clear 9 1036 56 19312 2.6 70 16:19 05.01.2020
1095 Clear 9 1036 56 19312 2.6 70 16:19 05.01.2020
1096 Clear 9 1036 56 19312 2.6 70 16:19 05.01.2020
1097 Clear 5 1035 64 19312 2.6 70 15:38 05.01.2020
1098 Clear 5 1035 64 19312 2.6 70 15:38 05.01.2020
1099 Clear 5 1035 64 19312 2.6 70 15:20 05.01.2020
1100 Clear 4 1034 64 16093 2.6 90 14:55 05.01.2020
1101 Clear 4 1034 64 16093 2.6 90 14:37 05.01.2020
1102 Clear 4 1034 64 16093 2.6 90 14:37 05.01.2020
1103 Clear 1 1034 64 16093 2.6 90 14:19 05.01.2020
1104 Clear 2 1034 69 16093 2.6 80 13:55 05.01.2020
1105 Clear 2 1034 69 16093 2.6 80 13:37 05.01.2020
1106 Clear 2 1034 69 16093 2.6 80 13:18 05.01.2020
1107 Clear 2 1034 69 16093 2.6 80 13:18 05.01.2020
1108 Clear 2 1034 69 16093 2.6 80 13:18 05.01.2020
1109 Clear 2 1034 69 16093 2.6 80 13:18 05.01.2020
1110 Clear 3 1033 64 16093 2.1 80 12:55 05.01.2020
1111 Clear 3 1033 64 16093 2.1 80 12:36 05.01.2020
1112 Clear 3 1033 64 16093 2.1 80 12:36 05.01.2020
1113 Clear 3 1033 64 16093 2.1 80 12:18 05.01.2020
1114 Clear 3 1033 64 16093 3.1 70 11:43 05.01.2020
1115 Clear 3 1033 64 16093 3.1 70 11:43 05.01.2020
1116 Clear 3 1033 64 16093 3.1 70 11:43 05.01.2020
1117 Clear 3 1033 64 16093 3.1 70 11:43 05.01.2020
1118 Clear 3 1033 64 16093 3.1 70 11:43 05.01.2020
1119 Clear 3 1033 64 16093 3.1 70 11:19 05.01.2020
1120 Clear 3 1033 69 16093 3.1 80 10:58 05.01.2020
1121 Clear 3 1033 69 16093 3.1 80 10:57 05.01.2020
1122 Clear 3 1033 69 16093 3.1 80 10:57 05.01.2020
1123 Clear 3 1033 69 16093 3.1 80 10:39 05.01.2020
1124 Clear 3 1033 69 16093 3.1 80 10:39 05.01.2020
1125 Clear 3 1033 69 16093 3.1 80 10:39 05.01.2020
1126 Clear 3 1033 69 16093 3.1 80 10:39 05.01.2020
1127 Clear 3 1033 69 16093 3.1 80 10:38 05.01.2020
1128 Clear 4 1034 60 16093 1.5 60 10:18 05.01.2020
1129 Clear 6 1034 61 16093 1.5 50 09:41 05.01.2020
1130 Clouds 7 1034 57 16093 2.6 280 09:21 05.01.2020
1131 Clouds 8 1034 53 16093 3.1 310 08:49 05.01.2020
1132 Clouds 8 1034 53 16093 3.1 310 08:30 05.01.2020
1133 Clouds 8 1035 52 16093 2.6 310 07:56 05.01.2020
1134 Clouds 8 1035 52 16093 2.6 310 07:37 05.01.2020
1135 Clouds 8 1035 52 16093 2.6 310 07:18 05.01.2020
1136 Clouds 10 1035 46 16093 2.6 30 05:59 05.01.2020
1137 Clouds 10 1035 46 16093 2.6 30 05:30 05.01.2020
1138 Clear 10 1034 40 16093 3.1 40 04:43 05.01.2020
1139 Clouds 11 1033 41 12874 4.1 320 03:52 05.01.2020
1140 Clouds 19 1032 41 11265 4.1 360 02:46 05.01.2020
1141 Clouds 19 1032 41 11265 4.1 360 02:46 05.01.2020
1142 Clouds 17 1032 41 11265 4.1 360 02:22 05.01.2020
1143 Clouds 18 1031 41 9656 4.1 330 01:46 05.01.2020
1144 Clouds 18 1031 41 9656 4.1 330 01:18 05.01.2020
1145 Clouds 21 1030 39 6437 3.1 310 00:41 05.01.2020
1146 Clouds 21 1030 39 6437 3.1 310 00:41 05.01.2020
1147 Clouds 20 1030 39 6437 3.1 310 00:22 05.01.2020
1148 Clouds 20 1030 36 6437 4.1 80 23:59 04.01.2020
1149 Clouds 21 1030 36 6437 4.1 80 23:39 04.01.2020
1150 Clouds 21 1030 36 6437 4.1 80 23:19 04.01.2020
1151 Clouds 21 1030 36 6437 3.1 40 22:39 04.01.2020
1152 Clouds 21 1030 36 6437 3.1 40 22:21 04.01.2020
1153 Clouds 20 1031 39 6437 2.1 30 21:57 04.01.2020
1154 Clouds 20 1031 39 6437 2.1 30 21:38 04.01.2020
1155 Clouds 20 1031 39 6437 2.1 30 21:19 04.01.2020
1156 Clouds 19 1032 41 6437 2.1 30 20:57 04.01.2020
1157 Clouds 19 1032 41 6437 2.1 30 20:38 04.01.2020
1158 Clouds 19 1032 41 6437 2.1 30 20:20 04.01.2020
1159 Clouds 18 1033 41 8047 1.5 0 19:42 04.01.2020
1160 Clouds 18 1033 41 8047 1.5 0 19:42 04.01.2020
1161 Clouds 18 1033 41 8047 1.5 0 19:24 04.01.2020
1162 Clouds 16 1034 50 8047 2.1 100 18:59 04.01.2020
1163 Clouds 16 1034 50 8047 2.1 100 18:40 04.01.2020
1164 Clouds 16 1034 50 8047 2.1 100 18:22 04.01.2020
1165 Clear 13 1035 62 8047 3.6 70 17:59 04.01.2020
1166 Clear 13 1035 62 8047 3.6 70 17:40 04.01.2020
1167 Clear 13 1035 62 8047 3.6 70 17:22 04.01.2020
1168 Clear 12 1034 62 8047 2.1 220 16:54 04.01.2020
1169 Clear 12 1034 62 8047 2.1 220 16:36 04.01.2020
1170 Clouds 10 1034 70 8047 3.1 260 16:18 04.01.2020
1171 Mist 9 1034 64 3219 2.83 2 15:42 04.01.2020
1172 Mist 9 1034 64 3219 2.83 2 15:42 04.01.2020
1173 Clear 8 1033 75 8047 4.1 260 15:20 04.01.2020
1174 Clouds 6 1031 70 11265 1 150 14:58 04.01.2020
1175 Clouds 6 1031 70 11265 1 150 14:40 04.01.2020
1176 Clouds 6 1031 70 11265 1 150 14:20 04.01.2020
1177 Clouds 5 1031 78 11265 2.1 100 13:56 04.01.2020
1178 Clouds 5 1031 78 11265 2.1 100 13:37 04.01.2020
1179 Clouds 5 1031 78 11265 2.1 100 13:37 04.01.2020
1180 Clouds 5 1031 74 11265 2.1 100 13:18 04.01.2020
1181 Clouds 6 1029 74 12874 2.1 70 12:42 04.01.2020
1182 Clouds 6 1029 74 12874 2.1 70 12:20 04.01.2020
1183 Clouds 6 1029 74 12874 1 50 11:59 04.01.2020
1184 Clouds 7 1029 74 12874 1 50 11:40 04.01.2020
1185 Clouds 5 1029 55 12874 1 50 11:19 04.01.2020
1186 Clouds 6 1029 57 12874 2.1 40 10:55 04.01.2020
1187 Clouds 6 1029 57 12874 2.1 40 10:55 04.01.2020
1188 Clouds 6 1029 57 12874 2.1 40 10:37 04.01.2020
1189 Clouds 6 1029 57 12874 2.1 40 10:19 04.01.2020
1190 Clouds 9 1029 54 12874 1 250 09:42 04.01.2020
1191 Clouds 9 1029 54 12874 1 250 09:23 04.01.2020
1192 Clouds 9 1029 54 12874 0.7 15 08:42 04.01.2020
1193 Clouds 9 1029 54 12874 1.27 127 08:21 04.01.2020
1194 Clouds 9 1029 50 12874 1 190 07:44 04.01.2020
1195 Clouds 9 1029 50 12874 1 190 07:26 04.01.2020
1196 Clouds 11 1029 44 12874 2.1 110 06:36 04.01.2020
1197 Clouds 12 1029 41 12874 2.6 80 05:45 04.01.2020
1198 Clouds 12 1028 41 16093 3.1 110 04:47 04.01.2020
1199 Clouds 13 1028 41 16093 3.1 110 04:27 04.01.2020
1200 Clouds 16 1027 36 17702 3.1 150 03:19 04.01.2020
1201 Clouds 17 1026 35 17702 5.1 130 02:23 04.01.2020
1202 Clouds 18 1025 31 17702 7.2 120 01:57 04.01.2020
1203 Clouds 18 1025 31 17702 7.2 120 01:32 04.01.2020
1204 Clouds 21 1024 19 17702 6.2 140 00:50 04.01.2020
1205 Clouds 21 1024 19 17702 6.2 140 00:28 04.01.2020
1206 Clouds 22 1023 18 17702 5.1 110 23:52 03.01.2020
1207 Clouds 22 1023 18 17702 5.1 110 23:27 03.01.2020
1208 Clouds 22 1023 15 17702 3.1 90 22:55 03.01.2020
1209 Clouds 22 1023 15 17702 3.1 90 22:55 03.01.2020
1210 Clouds 22 1023 15 17702 3.1 90 22:36 03.01.2020
1211 Clouds 22 1023 15 17702 3.1 90 22:18 03.01.2020
1212 Clouds 22 1023 10 19312 3.1 140 21:55 03.01.2020
1213 Clouds 21 1023 10 19312 3.1 140 21:37 03.01.2020
1214 Clouds 21 1023 10 19312 3.1 140 21:18 03.01.2020
1215 Clouds 21 1024 14 19312 2.1 90 20:43 03.01.2020
1216 Clouds 21 1024 14 19312 2.1 90 20:19 03.01.2020
1217 Clouds 20 1025 19 19312 2.6 40 19:59 03.01.2020
1218 Clouds 20 1025 19 19312 2.6 40 19:40 03.01.2020
1219 Clouds 20 1025 19 19312 2.6 40 19:22 03.01.2020
1220 Clouds 19 1026 27 19312 2.1 200 18:46 03.01.2020
1221 Clouds 19 1026 27 19312 2.1 200 18:26 03.01.2020
1222 Clouds 19 1026 27 19312 2.1 200 18:26 03.01.2020
1223 Clouds 16 1027 36 19312 1.5 110 17:57 03.01.2020
1224 Clouds 16 1027 36 19312 1.5 110 17:39 03.01.2020
1225 Clouds 15 1027 41 19312 1.5 140 17:19 03.01.2020
1226 Clouds 14 1026 47 19312 2.24 166 16:43 03.01.2020
1227 Clouds 13 1026 47 19312 2.24 166 16:24 03.01.2020
1228 Clouds 11 1022 63 16093 2.24 166 15:58 03.01.2020
1229 Clouds 10 1022 63 16093 2.24 166 15:40 03.01.2020
1230 Clouds 10 1025 50 19312 2.1 250 15:18 03.01.2020
1231 Clouds 10 1024 62 19312 4.1 110 14:39 03.01.2020
1232 Clouds 10 1024 62 19312 4.1 110 14:20 03.01.2020
1233 Clouds 9 1024 70 19312 2.6 140 13:56 03.01.2020
1234 Clouds 9 1024 70 19312 2.6 140 13:37 03.01.2020
1235 Clouds 9 1024 70 19312 2.6 140 13:19 03.01.2020
1236 Clouds 9 1024 70 19312 3.1 250 12:40 03.01.2020
1237 Clouds 9 1024 70 19312 3.1 250 12:21 03.01.2020
1238 Clouds 11 1023 47 19312 3.36 183 11:49 03.01.2020
1239 Clouds 11 1023 47 19312 3.36 183 11:30 03.01.2020
1240 Clouds 12 1022 47 19312 3.64 164 10:48 03.01.2020
1241 Clouds 12 1022 47 19312 3.64 164 10:28 03.01.2020
1242 Clouds 12 1023 50 19312 3.1 130 09:59 03.01.2020
1243 Clouds 12 1023 50 19312 3.1 130 09:41 03.01.2020
1244 Clouds 12 1023 50 19312 3.1 130 09:22 03.01.2020
1245 Clouds 14 1023 51 19312 5.1 150 08:57 03.01.2020
1246 Clouds 14 1023 51 19312 5.1 150 08:39 03.01.2020
1247 Clouds 14 1023 51 19312 5.1 150 08:20 03.01.2020
1248 Clouds 14 1023 51 19312 4.6 170 07:42 03.01.2020
1249 Clouds 14 1023 51 19312 4.6 170 07:19 03.01.2020
1250 Clouds 14 1023 48 19312 4.1 120 06:56 03.01.2020
1251 Clouds 14 1023 48 19312 4.1 120 06:37 03.01.2020
1252 Clouds 14 1023 41 19312 1.5 70 05:48 03.01.2020
1253 Clouds 14 1023 38 16093 2.1 110 04:42 03.01.2020
1254 Clouds 15 1022 33 16093 2.1 340 03:34 03.01.2020
1255 Clouds 17 1021 55 16093 1.5 180 02:47 03.01.2020
1256 Clouds 17 1021 34 16093 4.6 180 01:47 03.01.2020
1257 Clouds 18 1021 34 16093 6.7 210 00:57 03.01.2020
1258 Clouds 19 1021 34 16093 6.7 210 00:33 03.01.2020
1259 Clouds 19 1021 34 16093 6.2 200 23:58 02.01.2020
1260 Clouds 19 1021 34 16093 6.2 200 23:39 02.01.2020
1261 Clouds 18 1021 39 16093 9.8 260 23:19 02.01.2020
1262 Clouds 19 1020 37 16093 7.7 230 22:58 02.01.2020
1263 Clouds 20 1020 37 16093 7.7 230 22:39 02.01.2020
1264 Clouds 20 1020 37 16093 7.7 230 22:19 02.01.2020
1265 Clouds 21 1020 32 19312 6.2 230 21:55 02.01.2020
1266 Clouds 21 1020 32 19312 6.2 230 21:36 02.01.2020
1267 Clouds 21 1020 32 19312 6.2 230 21:18 02.01.2020
1268 Clouds 20 1021 32 19312 6.2 200 20:40 02.01.2020
1269 Clouds 20 1021 32 19312 6.2 200 20:21 02.01.2020
1270 Clouds 20 1022 32 19312 7.2 250 19:56 02.01.2020
1271 Clouds 20 1022 32 19312 7.2 250 19:38 02.01.2020
1272 Clouds 21 1022 32 19312 9.3 160 19:19 02.01.2020
1273 Clouds 20 1023 39 19312 7.2 170 18:59 02.01.2020
1274 Clouds 20 1023 39 19312 7.2 170 18:40 02.01.2020
1275 Clouds 20 1023 39 19312 7.2 170 18:22 02.01.2020
1276 Clouds 20 1023 39 19312 7.2 170 18:22 02.01.2020
1277 Clouds 18 1023 42 19312 7.2 170 17:57 02.01.2020
1278 Clouds 18 1023 42 19312 7.2 170 17:38 02.01.2020
1279 Clouds 18 1023 42 19312 7.2 170 17:19 02.01.2020
1280 Clouds 16 1023 45 19312 7.2 170 16:57 02.01.2020
1281 Clouds 16 1023 45 19312 7.2 170 16:38 02.01.2020
1282 Clouds 16 1023 45 19312 7.2 170 16:38 02.01.2020
1283 Clouds 16 1023 45 19312 7.2 170 16:20 02.01.2020
1284 Clouds 14 1023 54 19312 6.2 170 15:56 02.01.2020
1285 Clouds 14 1023 54 19312 6.2 170 15:37 02.01.2020
1286 Clouds 14 1023 54 19312 6.2 170 15:19 02.01.2020
1287 Clouds 14 1022 54 19312 4.1 170 14:54 02.01.2020
1288 Clouds 14 1022 54 19312 4.1 170 14:36 02.01.2020
1289 Clouds 14 1022 54 19312 4.1 170 14:18 02.01.2020
1290 Clouds 12 1022 54 19312 5.1 160 13:47 02.01.2020
1291 Clouds 12 1022 54 19312 5.1 160 13:29 02.01.2020
1292 Clouds 13 1022 62 19312 3.6 140 12:44 02.01.2020
1293 Clouds 13 1022 58 19312 5.1 130 12:24 02.01.2020
1294 Clouds 13 1022 58 19312 5.1 130 11:43 02.01.2020
1295 Clouds 13 1022 58 19312 5.1 130 11:25 02.01.2020
1296 Clouds 12 1023 67 19312 3.1 120 10:57 02.01.2020
1297 Clouds 12 1023 67 19312 3.1 120 10:37 02.01.2020
1298 Clouds 12 1023 67 19312 3.1 120 10:18 02.01.2020
1299 Clouds 13 1023 62 19312 5.1 100 09:41 02.01.2020
1300 Clouds 13 1023 62 19312 5.1 100 09:22 02.01.2020
1301 Clouds 12 1023 58 19312 4.6 110 08:44 02.01.2020
1302 Clouds 12 1023 58 19312 4.6 110 08:25 02.01.2020
1303 Clouds 14 1024 55 19312 5.1 130 07:48 02.01.2020
1304 Clouds 14 1024 55 19312 5.1 130 07:28 02.01.2020
1305 Clouds 13 1024 55 19312 5.1 160 06:43 02.01.2020
1306 Clouds 14 1024 48 19312 5.1 200 05:58 02.01.2020
1307 Clouds 15 1024 51 19312 5.1 200 04:38 02.01.2020
1308 Clouds 15 1024 51 19312 5.1 200 04:19 02.01.2020
1309 Clouds 19 1023 45 19312 7.2 160 02:25 02.01.2020
1310 Clouds 20 1022 40 19312 7.7 160 01:57 02.01.2020
1311 Clouds 21 1022 40 19312 7.7 160 01:32 02.01.2020
1312 Dust 22 1021 35 19312 7.7 180 00:52 02.01.2020
1313 Dust 22 1021 35 19312 7.7 180 00:28 02.01.2020
1314 Dust 23 1021 33 19312 9.3 160 23:47 01.01.2020
1315 Dust 22 1021 33 19312 9.3 160 23:24 01.01.2020
1316 Dust 24 1021 31 19312 9.3 150 22:54 01.01.2020
1317 Dust 24 1021 31 19312 9.3 150 22:36 01.01.2020
1318 Dust 23 1021 31 19312 9.3 150 22:18 01.01.2020
1319 Dust 24 1021 29 19312 8.2 150 21:42 01.01.2020
1320 Dust 24 1021 29 19312 8.2 150 21:21 01.01.2020
1321 Clouds 23 1023 27 19312 7.7 170 20:58 01.01.2020
1322 Clouds 23 1023 27 19312 7.7 170 20:39 01.01.2020
1323 Clouds 23 1023 27 19312 7.7 170 20:20 01.01.2020
1324 Clouds 23 1023 27 19312 4.1 200 19:57 01.01.2020
1325 Clouds 23 1023 27 19312 4.1 200 19:39 01.01.2020
1326 Clouds 22 1024 33 19312 7.2 120 19:20 01.01.2020
1327 Clear 21 1025 28 19312 6.2 150 18:57 01.01.2020
1328 Clear 21 1025 28 19312 6.2 150 18:38 01.01.2020
1329 Clear 21 1025 28 19312 6.2 150 18:20 01.01.2020
1330 Clear 21 1026 32 16093 4.6 120 17:58 01.01.2020
1331 Clear 20 1026 32 16093 4.6 120 17:40 01.01.2020
1332 Clear 18 1026 42 16093 2.1 120 17:20 01.01.2020
1333 Clear 16 1026 42 16093 2.1 230 16:57 01.01.2020
1334 Clear 16 1026 42 16093 2.1 230 16:38 01.01.2020
1335 Clear 16 1026 42 16093 2.1 230 16:38 01.01.2020
1336 Clear 15 1026 48 12874 1.5 180 16:19 01.01.2020
1337 Clear 11 1025 58 12874 3.1 150 15:56 01.01.2020
1338 Clear 12 1025 58 12874 3.1 150 15:37 01.01.2020
1339 Clear 12 1025 58 12874 3.1 150 15:19 01.01.2020
1340 Clear 11 1025 58 12874 2.6 180 14:42 01.01.2020
1341 Clear 11 1025 62 8047 2.12 161 14:24 01.01.2020
1342 Clear 9 1025 62 8047 2.12 161 13:57 01.01.2020
1343 Clear 9 1025 62 8047 2.12 161 13:38 01.01.2020
1344 Clear 9 1025 62 8047 2.24 162 13:20 01.01.2020
1345 Clear 10 1025 62 8047 1.5 320 12:58 01.01.2020
1346 Clear 10 1025 62 8047 1.5 320 12:40 01.01.2020
1347 Clear 10 1025 62 8047 1.5 320 12:19 01.01.2020
1348 Clear 10 1025 62 8047 1.5 320 12:19 01.01.2020
1349 Smoke 10 1025 67 8047 1.5 130 11:56 01.01.2020
1350 Smoke 11 1025 67 8047 1.5 130 11:38 01.01.2020
1351 Smoke 11 1025 67 8047 1.5 130 11:19 01.01.2020
1352 Smoke 11 1026 62 8047 2.38 151 10:54 01.01.2020
1353 Smoke 11 1026 62 8047 2.38 151 10:36 01.01.2020
1354 Smoke 11 1026 62 8047 2.38 151 10:18 01.01.2020
1355 Smoke 11 1026 62 9656 2.38 151 09:39 01.01.2020
1356 Smoke 11 1026 62 9656 2.38 151 09:20 01.01.2020
1357 Smoke 11 1026 58 9656 2.38 151 08:57 01.01.2020
1358 Smoke 11 1026 58 9656 2.83 161 08:37 01.01.2020
1359 Smoke 11 1026 58 9656 2.83 161 08:37 01.01.2020
1360 Smoke 12 1026 58 9656 2.95 150 08:19 01.01.2020
1361 Clouds 12 1027 55 11265 2.95 150 07:56 01.01.2020
1362 Clouds 12 1027 55 11265 2.95 150 07:38 01.01.2020
1363 Clear 13 1027 48 12874 2.1 200 06:46 01.01.2020
1364 Clear 13 1027 48 12874 2.1 200 06:22 01.01.2020
1365 Clear 14 1027 51 12874 4.1 140 05:46 01.01.2020
1366 Clear 15 1026 51 16093 5.1 50 03:48 01.01.2020
1367 Clear 15 1025 39 17702 2.1 160 03:28 01.01.2020
1368 Clouds 20 1025 40 17702 2.1 230 02:59 01.01.2020
1369 Clouds 20 1025 40 17702 2.1 230 02:41 01.01.2020
1370 Clouds 20 1025 40 17702 2.1 230 02:21 01.01.2020
1371 Clouds 22 1024 27 16093 2.6 170 01:40 01.01.2020
1372 Clouds 22 1024 27 16093 2.6 170 01:21 01.01.2020
1373 Clouds 24 1026 23 12874 6.2 280 00:44 01.01.2020
1374 Clouds 24 1026 23 12874 6.2 280 00:44 01.01.2020
1375 Clouds 25 1023 23 16093 2.1 160 00:26 01.01.2020
1376 Clouds 24 1023 23 16093 2.6 100 23:43 31.12.2019
1377 Clouds 24 1023 23 16093 2.6 100 23:24 31.12.2019
1378 Clouds 25 1024 19 16093 2.1 200 22:59 31.12.2019
1379 Clouds 25 1024 19 16093 2.1 200 22:39 31.12.2019
1380 Clouds 25 1024 19 16093 2.1 200 22:20 31.12.2019
1381 Clear 24 1025 22 16093 1.5 200 21:59 31.12.2019
1382 Clear 24 1025 22 16093 1.5 200 21:41 31.12.2019
1383 Clear 24 1025 22 16093 1.5 200 21:23 31.12.2019
1384 Clear 23 1026 26 16093 1 90 20:57 31.12.2019
1385 Clear 23 1026 26 16093 1 90 20:37 31.12.2019
1386 Clear 23 1026 26 16093 1 90 20:19 31.12.2019
1387 Clear 21 1028 32 16093 2.6 100 19:55 31.12.2019
1388 Clear 21 1028 32 16093 2.6 100 19:37 31.12.2019
1389 Clear 21 1028 32 16093 2.6 100 19:18 31.12.2019
1390 Clear 21 1028 37 16093 1.5 100 18:54 31.12.2019
1391 Clear 21 1028 37 16093 1.5 100 18:54 31.12.2019
1392 Clear 21 1028 37 16093 1.5 100 18:36 31.12.2019
1393 Clear 20 1029 42 12874 1.5 180 18:18 31.12.2019
1394 Clear 18 1031 51 9656 4.6 170 17:55 31.12.2019
1395 Clear 17 1029 51 9656 1.5 100 17:36 31.12.2019
1396 Clear 17 1029 51 9656 1.5 100 17:18 31.12.2019
1397 Clear 17 1029 51 9656 1.5 100 17:18 31.12.2019
1398 Clear 15 1029 54 9656 1 153 16:55 31.12.2019
1399 Clear 15 1029 54 9656 1 153 16:36 31.12.2019
1400 Clear 14 1029 62 11265 1 153 16:18 31.12.2019
1401 Clouds 10 1028 71 11265 1.5 120 15:55 31.12.2019
1402 Clouds 10 1028 71 11265 1.5 120 15:37 31.12.2019
1403 Clouds 10 1028 71 11265 1.5 120 15:18 31.12.2019
1404 Clouds 10 1028 71 11265 1.5 120 15:18 31.12.2019
1405 Clouds 10 1027 76 11265 1.5 130 14:55 31.12.2019
1406 Clouds 10 1027 76 11265 1.5 130 14:36 31.12.2019
1407 Clouds 9 1027 87 14484 1.5 50 14:18 31.12.2019
1408 Clouds 6 1026 81 16093 2.6 50 13:54 31.12.2019
1409 Clouds 6 1026 81 16093 2.6 50 13:36 31.12.2019
1410 Clouds 6 1026 81 16093 2.6 50 13:18 31.12.2019
1411 Clear 7 1026 76 16093 1.4 153 12:40 31.12.2019
1412 Clear 7 1026 76 16093 1.4 153 12:40 31.12.2019
1413 Clear 7 1026 76 16093 1.4 153 12:21 31.12.2019
1414 Clear 6 1025 87 16093 1.5 50 11:57 31.12.2019
1415 Clear 6 1025 87 16093 1.5 50 11:39 31.12.2019
1416 Clear 6 1025 87 16093 1.5 50 11:21 31.12.2019
1417 Clear 6 1025 71 16093 1 80 10:58 31.12.2019
1418 Clear 5 1025 71 16093 1 80 10:39 31.12.2019
1419 Clear 5 1025 71 16093 1 80 10:20 31.12.2019
1420 Clear 7 1026 58 16093 1.5 160 09:59 31.12.2019
1421 Clear 10 1026 58 16093 1.5 160 09:40 31.12.2019
1422 Clear 10 1026 58 16093 1.5 160 09:21 31.12.2019
1423 Clear 11 1026 54 16093 1.5 180 08:58 31.12.2019
1424 Clear 11 1026 54 16093 1.5 180 08:39 31.12.2019
1425 Clear 12 1026 54 16093 1.5 180 08:20 31.12.2019
1426 Clear 12 1026 54 16093 1.5 140 07:44 31.12.2019
1427 Clear 12 1026 54 16093 1.5 140 07:22 31.12.2019
1428 Clear 13 1027 51 16093 2.6 170 06:51 31.12.2019
1429 Clear 14 1026 48 16093 4.1 130 05:59 31.12.2019
1430 Clear 14 1026 48 19312 3.1 120 04:54 31.12.2019
1431 Clear 14 1026 48 19312 3.1 120 04:21 31.12.2019
1432 Clouds 19 1024 42 19312 3.1 180 02:56 31.12.2019
1433 Clouds 19 1024 42 19312 3.1 180 02:19 31.12.2019
1434 Clouds 21 1023 40 19312 5.1 200 01:48 31.12.2019
1435 Clouds 21 1023 30 19312 4.1 240 01:29 31.12.2019
1436 Clouds 24 1022 27 17702 7.2 240 00:48 31.12.2019
1437 Clouds 23 1022 27 17702 7.2 240 00:23 31.12.2019
1438 Clouds 23 1022 27 17702 7.2 240 00:23 31.12.2019
1439 Dust 24 1022 23 17702 7.2 270 23:58 30.12.2019
1440 Dust 24 1022 23 17702 7.2 270 23:38 30.12.2019
1441 Dust 24 1022 23 17702 7.2 270 23:20 30.12.2019
1442 Dust 23 1022 27 17702 6.2 280 22:58 30.12.2019
1443 Dust 23 1022 27 17702 6.2 280 22:40 30.12.2019
1444 Dust 23 1022 27 17702 6.2 280 22:20 30.12.2019
1445 Clouds 24 1022 25 16093 6.7 280 21:57 30.12.2019
1446 Clouds 24 1022 25 16093 6.7 280 21:39 30.12.2019
1447 Clouds 24 1022 25 16093 6.7 280 21:19 30.12.2019
1448 Clouds 23 1024 28 19312 2.1 160 20:57 30.12.2019
1449 Clouds 23 1024 28 19312 2.1 160 20:39 30.12.2019
1450 Clouds 23 1024 28 19312 2.1 160 20:20 30.12.2019
1451 Clouds 22 1025 30 19312 2.1 170 19:58 30.12.2019
1452 Clouds 22 1025 30 19312 2.1 170 19:38 30.12.2019
1453 Clouds 22 1025 30 19312 2.1 170 19:19 30.12.2019
1454 Clear 21 1026 35 16093 3.11 178 18:57 30.12.2019
1455 Clear 21 1026 35 16093 3.11 178 18:38 30.12.2019
1456 Clear 21 1026 35 16093 3.11 178 18:38 30.12.2019
1457 Clear 21 1026 35 16093 3.11 178 18:20 30.12.2019
1458 Clear 21 1026 35 16093 3.11 178 18:20 30.12.2019
1459 Clear 19 1026 37 16093 2.1 110 17:55 30.12.2019
1460 Clear 18 1026 37 16093 2.1 110 17:37 30.12.2019
1461 Clear 18 1027 42 16093 1.38 163 17:18 30.12.2019
1462 Clear 15 1026 51 16093 1.5 240 16:57 30.12.2019
1463 Clear 15 1026 51 16093 1.5 240 16:36 30.12.2019
1464 Clear 15 1026 51 16093 1.5 240 16:36 30.12.2019
1465 Clear 15 1026 51 16093 1.5 240 16:18 30.12.2019
1466 Clear 11 1026 58 16093 1.38 163 15:55 30.12.2019
1467 Clear 11 1026 58 16093 1.38 163 15:36 30.12.2019
1468 Clear 11 1026 58 16093 1.38 163 15:18 30.12.2019
1469 Clear 9 1025 66 16093 3.1 110 14:42 30.12.2019
1470 Clear 9 1025 66 16093 3.1 110 14:19 30.12.2019
1471 Clear 8 1025 62 16093 1.5 80 13:56 30.12.2019
1472 Clear 8 1025 62 16093 1.5 80 13:37 30.12.2019
1473 Clear 8 1025 62 16093 1.5 80 13:19 30.12.2019
1474 Clear 8 1025 66 19312 1.5 40 12:43 30.12.2019
1475 Clear 8 1025 66 19312 1.5 40 12:20 30.12.2019
1476 Clear 9 1025 62 19312 0.85 102 11:59 30.12.2019
1477 Clear 9 1025 62 19312 0.85 102 11:40 30.12.2019
1478 Clear 9 1025 62 19312 0.51 64 11:19 30.12.2019
1479 Clear 10 1025 58 19312 0.51 64 10:44 30.12.2019
1480 Clear 9 1025 58 19312 0.51 64 10:22 30.12.2019
1481 Clouds 10 1025 54 19312 1.5 60 09:58 30.12.2019
1482 Clouds 10 1025 54 19312 1.5 60 09:40 30.12.2019
1483 Clouds 10 1025 54 19312 1.5 60 09:20 30.12.2019
1484 Clouds 10 1025 54 19312 1.5 80 08:50 30.12.2019
1485 Clouds 10 1025 54 19312 1.5 80 08:23 30.12.2019
1486 Clouds 12 1026 48 19312 3.1 40 07:56 30.12.2019
1487 Clouds 12 1026 48 19312 3.1 40 07:37 30.12.2019
1488 Clouds 14 1026 48 19312 2.1 310 06:52 30.12.2019
1489 Clouds 14 1026 45 17702 3.1 30 04:58 30.12.2019
1490 Clouds 15 1025 45 17702 3.1 290 03:57 30.12.2019
1491 Clouds 17 1024 48 17702 3.1 160 02:58 30.12.2019
1492 Clouds 17 1024 48 17702 3.1 160 02:40 30.12.2019
1493 Clouds 19 1024 45 16093 4.1 100 01:50 30.12.2019
1494 Clouds 19 1024 45 16093 4.1 100 01:21 30.12.2019
1495 Clouds 20 1023 42 16093 6.2 120 00:44 30.12.2019
1496 Clouds 20 1023 42 16093 6.2 120 00:19 30.12.2019
1497 Clouds 21 1023 34 16093 4.1 300 23:39 29.12.2019
1498 Clouds 21 1023 34 16093 4.1 300 23:39 29.12.2019
1499 Clouds 21 1023 34 16093 4.1 300 23:21 29.12.2019
1500 Clouds 21 1023 32 14484 5.1 350 22:54 29.12.2019
1501 Clouds 21 1023 32 14484 5.1 350 22:36 29.12.2019
1502 Clouds 21 1023 32 14484 5.1 350 22:36 29.12.2019
1503 Clouds 21 1023 32 14484 5.1 350 22:18 29.12.2019
1504 Clouds 21 1023 30 12874 4.1 270 21:42 29.12.2019
1505 Clouds 21 1023 30 12874 4.1 270 21:21 29.12.2019
1506 Clouds 21 1025 28 12874 3.6 100 20:57 29.12.2019
1507 Clouds 21 1025 28 12874 3.6 100 20:39 29.12.2019
1508 Clouds 21 1025 28 12874 3.6 100 20:20 29.12.2019
1509 Clouds 21 1025 28 12874 3.6 100 20:20 29.12.2019
1510 Clouds 21 1025 28 12874 3.6 100 20:20 29.12.2019
1511 Clouds 19 1026 36 12874 3.1 70 19:59 29.12.2019
1512 Clouds 19 1026 36 12874 3.1 70 19:40 29.12.2019
1513 Clouds 19 1026 36 12874 3.1 70 19:21 29.12.2019
1514 Clouds 18 1027 42 12874 3.1 80 18:57 29.12.2019
1515 Clouds 18 1027 42 12874 3.1 80 18:38 29.12.2019
1516 Clouds 18 1027 42 12874 3.1 80 18:19 29.12.2019
1517 Clouds 16 1027 48 12874 2.1 80 17:58 29.12.2019
1518 Clouds 16 1027 48 12874 2.1 80 17:39 29.12.2019
1519 Clouds 15 1027 62 14484 3.1 80 17:20 29.12.2019
1520 Clouds 12 1026 71 14484 2.1 80 16:56 29.12.2019
1521 Clouds 12 1026 71 14484 2.1 80 16:37 29.12.2019
1522 Clouds 12 1026 71 14484 2.1 80 16:19 29.12.2019
1523 Clouds 10 1025 66 14484 2.6 70 15:57 29.12.2019
1524 Clouds 10 1025 66 14484 2.6 70 15:38 29.12.2019
1525 Clouds 10 1025 66 14484 2.6 70 15:19 29.12.2019
1526 Clouds 10 1025 62 14484 2.1 240 14:56 29.12.2019
1527 Clouds 10 1025 62 14484 2.1 240 14:38 29.12.2019
1528 Clouds 10 1025 62 14484 2.1 240 14:18 29.12.2019
1529 Clouds 7 1024 71 12874 1.36 164 13:57 29.12.2019
1530 Clouds 7 1024 71 12874 1.36 164 13:37 29.12.2019
1531 Clouds 7 1024 71 12874 1.36 164 13:37 29.12.2019
1532 Clouds 7 1024 71 12874 1.55 169 13:19 29.12.2019
1533 Clouds 9 1024 66 12874 2.6 220 12:45 29.12.2019
1534 Clouds 9 1024 66 12874 2.6 220 12:26 29.12.2019
1535 Clouds 9 1024 66 12874 1 180 11:57 29.12.2019
1536 Clouds 9 1024 66 12874 1 180 11:38 29.12.2019
1537 Clouds 9 1024 66 12874 1 180 11:20 29.12.2019
1538 Clouds 9 1024 62 12874 1.95 162 10:43 29.12.2019
1539 Clouds 8 1024 62 12874 1.95 162 10:24 29.12.2019
1540 Clouds 9 1025 62 12874 2.6 230 09:58 29.12.2019
1541 Clouds 9 1025 62 12874 2.6 230 09:39 29.12.2019
1542 Clouds 9 1025 62 12874 2.6 230 09:21 29.12.2019
1543 Clouds 11 1025 62 14484 1 120 08:47 29.12.2019
1544 Clouds 11 1025 62 14484 1 120 08:27 29.12.2019
1545 Clouds 11 1025 58 14484 2.6 130 07:55 29.12.2019
1546 Clouds 12 1025 58 14484 2.6 130 07:28 29.12.2019
1547 Clouds 13 1025 55 14484 3.1 100 06:56 29.12.2019
1548 Clouds 13 1025 55 14484 3.1 100 06:26 29.12.2019
1549 Clouds 13 1025 55 14484 2.1 120 05:52 29.12.2019
1550 Clouds 14 1024 51 14484 3.1 120 04:36 29.12.2019
1551 Clouds 14 1024 51 12874 3.1 170 03:58 29.12.2019
1552 Clouds 14 1024 51 12874 3.1 170 03:21 29.12.2019
1553 Clouds 18 1023 48 12874 4.6 120 02:20 29.12.2019
1554 Clouds 19 1023 48 12874 4.6 110 01:38 29.12.2019
1555 Clouds 20 1022 40 16093 2.6 170 01:19 29.12.2019
1556 Clouds 21 1022 37 16093 2.1 150 00:40 29.12.2019
1557 Clouds 21 1022 37 16093 2.1 150 00:22 29.12.2019
1558 Clouds 23 1022 35 16093 6.2 100 23:43 28.12.2019
1559 Clouds 23 1022 35 16093 6.2 100 23:18 28.12.2019
1560 Clouds 23 1022 26 16093 3.1 340 22:39 28.12.2019
1561 Clouds 23 1022 26 16093 3.1 340 22:21 28.12.2019
1562 Clouds 22 1023 28 16093 2.22 151 21:58 28.12.2019
1563 Clouds 22 1023 28 16093 2.22 151 21:39 28.12.2019
1564 Clouds 22 1023 28 16093 2.22 151 21:21 28.12.2019
1565 Clouds 22 1023 28 16093 2.22 151 21:21 28.12.2019
1566 Clouds 22 1024 33 19312 3.1 350 20:57 28.12.2019
1567 Clouds 22 1024 33 19312 3.1 350 20:37 28.12.2019
1568 Clouds 22 1024 33 19312 3.1 350 20:37 28.12.2019
1569 Clouds 22 1024 33 19312 3.1 350 20:19 28.12.2019
1570 Clouds 21 1025 35 19312 2.07 187 19:57 28.12.2019
1571 Clouds 21 1025 35 19312 2.07 187 19:39 28.12.2019
1572 Clouds 21 1025 35 19312 2.07 187 19:20 28.12.2019
1573 Clouds 20 1025 37 16093 2.07 187 18:57 28.12.2019
1574 Clouds 20 1025 37 16093 2.07 187 18:39 28.12.2019
1575 Clouds 19 1026 42 16093 2.07 187 18:18 28.12.2019
1576 Clouds 16 1026 45 16093 2.1 200 17:54 28.12.2019
1577 Clouds 16 1026 45 16093 2.1 200 17:36 28.12.2019
1578 Clouds 16 1026 45 16093 2.1 200 17:18 28.12.2019
1579 Clouds 13 1026 58 16093 1.84 164 16:45 28.12.2019
1580 Clouds 13 1026 58 16093 1.84 164 16:24 28.12.2019
1581 Clouds 11 1025 62 16093 1.84 164 15:44 28.12.2019
1582 Clouds 11 1025 62 16093 1.84 164 15:23 28.12.2019
1583 Clouds 10 1025 66 12874 1.5 260 14:56 28.12.2019
1584 Clouds 10 1025 66 12874 1.5 260 14:37 28.12.2019
1585 Clouds 10 1025 66 12874 1.5 260 14:19 28.12.2019
1586 Fog 8 1027 60 805 1.81 148 13:42 28.12.2019
1587 Clear 8 1025 66 12874 2.6 240 13:21 28.12.2019
1588 Clear 9 1025 66 12874 1.81 148 12:59 28.12.2019
1589 Clear 9 1025 66 12874 1.81 148 12:40 28.12.2019
1590 Clear 9 1025 66 12874 1.81 148 12:21 28.12.2019
1591 Clear 9 1025 66 12874 1.81 148 11:40 28.12.2019
1592 Clear 9 1025 66 12874 2.24 148 11:22 28.12.2019
1593 Clear 9 1025 66 12874 2.24 148 10:59 28.12.2019
1594 Clear 10 1025 62 11265 2.1 250 10:41 28.12.2019
1595 Clear 8 1025 62 11265 2.1 250 10:20 28.12.2019
1596 Clouds 11 1025 58 11265 1.5 260 09:55 28.12.2019
1597 Clouds 11 1025 58 11265 1.5 260 09:36 28.12.2019
1598 Clouds 11 1025 58 11265 1.5 260 09:18 28.12.2019
1599 Clouds 11 1025 54 11265 2.1 200 08:43 28.12.2019
1600 Clouds 12 1025 54 11265 2.1 200 08:24 28.12.2019
1601 Clouds 13 1025 51 12874 2.69 144 07:48 28.12.2019
1602 Clouds 13 1025 51 12874 2.69 144 07:23 28.12.2019
1603 Clear 14 1025 48 12874 2.1 160 05:51 28.12.2019
1604 Clouds 16 1024 45 11265 2.1 160 03:48 28.12.2019
1605 Clouds 19 1023 45 11265 4.1 170 02:51 28.12.2019
1606 Clouds 19 1023 45 11265 4.1 170 02:20 28.12.2019
1607 Clouds 21 1023 35 8047 2.6 140 01:56 28.12.2019
1608 Clouds 21 1023 35 8047 2.6 140 01:23 28.12.2019
1609 Clouds 23 1022 30 8047 6.2 120 00:50 28.12.2019
1610 Clouds 23 1022 30 8047 6.2 120 00:30 28.12.2019
1611 Clouds 24 1022 23 8047 2.6 130 23:58 27.12.2019
1612 Clouds 23 1022 23 8047 2.6 130 23:39 27.12.2019
1613 Clouds 24 1022 23 8047 2.6 130 23:19 27.12.2019
1614 Clouds 24 1023 25 8047 0.4 47 22:56 27.12.2019
1615 Clouds 24 1023 25 8047 0.4 47 22:37 27.12.2019
1616 Clouds 24 1023 25 8047 0.4 47 22:19 27.12.2019
1617 Clouds 24 1023 25 9656 0.4 47 21:43 27.12.2019
1618 Clouds 24 1023 25 9656 0.4 47 21:25 27.12.2019
1619 Clear 23 1024 28 9656 2.6 90 20:57 27.12.2019
1620 Clear 22 1024 28 9656 2.6 90 20:38 27.12.2019
1621 Clear 22 1024 28 9656 2.6 90 20:20 27.12.2019
1622 Clear 21 1025 30 9656 2.1 40 19:41 27.12.2019
1623 Clear 21 1026 37 9656 2.1 120 19:20 27.12.2019
1624 Clear 21 1026 37 9656 2.1 120 19:20 27.12.2019
1625 Clear 20 1027 39 9656 2.1 90 18:57 27.12.2019
1626 Clear 19 1027 39 9656 2.1 90 18:37 27.12.2019
1627 Clear 19 1027 39 9656 2.1 90 18:19 27.12.2019
1628 Clear 16 1027 50 11265 2.1 260 17:55 27.12.2019
1629 Clear 16 1027 50 11265 2.1 260 17:37 27.12.2019
1630 Clear 16 1027 50 11265 2.1 260 17:18 27.12.2019
1631 Clear 14 1027 54 11265 2.1 100 16:43 27.12.2019
1632 Clear 12 1027 57 11265 2.1 70 16:23 27.12.2019
1633 Clear 9 1026 61 11265 3.1 70 15:58 27.12.2019
1634 Clear 9 1026 61 11265 3.1 70 15:40 27.12.2019
1635 Clear 9 1026 61 11265 3.1 70 15:19 27.12.2019
1636 Clear 9 1026 61 11265 2.1 60 14:56 27.12.2019
1637 Clear 8 1026 61 11265 2.1 60 14:38 27.12.2019
1638 Clear 8 1026 61 11265 2.1 60 14:20 27.12.2019
1639 Mist 6 1027 86 3219 1.2 125 13:48 27.12.2019
1640 Clear 5 1025 65 11265 2.6 80 13:25 27.12.2019
1641 Clear 7 1025 61 11265 1 80 12:56 27.12.2019
1642 Clear 6 1025 61 11265 1 80 12:38 27.12.2019
1643 Clear 6 1025 61 11265 1 80 12:20 27.12.2019
1644 Clear 6 1025 61 11265 1 70 11:42 27.12.2019
1645 Clear 8 1025 61 11265 1 70 11:22 27.12.2019
1646 Clear 7 1025 61 11265 1.5 70 10:54 27.12.2019
1647 Clear 8 1025 61 11265 1.5 70 10:36 27.12.2019
1648 Clear 8 1025 61 11265 1.5 70 10:18 27.12.2019
1649 Clear 7 1025 61 11265 3.1 60 09:40 27.12.2019
1650 Clear 7 1025 61 11265 3.1 60 09:21 27.12.2019
1651 Clear 9 1026 54 11265 2.6 220 08:54 27.12.2019
1652 Clear 11 1026 54 11265 2.6 220 08:34 27.12.2019
1653 Clear 11 1026 54 11265 2.6 240 07:49 27.12.2019
1654 Clear 11 1026 54 11265 2.6 240 07:28 27.12.2019
1655 Clear 12 1026 51 12874 2.1 60 06:36 27.12.2019
1656 Clouds 13 1026 44 12874 4.1 80 04:58 27.12.2019
1657 Clouds 18 1024 39 12874 5.1 130 02:53 27.12.2019
1658 Clouds 21 1023 23 9656 2.6 20 01:59 27.12.2019
1659 Clouds 21 1023 23 9656 2.6 20 01:24 27.12.2019
1660 Clouds 22 1022 28 9656 3.6 50 00:54 27.12.2019
1661 Clouds 22 1022 28 9656 3.6 50 00:34 27.12.2019
1662 Clouds 23 1023 26 9656 2.6 20 23:59 26.12.2019
1663 Clouds 23 1023 26 9656 2.6 20 23:41 26.12.2019
1664 Clouds 23 1023 26 9656 2.6 20 23:21 26.12.2019
1665 Clear 23 1022 26 9656 2.6 30 22:45 26.12.2019
1666 Clear 23 1022 26 9656 2.6 30 22:22 26.12.2019
1667 Clear 23 1023 28 9656 2.6 280 21:58 26.12.2019
1668 Clear 23 1023 28 9656 2.6 280 21:38 26.12.2019
1669 Clear 23 1023 28 9656 2.6 280 21:38 26.12.2019
1670 Clear 22 1023 28 9656 2.6 280 21:20 26.12.2019
1671 Clear 21 1025 28 11265 1.5 120 20:45 26.12.2019
1672 Clear 21 1025 28 11265 1.5 120 20:45 26.12.2019
1673 Clear 21 1025 28 11265 1.5 120 20:23 26.12.2019
1674 Clear 21 1026 32 12874 2.1 50 19:59 26.12.2019
1675 Clear 21 1026 32 12874 2.1 50 19:39 26.12.2019
1676 Clear 21 1026 32 12874 2.1 50 19:39 26.12.2019
1677 Clear 21 1026 32 12874 2.1 50 19:20 26.12.2019
1678 Clear 20 1026 32 11265 3.1 130 18:57 26.12.2019
1679 Clear 20 1026 32 11265 3.1 130 18:38 26.12.2019
1680 Clear 18 1027 36 11265 1 170 18:19 26.12.2019
1681 Clear 17 1027 38 11265 1.5 80 17:43 26.12.2019
1682 Clear 17 1027 38 11265 1.5 80 17:43 26.12.2019
1683 Clear 16 1027 44 12874 1.5 130 17:22 26.12.2019
1684 Clear 13 1027 50 14484 1 80 16:58 26.12.2019
1685 Clear 13 1027 50 14484 1 80 16:40 26.12.2019
1686 Clear 12 1026 57 14484 2.1 70 16:21 26.12.2019
1687 Clear 9 1026 61 16093 3.1 50 15:41 26.12.2019
1688 Clear 9 1026 61 16093 3.1 50 15:21 26.12.2019
1689 Mist 9 1027 42 3219 0.32 140 14:59 26.12.2019
1690 Mist 9 1027 42 3219 0.32 140 14:39 26.12.2019
1691 Clear 8 1025 61 16093 0.87 45 14:20 26.12.2019
1692 Clear 6 1025 65 16093 0.87 45 13:43 26.12.2019
1693 Clear 6 1025 65 16093 0.77 38 13:21 26.12.2019
1694 Clear 6 1025 61 16093 2.1 80 12:58 26.12.2019
1695 Clear 6 1025 61 16093 2.1 80 12:37 26.12.2019
1696 Clear 6 1025 61 16093 2.1 80 12:19 26.12.2019
1697 Clear 5 1025 61 16093 2.1 110 11:56 26.12.2019
1698 Clear 5 1025 61 16093 2.1 110 11:37 26.12.2019
1699 Clear 7 1025 61 16093 2.1 110 11:19 26.12.2019
1700 Clear 7 1025 57 19312 1.27 21 10:42 26.12.2019
1701 Clear 7 1025 57 19312 1.27 21 10:18 26.12.2019
1702 Clear 6 1025 57 19312 1.5 80 09:45 26.12.2019
1703 Clear 9 1025 46 19312 1.5 230 09:26 26.12.2019
1704 Clouds 10 1025 43 16093 2.1 250 08:42 26.12.2019
1705 Clouds 10 1025 43 16093 2.1 250 08:24 26.12.2019
1706 Clouds 11 1025 41 16093 1.11 25 07:53 26.12.2019
1707 Clouds 11 1025 41 16093 1.11 25 07:26 26.12.2019
1708 Clear 12 1025 41 16093 1.5 90 06:53 26.12.2019
1709 Clear 12 1025 41 16093 1.5 90 06:32 26.12.2019
1710 Clear 12 1025 44 16093 3.1 60 05:45 26.12.2019
1711 Clear 13 1024 39 16093 1.75 26 04:55 26.12.2019
1712 Clear 14 1024 39 16093 1.75 26 04:29 26.12.2019
1713 Clear 19 1022 25 16093 3.6 60 02:54 26.12.2019
1714 Clear 19 1022 25 16093 3.6 60 02:34 26.12.2019
1715 Clear 22 1022 22 11265 3.6 80 01:48 26.12.2019
1716 Clear 22 1022 22 11265 3.6 80 01:28 26.12.2019
1717 Clear 22 1021 21 11265 3.1 80 00:49 26.12.2019
1718 Clear 22 1021 21 11265 3.1 80 00:27 26.12.2019
1719 Clear 22 1021 22 11265 5.1 10 23:58 25.12.2019
1720 Clear 22 1021 22 11265 5.1 10 23:39 25.12.2019
1721 Clear 22 1021 22 11265 5.1 10 23:21 25.12.2019
1722 Clear 23 1022 22 11265 2.6 80 22:58 25.12.2019
1723 Clear 23 1022 22 11265 2.6 80 22:39 25.12.2019
1724 Clear 23 1022 22 11265 2.6 80 22:20 25.12.2019
1725 Clear 22 1023 22 11265 3.6 20 21:58 25.12.2019
1726 Clear 22 1023 22 11265 3.6 20 21:39 25.12.2019
1727 Clear 22 1023 22 11265 3.6 20 21:20 25.12.2019
1728 Clear 22 1024 22 11265 6.2 10 20:54 25.12.2019
1729 Clear 22 1024 22 11265 6.2 10 20:36 25.12.2019
1730 Clear 22 1024 22 11265 6.2 10 20:18 25.12.2019
1731 Clear 21 1025 24 11265 2.1 50 19:42 25.12.2019
1732 Clear 21 1025 24 11265 2.1 50 19:22 25.12.2019
1733 Clear 19 1026 29 9656 3.6 110 18:56 25.12.2019
1734 Clear 19 1026 29 9656 3.6 110 18:36 25.12.2019
1735 Clear 18 1026 36 6437 1.5 160 18:18 25.12.2019
1736 Smoke 16 1027 41 6437 1.5 90 17:40 25.12.2019
1737 Smoke 16 1027 41 6437 1.5 90 17:19 25.12.2019
1738 Smoke 13 1027 54 6437 1.29 8 16:56 25.12.2019
1739 Smoke 12 1027 54 6437 1.29 8 16:37 25.12.2019
1740 Smoke 12 1027 54 6437 1.29 8 16:18 25.12.2019
1741 Smoke 8 1026 61 6437 2.1 80 15:56 25.12.2019
1742 Smoke 8 1026 61 6437 2.1 80 15:37 25.12.2019
1743 Smoke 8 1026 61 6437 2.1 80 15:18 25.12.2019
1744 Smoke 7 1025 61 6437 2.6 80 14:56 25.12.2019
1745 Smoke 7 1025 61 6437 2.6 80 14:37 25.12.2019
1746 Smoke 5 1025 61 6437 2.6 80 14:18 25.12.2019
1747 Smoke 6 1025 57 6437 1.5 80 13:42 25.12.2019
1748 Smoke 5 1025 57 6437 1.5 80 13:21 25.12.2019
1749 Smoke 5 1025 61 3219 2.6 70 12:56 25.12.2019
1750 Smoke 5 1025 61 3219 2.6 70 12:38 25.12.2019
1751 Smoke 5 1025 61 3219 2.6 70 12:18 25.12.2019
1752 Smoke 5 1025 61 3219 2.1 80 11:42 25.12.2019
1753 Smoke 6 1025 61 6437 2.6 60 11:22 25.12.2019
1754 Smoke 7 1025 57 8047 1.5 50 10:58 25.12.2019
1755 Smoke 8 1025 57 8047 1.5 50 10:36 25.12.2019
1756 Smoke 8 1025 57 8047 1.5 50 10:18 25.12.2019
1757 Smoke 9 1025 50 8047 1.5 80 09:43 25.12.2019
1758 Smoke 9 1025 50 8047 1.5 80 09:25 25.12.2019
1759 Smoke 9 1026 50 8047 1 80 08:45 25.12.2019
1760 Smoke 9 1026 50 8047 1 80 08:25 25.12.2019
1761 Smoke 9 1026 50 8047 1 80 08:25 25.12.2019
1762 Smoke 11 1026 47 8047 1.5 60 07:45 25.12.2019
1763 Smoke 11 1026 44 11265 2.1 100 07:23 25.12.2019
1764 Smoke 13 1026 38 14484 2.1 60 06:41 25.12.2019
1765 Smoke 13 1026 38 14484 2.1 60 06:21 25.12.2019
1766 Clouds 14 1026 38 19312 4.6 60 04:47 25.12.2019
1767 Clouds 14 1026 38 19312 4.6 60 04:25 25.12.2019
1768 Clouds 14 1025 41 19312 4.1 60 03:52 25.12.2019
1769 Clouds 14 1025 41 19312 4.1 60 03:32 25.12.2019
1770 Clouds 18 1024 31 19312 5.1 20 02:32 25.12.2019
1771 Clouds 21 1023 22 19312 2.1 40 01:55 25.12.2019
1772 Clouds 21 1023 22 19312 2.1 40 01:24 25.12.2019
1773 Clouds 23 1023 23 19312 2.1 140 00:46 25.12.2019
1774 Clouds 23 1023 23 19312 2.1 140 00:27 25.12.2019
1775 Clouds 23 1023 21 19312 2.6 40 23:42 24.12.2019
1776 Clouds 23 1023 21 19312 2.6 40 23:21 24.12.2019
1777 Clouds 23 1024 22 19312 5.1 10 22:58 24.12.2019
1778 Clouds 23 1024 22 19312 5.1 10 22:37 24.12.2019
1779 Clouds 22 1024 22 19312 5.1 10 22:19 24.12.2019
1780 Clouds 22 1025 22 14484 1.68 50 21:42 24.12.2019
1781 Clouds 20 1025 22 14484 1.68 50 21:22 24.12.2019
1782 Clouds 21 1026 22 14484 2.1 260 20:45 24.12.2019
1783 Clouds 21 1026 20 14484 2.1 260 20:24 24.12.2019
1784 Clouds 20 1028 34 11265 2.6 320 19:57 24.12.2019
1785 Clouds 20 1028 34 11265 2.6 320 19:38 24.12.2019
1786 Clouds 20 1028 34 11265 2.6 320 19:18 24.12.2019
1787 Clouds 19 1028 32 11265 2.1 30 18:42 24.12.2019
1788 Clouds 18 1029 42 9656 0.47 283 18:20 24.12.2019
1789 Clear 17 1029 44 11265 2.6 110 17:45 24.12.2019
1790 Clear 15 1029 50 11265 1.5 90 17:24 24.12.2019
1791 Clear 12 1029 54 12874 3.1 90 16:59 24.12.2019
1792 Clear 12 1029 54 12874 3.1 90 16:41 24.12.2019
1793 Clear 11 1029 61 12874 3.1 80 16:22 24.12.2019
1794 Clear 10 1029 61 12874 3.1 80 15:58 24.12.2019
1795 Clear 9 1028 61 16093 2.6 70 15:58 24.12.2019
1796 Clear 9 1028 61 16093 2.6 70 15:38 24.12.2019
1797 Clear 9 1028 61 16093 2.6 70 15:20 24.12.2019
1798 Clear 7 1027 65 11265 2.1 100 14:59 24.12.2019
1799 Clear 7 1027 65 11265 2.1 100 14:40 24.12.2019
1800 Clear 5 1027 65 11265 2.1 100 14:22 24.12.2019
1801 Clear 5 1026 65 16093 2.6 70 13:57 24.12.2019
1802 Clear 5 1026 65 16093 2.6 70 13:39 24.12.2019
1803 Clear 5 1026 65 16093 2.6 70 13:20 24.12.2019
1804 Clear 5 1026 65 16093 2.1 60 12:57 24.12.2019
1805 Clear 5 1026 65 16093 2.1 60 12:38 24.12.2019
1806 Clear 5 1026 65 16093 2.1 60 12:19 24.12.2019
1807 Clear 5 1026 66 16093 2.6 80 11:57 24.12.2019
1808 Clear 5 1026 66 16093 2.6 80 11:38 24.12.2019
1809 Clear 7 1026 66 16093 2.6 80 11:20 24.12.2019
1810 Clear 7 1026 61 16093 3.1 50 10:57 24.12.2019
1811 Clear 7 1026 61 16093 3.1 50 10:57 24.12.2019
1812 Clear 7 1026 61 16093 3.1 50 10:38 24.12.2019
1813 Clear 8 1026 61 16093 3.1 50 10:20 24.12.2019
1814 Clouds 8 1027 54 16093 2.6 280 09:57 24.12.2019
1815 Clouds 9 1027 54 16093 2.6 280 09:39 24.12.2019
1816 Clouds 9 1027 54 16093 2.6 280 09:21 24.12.2019
1817 Clouds 11 1027 50 16093 2.6 300 08:47 24.12.2019
1818 Clouds 12 1027 50 16093 2.6 300 08:24 24.12.2019
1819 Clouds 12 1027 44 19312 3.1 300 07:59 24.12.2019
1820 Clouds 12 1027 44 19312 3.1 300 07:39 24.12.2019
1821 Clouds 12 1027 44 19312 3.1 300 07:20 24.12.2019
1822 Clouds 13 1028 41 19312 2.1 10 06:39 24.12.2019
1823 Clouds 13 1028 41 19312 2.1 10 06:19 24.12.2019
1824 Clouds 13 1028 41 16093 3.6 10 05:50 24.12.2019
1825 Clouds 13 1028 41 16093 3.6 10 05:19 24.12.2019
1826 Clouds 14 1027 41 12874 5.1 360 04:21 24.12.2019
1827 Clouds 15 1027 42 12874 4.1 360 03:46 24.12.2019
1828 Clouds 18 1025 36 12874 5.1 300 02:28 24.12.2019
1829 Clouds 20 1025 29 12874 3.1 30 01:54 24.12.2019
1830 Clouds 20 1025 29 12874 3.1 30 01:25 24.12.2019
1831 Clouds 21 1024 28 11265 2.1 40 00:56 24.12.2019
1832 Clouds 21 1024 28 11265 2.1 40 00:37 24.12.2019
1833 Clouds 21 1024 28 11265 2.1 40 00:19 24.12.2019
1834 Clouds 22 1024 26 9656 2.1 340 23:42 23.12.2019
1835 Clouds 22 1024 26 9656 2.1 340 23:24 23.12.2019
1836 Clouds 22 1025 28 9656 3.1 250 22:57 23.12.2019
1837 Clouds 22 1025 28 9656 3.1 250 22:38 23.12.2019
1838 Clouds 22 1025 28 9656 3.1 250 22:19 23.12.2019
1839 Clouds 22 1026 28 9656 3.1 240 21:56 23.12.2019
1840 Clouds 22 1026 28 9656 3.1 240 21:37 23.12.2019
1841 Clouds 22 1026 28 9656 3.1 240 21:19 23.12.2019
1842 Clear 21 1027 32 8047 2.6 20 20:58 23.12.2019
1843 Clear 21 1027 32 8047 2.6 20 20:40 23.12.2019
1844 Clear 21 1027 32 8047 2.6 20 20:18 23.12.2019
1845 Clear 20 1029 42 8047 1.5 100 19:56 23.12.2019
1846 Clear 20 1029 42 8047 1.5 100 19:38 23.12.2019
1847 Clear 20 1029 42 8047 1.5 100 19:20 23.12.2019
1848 Clear 19 1029 45 8047 0.43 282 18:58 23.12.2019
1849 Clear 19 1029 45 8047 0.43 282 18:39 23.12.2019
1850 Clear 17 1030 51 6437 2.1 150 18:20 23.12.2019
1851 Clear 17 1030 54 6437 0.43 282 17:58 23.12.2019
1852 Clear 17 1030 54 6437 0.43 282 17:39 23.12.2019
1853 Clear 15 1030 62 6437 1.5 200 17:19 23.12.2019
1854 Mist 13 1030 66 4828 0.37 229 16:57 23.12.2019
1855 Mist 13 1030 66 4828 0.37 229 16:39 23.12.2019
1856 Mist 11 1030 81 4828 2.6 100 16:18 23.12.2019
1857 Mist 9 1029 87 3219 2.6 50 15:56 23.12.2019
1858 Mist 9 1029 87 3219 2.6 50 15:36 23.12.2019
1859 Mist 8 1029 87 3219 2.6 50 15:18 23.12.2019
1860 Fog 8 1030 93 805 1.5 170 14:55 23.12.2019
1861 Fog 9 1030 93 805 1.5 170 14:36 23.12.2019
1862 Clouds 8 1029 81 6437 1.13 11 14:18 23.12.2019
1863 Clouds 5 1028 87 6437 2.6 80 13:41 23.12.2019
1864 Clouds 5 1028 87 6437 2.6 80 13:23 23.12.2019
1865 Clouds 6 1028 87 6437 3.1 90 12:59 23.12.2019
1866 Clouds 6 1028 87 6437 3.1 90 12:40 23.12.2019
1867 Clouds 6 1028 87 6437 3.1 90 12:21 23.12.2019
1868 Clouds 6 1028 87 6437 2.6 60 11:56 23.12.2019
1869 Clouds 6 1028 87 6437 2.6 60 11:38 23.12.2019
1870 Clouds 7 1028 87 6437 2.6 60 11:20 23.12.2019
1871 Clouds 7 1028 87 6437 2.6 60 11:20 23.12.2019
1872 Clouds 7 1028 87 6437 2.1 70 10:55 23.12.2019
1873 Clouds 7 1028 87 6437 2.1 70 10:55 23.12.2019
1874 Clouds 7 1028 87 6437 2.1 70 10:37 23.12.2019
1875 Clouds 7 1028 87 6437 2.1 70 10:18 23.12.2019
1876 Mist 6 1029 93 4828 1.4 10 09:54 23.12.2019
1877 Mist 6 1029 93 4828 1.4 10 09:36 23.12.2019
1878 Mist 7 1029 93 4828 1.4 10 09:18 23.12.2019
1879 Clouds 8 1028 81 6437 2.6 40 08:41 23.12.2019
1880 Clouds 8 1028 81 6437 2.6 40 08:22 23.12.2019
1881 Clouds 9 1029 76 8047 1.9 354 07:49 23.12.2019
1882 Clouds 9 1029 76 8047 1.9 354 07:22 23.12.2019
1883 Clouds 10 1029 71 9656 2.1 150 06:57 23.12.2019
1884 Clouds 10 1029 71 9656 2.1 150 06:30 23.12.2019
1885 Clouds 11 1029 66 9656 2.1 190 05:56 23.12.2019
1886 Clouds 11 1029 66 9656 2.1 190 05:30 23.12.2019
1887 Clouds 12 1028 66 8047 2.1 200 04:39 23.12.2019
1888 Clouds 11 1028 66 8047 2.6 150 03:28 23.12.2019
1889 Clouds 15 1027 66 8047 3.1 200 02:43 23.12.2019
1890 Clouds 15 1027 66 8047 3.1 200 02:19 23.12.2019
1891 Clouds 17 1027 62 6437 2.6 200 01:44 23.12.2019
1892 Clouds 16 1027 62 6437 2.6 200 01:26 23.12.2019
1893 Clouds 17 1027 58 6437 3.1 170 00:44 23.12.2019
1894 Clouds 17 1027 58 6437 3.1 170 00:24 23.12.2019
1895 Clouds 17 1027 58 6437 3.1 170 00:24 23.12.2019
1896 Clouds 18 1027 58 6437 3.1 190 23:40 22.12.2019
1897 Clouds 17 1027 58 6437 3.1 190 23:22 22.12.2019
1898 Clouds 17 1028 58 6437 4.1 130 22:58 22.12.2019
1899 Clouds 17 1028 58 6437 4.1 130 22:40 22.12.2019
1900 Clouds 17 1028 58 6437 4.1 130 22:22 22.12.2019
1901 Clouds 17 1028 66 6437 3.1 240 21:59 22.12.2019
1902 Clouds 17 1028 66 6437 3.1 240 21:40 22.12.2019
1903 Clouds 17 1028 66 6437 3.1 240 21:21 22.12.2019
1904 Clouds 17 1028 66 6437 3.1 240 20:59 22.12.2019
1905 Clouds 16 1030 66 6437 1.5 110 20:39 22.12.2019
1906 Clouds 16 1030 66 6437 1.5 110 20:19 22.12.2019
1907 Mist 15 1031 66 4828 2.1 70 19:57 22.12.2019
1908 Mist 15 1031 66 4828 2.1 70 19:39 22.12.2019
1909 Mist 15 1031 66 4828 2.1 70 19:20 22.12.2019
1910 Mist 14 1031 71 4828 2.1 80 18:42 22.12.2019
1911 Mist 14 1031 71 4828 2.1 80 18:24 22.12.2019
1912 Mist 13 1031 76 4828 2.44 354 17:57 22.12.2019
1913 Mist 13 1031 76 4828 2.44 354 17:39 22.12.2019
1914 Mist 12 1031 76 4828 2.1 310 17:19 22.12.2019
1915 Mist 12 1031 76 4828 2.1 310 17:19 22.12.2019
1916 Mist 11 1031 76 4828 3.6 280 16:57 22.12.2019
1917 Mist 11 1031 76 4828 3.6 280 16:57 22.12.2019
1918 Mist 11 1031 76 4828 3.6 280 16:39 22.12.2019
1919 Mist 11 1031 76 4828 3.6 280 16:21 22.12.2019
1920 Mist 10 1030 76 4828 4.6 310 15:56 22.12.2019
1921 Mist 10 1030 76 4828 4.6 310 15:38 22.12.2019
1922 Mist 10 1030 76 4828 4.6 310 15:20 22.12.2019
1923 Clouds 10 1029 76 6437 3.1 60 14:55 22.12.2019
1924 Clouds 10 1029 76 6437 3.1 60 14:37 22.12.2019
1925 Clouds 10 1029 76 6437 3.1 60 14:18 22.12.2019
1926 Clouds 10 1029 76 6437 3.1 60 14:18 22.12.2019
1927 Clouds 8 1029 76 6437 2.1 60 13:55 22.12.2019
1928 Clouds 8 1029 76 6437 2.1 60 13:37 22.12.2019
1929 Clouds 8 1029 76 6437 2.1 60 13:19 22.12.2019
1930 Fog 8 1028 93 805 3.1 300 12:56 22.12.2019
1931 Fog 8 1028 93 805 3.1 300 12:37 22.12.2019
1932 Clouds 8 1028 76 6437 2.1 20 12:18 22.12.2019
1933 Clouds 8 1028 76 6437 3.1 70 11:56 22.12.2019
1934 Clouds 8 1028 76 6437 3.1 70 11:56 22.12.2019
1935 Clouds 8 1028 76 6437 3.1 70 11:37 22.12.2019
1936 Clouds 8 1028 76 6437 3.1 70 11:18 22.12.2019
1937 Mist 9 1028 71 6437 3.6 290 10:54 22.12.2019
1938 Mist 9 1028 71 6437 3.6 290 10:36 22.12.2019
1939 Mist 9 1028 71 6437 3.6 290 10:18 22.12.2019
1940 Clouds 9 1029 76 8047 1.5 50 09:56 22.12.2019
1941 Clouds 9 1029 76 8047 1.5 50 09:37 22.12.2019
1942 Clouds 9 1029 76 8047 1.5 50 09:19 22.12.2019
1943 Clouds 9 1028 71 9656 3.1 60 08:39 22.12.2019
1944 Clouds 9 1028 71 9656 3.1 60 08:21 22.12.2019
1945 Clouds 10 1029 71 9656 2.1 90 07:39 22.12.2019
1946 Clouds 10 1029 71 9656 2.1 90 07:20 22.12.2019
1947 Clouds 11 1029 71 9656 2.1 20 06:41 22.12.2019
1948 Clouds 11 1028 71 9656 3.6 40 05:56 22.12.2019
1949 Clouds 11 1028 71 9656 3.6 40 05:24 22.12.2019
1950 Clouds 12 1028 66 8047 2.6 360 04:30 22.12.2019
1951 Clouds 13 1027 62 8047 4.1 290 03:56 22.12.2019
1952 Clouds 16 1026 58 8047 5.1 280 02:42 22.12.2019
1953 Clouds 16 1026 58 8047 5.1 280 02:42 22.12.2019
1954 Clouds 17 1025 54 8047 6.2 30 01:51 22.12.2019
1955 Clouds 17 1025 54 8047 6.2 30 01:30 22.12.2019
1956 Clouds 17 1025 54 8047 6.2 30 01:30 22.12.2019
1957 Clouds 19 1024 42 11265 5.1 180 00:47 22.12.2019
1958 Clouds 19 1024 42 11265 5.1 180 00:24 22.12.2019
1959 Clouds 19 1024 37 9656 5.1 200 23:57 21.12.2019
1960 Clouds 19 1024 37 9656 5.1 200 23:38 21.12.2019
1961 Clouds 19 1024 37 9656 5.1 200 23:19 21.12.2019
1962 Clouds 20 1024 35 6437 2.6 90 22:45 21.12.2019
1963 Clouds 21 1024 35 6437 2.6 90 22:20 21.12.2019
1964 Clouds 21 1024 35 6437 0.84 70 21:57 21.12.2019
1965 Clouds 21 1024 35 6437 0.84 70 21:38 21.12.2019
1966 Clouds 20 1025 39 6437 3.1 160 21:20 21.12.2019
1967 Clouds 20 1025 39 6437 1.5 110 20:59 21.12.2019
1968 Clouds 20 1025 39 6437 1.5 110 20:39 21.12.2019
1969 Clouds 19 1026 45 6437 3.6 30 20:21 21.12.2019
1970 Clouds 18 1028 48 6437 1.5 340 19:58 21.12.2019
1971 Clouds 17 1028 48 6437 1.5 340 19:40 21.12.2019
1972 Clouds 17 1028 48 6437 1.5 340 19:19 21.12.2019
1973 Clouds 17 1028 48 6437 2.1 30 18:45 21.12.2019
1974 Clouds 17 1028 48 6437 2.1 30 18:24 21.12.2019
1975 Clouds 16 1029 48 8047 1.5 50 17:58 21.12.2019
1976 Clouds 16 1029 48 8047 1.5 50 17:58 21.12.2019
1977 Clouds 16 1029 48 8047 1.5 50 17:39 21.12.2019
1978 Clouds 15 1029 54 9656 1.5 120 17:21 21.12.2019
1979 Clouds 14 1029 62 11265 2.1 120 16:59 21.12.2019
1980 Clouds 13 1029 62 11265 2.1 120 16:41 21.12.2019
1981 Clouds 13 1029 62 11265 2.1 120 16:19 21.12.2019
1982 Clouds 10 1028 62 9656 1.5 70 15:57 21.12.2019
1983 Clouds 10 1028 62 9656 1.5 70 15:38 21.12.2019
1984 Clouds 10 1028 62 9656 1.5 70 15:19 21.12.2019
1985 Clouds 10 1028 62 9656 1.5 70 15:19 21.12.2019
1986 Clouds 9 1027 66 8047 3.1 60 14:56 21.12.2019
1987 Clouds 9 1027 66 8047 3.1 60 14:37 21.12.2019
1988 Clouds 8 1027 66 8047 3.1 60 14:18 21.12.2019
1989 Clouds 7 1027 70 9656 3.1 80 13:55 21.12.2019
1990 Clouds 8 1027 70 9656 3.1 80 13:37 21.12.2019
1991 Clouds 8 1027 70 9656 3.1 80 13:18 21.12.2019
1992 Clouds 8 1027 66 9656 2.1 60 12:54 21.12.2019
1993 Clouds 8 1027 66 9656 2.1 60 12:36 21.12.2019
1994 Clouds 8 1027 66 9656 2.1 60 12:18 21.12.2019
1995 Clouds 9 1026 66 9656 2.1 60 11:41 21.12.2019
1996 Clouds 9 1026 66 9656 2.1 60 11:23 21.12.2019
1997 Clouds 9 1027 66 9656 1.5 70 10:56 21.12.2019
1998 Clouds 9 1027 66 9656 1.5 70 10:37 21.12.2019
1999 Clouds 9 1027 66 9656 1.5 70 10:19 21.12.2019
2000 Clouds 9 1027 66 9656 1.5 70 10:19 21.12.2019
2001 Clouds 11 1028 58 11265 2.1 80 09:42 21.12.2019
2002 Clouds 11 1028 58 11265 2.1 80 09:21 21.12.2019
2003 Clouds 11 1028 54 11265 2.1 320 08:57 21.12.2019
2004 Clouds 12 1028 54 11265 2.1 320 08:37 21.12.2019
2005 Clouds 12 1028 54 11265 2.1 320 08:18 21.12.2019
2006 Clouds 12 1028 50 11265 2.6 40 07:41 21.12.2019
2007 Clouds 12 1028 50 11265 2.6 40 07:22 21.12.2019
2008 Clouds 13 1029 47 11265 2.6 40 06:44 21.12.2019
2009 Clouds 13 1029 47 11265 2.6 40 06:25 21.12.2019
2010 Clouds 14 1029 48 11265 2.6 300 05:47 21.12.2019
2011 Clouds 14 1028 48 9656 3.1 10 04:58 21.12.2019
2012 Clouds 15 1028 42 9656 2.6 40 03:57 21.12.2019
2013 Clouds 17 1027 39 6437 2.6 10 02:52 21.12.2019
2014 Haze 17 1026 34 4828 3.1 40 01:57 21.12.2019
2015 Haze 17 1026 34 4828 3.1 40 01:27 21.12.2019
2016 Haze 19 1025 34 4828 1.5 20 00:52 21.12.2019
2017 Haze 19 1025 34 4828 1.5 20 00:32 21.12.2019
2018 Haze 19 1025 32 4828 1.5 320 23:57 20.12.2019
2019 Haze 19 1025 32 4828 1.5 320 23:37 20.12.2019
2020 Haze 19 1025 32 4828 1.5 320 23:18 20.12.2019
2021 Clouds 19 1025 34 6437 1.5 70 22:40 20.12.2019
2022 Clouds 19 1025 34 6437 1.5 70 22:21 20.12.2019
2023 Clouds 17 1026 36 6437 1.32 344 21:58 20.12.2019
2024 Clouds 17 1026 36 6437 1.32 344 21:39 20.12.2019
2025 Clouds 17 1026 36 6437 1.32 344 21:20 20.12.2019
2026 Clouds 17 1027 39 6437 2.1 50 20:41 20.12.2019
2027 Clouds 17 1027 39 6437 2.1 50 20:20 20.12.2019
2028 Clouds 17 1028 44 6437 2.6 330 19:59 20.12.2019
2029 Clouds 17 1028 44 6437 2.6 330 19:40 20.12.2019
2030 Clouds 16 1028 44 6437 2.6 330 19:19 20.12.2019
2031 Clouds 15 1029 47 6437 2.1 100 18:54 20.12.2019
2032 Clouds 15 1029 47 6437 2.1 100 18:36 20.12.2019
2033 Clouds 15 1029 47 6437 2.1 100 18:18 20.12.2019
2034 Clouds 14 1029 54 8047 1.5 50 17:42 20.12.2019
2035 Clouds 14 1029 54 8047 1.5 50 17:21 20.12.2019
2036 Clouds 12 1028 62 8047 1 300 16:59 20.12.2019
2037 Clouds 11 1028 62 8047 1 300 16:39 20.12.2019
2038 Clouds 11 1028 62 8047 1 300 16:20 20.12.2019
2039 Clouds 9 1028 61 8047 1.5 20 15:56 20.12.2019
2040 Clouds 9 1028 61 8047 1.5 20 15:38 20.12.2019
2041 Clouds 9 1028 61 8047 1.5 20 15:19 20.12.2019
2042 Clouds 9 1028 61 8047 1.5 20 15:19 20.12.2019
2043 Clouds 8 1027 75 8047 1.5 70 14:54 20.12.2019
2044 Clouds 8 1027 75 8047 1.5 70 14:54 20.12.2019
2045 Clouds 8 1027 75 8047 1.5 70 14:36 20.12.2019
2046 Clouds 8 1027 75 8047 1.5 70 14:18 20.12.2019
2047 Clouds 6 1027 70 9656 2.6 60 13:41 20.12.2019
2048 Clouds 7 1027 70 9656 2.6 60 13:20 20.12.2019
2049 Clouds 7 1027 66 9656 0.71 83 12:57 20.12.2019
2050 Clouds 6 1027 66 9656 0.71 83 12:38 20.12.2019
2051 Clouds 6 1027 66 9656 0.71 83 12:19 20.12.2019
2052 Clouds 6 1026 66 9656 1.5 50 11:58 20.12.2019
2053 Clouds 6 1026 66 9656 1.5 50 11:39 20.12.2019
2054 Clouds 7 1026 66 9656 1.5 50 11:19 20.12.2019
2055 Clouds 8 1027 66 9656 1.5 40 10:57 20.12.2019
2056 Clouds 8 1027 66 9656 1.5 40 10:39 20.12.2019
2057 Clouds 7 1027 66 9656 1.5 40 10:20 20.12.2019
2058 Clouds 8 1027 66 9656 0.82 59 09:44 20.12.2019
2059 Clouds 8 1027 66 9656 0.82 59 09:44 20.12.2019
2060 Clouds 8 1027 66 9656 0.82 59 09:22 20.12.2019
2061 Clouds 8 1027 66 9656 1.5 70 08:59 20.12.2019
2062 Clouds 8 1027 66 9656 1.5 70 08:59 20.12.2019
2063 Clouds 9 1028 58 9656 3.1 100 08:41 20.12.2019
2064 Clouds 9 1028 58 9656 3.1 100 08:22 20.12.2019
2065 Clouds 10 1028 58 9656 3.1 80 07:58 20.12.2019
2066 Clouds 10 1028 58 9656 3.1 80 07:39 20.12.2019
2067 Clouds 10 1028 58 9656 2.1 80 07:18 20.12.2019
2068 Clouds 10 1028 58 9656 2.1 80 06:48 20.12.2019
2069 Clouds 10 1028 58 9656 2.1 80 06:30 20.12.2019
2070 Clouds 11 1028 50 9656 2.6 90 05:49 20.12.2019
2071 Clouds 12 1028 50 9656 2.6 90 05:25 20.12.2019
2072 Clouds 13 1026 44 9656 3.1 80 03:50 20.12.2019
2073 Clouds 13 1026 44 9656 3.1 80 03:29 20.12.2019
2074 Clouds 16 1025 42 11265 7.2 140 02:38 20.12.2019
2075 Clouds 18 1024 39 8047 4.6 130 01:36 20.12.2019
2076 Clouds 19 1024 39 6437 7.2 120 00:59 20.12.2019
2077 Clouds 20 1024 34 6437 3.95 158 00:40 20.12.2019
2078 Clouds 21 1024 34 6437 2.6 170 23:59 19.12.2019
2079 Clouds 21 1024 34 6437 2.6 170 23:40 19.12.2019
2080 Clouds 21 1024 34 6437 2.6 170 23:22 19.12.2019
2081 Clouds 21 1024 34 6437 3.6 90 22:56 19.12.2019
2082 Clouds 21 1024 34 6437 3.6 90 22:36 19.12.2019
2083 Clouds 21 1024 34 6437 3.6 90 22:18 19.12.2019
2084 Clear 20 1025 37 8047 2.6 60 21:42 19.12.2019
2085 Clear 20 1025 37 8047 2.6 60 21:20 19.12.2019
2086 Clear 20 1026 37 6437 1.5 220 20:58 19.12.2019
2087 Clear 20 1026 37 6437 1.5 220 20:38 19.12.2019
2088 Clear 20 1026 37 6437 1.5 220 20:20 19.12.2019
2089 Clear 20 1026 37 6437 1.5 220 20:20 19.12.2019
2090 Clear 18 1026 39 6437 1.5 90 19:59 19.12.2019
2091 Clear 18 1028 44 6437 1.5 20 19:40 19.12.2019
2092 Clear 17 1028 44 6437 1.5 20 19:20 19.12.2019
2093 Clear 16 1028 44 6437 1.5 20 18:59 19.12.2019
2094 Clear 16 1028 50 6437 2.1 50 18:40 19.12.2019
2095 Clear 16 1028 50 6437 2.1 50 18:40 19.12.2019
2096 Clear 16 1028 50 6437 2.1 50 18:20 19.12.2019
2097 Clear 13 1029 54 6437 2.6 90 17:56 19.12.2019
2098 Clear 13 1029 61 8047 2.6 70 17:38 19.12.2019
2099 Clear 12 1029 61 8047 2.6 70 17:18 19.12.2019
2100 Clear 10 1029 65 8047 2.1 80 16:56 19.12.2019
2101 Clear 10 1029 65 8047 2.1 80 16:56 19.12.2019
2102 Clear 10 1029 65 8047 2.1 80 16:38 19.12.2019
2103 Clear 10 1029 65 8047 2.1 80 16:19 19.12.2019
2104 Clear 6 1027 75 0 1.79 80 15:58 19.12.2019
2105 Clear 6 1027 75 0 1.79 80 15:38 19.12.2019
2106 Clear 6 1027 75 0 1.79 80 15:38 19.12.2019
2107 Clear 6 1027 75 0 1.79 80 15:19 19.12.2019
2108 Clear 6 1027 75 0 1.79 80 14:57 19.12.2019
2109 Clear 6 1027 75 0 1.79 80 14:39 19.12.2019
2110 Clear 6 1027 75 0 1.79 80 14:18 19.12.2019
2111 Clear 6 1027 75 0 1.79 80 13:39 19.12.2019
2112 Clear 6 1027 75 0 1.79 80 13:20 19.12.2019
2113 Clear 6 1027 75 0 1.79 80 12:58 19.12.2019
2114 Clear 6 1027 75 0 1.79 80 12:40 19.12.2019
2115 Clear 6 1027 75 0 1.79 80 12:19 19.12.2019
2116 Clear 6 1027 75 0 1.79 80 11:59 19.12.2019
2117 Clear 6 1027 75 0 1.79 80 11:41 19.12.2019
2118 Clear 6 1027 75 0 1.79 80 11:19 19.12.2019
2119 Clear 6 1027 75 0 1.79 80 10:59 19.12.2019
2120 Clear 6 1027 75 0 1.79 80 10:38 19.12.2019
2121 Clear 6 1027 75 0 1.79 80 10:38 19.12.2019
2122 Clear 6 1027 75 0 1.79 80 10:20 19.12.2019
2123 Clear 6 1027 75 8047 2.1 80 09:56 19.12.2019
2124 Clear 6 1027 75 8047 2.1 80 09:37 19.12.2019
2125 Clear 6 1027 75 8047 2.1 80 09:19 19.12.2019
2126 Clouds 7 1027 75 9656 1.76 2 08:55 19.12.2019
2127 Clouds 7 1027 75 9656 1.76 2 08:55 19.12.2019
2128 Clouds 7 1027 75 9656 1.77 13 08:37 19.12.2019
2129 Clouds 10 1027 75 9656 2.32 349 08:18 19.12.2019
2130 Clear 9 1028 70 8047 2.1 80 07:41 19.12.2019
2131 Clear 9 1028 70 8047 2.1 80 07:23 19.12.2019
2132 Clear 11 1028 66 8047 2.1 100 06:58 19.12.2019
2133 Clear 11 1028 66 8047 2.1 100 06:39 19.12.2019
2134 Clear 11 1028 66 8047 2.1 100 06:21 19.12.2019
2135 Clouds 12 1028 61 8047 1.5 130 05:42 19.12.2019
2136 Clouds 12 1028 61 8047 1.5 130 05:18 19.12.2019
2137 Clouds 14 1026 58 6437 3.1 340 03:51 19.12.2019
2138 Clouds 15 1025 54 6437 3.1 360 02:25 19.12.2019
2139 Clouds 17 1024 48 6437 2.1 340 01:24 19.12.2019
2140 Clouds 19 1024 45 6437 2.1 30 00:55 19.12.2019
2141 Clouds 19 1024 45 6437 2.1 30 00:36 19.12.2019
2142 Clouds 19 1024 45 6437 2.1 30 00:18 19.12.2019
2143 Clouds 19 1024 45 6437 2.6 300 23:43 18.12.2019
2144 Clouds 19 1024 45 6437 2.6 300 23:43 18.12.2019
2145 Clouds 19 1024 45 6437 2.6 300 23:19 18.12.2019
2146 Clouds 19 1024 45 6437 1.62 338 22:56 18.12.2019
2147 Clouds 19 1024 45 6437 1.62 338 22:38 18.12.2019
2148 Clouds 19 1024 45 6437 1.62 338 22:20 18.12.2019
2149 Clouds 19 1024 45 6437 1.62 338 21:58 18.12.2019
2150 Clouds 19 1024 45 6437 1.62 338 21:58 18.12.2019
2151 Clouds 18 1025 51 6437 2.1 40 21:39 18.12.2019
2152 Clouds 18 1025 51 6437 2.1 40 21:20 18.12.2019
2153 Haze 18 1026 54 4828 2.1 120 20:56 18.12.2019
2154 Haze 17 1026 54 4828 2.1 120 20:38 18.12.2019
2155 Haze 17 1028 62 4828 3.1 60 20:19 18.12.2019
2156 Haze 17 1028 62 4828 3.1 60 19:56 18.12.2019
2157 Haze 16 1028 62 4828 3.1 60 19:37 18.12.2019
2158 Haze 16 1028 62 4828 3.1 60 19:18 18.12.2019
2159 Haze 16 1028 71 4828 2.6 80 18:45 18.12.2019
2160 Haze 14 1028 71 4828 2.6 80 18:25 18.12.2019
2161 Mist 14 1029 75 4828 4.1 70 17:58 18.12.2019
2162 Mist 14 1029 75 4828 4.1 70 17:39 18.12.2019
2163 Mist 14 1029 75 4828 4.1 70 17:39 18.12.2019
2164 Mist 12 1029 75 4828 4.1 70 17:20 18.12.2019
2165 Mist 10 1029 81 4023 4.6 80 16:58 18.12.2019
2166 Mist 10 1029 81 4023 4.6 80 16:40 18.12.2019
2167 Mist 10 1029 81 4023 4.6 80 16:40 18.12.2019
2168 Mist 10 1029 81 4023 4.6 80 16:21 18.12.2019
2169 Mist 8 1028 81 3219 4.1 60 15:56 18.12.2019
2170 Mist 8 1028 81 3219 4.1 60 15:38 18.12.2019
2171 Mist 5 1028 81 3219 4.1 60 15:20 18.12.2019
2172 Mist 5 1027 87 4023 3.1 70 14:43 18.12.2019
2173 Mist 5 1027 87 4023 3.1 70 14:22 18.12.2019
2174 Clouds 5 1027 87 6437 4.6 50 13:58 18.12.2019
2175 Clouds 5 1027 87 6437 4.6 50 13:39 18.12.2019
2176 Clouds 5 1027 87 6437 4.6 50 13:21 18.12.2019
2177 Clouds 5 1026 87 6437 5.7 70 12:59 18.12.2019
2178 Clouds 5 1026 87 6437 5.7 70 12:40 18.12.2019
2179 Clouds 5 1026 87 6437 5.7 70 12:20 18.12.2019
2180 Clouds 5 1026 87 8047 2.1 110 11:56 18.12.2019
2181 Clouds 5 1026 87 8047 2.1 110 11:38 18.12.2019
2182 Clouds 6 1026 87 8047 2.1 110 11:19 18.12.2019
2183 Mist 6 1026 87 8047 3.1 100 10:57 18.12.2019
2184 Mist 6 1026 87 8047 3.1 100 10:39 18.12.2019
2185 Mist 6 1026 87 8047 3.1 100 10:20 18.12.2019
2186 Clouds 6 1026 81 9656 2.6 90 09:52 18.12.2019
2187 Clouds 7 1026 81 9656 2.6 90 09:19 18.12.2019
2188 Clouds 8 1026 76 11265 2.1 100 08:42 18.12.2019
2189 Clouds 8 1026 76 11265 2.1 100 08:24 18.12.2019
2190 Clouds 8 1026 71 11265 2.1 120 07:55 18.12.2019
2191 Clouds 8 1026 71 11265 2.1 120 07:37 18.12.2019
2192 Clouds 9 1026 66 12874 2.6 300 07:19 18.12.2019
2193 Clouds 10 1025 66 12874 3.1 300 06:50 18.12.2019
2194 Clouds 11 1025 58 12874 3.1 340 06:22 18.12.2019
2195 Clouds 11 1025 54 12874 4.1 260 05:27 18.12.2019
2196 Clouds 14 1024 39 16093 3.1 170 03:31 18.12.2019
2197 Clouds 18 1023 36 16093 5.1 160 02:41 18.12.2019
2198 Clouds 18 1023 36 16093 5.1 160 02:23 18.12.2019
2199 Clouds 19 1023 36 16093 3.6 160 01:42 18.12.2019
2200 Clouds 19 1023 30 16093 5.1 200 01:23 18.12.2019
2201 Clouds 21 1022 26 12874 3.1 170 00:42 18.12.2019
2202 Clouds 21 1022 26 12874 3.1 170 00:23 18.12.2019
2203 Clouds 23 1022 21 11265 4.1 140 23:57 17.12.2019
2204 Clouds 23 1022 21 11265 4.1 140 23:39 17.12.2019
2205 Clouds 22 1022 21 11265 4.1 140 23:19 17.12.2019
2206 Clouds 23 1022 24 8047 2.6 130 22:56 17.12.2019
2207 Clouds 23 1022 24 8047 2.6 130 22:38 17.12.2019
2208 Clouds 22 1022 24 8047 2.6 130 22:19 17.12.2019
2209 Clouds 22 1023 32 8047 3.6 140 21:55 17.12.2019
2210 Clouds 22 1023 32 8047 3.6 140 21:37 17.12.2019
2211 Clouds 22 1023 32 8047 3.6 140 21:19 17.12.2019
2212 Clouds 22 1024 34 8047 2.6 110 20:57 17.12.2019
2213 Clouds 21 1024 34 8047 2.6 110 20:38 17.12.2019
2214 Clouds 21 1024 34 8047 2.6 110 20:18 17.12.2019
2215 Clouds 21 1024 34 8047 2.6 110 20:18 17.12.2019
2216 Clouds 20 1026 39 8047 3.6 50 19:56 17.12.2019
2217 Clouds 20 1026 39 8047 3.6 50 19:37 17.12.2019
2218 Clouds 20 1026 39 8047 3.6 50 19:18 17.12.2019
2219 Clouds 20 1026 39 8047 3.6 50 19:18 17.12.2019
2220 Clouds 18 1026 42 8047 2.1 70 18:43 17.12.2019
2221 Clouds 18 1026 42 8047 2.1 70 18:43 17.12.2019
2222 Clouds 17 1027 48 8047 2.6 80 18:23 17.12.2019
2223 Clouds 16 1027 48 8047 2.6 130 17:59 17.12.2019
2224 Clouds 16 1027 48 8047 2.6 130 17:41 17.12.2019
2225 Clouds 15 1028 54 8047 1.5 70 17:20 17.12.2019
2226 Clear 13 1028 58 8047 3.1 80 16:56 17.12.2019
2227 Clear 13 1028 58 8047 3.1 80 16:38 17.12.2019
2228 Clear 13 1028 58 8047 3.1 80 16:19 17.12.2019
2229 Clear 13 1028 58 8047 3.1 80 16:19 17.12.2019
2230 Clear 10 1027 71 9656 2.6 50 15:56 17.12.2019
2231 Clear 10 1027 71 9656 2.6 50 15:37 17.12.2019
2232 Clear 10 1027 71 9656 2.6 50 15:19 17.12.2019
2233 Clouds 10 1026 70 9656 2.6 70 14:55 17.12.2019
2234 Clouds 10 1026 70 9656 2.6 70 14:37 17.12.2019
2235 Clouds 10 1026 66 11265 1.5 60 14:18 17.12.2019
2236 Clouds 10 1026 66 11265 1.5 60 14:18 17.12.2019
2237 Clear 9 1026 62 12874 1 120 13:55 17.12.2019
2238 Clear 9 1026 62 12874 1 120 13:37 17.12.2019
2239 Clear 9 1026 62 12874 1 120 13:18 17.12.2019
2240 Clear 8 1026 71 12874 1.76 355 12:41 17.12.2019
2241 Clear 8 1026 71 12874 1.76 355 12:19 17.12.2019
2242 Clouds 8 1025 62 12874 2.1 70 11:59 17.12.2019
2243 Clouds 9 1025 62 12874 2.1 70 11:59 17.12.2019
2244 Clouds 9 1025 62 12874 2.1 70 11:38 17.12.2019
2245 Clouds 8 1025 62 12874 2.1 70 11:19 17.12.2019
2246 Clouds 9 1025 62 12874 1.5 80 10:59 17.12.2019
2247 Clouds 9 1025 62 12874 1.5 80 10:41 17.12.2019
2248 Clouds 9 1025 62 12874 1.5 80 10:41 17.12.2019
2249 Clouds 9 1025 62 12874 1.5 80 10:22 17.12.2019
2250 Clouds 10 1025 66 12874 2.6 60 09:59 17.12.2019
2251 Clouds 9 1025 66 12874 2.6 60 09:41 17.12.2019
2252 Clouds 9 1025 66 12874 2.6 60 09:20 17.12.2019
2253 Clouds 11 1026 58 12874 2.1 70 08:56 17.12.2019
2254 Clouds 11 1026 58 12874 2.1 70 08:38 17.12.2019
2255 Clouds 11 1026 58 12874 2.1 70 08:19 17.12.2019
2256 Clouds 12 1026 54 12874 1 90 07:47 17.12.2019
2257 Clouds 12 1026 54 12874 1 90 07:27 17.12.2019
2258 Clouds 12 1026 51 12874 2.1 80 06:59 17.12.2019
2259 Clouds 12 1026 51 12874 2.1 80 06:35 17.12.2019
2260 Clouds 13 1026 51 12874 3.6 100 05:54 17.12.2019
2261 Clouds 13 1026 51 12874 3.6 100 05:36 17.12.2019
2262 Clouds 14 1026 51 16093 4.1 120 04:31 17.12.2019
2263 Clouds 18 1023 48 14484 5.7 150 02:34 17.12.2019
2264 Clouds 19 1022 37 12874 3.1 160 01:55 17.12.2019
2265 Clouds 21 1022 32 12874 7.7 110 00:59 17.12.2019
2266 Clouds 21 1022 32 12874 7.7 110 00:38 17.12.2019
2267 Clouds 21 1022 32 12874 7.7 110 00:19 17.12.2019
2268 Clouds 22 1022 28 12874 4.1 90 23:42 16.12.2019
2269 Clouds 22 1022 28 12874 4.1 90 23:19 16.12.2019
2270 Clouds 22 1022 28 12874 4.1 90 23:19 16.12.2019
2271 Clouds 22 1022 28 12874 4.1 90 23:19 16.12.2019
2272 Clouds 22 1022 28 12874 4.1 90 23:19 16.12.2019
2273 Clouds 23 1022 27 12874 3.1 90 22:56 16.12.2019
2274 Clouds 23 1022 27 12874 3.1 90 22:37 16.12.2019
2275 Clouds 23 1022 27 12874 3.1 90 22:19 16.12.2019
2276 Clouds 23 1022 27 12874 3.1 90 22:19 16.12.2019
2277 Clouds 23 1023 27 12874 2.6 240 21:55 16.12.2019
2278 Clouds 23 1023 27 12874 2.6 240 21:55 16.12.2019
2279 Clouds 23 1023 27 12874 2.6 240 21:37 16.12.2019
2280 Clouds 23 1023 27 12874 2.6 240 21:19 16.12.2019
2281 Clouds 22 1024 30 12874 4.1 120 20:57 16.12.2019
2282 Clouds 22 1024 30 12874 4.1 120 20:57 16.12.2019
2283 Clouds 22 1024 30 12874 4.1 120 20:37 16.12.2019
2284 Clouds 22 1024 30 12874 4.1 120 20:19 16.12.2019
2285 Clouds 20 1024 32 12874 2.6 120 19:56 16.12.2019
2286 Clouds 20 1024 32 12874 2.6 120 19:56 16.12.2019
2287 Clouds 20 1024 32 12874 2.6 120 19:37 16.12.2019
2288 Clouds 20 1025 37 12874 2.6 90 19:18 16.12.2019
2289 Clouds 19 1026 34 12874 0.71 209 18:56 16.12.2019
2290 Clouds 19 1026 34 12874 0.71 209 18:37 16.12.2019
2291 Clouds 19 1026 34 12874 0.71 209 18:19 16.12.2019
2292 Clouds 17 1027 36 12874 1.5 160 17:57 16.12.2019
2293 Clouds 17 1027 36 12874 1.5 160 17:38 16.12.2019
2294 Clouds 17 1027 36 12874 1.5 160 17:19 16.12.2019
2295 Clouds 14 1027 47 14484 1.54 137 16:55 16.12.2019
2296 Clouds 13 1027 47 14484 1.54 137 16:37 16.12.2019
2297 Clouds 13 1027 47 14484 1.54 137 16:18 16.12.2019
2298 Clouds 10 1026 50 16093 1.5 330 15:57 16.12.2019
2299 Clouds 10 1026 50 16093 1.5 330 15:38 16.12.2019
2300 Clouds 10 1026 50 16093 1.5 330 15:38 16.12.2019
2301 Clouds 10 1026 50 16093 1.5 330 15:19 16.12.2019
2302 Clouds 7 1025 44 19312 3.6 70 14:55 16.12.2019
2303 Clouds 7 1025 44 19312 3.6 70 14:36 16.12.2019
2304 Clouds 7 1025 51 19312 3.6 70 14:18 16.12.2019
2305 Clouds 5 1025 51 19312 3.1 90 13:55 16.12.2019
2306 Clouds 6 1025 53 19312 3.1 90 13:37 16.12.2019
2307 Clouds 7 1025 53 19312 1.43 134 13:19 16.12.2019
2308 Clear 8 1025 61 19312 2.1 190 12:54 16.12.2019
2309 Clear 8 1025 53 19312 2.1 190 12:54 16.12.2019
2310 Clear 8 1025 53 19312 2.1 190 12:36 16.12.2019
2311 Clear 8 1025 53 19312 2.1 190 12:18 16.12.2019
2312 Clear 8 1025 53 19312 2.1 190 12:18 16.12.2019
2313 Clear 8 1025 46 19312 1.46 138 11:55 16.12.2019
2314 Clear 8 1025 46 19312 1.43 134 11:37 16.12.2019
2315 Clear 8 1025 46 19312 2.27 150 11:19 16.12.2019
2316 Clouds 8 1025 46 19312 2.6 240 10:40 16.12.2019
2317 Clouds 8 1025 46 19312 2.6 240 10:40 16.12.2019
2318 Clouds 8 1025 46 19312 2.6 240 10:22 16.12.2019
2319 Clouds 10 1026 47 16093 1.5 90 09:59 16.12.2019
2320 Clouds 10 1026 47 16093 1.5 90 09:41 16.12.2019
2321 Clouds 10 1026 47 16093 1.5 90 09:23 16.12.2019
2322 Clear 11 1026 47 16093 1.5 170 08:40 16.12.2019
2323 Clear 11 1026 47 16093 1.5 170 08:19 16.12.2019
2324 Clear 11 1026 47 16093 1.5 180 07:53 16.12.2019
2325 Clear 11 1026 47 16093 1.5 180 07:31 16.12.2019
2326 Clear 12 1026 44 16093 1.5 140 06:57 16.12.2019
2327 Clear 12 1026 44 16093 1.5 140 06:39 16.12.2019
2328 Clear 12 1026 44 16093 1.5 140 06:18 16.12.2019
2329 Clear 13 1026 41 16093 1.5 130 05:41 16.12.2019
2330 Clear 13 1026 41 16093 1.5 130 05:22 16.12.2019
2331 Clear 14 1024 42 16093 7.2 120 03:28 16.12.2019
2332 Clear 20 1023 34 12874 5.1 120 01:46 16.12.2019
2333 Clear 20 1023 34 12874 5.1 120 01:21 16.12.2019
2334 Clear 23 1022 28 11265 6.2 120 00:39 16.12.2019
2335 Clear 23 1022 28 11265 6.2 120 00:19 16.12.2019
2336 Clear 24 1022 18 11265 4.1 100 23:44 15.12.2019
2337 Clear 24 1022 18 11265 4.1 100 23:25 15.12.2019
2338 Clear 24 1023 18 11265 2.6 90 22:57 15.12.2019
2339 Clear 24 1023 18 11265 2.6 90 22:39 15.12.2019
2340 Clear 24 1023 18 11265 2.6 90 22:19 15.12.2019
2341 Clear 23 1024 16 9656 1.5 30 21:58 15.12.2019
2342 Clear 23 1024 16 9656 1.5 30 21:39 15.12.2019
2343 Clear 23 1024 16 9656 1.5 30 21:39 15.12.2019
2344 Clear 23 1024 16 9656 1.5 30 21:20 15.12.2019
2345 Clear 22 1025 19 9656 3.1 20 20:58 15.12.2019
2346 Clear 22 1025 19 9656 3.1 20 20:40 15.12.2019
2347 Clear 20 1025 19 9656 3.1 20 20:22 15.12.2019
2348 Clear 21 1026 24 9656 2.1 310 19:58 15.12.2019
2349 Clear 21 1026 24 9656 2.1 310 19:40 15.12.2019
2350 Clear 21 1026 24 9656 2.1 310 19:20 15.12.2019
2351 Clouds 19 1027 32 9656 1.5 160 18:58 15.12.2019
2352 Clouds 19 1027 32 9656 1.5 160 18:58 15.12.2019
2353 Clouds 19 1027 32 9656 1.5 160 18:39 15.12.2019
2354 Clouds 19 1027 33 9656 2.1 100 18:19 15.12.2019
2355 Clouds 16 1028 36 9656 3.1 100 17:57 15.12.2019
2356 Clouds 16 1028 36 9656 3.1 100 17:38 15.12.2019
2357 Clouds 16 1028 36 9656 3.1 100 17:19 15.12.2019
2358 Clouds 13 1028 38 11265 2.6 70 16:59 15.12.2019
2359 Clouds 13 1028 38 11265 2.6 70 16:41 15.12.2019
2360 Clouds 13 1028 38 11265 2.6 70 16:21 15.12.2019
2361 Clear 9 1027 52 11265 3.1 70 15:56 15.12.2019
2362 Clear 9 1027 52 11265 3.1 70 15:56 15.12.2019
2363 Clear 9 1027 52 11265 3.1 70 15:38 15.12.2019
2364 Clear 9 1027 52 11265 3.1 70 15:19 15.12.2019
2365 Clear 9 1027 52 11265 3.1 70 15:19 15.12.2019
2366 Clear 9 1027 52 11265 3.1 70 15:19 15.12.2019
2367 Clear 7 1026 49 9656 2.6 90 14:56 15.12.2019
2368 Clear 7 1026 49 9656 2.6 90 14:37 15.12.2019
2369 Fog 4 1027 43 6437 1.33 143 14:18 15.12.2019
2370 Clear 4 1026 56 9656 2.6 70 13:58 15.12.2019
2371 Clear 4 1026 56 9656 2.6 70 13:37 15.12.2019
2372 Clear 4 1026 56 9656 2.6 70 13:19 15.12.2019
2373 Clear 5 1025 52 9656 2.1 50 12:57 15.12.2019
2374 Clear 5 1025 52 9656 2.1 50 12:39 15.12.2019
2375 Clear 5 1025 52 9656 2.1 50 12:39 15.12.2019
2376 Clear 5 1025 52 9656 2.1 50 12:20 15.12.2019
2377 Clear 7 1025 42 9656 1 80 11:56 15.12.2019
2378 Clear 7 1025 42 9656 1 80 11:36 15.12.2019
2379 Clear 6 1025 43 9656 1 80 11:18 15.12.2019
2380 Clear 6 1025 49 9656 1.5 60 10:55 15.12.2019
2381 Clear 6 1025 49 9656 1.5 60 10:36 15.12.2019
2382 Clear 7 1025 49 9656 1.5 60 10:18 15.12.2019
2383 Clear 6 1025 43 9656 2.1 80 09:40 15.12.2019
2384 Clear 6 1025 43 9656 2.1 80 09:20 15.12.2019
2385 Clear 7 1025 53 11265 2.6 60 08:58 15.12.2019
2386 Clear 7 1025 53 11265 2.6 60 08:39 15.12.2019
2387 Clear 7 1025 53 11265 2.6 60 08:20 15.12.2019
2388 Clear 9 1025 47 12874 1.5 200 07:56 15.12.2019
2389 Clear 11 1025 47 12874 1.5 200 07:34 15.12.2019
2390 Clear 11 1026 47 12874 1 200 06:51 15.12.2019
2391 Clear 12 1026 41 12874 3.1 210 06:20 15.12.2019
2392 Clear 13 1025 41 12874 3.1 110 05:26 15.12.2019
2393 Clear 14 1025 39 12874 2.1 160 04:47 15.12.2019
2394 Clear 17 1024 36 12874 3.6 140 03:29 15.12.2019
2395 Clear 17 1023 34 12874 4.1 120 02:34 15.12.2019
2396 Clear 18 1023 30 12874 4.6 120 01:47 15.12.2019
2397 Clear 19 1023 14 12874 3.6 90 01:28 15.12.2019
2398 Clear 24 1023 11 12874 1.86 74 00:57 15.12.2019
2399 Clear 24 1023 11 12874 1.86 74 00:38 15.12.2019
2400 Clear 23 1023 11 12874 1.86 74 00:20 15.12.2019
2401 Clear 24 1023 14 12874 2.1 60 23:39 14.12.2019
2402 Clear 24 1023 14 12874 2.1 60 23:19 14.12.2019
2403 Clear 23 1023 11 16093 2.6 100 22:57 14.12.2019
2404 Clear 23 1023 11 16093 2.6 100 22:39 14.12.2019
2405 Clear 23 1023 11 16093 2.6 100 22:20 14.12.2019
2406 Clear 23 1024 11 16093 1 200 21:55 14.12.2019
2407 Clear 23 1024 11 16093 1 200 21:37 14.12.2019
2408 Clear 23 1024 11 16093 1 200 21:18 14.12.2019
2409 Clear 22 1025 14 16093 3.6 110 20:55 14.12.2019
2410 Clear 22 1025 14 16093 3.6 110 20:37 14.12.2019
2411 Clear 22 1025 14 16093 3.6 110 20:18 14.12.2019
2412 Clear 18 1026 16 12874 2.1 300 19:40 14.12.2019
2413 Clear 18 1026 16 12874 2.1 300 19:21 14.12.2019
2414 Clear 19 1027 25 12874 2.6 340 18:57 14.12.2019
2415 Clear 19 1027 25 12874 2.6 340 18:39 14.12.2019
2416 Clear 19 1028 36 11265 2.6 110 18:21 14.12.2019
2417 Clear 16 1028 38 11265 2.1 80 17:59 14.12.2019
2418 Clear 16 1028 38 11265 2.1 80 17:41 14.12.2019
2419 Clear 16 1028 38 11265 2.1 80 17:22 14.12.2019
2420 Clear 13 1028 50 12874 2.6 90 16:41 14.12.2019
2421 Clear 12 1028 53 16093 2.6 70 16:19 14.12.2019
2422 Clear 9 1027 53 16093 1 60 15:56 14.12.2019
2423 Clear 9 1027 53 16093 1 60 15:38 14.12.2019
2424 Clear 9 1027 53 16093 1 60 15:19 14.12.2019
2425 Clear 7 1027 65 16093 2.1 80 14:56 14.12.2019
2426 Clear 7 1027 65 16093 2.1 80 14:37 14.12.2019
2427 Clear 7 1027 65 16093 2.1 80 14:37 14.12.2019
2428 Clear 7 1027 65 16093 2.1 80 14:18 14.12.2019
2429 Clear 7 1027 65 16093 2.1 80 14:18 14.12.2019
2430 Clear 5 1027 65 16093 2.6 70 13:44 14.12.2019
2431 Clear 5 1027 65 16093 2.6 70 13:19 14.12.2019
2432 Clear 5 1027 61 16093 2.1 80 12:58 14.12.2019
2433 Clear 4 1027 61 16093 2.1 80 12:39 14.12.2019
2434 Clear 4 1027 61 16093 2.1 80 12:20 14.12.2019
2435 Clear 5 1027 61 16093 1.04 23 11:58 14.12.2019
2436 Clear 5 1027 61 16093 1.04 23 11:39 14.12.2019
2437 Clear 7 1027 61 16093 1.62 9 11:19 14.12.2019
2438 Clear 7 1027 61 16093 2.6 70 10:56 14.12.2019
2439 Clear 7 1027 61 16093 2.6 70 10:38 14.12.2019
2440 Clear 7 1027 61 16093 2.6 70 10:20 14.12.2019
2441 Clear 6 1027 61 16093 3.1 70 09:43 14.12.2019
2442 Clear 7 1027 53 19312 2.1 70 09:23 14.12.2019
2443 Clear 7 1027 50 19312 1.62 9 08:59 14.12.2019
2444 Clear 7 1027 50 19312 1.62 9 08:59 14.12.2019
2445 Clear 9 1027 50 19312 1.62 9 08:40 14.12.2019
2446 Clear 10 1027 41 19312 2.6 280 08:19 14.12.2019
2447 Clear 11 1027 38 19312 3.1 280 07:40 14.12.2019
2448 Clear 12 1027 38 19312 3.1 280 07:21 14.12.2019
2449 Clear 12 1027 41 19312 2.6 320 06:55 14.12.2019
2450 Clear 12 1027 41 19312 2.6 320 06:36 14.12.2019
2451 Clear 15 1027 29 19312 3.6 40 05:52 14.12.2019
2452 Clear 16 1027 31 16093 2.6 60 04:29 14.12.2019
2453 Clear 20 1024 20 12874 4.6 10 02:24 14.12.2019
2454 Clouds 22 1024 21 12874 3.1 10 01:44 14.12.2019
2455 Clouds 22 1024 21 12874 3.1 10 01:20 14.12.2019
2456 Clouds 23 1024 19 11265 2.6 60 00:43 14.12.2019
2457 Clouds 23 1024 19 11265 2.6 60 00:22 14.12.2019
2458 Clouds 23 1024 24 11265 3.1 40 23:42 13.12.2019
2459 Clouds 23 1024 24 11265 3.1 40 23:20 13.12.2019
2460 Clear 23 1024 26 11265 3.1 360 22:59 13.12.2019
2461 Clear 23 1024 26 11265 3.1 360 22:40 13.12.2019
2462 Clear 23 1024 26 11265 3.1 360 22:18 13.12.2019
2463 Clear 23 1025 30 11265 3.1 20 21:46 13.12.2019
2464 Clear 22 1025 30 11265 3.1 20 21:22 13.12.2019
2465 Clear 22 1026 30 9656 2.1 340 20:59 13.12.2019
2466 Clear 22 1026 30 9656 2.1 340 20:40 13.12.2019
2467 Clear 22 1026 30 9656 2.1 340 20:40 13.12.2019
2468 Clear 19 1028 34 12874 2.1 350 20:21 13.12.2019
2469 Clear 21 1028 34 12874 2.1 350 19:57 13.12.2019
2470 Clear 20 1028 34 12874 2.1 350 19:39 13.12.2019
2471 Clear 20 1028 34 12874 2.1 350 19:20 13.12.2019
2472 Clear 19 1029 42 9656 1.5 80 18:56 13.12.2019
2473 Clear 19 1029 42 9656 1.5 80 18:38 13.12.2019
2474 Clear 19 1029 42 9656 1.5 80 18:38 13.12.2019
2475 Clear 19 1029 42 9656 1.5 80 18:18 13.12.2019
2476 Clear 19 1029 42 9656 1.5 80 18:18 13.12.2019
2477 Clear 16 1030 51 9656 2.1 80 17:41 13.12.2019
2478 Clear 16 1030 51 9656 2.1 80 17:19 13.12.2019
2479 Clear 16 1030 51 9656 2.1 80 17:19 13.12.2019
2480 Clouds 13 1029 58 12874 2.1 80 16:58 13.12.2019
2481 Clouds 13 1029 58 12874 2.1 80 16:39 13.12.2019
2482 Clouds 13 1029 58 12874 2.1 80 16:20 13.12.2019
2483 Clouds 11 1029 62 12874 2.1 50 15:43 13.12.2019
2484 Clouds 11 1029 62 12874 2.1 50 15:22 13.12.2019
2485 Clouds 9 1028 70 14484 2.6 80 14:57 13.12.2019
2486 Clouds 9 1028 70 14484 2.6 80 14:39 13.12.2019
2487 Clouds 9 1028 70 14484 2.6 80 14:20 13.12.2019
2488 Clouds 7 1028 70 12874 2.6 80 13:45 13.12.2019
2489 Clouds 7 1028 70 12874 2.6 80 13:27 13.12.2019
2490 Clouds 7 1028 75 12874 2.6 80 12:59 13.12.2019
2491 Clouds 8 1028 57 12874 2.1 360 12:41 13.12.2019
2492 Clouds 9 1028 57 12874 2.1 360 12:19 13.12.2019
2493 Clouds 8 1028 61 12874 2.6 60 11:45 13.12.2019
2494 Clouds 9 1028 61 12874 2.6 60 11:27 13.12.2019
2495 Clear 9 1028 62 12874 2.6 50 10:58 13.12.2019
2496 Clear 8 1028 62 12874 2.6 50 10:40 13.12.2019
2497 Clear 8 1028 62 12874 2.6 50 10:21 13.12.2019
2498 Clear 11 1028 62 12874 2.6 50 09:43 13.12.2019
2499 Clouds 12 1029 51 14484 2.6 300 09:22 13.12.2019
2500 Clouds 12 1029 47 14484 3.1 300 08:55 13.12.2019
2501 Clouds 13 1029 47 14484 3.1 300 08:37 13.12.2019
2502 Clouds 13 1029 47 14484 3.1 300 08:19 13.12.2019
2503 Clouds 14 1029 41 16093 1 330 07:43 13.12.2019
2504 Clouds 14 1029 44 16093 2.6 360 07:19 13.12.2019
2505 Clouds 14 1029 44 16093 2.6 360 06:46 13.12.2019
2506 Clouds 14 1029 44 16093 2.6 360 06:27 13.12.2019
2507 Clouds 14 1029 42 16093 2.6 20 05:41 13.12.2019
2508 Clouds 14 1029 42 16093 2.6 20 05:20 13.12.2019
2509 Clouds 16 1028 42 16093 3.6 30 04:29 13.12.2019
2510 Clouds 16 1028 42 16093 3.6 10 03:29 13.12.2019
2511 Clouds 19 1027 26 16093 2.6 330 02:31 13.12.2019
2512 Clouds 20 1026 23 12874 2.1 360 01:39 13.12.2019
2513 Clouds 21 1026 26 11265 2.1 20 00:51 13.12.2019
2514 Clouds 21 1026 26 11265 2.1 20 00:29 13.12.2019
2515 Clouds 23 1026 23 9656 2.66 20 23:46 12.12.2019
2516 Clouds 23 1026 23 9656 2.66 20 23:27 12.12.2019
2517 Clouds 23 1027 21 9656 2.6 60 22:57 12.12.2019
2518 Clouds 22 1027 21 9656 2.6 60 22:39 12.12.2019
2519 Clouds 22 1027 21 9656 2.6 60 22:21 12.12.2019
2520 Clouds 23 1027 19 9656 1.5 190 21:56 12.12.2019
2521 Clouds 23 1027 19 9656 1.5 190 21:38 12.12.2019
2522 Clouds 23 1027 19 9656 1.5 190 21:20 12.12.2019
2523 Clouds 23 1027 19 9656 1.5 190 21:20 12.12.2019
2524 Clouds 22 1029 32 8047 2.6 60 20:59 12.12.2019
2525 Clouds 21 1029 32 8047 2.6 60 20:40 12.12.2019
2526 Clouds 21 1029 32 8047 2.6 60 20:22 12.12.2019
2527 Clouds 21 1030 37 8047 1.5 330 19:56 12.12.2019
2528 Clear 20 1031 45 8047 1.5 140 19:38 12.12.2019
2529 Clear 20 1031 45 8047 1.5 140 19:20 12.12.2019
2530 Clear 19 1031 45 8047 2.1 160 18:56 12.12.2019
2531 Clouds 18 1032 51 8047 1.55 328 18:38 12.12.2019
2532 Clouds 17 1032 51 8047 1.55 328 18:19 12.12.2019
2533 Clouds 16 1032 58 8047 1.5 130 17:57 12.12.2019
2534 Clouds 15 1032 62 8047 1.5 80 17:38 12.12.2019
2535 Clouds 15 1032 62 8047 1.5 80 17:19 12.12.2019
2536 Clouds 12 1033 66 8047 1.5 70 16:55 12.12.2019
2537 Clouds 12 1033 66 8047 1.5 70 16:36 12.12.2019
2538 Clouds 12 1033 66 8047 1.5 70 16:18 12.12.2019
2539 Clouds 8 1031 81 8047 2.6 70 15:42 12.12.2019
2540 Clouds 8 1031 81 8047 2.6 70 15:20 12.12.2019
2541 Mist 8 1031 87 8047 2.6 40 14:59 12.12.2019
2542 Mist 8 1031 87 8047 2.6 40 14:38 12.12.2019
2543 Mist 8 1031 87 8047 2.6 40 14:19 12.12.2019
2544 Smoke 5 1030 87 8047 0.95 34 13:56 12.12.2019
2545 Smoke 5 1030 87 8047 0.95 34 13:38 12.12.2019
2546 Smoke 6 1030 87 8047 0.77 36 13:20 12.12.2019
2547 Smoke 6 1030 81 8047 1.5 70 12:56 12.12.2019
2548 Smoke 6 1030 81 8047 1.5 70 12:38 12.12.2019
2549 Smoke 7 1030 81 8047 1.5 70 12:19 12.12.2019
2550 Smoke 7 1030 81 8047 1.5 70 12:19 12.12.2019
2551 Clouds 6 1030 81 9656 3.1 70 11:54 12.12.2019
2552 Clouds 7 1030 81 9656 3.1 70 11:36 12.12.2019
2553 Clouds 7 1030 81 9656 3.1 70 11:18 12.12.2019
2554 Clouds 7 1031 81 11265 3.1 70 10:41 12.12.2019
2555 Clouds 7 1031 81 11265 3.1 70 10:23 12.12.2019
2556 Clouds 7 1031 81 11265 3.1 70 10:23 12.12.2019
2557 Clouds 7 1031 81 11265 3.6 60 09:59 12.12.2019
2558 Clouds 7 1031 81 11265 3.6 60 09:59 12.12.2019
2559 Clouds 8 1031 81 11265 3.6 60 09:41 12.12.2019
2560 Clouds 8 1031 81 11265 3.6 60 09:23 12.12.2019
2561 Smoke 9 1031 76 12874 2.6 60 08:55 12.12.2019
2562 Smoke 9 1031 76 12874 2.6 60 08:37 12.12.2019
2563 Smoke 9 1031 76 12874 2.6 60 08:18 12.12.2019
2564 Clouds 9 1031 66 12874 2.1 240 07:41 12.12.2019
2565 Clouds 10 1031 66 12874 2.1 240 07:23 12.12.2019
2566 Clouds 10 1031 62 12874 2.1 320 06:44 12.12.2019
2567 Clouds 10 1031 62 12874 2.1 320 06:24 12.12.2019
2568 Clouds 11 1031 58 12874 3.1 290 05:36 12.12.2019
2569 Clouds 12 1030 58 12874 3.6 290 04:51 12.12.2019
2570 Clouds 17 1028 42 11265 4.1 210 02:57 12.12.2019
2571 Clouds 17 1028 42 11265 4.1 210 02:37 12.12.2019
2572 Clouds 17 1028 42 11265 4.1 210 02:18 12.12.2019
2573 Clouds 19 1027 37 11265 4.1 190 01:37 12.12.2019
2574 Clouds 19 1027 37 11265 4.1 190 01:18 12.12.2019
2575 Clouds 21 1026 30 8047 5.1 140 00:40 12.12.2019
2576 Clouds 21 1026 30 8047 5.1 140 00:18 12.12.2019
2577 Clouds 21 1026 35 6437 3.1 70 23:42 11.12.2019
2578 Clouds 21 1026 35 6437 3.1 70 23:20 11.12.2019
2579 Clouds 22 1027 35 6437 2.1 160 22:57 11.12.2019
2580 Clouds 22 1027 35 6437 2.1 160 22:38 11.12.2019
2581 Clouds 22 1027 35 6437 2.1 160 22:19 11.12.2019
2582 Clouds 22 1028 40 6437 2.1 110 21:55 11.12.2019
2583 Clouds 22 1028 40 6437 2.1 110 21:37 11.12.2019
2584 Clouds 22 1028 40 6437 2.1 110 21:19 11.12.2019
2585 Clear 21 1028 40 6437 2.1 120 20:55 11.12.2019
2586 Clouds 21 1030 45 6437 0.86 48 20:37 11.12.2019
2587 Clouds 20 1030 45 6437 1.8 287 20:18 11.12.2019
2588 Clouds 20 1031 55 6437 3.6 50 19:43 11.12.2019
2589 Clouds 19 1031 55 6437 3.6 50 19:23 11.12.2019
2590 Clouds 18 1031 58 6437 3.1 350 19:00 11.12.2019
2591 Clouds 17 1031 58 6437 3.1 350 18:40 11.12.2019
2592 Clouds 17 1031 58 6437 3.1 350 18:20 11.12.2019
2593 Haze 16 1032 50 4828 2.6 170 17:57 11.12.2019
2594 Haze 16 1032 50 4828 2.6 170 17:38 11.12.2019
2595 Haze 16 1032 50 4828 2.6 170 17:18 11.12.2019
2596 Clouds 14 1031 62 6437 1.32 4 16:56 11.12.2019
2597 Clouds 13 1031 71 6437 2.1 180 16:37 11.12.2019
2598 Clouds 13 1031 71 6437 2.1 180 16:37 11.12.2019
2599 Clouds 13 1031 71 6437 2.1 180 16:19 11.12.2019
2600 Clouds 11 1030 76 6437 1.32 4 15:57 11.12.2019
2601 Clouds 11 1030 76 6437 1.32 4 15:37 11.12.2019
2602 Clouds 11 1030 76 6437 1.32 4 15:19 11.12.2019
2603 Clouds 9 1029 81 8047 3.1 60 14:55 11.12.2019
2604 Clouds 9 1029 81 8047 3.1 60 14:36 11.12.2019
2605 Clouds 9 1029 81 8047 3.1 60 14:18 11.12.2019
2606 Clouds 7 1029 87 8047 1.5 90 13:43 11.12.2019
2607 Clouds 7 1029 87 8047 1.5 90 13:23 11.12.2019
2608 Clouds 8 1029 81 8047 3.1 60 12:58 11.12.2019
2609 Clouds 8 1029 81 8047 3.1 60 12:39 11.12.2019
2610 Clouds 8 1029 81 8047 3.1 60 12:21 11.12.2019
2611 Clouds 8 1028 81 8047 2.6 60 11:58 11.12.2019
2612 Clouds 8 1028 81 8047 2.6 60 11:39 11.12.2019
2613 Clouds 8 1028 81 8047 2.6 60 11:19 11.12.2019
2614 Clouds 8 1028 81 8047 2.6 60 11:19 11.12.2019
2615 Clear 9 1028 76 8047 1.5 280 10:59 11.12.2019
2616 Clear 9 1028 76 8047 1.5 280 10:39 11.12.2019
2617 Clear 8 1028 76 8047 1.5 280 10:21 11.12.2019
2618 Clear 10 1029 71 9656 2.6 280 09:55 11.12.2019
2619 Clear 10 1029 71 9656 2.6 280 09:37 11.12.2019
2620 Clear 10 1029 71 9656 2.6 280 09:19 11.12.2019
2621 Clear 10 1028 71 9656 4.1 300 08:55 11.12.2019
2622 Clear 10 1028 71 9656 4.1 300 08:36 11.12.2019
2623 Clear 10 1028 71 9656 4.1 300 08:18 11.12.2019
2624 Clear 11 1028 67 9656 5.1 300 07:42 11.12.2019
2625 Clear 11 1028 67 9656 5.1 300 07:42 11.12.2019
2626 Clear 12 1028 67 9656 5.1 300 07:22 11.12.2019
2627 Clear 12 1028 58 9656 5.1 280 06:45 11.12.2019
2628 Clear 12 1028 58 9656 5.1 280 06:24 11.12.2019
2629 Clear 12 1028 54 9656 3.1 280 05:52 11.12.2019
2630 Clear 13 1028 39 11265 1.5 110 05:28 11.12.2019
2631 Clear 13 1027 44 12874 3.1 90 04:48 11.12.2019
2632 Clear 16 1026 29 12874 3.1 120 03:18 11.12.2019
2633 Clouds 21 1024 30 11265 6.7 150 01:56 11.12.2019
2634 Clouds 21 1024 30 11265 6.7 150 01:21 11.12.2019
2635 Clouds 23 1023 23 11265 3.1 290 00:37 11.12.2019
2636 Clouds 23 1023 23 11265 3.1 290 00:18 11.12.2019
2637 Clouds 24 1023 19 11265 4 150 23:43 10.12.2019
2638 Clouds 24 1023 19 11265 0.08 222 23:22 10.12.2019
2639 Clouds 25 1023 10 11265 2.1 70 22:42 10.12.2019
2640 Clouds 25 1023 10 11265 2.1 70 22:24 10.12.2019
2641 Clouds 24 1024 17 9656 2.6 100 21:58 10.12.2019
2642 Clouds 24 1024 17 9656 2.6 100 21:40 10.12.2019
2643 Clouds 24 1024 17 9656 2.6 100 21:21 10.12.2019
2644 Clear 24 1026 23 9656 2.1 150 20:59 10.12.2019
2645 Clear 23 1026 23 9656 2.1 150 20:59 10.12.2019
2646 Clear 23 1026 23 9656 2.1 150 20:38 10.12.2019
2647 Clear 23 1026 23 9656 2.1 150 20:38 10.12.2019
2648 Clear 23 1026 23 9656 2.1 150 20:38 10.12.2019
2649 Clear 23 1026 23 9656 2.1 150 20:38 10.12.2019
2650 Clear 23 1026 23 9656 2.1 150 20:38 10.12.2019
2651 Clear 23 1026 23 9656 2.1 150 20:20 10.12.2019
2652 Clear 22 1026 23 9656 2.1 150 19:58 10.12.2019
2653 Clouds 21 1027 32 8047 1.5 180 19:40 10.12.2019
2654 Clouds 21 1027 32 8047 1.5 180 19:22 10.12.2019
2655 Clear 19 1028 34 8047 2.1 170 18:56 10.12.2019
2656 Clear 20 1028 34 8047 2.1 170 18:38 10.12.2019
2657 Clear 20 1028 34 8047 2.1 170 18:18 10.12.2019
2658 Clouds 17 1028 39 8047 1.5 70 17:54 10.12.2019
2659 Clouds 17 1028 39 8047 1.5 70 17:36 10.12.2019
2660 Clouds 16 1028 39 8047 1.5 70 17:18 10.12.2019
2661 Clear 13 1029 50 8047 1.5 100 16:41 10.12.2019
2662 Clear 13 1029 50 8047 1.5 100 16:19 10.12.2019
2663 Clouds 11 1028 62 11265 2.1 70 15:40 10.12.2019
2664 Clouds 11 1028 62 11265 2.1 70 15:19 10.12.2019
2665 Fog 10 1029 93 805 2.1 80 14:57 10.12.2019
2666 Mist 10 1027 70 9656 1.5 80 14:38 10.12.2019
2667 Mist 10 1027 70 9656 1.5 80 14:20 10.12.2019
2668 Clear 8 1026 66 9656 2.1 90 13:58 10.12.2019
2669 Clear 8 1026 66 9656 2.1 90 13:40 10.12.2019
2670 Clear 8 1026 66 9656 2.1 90 13:20 10.12.2019
2671 Clear 8 1026 66 9656 2.1 90 13:20 10.12.2019
2672 Fog 8 1028 93 805 1.26 110 12:49 10.12.2019
2673 Clear 7 1026 66 9656 2.1 80 12:28 10.12.2019
2674 Clear 8 1026 66 11265 2.1 50 11:58 10.12.2019
2675 Clear 8 1026 66 11265 2.1 50 11:40 10.12.2019
2676 Clear 8 1026 66 11265 2.1 50 11:21 10.12.2019
2677 Clear 8 1026 66 11265 2.1 40 10:43 10.12.2019
2678 Clear 8 1026 66 11265 2.1 40 10:24 10.12.2019
2679 Clear 10 1026 54 11265 1.5 240 09:57 10.12.2019
2680 Clear 10 1026 54 11265 1.5 240 09:57 10.12.2019
2681 Clear 10 1026 54 11265 1.5 240 09:39 10.12.2019
2682 Clear 10 1026 54 11265 1.5 240 09:20 10.12.2019
2683 Clear 11 1026 58 11265 1.7 133 08:58 10.12.2019
2684 Clear 11 1026 47 12874 1.7 133 08:39 10.12.2019
2685 Clear 12 1026 47 12874 2.24 140 08:20 10.12.2019
2686 Clouds 12 1026 44 12874 1.5 110 07:45 10.12.2019
2687 Clouds 12 1026 44 12874 1.5 110 07:27 10.12.2019
2688 Clouds 13 1026 48 12874 3.1 130 06:50 10.12.2019
2689 Clouds 13 1026 48 12874 3.1 130 06:25 10.12.2019
2690 Clear 14 1026 48 12874 4.1 80 05:57 10.12.2019
2691 Clear 14 1026 48 12874 4.1 80 05:38 10.12.2019
2692 Clear 14 1025 45 16093 1.5 130 04:23 10.12.2019
2693 Clear 18 1024 45 14484 6.7 140 03:24 10.12.2019
2694 Clear 20 1023 34 12874 5.1 140 01:56 10.12.2019
2695 Clear 20 1023 34 12874 5.1 140 01:28 10.12.2019
2696 Clear 20 1023 34 12874 5.1 140 01:28 10.12.2019
2697 Clear 22 1023 30 12874 5.1 130 00:58 10.12.2019
2698 Haze 23 1022 28 11265 6.7 120 00:26 10.12.2019
2699 Clear 24 1022 23 11265 6.2 120 23:58 09.12.2019
2700 Clear 24 1022 23 11265 6.2 120 23:39 09.12.2019
2701 Clear 24 1022 23 11265 6.2 120 23:20 09.12.2019
2702 Clear 25 1023 16 11265 2.1 210 22:55 09.12.2019
2703 Clear 25 1023 16 11265 2.1 210 22:37 09.12.2019
2704 Clear 25 1023 16 11265 2.1 210 22:18 09.12.2019
2705 Clear 24 1024 16 11265 3.6 110 21:55 09.12.2019
2706 Clear 24 1024 16 11265 3.6 110 21:37 09.12.2019
2707 Clear 24 1024 16 11265 3.6 110 21:18 09.12.2019
2708 Clear 24 1025 16 9656 1.08 169 20:55 09.12.2019
2709 Clear 24 1025 16 9656 1.08 169 20:37 09.12.2019
2710 Clear 24 1025 16 9656 0.69 202 20:18 09.12.2019
2711 Clear 22 1025 18 9656 2.1 130 19:54 09.12.2019
2712 Clear 21 1026 21 9656 0.69 202 19:36 09.12.2019
2713 Clear 21 1026 21 9656 0.69 202 19:18 09.12.2019
2714 Clear 20 1027 30 8047 2.6 140 18:40 09.12.2019
2715 Clear 18 1027 29 8047 0.69 202 18:20 09.12.2019
2716 Clear 18 1027 29 8047 0.69 202 17:59 09.12.2019
2717 Clear 17 1028 41 11265 1.5 50 17:41 09.12.2019
2718 Clear 16 1028 41 11265 1.5 50 17:21 09.12.2019
2719 Clear 14 1028 47 12874 2.1 100 16:58 09.12.2019
2720 -273 0 0 0 0 0 16:40 09.12.2019
2721 Clear 14 1028 47 12874 2.1 100 16:21 09.12.2019
2722 Clear 10 1030 80 8047 1.5 90 15:57 09.12.2019
2723 Clear 10 1030 80 8047 1.5 90 15:57 09.12.2019
2724 Clear 8 1028 57 14484 2.1 70 15:38 09.12.2019
2725 Clear 8 1028 57 14484 2.1 70 15:38 09.12.2019
2726 Clear 8 1028 57 14484 2.1 70 15:19 09.12.2019
2727 Clear 7 1027 61 12874 2.6 70 14:59 09.12.2019
2728 Clear 7 1027 61 12874 2.6 70 14:41 09.12.2019
2729 Clear 7 1027 61 12874 2.6 70 14:41 09.12.2019
2730 Clear 7 1027 61 12874 2.6 70 14:18 09.12.2019
2731 Clear 5 1027 65 12874 2.6 70 13:56 09.12.2019
2732 Clear 5 1027 65 12874 2.6 70 13:37 09.12.2019
2733 Clear 5 1027 65 12874 2.6 70 13:19 09.12.2019
2734 Clear 6 1026 61 11265 0.94 120 12:55 09.12.2019
2735 Clear 6 1026 61 11265 0.94 120 12:36 09.12.2019
2736 Clear 6 1026 61 11265 0.94 120 12:18 09.12.2019
2737 Clear 6 1026 57 11265 1 50 11:40 09.12.2019
2738 Clear 6 1026 57 11265 1 50 11:22 09.12.2019
2739 Clear 6 1027 57 11265 0.97 92 10:59 09.12.2019
2740 Clear 6 1027 57 11265 0.97 92 10:39 09.12.2019
2741 Clear 6 1027 57 11265 0.97 92 10:39 09.12.2019
2742 Clear 6 1027 57 11265 0.97 92 10:19 09.12.2019
2743 Clear 9 1027 41 12874 1 60 09:45 09.12.2019
2744 Clear 9 1027 41 12874 1 60 09:25 09.12.2019
2745 Clear 10 1027 33 16093 1.5 280 08:57 09.12.2019
2746 Clear 10 1027 33 16093 1.5 280 08:39 09.12.2019
2747 Clear 10 1027 33 16093 1.5 280 08:20 09.12.2019
2748 Clear 11 1027 30 16093 4.1 310 07:52 09.12.2019
2749 Clear 11 1027 30 16093 4.1 310 07:33 09.12.2019
2750 Clear 13 1028 26 16093 2.6 280 06:58 09.12.2019
2751 Clear 13 1028 26 16093 2.6 280 06:30 09.12.2019
2752 Clear 14 1028 23 16093 3.6 280 05:42 09.12.2019
2753 Clear 14 1028 23 16093 3.6 280 05:20 09.12.2019
2754 Clear 15 1028 20 17702 2.1 340 04:27 09.12.2019
2755 Clear 15 1028 20 17702 2.1 340 04:27 09.12.2019
2756 Clear 18 1026 30 14484 3.6 110 02:29 09.12.2019
2757 Clear 21 1025 14 12874 2.1 340 01:46 09.12.2019
2758 Clear 23 1025 16 11265 3.1 90 00:58 09.12.2019
2759 Clear 23 1025 16 11265 3.1 90 00:33 09.12.2019
2760 Clear 24 1025 19 9656 2.1 50 23:55 08.12.2019
2761 Clear 24 1025 19 9656 2.1 50 23:37 08.12.2019
2762 Clear 24 1025 19 9656 2.1 50 23:19 08.12.2019
2763 Clear 24 1025 16 9656 2.1 140 22:56 08.12.2019
2764 Clear 24 1025 16 9656 2.1 140 22:38 08.12.2019
2765 Clear 24 1025 16 9656 2.1 140 22:18 08.12.2019
2766 Clear 23 1026 16 8047 2.35 357 21:56 08.12.2019
2767 Clear 23 1026 16 8047 2.35 357 21:37 08.12.2019
2768 Clear 23 1026 16 8047 2.35 357 21:19 08.12.2019
2769 Clear 23 1026 16 8047 2.35 357 21:19 08.12.2019
2770 Clear 23 1027 16 8047 1.5 310 20:55 08.12.2019
2771 Clear 22 1028 30 8047 3.1 320 20:37 08.12.2019
2772 Clear 21 1029 37 8047 2.1 70 20:19 08.12.2019
2773 Clear 21 1029 37 8047 2.1 70 19:55 08.12.2019
2774 Clear 21 1029 37 8047 2.1 70 19:36 08.12.2019
2775 Clear 21 1029 37 8047 2.1 70 19:18 08.12.2019
2776 Clear 21 1029 37 8047 2.1 70 19:18 08.12.2019
2777 Clear 21 1029 37 8047 2.1 70 19:18 08.12.2019
2778 Clear 19 1029 39 8047 1.21 334 18:54 08.12.2019
2779 Clear 19 1030 45 8047 1.21 334 18:36 08.12.2019
2780 Clear 18 1030 45 8047 1.21 334 18:18 08.12.2019
2781 Clear 16 1031 51 8047 1.5 160 17:54 08.12.2019
2782 Clear 15 1031 58 8047 1.21 334 17:36 08.12.2019
2783 Clear 15 1031 58 8047 0.16 131 17:18 08.12.2019
2784 Clear 12 1031 66 8047 3.1 100 16:42 08.12.2019
2785 Clear 12 1031 66 8047 3.1 100 16:24 08.12.2019
2786 Clear 8 1030 75 8047 2.1 70 15:59 08.12.2019
2787 Clear 8 1030 75 8047 2.1 70 15:37 08.12.2019
2788 Clear 7 1030 75 8047 2.1 70 15:18 08.12.2019
2789 Clear 7 1030 75 8047 2.1 70 15:18 08.12.2019
2790 Mist 6 1029 87 6437 2.6 60 14:57 08.12.2019
2791 Mist 6 1029 87 6437 2.6 60 14:37 08.12.2019
2792 Mist 6 1029 87 6437 2.6 60 14:19 08.12.2019
2793 Clear 5 1029 81 6437 2.1 70 13:41 08.12.2019
2794 Clear 5 1029 81 6437 2.1 70 13:22 08.12.2019
2795 Clear 4 1029 87 6437 2.1 30 12:59 08.12.2019
2796 Clear 4 1029 87 6437 2.1 30 12:40 08.12.2019
2797 Clear 4 1029 87 6437 2.1 30 12:19 08.12.2019
2798 Clear 4 1029 87 6437 2.1 30 12:19 08.12.2019
2799 Clear 4 1029 87 8047 2.6 60 11:58 08.12.2019
2800 Clear 4 1029 87 8047 2.6 60 11:37 08.12.2019
2801 Clear 6 1029 87 8047 2.6 60 11:19 08.12.2019
2802 Clear 6 1030 87 8047 1.5 40 10:55 08.12.2019
2803 Clear 6 1030 87 8047 1.5 40 10:37 08.12.2019
2804 Clear 7 1030 87 8047 1.5 40 10:19 08.12.2019
2805 Clear 8 1030 81 9656 2.1 90 09:55 08.12.2019
2806 Clear 8 1030 81 9656 2.1 90 09:36 08.12.2019
2807 Clear 8 1030 81 9656 2.1 90 09:18 08.12.2019
2808 Clear 8 1030 81 9656 2.1 90 09:18 08.12.2019
2809 Clear 8 1030 81 9656 2.6 100 08:41 08.12.2019
2810 Clear 9 1030 66 11265 2.6 80 08:23 08.12.2019
2811 Clear 10 1031 58 12874 2.4 5 07:55 08.12.2019
2812 Clear 10 1031 58 12874 2.4 5 07:36 08.12.2019
2813 Clear 10 1031 58 12874 2.4 5 07:18 08.12.2019
2814 Clear 12 1031 54 12874 3.6 310 06:40 08.12.2019
2815 Clear 12 1031 54 12874 3.6 310 06:20 08.12.2019
2816 Clear 13 1031 44 12874 3.6 310 05:23 08.12.2019
2817 Clear 14 1030 48 11265 2.1 10 04:46 08.12.2019
2818 Clear 15 1030 39 11265 3.1 80 03:39 08.12.2019
2819 Clear 17 1029 34 9656 5.1 130 02:43 08.12.2019
2820 Clear 17 1029 34 9656 5.1 130 02:20 08.12.2019
2821 Clear 19 1029 34 9656 5.1 120 01:40 08.12.2019
2822 Clear 22 1028 19 9656 2.1 80 00:54 08.12.2019
2823 Clear 23 1028 17 9656 1.21 326 00:24 08.12.2019
2824 Clear 23 1028 17 9656 2.1 40 23:59 07.12.2019
2825 Clear 23 1028 17 9656 2.1 40 23:38 07.12.2019
2826 Clear 23 1029 16 9656 2.1 40 23:20 07.12.2019
2827 Clear 23 1029 16 9656 2.1 40 22:55 07.12.2019
2828 Clear 22 1029 16 9656 2.1 40 22:37 07.12.2019
2829 Clear 22 1029 16 9656 2.1 40 22:37 07.12.2019
2830 Clear 22 1029 16 9656 2.1 40 22:37 07.12.2019
2831 Clear 22 1029 16 9656 2.1 40 22:19 07.12.2019
2832 Clear 22 1029 19 9656 2.06 318 21:55 07.12.2019
2833 Clear 22 1029 19 9656 2.06 318 21:55 07.12.2019
2834 Clear 22 1030 24 9656 1.5 270 21:37 07.12.2019
2835 Clear 21 1030 24 9656 1.5 270 21:18 07.12.2019
2836 Clear 20 1031 25 9656 2.1 40 20:38 07.12.2019
2837 Clear 20 1031 25 9656 2.1 40 20:20 07.12.2019
2838 Clear 19 1031 25 9656 2.6 50 19:58 07.12.2019
2839 Clear 19 1031 25 9656 2.6 50 19:58 07.12.2019
2840 Clear 18 1033 26 9656 1.65 336 19:39 07.12.2019
2841 Clear 18 1033 26 9656 1.65 336 19:21 07.12.2019
2842 Clear 17 1033 38 9656 2.1 70 18:58 07.12.2019
2843 Clear 17 1033 38 9656 2.1 70 18:40 07.12.2019
2844 Clear 17 1033 38 9656 2.1 70 18:40 07.12.2019
2845 Clear 17 1033 38 9656 2.1 70 18:18 07.12.2019
2846 Clear 15 1034 44 9656 2.1 20 17:56 07.12.2019
2847 Clear 14 1034 54 9656 2.6 90 17:37 07.12.2019
2848 Clear 14 1034 54 9656 2.6 90 17:19 07.12.2019
2849 Clear 11 1034 61 11265 2.1 50 16:56 07.12.2019
2850 Clear 11 1034 61 11265 2.1 50 16:36 07.12.2019
2851 Clear 11 1034 61 11265 2.1 50 16:36 07.12.2019
2852 Clear 11 1034 61 11265 2.1 50 16:18 07.12.2019
2853 Clear 11 1034 61 11265 2.1 50 16:18 07.12.2019
2854 Clear 5 1034 75 12874 2.1 60 15:41 07.12.2019
2855 Clear 8 1034 75 12874 2.1 60 15:23 07.12.2019
2856 Clear 8 1034 75 12874 2.1 60 15:23 07.12.2019
2857 Clear 6 1033 86 11265 3.6 60 14:56 07.12.2019
2858 Clear 6 1033 86 11265 3.6 60 14:38 07.12.2019
2859 Clear 6 1033 86 11265 3.6 60 14:18 07.12.2019
2860 Clear 4 1033 81 12874 2.6 60 13:40 07.12.2019
2861 Clear 4 1033 81 12874 2.6 60 13:20 07.12.2019
2862 Clear 5 1033 75 14484 2.1 50 12:55 07.12.2019
2863 Clear 5 1033 75 14484 2.1 50 12:37 07.12.2019
2864 Clear 5 1033 75 14484 2.1 50 12:18 07.12.2019
2865 Clear 6 1032 65 14484 1.5 50 11:42 07.12.2019
2866 Clear 6 1032 65 14484 1.5 50 11:23 07.12.2019
2867 Clear 7 1032 57 16093 4.1 320 10:58 07.12.2019
2868 Clear 8 1032 57 16093 4.1 320 10:37 07.12.2019
2869 Clear 8 1032 57 16093 4.1 320 10:18 07.12.2019
2870 Clear 8 1033 50 16093 3.1 300 09:40 07.12.2019
2871 Clear 9 1032 46 16093 4.1 300 09:21 07.12.2019
2872 Clear 9 1032 46 16093 4.1 300 09:21 07.12.2019
2873 Clear 9 1032 46 16093 4.1 300 08:46 07.12.2019
2874 Clear 9 1032 46 16093 4.1 300 08:25 07.12.2019
2875 Clear 9 1032 46 16093 5.1 290 07:54 07.12.2019
2876 Clear 9 1032 46 16093 5.1 290 07:30 07.12.2019
2877 Clear 10 1032 46 16093 5.1 280 06:53 07.12.2019
2878 Clear 12 1032 47 16093 5.1 300 06:28 07.12.2019
2879 Clear 14 1031 38 16093 3.6 320 05:50 07.12.2019
2880 Clear 14 1031 38 16093 3.6 320 04:49 07.12.2019
2881 Clear 16 1029 18 19312 5.1 20 03:53 07.12.2019
2882 Clear 18 1029 18 19312 5.1 20 02:50 07.12.2019
2883 Clear 19 1028 14 19312 6.2 30 02:19 07.12.2019
2884 Clear 21 1027 11 19312 7.2 360 01:30 07.12.2019
2885 Clear 23 1026 9 16093 7.7 30 00:43 07.12.2019
2886 Clear 23 1026 9 16093 7.7 30 00:18 07.12.2019
2887 Clear 24 1026 7 16093 7.2 20 23:45 06.12.2019
2888 Clear 25 1026 7 16093 7.2 20 23:23 06.12.2019
2889 Clear 25 1026 10 16093 7.2 350 22:58 06.12.2019
2890 Clear 25 1026 10 16093 7.2 350 22:58 06.12.2019
2891 Clear 25 1026 10 16093 7.2 350 22:36 06.12.2019
2892 Clear 25 1026 10 16093 7.2 350 22:18 06.12.2019
2893 Clear 24 1027 12 16093 6.2 350 21:41 06.12.2019
2894 Clear 24 1027 12 16093 6.2 350 21:21 06.12.2019
2895 Clear 24 1028 14 16093 4.6 30 20:59 06.12.2019
2896 Clear 23 1028 14 16093 4.6 30 20:41 06.12.2019
2897 Clear 23 1028 14 16093 4.6 30 20:41 06.12.2019
2898 Clear 23 1028 14 16093 4.6 30 20:21 06.12.2019
2899 Clear 22 1029 14 16093 3.6 360 19:54 06.12.2019
2900 Clear 22 1030 20 9656 3.1 310 19:36 06.12.2019
2901 Clear 21 1030 18 8047 2.77 349 19:18 06.12.2019
2902 Clear 19 1031 33 9656 1.5 110 18:44 06.12.2019
2903 Clear 19 1031 33 9656 1.5 110 18:22 06.12.2019
2904 Clear 17 1031 36 9656 2.1 80 17:58 06.12.2019
2905 Clear 16 1031 41 9656 2.1 80 17:40 06.12.2019
2906 Clear 16 1031 41 9656 2.1 80 17:40 06.12.2019
2907 Clear 16 1031 41 9656 2.1 80 17:22 06.12.2019
2908 Clear 13 1031 41 12874 3.1 90 16:58 06.12.2019
2909 Clear 13 1031 46 12874 2.6 80 16:39 06.12.2019
2910 Clear 12 1031 46 12874 2.6 80 16:20 06.12.2019
2911 Clear 10 1031 50 16093 2.1 70 15:41 06.12.2019
2912 Clear 10 1030 41 16093 2.1 90 15:23 06.12.2019
2913 Mist 9 1032 93 1609 1.37 6 14:58 06.12.2019
2914 Clear 9 1030 57 16093 2.1 20 14:40 06.12.2019
2915 Clear 9 1030 57 16093 2.1 20 14:20 06.12.2019
2916 Clear 6 1029 65 16093 2.1 50 13:55 06.12.2019
2917 Clear 6 1029 65 16093 2.1 50 13:37 06.12.2019
2918 Clear 6 1029 65 16093 2.1 50 13:19 06.12.2019
2919 Clear 7 1029 65 16093 1.07 35 12:39 06.12.2019
2920 Clear 7 1029 65 16093 1.07 35 12:21 06.12.2019
2921 Clear 8 1029 57 16093 2.1 80 11:43 06.12.2019
2922 Clear 8 1029 57 16093 2.1 80 11:23 06.12.2019
2923 Clear 8 1028 49 16093 2.1 50 10:58 06.12.2019
2924 Clear 9 1028 49 16093 2.1 50 10:40 06.12.2019
2925 Clear 9 1028 49 16093 2.1 50 10:20 06.12.2019
2926 Clear 9 1028 49 16093 1.5 70 09:56 06.12.2019
2927 Clear 10 1029 46 19312 1.5 60 09:37 06.12.2019
2928 Clear 9 1029 46 19312 1.5 60 09:19 06.12.2019
2929 Clear 11 1029 43 19312 1.5 60 08:43 06.12.2019
2930 Clear 10 1029 43 19312 1.5 60 08:25 06.12.2019
2931 Clear 13 1029 38 16093 4.1 290 07:43 06.12.2019
2932 Clear 13 1029 38 16093 4.1 290 07:23 06.12.2019
2933 Clear 13 1029 38 16093 4.1 290 07:23 06.12.2019
2934 Clear 13 1029 38 16093 4.1 290 07:23 06.12.2019
2935 Clear 14 1029 29 16093 3.6 310 06:53 06.12.2019
2936 Clear 14 1029 29 16093 3.6 310 06:26 06.12.2019
2937 Clear 15 1029 27 16093 2.6 330 05:51 06.12.2019
2938 Clear 16 1027 24 16093 3.1 10 03:57 06.12.2019
2939 Clear 21 1025 19 11265 2.6 280 01:48 06.12.2019
2940 Clear 21 1025 19 11265 2.6 280 01:48 06.12.2019
2941 Clear 24 1025 20 9656 2.1 280 00:57 06.12.2019
2942 Clear 24 1025 20 9656 2.1 280 00:37 06.12.2019
2943 Clear 24 1025 20 9656 2.1 280 00:19 06.12.2019
2944 Clouds 24 1026 26 11265 2.11 342 23:21 05.12.2019
2945 Clear 22 1025 16 9656 3.1 360 22:59 05.12.2019
2946 Clear 22 1025 16 9656 3.1 360 22:39 05.12.2019
2947 Clear 22 1026 16 9656 2.1 360 22:20 05.12.2019
2948 Clear 22 1026 16 9656 2.1 360 22:20 05.12.2019
2949 Clear 22 1025 16 9656 3.1 360 22:20 05.12.2019
2950 Clear 22 1026 16 9656 2.1 360 21:58 05.12.2019
2951 Clear 22 1026 16 9656 2.1 360 21:40 05.12.2019
2952 Clear 22 1026 16 9656 2.1 360 21:22 05.12.2019
2953 Clear 22 1027 26 9656 2.6 70 20:58 05.12.2019
2954 Clear 22 1027 26 9656 2.6 70 20:40 05.12.2019
2955 Clear 22 1027 26 9656 2.6 70 20:19 05.12.2019
2956 Clear 22 1027 26 9656 2.6 70 20:19 05.12.2019
2957 Clear 21 1028 28 9656 1.5 90 19:43 05.12.2019
2958 Clear 21 1028 28 9656 1.5 90 19:25 05.12.2019
2959 Clouds 19 1022 36 12874 1.76 344 18:59 05.12.2019
2960 Clear 19 1030 34 8047 1.5 30 18:39 05.12.2019
2961 Clear 19 1030 34 8047 1.5 30 18:39 05.12.2019
2962 Clear 19 1030 34 8047 1.5 30 18:21 05.12.2019
2963 Clear 17 1030 44 9656 2.1 60 17:59 05.12.2019
2964 Clear 17 1030 44 9656 2.1 60 17:38 05.12.2019
2965 Clear 16 1030 44 9656 2.1 60 17:19 05.12.2019
2966 Clear 14 1030 44 9656 2.1 100 16:55 05.12.2019
2967 Clear 14 1030 44 9656 2.1 100 16:37 05.12.2019
2968 Clear 13 1030 50 11265 2.6 80 16:18 05.12.2019
2969 Clear 10 1029 57 16093 3.1 80 15:55 05.12.2019
2970 Clear 10 1029 57 16093 3.1 80 15:36 05.12.2019
2971 Clear 10 1029 57 16093 3.1 80 15:18 05.12.2019
2972 Clear 9 1028 53 16093 1.5 60 14:54 05.12.2019
2973 Clear 9 1028 53 16093 1.5 60 14:36 05.12.2019
2974 Clear 10 1028 53 16093 1.5 60 14:18 05.12.2019
2975 Mist 6 1029 93 3219 1.13 46 13:54 05.12.2019
2976 Mist 6 1029 93 3219 1.13 46 13:36 05.12.2019
2977 Clear 6 1028 65 14484 2.1 70 13:18 05.12.2019
2978 Clear 7 1027 65 14484 2.1 70 12:41 05.12.2019
2979 Clear 7 1027 65 14484 2.1 70 12:23 05.12.2019
2980 Clear 7 1027 53 16093 1 70 11:56 05.12.2019
2981 Clear 7 1027 53 16093 1 70 11:37 05.12.2019
2982 Clear 8 1027 53 16093 1 70 11:18 05.12.2019
2983 Clear 9 1027 57 16093 2.1 60 10:54 05.12.2019
2984 Clear 9 1027 57 16093 2.1 60 10:54 05.12.2019
2985 Clear 9 1027 57 16093 2.1 60 10:36 05.12.2019
2986 Clear 9 1027 57 16093 2.1 60 10:18 05.12.2019
2987 Clear 10 1028 46 16093 2.1 50 09:42 05.12.2019
2988 Clear 10 1028 46 16093 2.1 50 09:20 05.12.2019
2989 Clear 11 1028 44 14484 2.6 300 08:57 05.12.2019
2990 Clear 11 1028 44 14484 2.6 300 08:37 05.12.2019
2991 Clear 12 1028 44 14484 2.6 300 08:19 05.12.2019
2992 Clear 12 1028 38 12874 2.6 300 07:49 05.12.2019
2993 Clear 12 1028 38 12874 2.6 300 07:31 05.12.2019
2994 Clear 13 1028 57 12874 2.6 290 06:56 05.12.2019
2995 Clear 13 1028 57 12874 2.6 290 06:37 05.12.2019
2996 Clear 13 1028 57 12874 2.6 290 06:18 05.12.2019
2997 Clear 14 1028 57 12874 3.1 10 05:44 05.12.2019
2998 Clear 14 1028 43 12874 3.1 10 05:19 05.12.2019
2999 Clear 15 1026 25 12874 4.1 50 03:52 05.12.2019
3000 Clear 19 1025 21 12874 3.1 10 02:42 05.12.2019
3001 Clear 19 1025 21 12874 3.1 10 02:23 05.12.2019
3002 Clouds 21 1025 21 12874 2.1 340 01:51 05.12.2019
3003 Clouds 21 1025 21 12874 2.1 340 01:24 05.12.2019
3004 Clouds 24 1024 18 12874 1.5 160 00:47 05.12.2019
3005 Clouds 24 1024 18 12874 1.5 160 00:22 05.12.2019
3006 Clouds 24 1024 17 12874 2.6 270 23:56 04.12.2019
3007 Clouds 24 1024 17 12874 2.6 270 23:37 04.12.2019
3008 Clouds 24 1024 17 12874 2.6 270 23:19 04.12.2019
3009 Clouds 24 1025 18 12874 4.1 40 22:39 04.12.2019
3010 Clouds 24 1025 18 12874 4.1 40 22:20 04.12.2019
3011 Clear 23 1025 18 16093 3.1 50 21:58 04.12.2019
3012 Clear 23 1025 18 16093 3.1 50 21:39 04.12.2019
3013 Clear 23 1025 18 16093 3.1 50 21:20 04.12.2019
3014 Clear 22 1027 17 16093 2.1 40 20:58 04.12.2019
3015 Clear 22 1027 17 16093 2.1 40 20:40 04.12.2019
3016 Clear 22 1027 22 16093 2.1 40 20:21 04.12.2019
3017 Clear 21 1028 28 16093 4.1 40 19:58 04.12.2019
3018 Clear 21 1028 28 16093 4.1 40 19:38 04.12.2019
3019 Clear 21 1028 28 16093 4.1 40 19:20 04.12.2019
3020 Clear 20 1029 32 9656 1.5 120 18:42 04.12.2019
3021 Clear 20 1029 32 9656 1.5 120 18:24 04.12.2019
3022 Clear 18 1029 37 9656 2.3 358 18:00 04.12.2019
3023 Clear 18 1029 37 9656 2.3 358 17:40 04.12.2019
3024 Clear 17 1029 42 12874 1.5 190 17:21 04.12.2019
3025 Clear 15 1029 47 12874 0.73 4 16:57 04.12.2019
3026 Clear 15 1029 47 12874 0.73 4 16:39 04.12.2019
3027 Clear 14 1029 54 14484 2.1 100 16:19 04.12.2019
3028 Clear 11 1029 57 14484 2.1 80 15:55 04.12.2019
3029 Clear 11 1029 57 14484 2.1 80 15:55 04.12.2019
3030 Clear 11 1029 57 14484 2.1 80 15:37 04.12.2019
3031 Clear 11 1029 57 14484 2.1 80 15:19 04.12.2019
3032 Clear 11 1029 57 14484 2.1 80 15:19 04.12.2019
3033 Clear 9 1028 66 12874 2.1 60 14:44 04.12.2019
3034 Clear 9 1028 66 12874 2.1 60 14:23 04.12.2019
3035 Clear 7 1027 61 11265 2.6 70 13:58 04.12.2019
3036 Clear 7 1027 61 11265 2.6 70 13:38 04.12.2019
3037 Clear 7 1027 61 11265 2.6 70 13:19 04.12.2019
3038 Clear 7 1027 61 11265 1.01 60 12:44 04.12.2019
3039 Clear 7 1027 61 11265 1.01 60 12:24 04.12.2019
3040 Clear 7 1027 57 11265 3.1 60 11:56 04.12.2019
3041 Clear 7 1027 57 11265 3.1 60 11:37 04.12.2019
3042 Clear 8 1027 57 11265 3.1 60 11:19 04.12.2019
3043 Clear 7 1027 53 12874 1.5 110 10:43 04.12.2019
3044 Clear 9 1027 53 12874 1.5 110 10:23 04.12.2019
3045 Clear 10 1027 50 12874 2.1 80 09:55 04.12.2019
3046 Clear 10 1027 50 12874 2.1 80 09:55 04.12.2019
3047 Clear 10 1027 50 12874 2.1 80 09:37 04.12.2019
3048 Clear 10 1027 50 12874 2.1 80 09:18 04.12.2019
3049 Clear 10 1028 50 12874 2.1 60 08:39 04.12.2019
3050 Clear 12 1028 44 16093 2.1 60 08:20 04.12.2019
3051 Clear 11 1028 41 16093 2.1 70 07:48 04.12.2019
3052 Clear 13 1028 44 16093 1.5 280 07:30 04.12.2019
3053 Clear 13 1028 44 16093 1.5 280 07:30 04.12.2019
3054 Clear 14 1028 33 16093 0.76 22 06:34 04.12.2019
3055 Clear 14 1028 31 16093 2.6 10 05:48 04.12.2019
3056 Clear 16 1027 31 16093 2.1 20 04:58 04.12.2019
3057 Clear 16 1027 30 16093 3.6 70 04:25 04.12.2019
3058 Clear 20 1025 24 16093 3.6 360 02:47 04.12.2019
3059 Clear 23 1025 25 16093 4.1 40 00:52 04.12.2019
3060 Clear 22 1025 25 16093 4.1 40 00:25 04.12.2019
3061 Clear 23 1024 20 16093 3.1 20 23:58 03.12.2019
3062 Clear 23 1024 20 16093 3.1 20 23:40 03.12.2019
3063 Clear 23 1024 20 16093 3.1 20 23:19 03.12.2019
3064 Clear 24 1025 16 16093 3.1 240 22:40 03.12.2019
3065 Clear 23 1025 16 16093 3.1 240 22:19 03.12.2019
3066 Clear 23 1026 16 16093 1.5 20 21:58 03.12.2019
3067 Clear 23 1026 16 16093 1.5 20 21:38 03.12.2019
3068 Clear 23 1026 16 16093 1.5 20 21:19 03.12.2019
3069 Clear 21 1027 26 9656 4.1 40 20:58 03.12.2019
3070 Clear 21 1027 26 9656 4.1 40 20:39 03.12.2019
3071 Clear 21 1027 26 9656 4.1 40 20:18 03.12.2019
3072 Clear 21 1028 34 9656 3.6 20 19:55 03.12.2019
3073 Clear 21 1028 34 9656 3.6 20 19:37 03.12.2019
3074 Clear 21 1028 34 9656 3.6 20 19:18 03.12.2019
3075 Clear 19 1029 42 9656 2.1 210 18:56 03.12.2019
3076 Clear 19 1029 42 9656 2.1 210 18:37 03.12.2019
3077 Clear 19 1029 42 9656 2.1 210 18:19 03.12.2019
3078 Clear 19 1029 45 8047 1.5 120 17:54 03.12.2019
3079 Clear 18 1029 45 8047 1.5 120 17:36 03.12.2019
3080 Clear 19 1029 45 8047 1.5 120 17:36 03.12.2019
3081 Clear 17 1030 55 8047 2.1 140 17:18 03.12.2019
3082 Clear 15 1030 62 8047 2.6 90 16:40 03.12.2019
3083 Clear 15 1030 71 9656 1 100 16:22 03.12.2019
3084 Clear 14 1030 71 9656 1 100 15:59 03.12.2019
3085 Clear 12 1030 76 9656 1.5 80 15:40 03.12.2019
3086 Clear 11 1029 87 9656 2.6 70 15:20 03.12.2019
3087 Haze 10 1029 87 8047 2.6 80 14:58 03.12.2019
3088 Haze 10 1029 87 8047 2.6 80 14:40 03.12.2019
3089 Haze 8 1029 87 8047 2.6 80 14:19 03.12.2019
3090 Clear 8 1029 87 9656 2.1 60 13:39 03.12.2019
3091 Clear 8 1029 87 9656 2.1 60 13:20 03.12.2019
3092 Clear 8 1028 87 9656 2.1 70 12:59 03.12.2019
3093 Clear 8 1028 87 9656 2.1 70 12:38 03.12.2019
3094 Clear 8 1028 87 9656 2.1 70 12:18 03.12.2019
3095 Clouds 7 1030 87 8047 2.1 60 11:58 03.12.2019
3096 Clouds 9 1030 87 8047 2.1 60 11:38 03.12.2019
3097 Clouds 10 1030 87 8047 2.1 60 11:19 03.12.2019
3098 Clouds 10 1030 87 8047 2.1 60 11:19 03.12.2019
3099 Clear 9 1028 76 9656 1.5 60 10:56 03.12.2019
3100 Clear 9 1028 76 9656 1.5 60 10:38 03.12.2019
3101 Clear 9 1028 76 9656 1.5 60 10:19 03.12.2019
3102 Clear 10 1029 71 9656 2.6 70 09:45 03.12.2019
3103 Clear 10 1029 71 9656 2.6 70 09:24 03.12.2019
3104 Clear 11 1029 62 11265 2.6 70 08:57 03.12.2019
3105 Clear 11 1029 62 11265 2.6 70 08:38 03.12.2019
3106 Clear 12 1029 62 11265 2.6 70 08:20 03.12.2019
3107 Clouds 12 1029 58 11265 3.1 300 07:51 03.12.2019
3108 Clouds 12 1029 58 11265 3.1 300 07:51 03.12.2019
3109 Clouds 13 1029 58 11265 3.1 300 07:28 03.12.2019
3110 Clouds 12 1030 63 11265 2.6 360 06:42 03.12.2019
3111 Clouds 12 1030 63 11265 2.6 360 06:20 03.12.2019
3112 Clear 15 1029 52 12874 3.1 180 04:59 03.12.2019
3113 Clear 15 1028 48 11265 3.1 180 03:42 03.12.2019
3114 Clear 15 1028 48 11265 3.1 180 03:21 03.12.2019
3115 Clear 18 1027 45 11265 4.1 130 02:52 03.12.2019
3116 Clear 18 1027 45 11265 4.1 130 02:32 03.12.2019
3117 Clouds 21 1027 43 9656 5.1 140 01:57 03.12.2019
3118 Clouds 21 1027 43 9656 5.1 140 01:38 03.12.2019
3119 Clouds 21 1027 43 9656 5.1 140 01:18 03.12.2019
3120 Clouds 23 1026 30 9656 1.5 90 00:41 03.12.2019
3121 Clouds 23 1026 30 9656 1.5 90 00:23 03.12.2019
3122 Clouds 24 1026 30 9656 2.1 130 23:44 02.12.2019
3123 Clouds 23 1026 30 9656 2.1 130 23:21 02.12.2019
3124 Clear 23 1027 35 9656 1.5 40 22:56 02.12.2019
3125 Clear 23 1027 35 9656 1.5 40 22:56 02.12.2019
3126 Clear 23 1027 35 9656 1.5 40 22:37 02.12.2019
3127 Clear 23 1027 35 9656 1.5 40 22:19 02.12.2019
3128 Clear 22 1028 37 9656 2.1 290 21:39 02.12.2019
3129 Clear 22 1028 37 9656 2.1 290 21:20 02.12.2019
3130 Clear 21 1029 42 9656 2.6 210 20:57 02.12.2019
3131 Clear 21 1029 42 9656 2.6 210 20:57 02.12.2019
3132 Clear 21 1029 42 9656 2.6 210 20:39 02.12.2019
3133 Clear 21 1029 42 9656 2.6 210 20:20 02.12.2019
3134 Clouds 20 1031 48 11265 2.6 320 19:56 02.12.2019
3135 -273 0 0 0 0 0 19:38 02.12.2019
3136 Clouds 20 1031 48 11265 2.6 320 19:20 02.12.2019
3137 Clouds 18 1031 55 11265 2.6 360 18:48 02.12.2019
3138 Clouds 17 1032 58 9656 2.48 2 18:24 02.12.2019
3139 Mist 16 1033 93 4828 2.6 340 17:59 02.12.2019
3140 Mist 16 1033 93 4828 2.6 340 17:41 02.12.2019
3141 Clouds 15 1033 71 6437 1.5 120 17:20 02.12.2019
3142 Mist 13 1032 81 4828 3.6 70 16:57 02.12.2019
3143 Mist 13 1032 81 4828 3.6 70 16:39 02.12.2019
3144 Mist 12 1032 81 4828 3.6 70 16:18 02.12.2019
3145 Mist 9 1031 87 4828 2.6 60 15:56 02.12.2019
3146 Mist 11 1031 87 4828 2.6 60 15:38 02.12.2019
3147 Mist 11 1031 87 4828 2.6 60 15:19 02.12.2019
3148 Mist 11 1031 87 6437 2.1 100 14:40 02.12.2019
3149 Mist 9 1031 87 6437 2.1 100 14:20 02.12.2019
3150 Clouds 8 1030 87 6437 2.1 50 13:58 02.12.2019
3151 Clouds 8 1030 87 6437 2.1 50 13:40 02.12.2019
3152 Clouds 8 1030 87 6437 2.1 50 13:20 02.12.2019
3153 Clear 8 1030 87 8047 2.6 80 12:59 02.12.2019
3154 Clear 8 1030 87 8047 2.6 80 12:40 02.12.2019
3155 Clear 8 1030 87 8047 2.6 80 12:20 02.12.2019
3156 Fog 9 1031 93 402 2.22 22 11:56 02.12.2019
3157 Fog 9 1031 93 402 2.22 22 11:37 02.12.2019
3158 Clear 9 1030 81 9656 2.1 80 11:18 02.12.2019
3159 Clear 9 1030 76 9656 2.1 70 10:55 02.12.2019
3160 Clear 9 1030 76 9656 2.1 70 10:37 02.12.2019
3161 Clouds 11 1030 76 9656 2.6 280 10:19 02.12.2019
3162 Clouds 11 1030 71 9656 3.1 300 09:41 02.12.2019
3163 Clouds 11 1030 71 9656 3.1 300 09:19 02.12.2019
3164 Clear 11 1030 67 9656 2.6 270 08:57 02.12.2019
3165 Clear 11 1030 67 9656 2.6 270 08:38 02.12.2019
3166 Clear 12 1030 67 9656 2.6 270 08:20 02.12.2019
3167 Clear 13 1030 62 11265 3.6 300 07:44 02.12.2019
3168 Clear 13 1030 62 11265 3.6 300 07:21 02.12.2019
3169 Clear 13 1030 58 12874 3.6 270 06:56 02.12.2019
3170 Clear 13 1030 58 12874 3.6 270 06:38 02.12.2019
3171 Clouds 13 1030 55 12874 3.6 300 05:34 02.12.2019
3172 Clear 15 1029 51 16093 3.1 320 04:26 02.12.2019
3173 Clouds 19 1026 45 16093 6.2 360 02:53 02.12.2019
3174 Clouds 18 1026 45 16093 6.2 360 02:27 02.12.2019
3175 Clouds 22 1025 40 16093 7.7 30 01:26 02.12.2019
3176 Clouds 24 1024 27 16093 9.8 30 00:58 02.12.2019
3177 Clouds 25 1024 27 16093 9.8 30 00:25 02.12.2019
3178 Clouds 26 1023 20 16093 6.2 360 23:55 01.12.2019
3179 Clouds 26 1023 20 16093 6.2 360 23:37 01.12.2019
3180 Clouds 26 1023 20 16093 6.2 360 23:19 01.12.2019
3181 Clouds 25 1024 20 16093 4.6 20 22:55 01.12.2019
3182 Clouds 25 1024 20 16093 4.6 20 22:36 01.12.2019
3183 Clouds 25 1024 20 16093 4.6 20 22:18 01.12.2019
3184 Clouds 25 1024 20 16093 4.6 360 21:54 01.12.2019
3185 Clouds 25 1024 20 16093 4.6 360 21:54 01.12.2019
3186 Clouds 25 1024 20 16093 4.6 360 21:36 01.12.2019
3187 Clouds 25 1024 20 16093 4.6 360 21:18 01.12.2019
3188 Clouds 25 1024 20 16093 4.6 360 21:18 01.12.2019
3189 Clouds 25 1026 25 16093 5.7 330 20:42 01.12.2019
3190 Clouds 25 1026 25 16093 5.7 330 20:42 01.12.2019
3191 Clouds 25 1026 25 16093 5.7 330 20:24 01.12.2019
3192 Clouds 24 1027 27 16093 5.7 350 19:59 01.12.2019
3193 Clouds 23 1027 27 16093 5.7 350 19:40 01.12.2019
3194 Clouds 23 1027 27 16093 5.7 350 19:22 01.12.2019
3195 Clouds 23 1028 28 16093 4.1 10 18:58 01.12.2019
3196 Clouds 23 1028 28 16093 4.1 10 18:58 01.12.2019
3197 Clouds 22 1028 28 16093 4.1 10 18:39 01.12.2019
3198 Clouds 22 1028 28 16093 4.1 10 18:20 01.12.2019
3199 Clouds 19 1028 32 16093 2.1 340 18:00 01.12.2019
3200 Clouds 19 1028 32 16093 2.1 340 17:41 01.12.2019
3201 Clouds 19 1028 42 14484 1.33 347 17:23 01.12.2019
3202 Clouds 18 1028 42 14484 4.5 26 17:23 01.12.2019
3203 Clouds 19 1028 42 14484 1.33 347 17:23 01.12.2019
3204 Clouds 17 1028 51 14484 2.1 100 16:56 01.12.2019
3205 Clouds 16 1028 51 14484 2.1 100 16:38 01.12.2019
3206 Clouds 16 1028 58 16093 1 40 16:20 01.12.2019
3207 Clouds 12 1028 62 16093 4.1 70 15:49 01.12.2019
3208 Clouds 12 1028 62 16093 4.1 70 15:31 01.12.2019
3209 Clouds 12 1028 62 16093 4.1 70 15:31 01.12.2019
3210 Mist 11 1029 86 3219 1.33 347 14:44 01.12.2019
3211 Clouds 10 1027 71 14484 3.1 70 14:20 01.12.2019
3212 Clear 8 1026 71 11265 1 60 13:59 01.12.2019
3213 Clear 8 1026 71 11265 1 60 13:39 01.12.2019
3214 Clear 8 1026 71 11265 1 60 13:19 01.12.2019
3215 Clear 9 1026 66 11265 1 50 12:44 01.12.2019
3216 Clear 9 1026 66 11265 1.5 50 11:58 01.12.2019
3217 Clear 9 1026 66 11265 1.5 50 11:39 01.12.2019
3218 Clear 10 1026 66 11265 1.5 50 11:21 01.12.2019
3219 Clear 11 1026 58 11265 1 100 10:43 01.12.2019
3220 Clear 12 1026 58 11265 1 100 10:21 01.12.2019
3221 Clear 13 1026 51 11265 3.6 310 09:57 01.12.2019
3222 Clear 13 1026 51 11265 3.6 310 09:38 01.12.2019
3223 Clear 13 1026 51 11265 3.6 310 09:20 01.12.2019
3224 Clear 13 1026 51 11265 3.6 310 09:20 01.12.2019
3225 Clear 14 1026 48 11265 4.1 300 08:44 01.12.2019
3226 Clear 14 1026 48 11265 4.1 300 08:19 01.12.2019
3227 Clear 15 1027 45 11265 3.6 300 07:50 01.12.2019
3228 Clear 15 1027 45 11265 3.6 300 07:50 01.12.2019
3229 Clear 15 1027 45 11265 3.6 300 07:30 01.12.2019
3230 Clear 15 1027 42 12874 3.1 330 06:56 01.12.2019
3231 Clear 15 1027 42 12874 3.1 330 06:25 01.12.2019
3232 Clear 15 1026 42 12874 3.1 350 05:46 01.12.2019
3233 Clear 18 1026 42 16093 4.6 50 04:34 01.12.2019
3234 Clouds 21 1024 23 16093 3.1 330 02:47 01.12.2019
3235 Clouds 21 1024 23 16093 3.1 330 02:29 01.12.2019
3236 Clouds 23 1024 30 14484 3.1 340 01:56 01.12.2019
3237 Clouds 23 1024 32 14484 3.1 340 01:38 01.12.2019
3238 Clouds 23 1024 20 12874 3.6 310 00:59 01.12.2019
3239 Clouds 23 1024 20 12874 3.6 310 00:39 01.12.2019
3240 Clouds 23 1024 20 12874 3.6 310 00:20 01.12.2019
3241 Clouds 23 1023 25 11265 5.1 30 23:41 30.11.2019
3242 Clouds 25 1023 25 11265 5.1 30 23:22 30.11.2019
3243 Clouds 25 1024 27 11265 3.6 360 22:49 30.11.2019
3244 Clouds 25 1024 27 11265 3.6 360 22:29 30.11.2019
3245 Clouds 23 1025 29 12874 5.1 60 21:57 30.11.2019
3246 Clouds 23 1025 29 12874 5.1 60 21:39 30.11.2019
3247 Clouds 23 1025 29 12874 5.1 60 21:19 30.11.2019
3248 Clouds 23 1026 35 12874 3.1 330 20:55 30.11.2019
3249 Clouds 23 1026 35 12874 3.1 330 20:36 30.11.2019
3250 Clouds 23 1026 35 12874 3.1 330 20:18 30.11.2019
3251 Clouds 22 1027 40 11265 3.1 290 19:55 30.11.2019
3252 Clouds 22 1027 40 11265 3.1 290 19:36 30.11.2019
3253 Clouds 22 1027 40 11265 3.1 290 19:18 30.11.2019
3254 Clouds 20 1029 43 11265 2.1 320 18:54 30.11.2019
3255 Clouds 20 1029 43 11265 2.1 320 18:36 30.11.2019
3256 Clouds 20 1029 43 11265 2.1 320 18:18 30.11.2019
3257 Clouds 21 1029 49 9656 2.87 1 17:55 30.11.2019
3258 Clouds 21 1029 49 9656 2.87 1 17:36 30.11.2019
3259 Clouds 21 1029 49 9656 2.87 1 17:36 30.11.2019
3260 Clouds 17 1029 55 8047 1.22 1 17:18 30.11.2019
3261 Clouds 15 1029 67 8047 1.5 100 16:42 30.11.2019
3262 Clouds 14 1029 71 8047 2.1 70 16:22 30.11.2019
3263 Clouds 12 1029 76 8047 1.5 60 15:55 30.11.2019
3264 Clouds 12 1029 76 8047 1.5 60 15:37 30.11.2019
3265 Clouds 12 1029 76 8047 1.5 60 15:18 30.11.2019
3266 Clouds 11 1028 81 8047 2.6 70 14:55 30.11.2019
3267 Clouds 11 1028 81 8047 2.6 70 14:37 30.11.2019
3268 Clouds 11 1028 81 8047 2.6 70 14:18 30.11.2019
3269 Clouds 9 1028 81 8047 2.1 60 13:45 30.11.2019
3270 Clouds 9 1028 81 8047 2.1 60 13:26 30.11.2019
3271 Clouds 10 1027 76 9656 1.5 70 12:58 30.11.2019
3272 Clouds 11 1027 76 9656 1.5 70 12:40 30.11.2019
3273 Clouds 11 1027 76 9656 1.5 70 12:21 30.11.2019
3274 Clouds 11 1027 76 9656 1.5 60 11:42 30.11.2019
3275 Clouds 12 1027 76 9656 1.5 60 11:19 30.11.2019
3276 Clouds 12 1027 76 9656 2.1 60 10:56 30.11.2019
3277 Clouds 12 1027 76 9656 2.1 60 10:37 30.11.2019
3278 Clouds 12 1027 76 9656 2.1 60 10:19 30.11.2019
3279 Clouds 12 1028 72 9656 1.13 74 09:46 30.11.2019
3280 Clouds 12 1028 72 9656 1.13 74 09:24 30.11.2019
3281 Clouds 13 1028 63 9656 1.5 110 08:44 30.11.2019
3282 Clouds 13 1028 63 9656 1.5 110 08:44 30.11.2019
3283 Clouds 14 1028 63 9656 1.5 110 08:22 30.11.2019
3284 Clouds 14 1029 63 9656 2.1 120 07:58 30.11.2019
3285 Clouds 14 1029 63 9656 2.1 120 07:39 30.11.2019
3286 Clouds 14 1029 67 9656 3.1 70 06:56 30.11.2019
3287 Clouds 15 1029 59 9656 4.1 60 06:29 30.11.2019
3288 Clouds 16 1029 55 12874 2.6 190 05:50 30.11.2019
3289 Clouds 17 1028 49 14484 2.6 180 03:48 30.11.2019
3290 Clouds 20 1027 46 12874 4.6 140 02:39 30.11.2019
3291 Clouds 20 1027 46 12874 4.6 140 02:21 30.11.2019
3292 Clouds 22 1026 43 11265 4.6 120 01:25 30.11.2019
3293 Clouds 22 1026 43 11265 4.6 120 01:25 30.11.2019
3294 Clouds 22 1026 43 11265 4.6 120 01:25 30.11.2019
3295 Clouds 22 1026 43 11265 4.6 120 01:25 30.11.2019
3296 Clouds 24 1026 40 11265 3.1 150 00:50 30.11.2019
3297 Clouds 24 1026 40 11265 3.1 150 00:31 30.11.2019
3298 Clouds 24 1019 42 16093 1.17 94 23:59 29.11.2019
3299 Clouds 25 1026 33 9656 2.6 30 23:40 29.11.2019
3300 Clouds 25 1026 33 9656 2.6 30 23:21 29.11.2019
3301 Clouds 23 1026 33 9656 2.6 170 22:44 29.11.2019
3302 Clouds 23 1026 33 9656 2.6 170 22:25 29.11.2019
3303 Clouds 23 1026 33 9656 2.6 170 22:25 29.11.2019
3304 Haze 25 1027 31 9656 4.1 120 21:44 29.11.2019
3305 Haze 25 1027 31 9656 4.1 120 21:24 29.11.2019
3306 Haze 24 1028 35 8047 3.1 80 20:57 29.11.2019
3307 Haze 24 1028 35 8047 3.1 80 20:38 29.11.2019
3308 Haze 24 1028 35 8047 3.1 80 20:19 29.11.2019
3309 Haze 23 1030 43 6437 2.1 60 19:57 29.11.2019
3310 Haze 23 1030 43 6437 2.1 60 19:38 29.11.2019
3311 Haze 21 1030 43 6437 2.1 60 19:19 29.11.2019
3312 Haze 19 1030 46 6437 2.6 100 18:55 29.11.2019
3313 Haze 19 1030 46 6437 2.6 100 18:36 29.11.2019
3314 Haze 20 1031 52 4828 2.1 80 18:18 29.11.2019
3315 Clouds 19 1033 51 8047 1 330 17:41 29.11.2019
3316 Haze 18 1031 63 6437 1.5 80 17:22 29.11.2019
3317 Haze 16 1031 67 6437 4.1 70 16:44 29.11.2019
3318 Haze 16 1031 67 6437 4.1 70 16:21 29.11.2019
3319 Clear 13 1031 76 8047 3.1 120 15:59 29.11.2019
3320 Clear 13 1031 76 8047 3.1 120 15:59 29.11.2019
3321 Clear 13 1031 76 8047 3.1 120 15:39 29.11.2019
3322 Clear 13 1031 76 8047 3.1 120 15:21 29.11.2019
3323 Clear 11 1031 71 8047 3.6 100 14:41 29.11.2019
3324 Clear 11 1031 71 8047 3.6 100 14:22 29.11.2019
3325 Clear 8 1030 81 8047 3.1 70 13:58 29.11.2019
3326 Clear 8 1030 81 8047 3.1 70 13:38 29.11.2019
3327 Clear 8 1030 81 8047 3.1 70 13:20 29.11.2019
3328 Clear 10 1030 82 8047 1.5 20 12:44 29.11.2019
3329 Clear 10 1030 82 8047 1.5 20 12:25 29.11.2019
3330 Clear 10 1030 87 8047 2.6 60 11:57 29.11.2019
3331 Clear 10 1030 87 8047 2.6 60 11:38 29.11.2019
3332 Clear 9 1030 87 8047 2.6 60 11:19 29.11.2019
3333 Clear 9 1031 87 9656 2.1 60 10:58 29.11.2019
3334 Clear 9 1031 87 9656 2.1 60 10:39 29.11.2019
3335 Clear 9 1031 87 9656 2.1 60 10:21 29.11.2019
3336 Clear 10 1031 71 9656 2.6 90 09:59 29.11.2019
3337 Clear 11 1031 71 9656 2.6 90 09:39 29.11.2019
3338 Clear 12 1031 71 9656 2.6 90 09:20 29.11.2019
3339 Clear 12 1031 67 11265 1.5 60 08:55 29.11.2019
3340 Clear 12 1031 67 11265 1.5 60 08:37 29.11.2019
3341 Clear 12 1031 67 11265 1.5 60 08:18 29.11.2019
3342 Clear 12 1031 67 11265 2.6 90 07:42 29.11.2019
3343 Clear 13 1030 59 11265 3.1 300 07:23 29.11.2019
3344 Clear 14 1030 52 12874 3.6 290 06:49 29.11.2019
3345 Clear 14 1030 52 12874 3.6 290 06:28 29.11.2019
3346 Clear 15 1030 48 12874 1 230 05:32 29.11.2019
3347 Clear 15 1030 48 12874 1 230 05:32 29.11.2019
3348 Clear 15 1030 48 12874 1 230 05:32 29.11.2019
3349 Clear 15 1030 48 12874 1 230 05:32 29.11.2019
3350 Clear 17 1029 40 16093 2.6 210 04:57 29.11.2019
3351 Clear 17 1029 37 16093 3.6 140 03:41 29.11.2019
3352 Clear 17 1029 37 16093 3.6 140 03:41 29.11.2019
3353 Clear 17 1029 37 16093 3.6 140 03:18 29.11.2019
3354 Clear 20 1028 33 16093 5.1 140 02:24 29.11.2019
3355 Clear 22 1027 28 12874 3.6 160 01:45 29.11.2019
3356 Clear 22 1027 28 12874 3.6 160 01:20 29.11.2019
3357 Clear 22 1027 28 12874 3.6 160 01:20 29.11.2019
3358 Clear 24 1026 27 12874 5.1 120 00:40 29.11.2019
3359 Clear 24 1026 27 12874 5.1 120 00:18 29.11.2019
3360 Clouds 26 1026 15 12874 4.6 210 23:41 28.11.2019
3361 Clouds 26 1026 15 12874 4.6 210 23:21 28.11.2019
3362 Clouds 26 1026 19 12874 2.6 190 22:56 28.11.2019
3363 Clouds 26 1026 19 12874 2.6 190 22:37 28.11.2019
3364 Clouds 26 1026 19 12874 2.6 190 22:19 28.11.2019
3365 Clear 26 1027 14 11265 4.1 120 21:54 28.11.2019
3366 Clear 26 1027 14 11265 4.1 120 21:36 28.11.2019
3367 Clear 26 1027 14 11265 4.1 120 21:18 28.11.2019
3368 Clear 25 1028 20 11265 5.1 110 20:42 28.11.2019
3369 Clear 25 1028 23 9656 2.1 40 20:22 28.11.2019
3370 Clear 23 1029 33 11265 1.5 100 19:57 28.11.2019
3371 Clear 23 1029 33 11265 1.5 100 19:57 28.11.2019
3372 Clear 23 1029 33 11265 1.5 100 19:38 28.11.2019
3373 Clear 22 1029 33 11265 1.5 100 19:19 28.11.2019
3374 Clear 21 1031 42 9656 2.6 50 18:58 28.11.2019
3375 Clear 21 1031 42 9656 2.6 50 18:39 28.11.2019
3376 Clear 21 1031 42 9656 2.6 50 18:18 28.11.2019
3377 Clear 19 1032 45 8047 1.5 110 17:58 28.11.2019
3378 Clear 19 1032 45 8047 1.5 110 17:58 28.11.2019
3379 Clear 19 1032 45 8047 1.5 110 17:58 28.11.2019
3380 Clear 19 1032 45 8047 1.5 110 17:40 28.11.2019
3381 Clear 18 1032 55 8047 1.83 7 17:20 28.11.2019
3382 Clear 18 1032 55 8047 1.83 7 17:20 28.11.2019
3383 Clear 16 1033 58 8047 2.1 100 16:41 28.11.2019
3384 Clear 15 1032 66 9656 2.1 80 16:19 28.11.2019
3385 Clear 12 1031 71 11265 3.6 80 15:58 28.11.2019
3386 Clear 11 1031 71 11265 3.6 80 15:40 28.11.2019
3387 Clear 11 1031 71 11265 3.6 80 15:20 28.11.2019
3388 Clear 11 1031 71 11265 3.6 80 15:20 28.11.2019
3389 Clouds 10 1031 76 11265 2.1 60 14:58 28.11.2019
3390 Clouds 10 1031 76 11265 2.1 60 14:39 28.11.2019
3391 Clouds 10 1031 76 11265 2.1 60 14:20 28.11.2019
3392 Clear 7 1030 76 12874 2.1 60 13:44 28.11.2019
3393 Clear 7 1030 76 12874 2.1 60 13:24 28.11.2019
3394 Clear 8 1030 76 12874 2.1 80 12:57 28.11.2019
3395 Clear 8 1030 76 12874 2.1 80 12:38 28.11.2019
3396 Clear 7 1030 76 12874 2.1 80 12:20 28.11.2019
3397 Clear 9 1029 66 16093 1.65 15 11:56 28.11.2019
3398 Clear 9 1029 66 16093 1.65 15 11:37 28.11.2019
3399 Clear 9 1029 66 16093 1.54 30 11:19 28.11.2019
3400 Clear 10 1029 62 16093 2.1 80 10:42 28.11.2019
3401 Clear 10 1029 62 16093 2.1 80 10:22 28.11.2019
3402 Clear 11 1029 54 12874 1.5 80 09:58 28.11.2019
3403 Clear 11 1029 54 12874 1.5 80 09:40 28.11.2019
3404 Clear 12 1029 54 12874 1.5 80 09:20 28.11.2019
3405 Clear 12 1029 51 16093 2.1 90 08:44 28.11.2019
3406 Clear 12 1029 51 16093 2.1 90 08:22 28.11.2019
3407 Clear 13 1029 51 16093 1.5 50 07:58 28.11.2019
3408 Clear 13 1029 51 16093 1.5 50 07:39 28.11.2019
3409 Clouds 14 1029 42 16093 2.1 300 07:21 28.11.2019
3410 Clear 15 1029 39 16093 5.1 300 06:41 28.11.2019
3411 Clear 16 1028 32 16093 4.1 260 05:56 28.11.2019
3412 Clear 16 1028 32 16093 4.1 260 05:38 28.11.2019
3413 Clear 16 1027 32 16093 3.6 320 04:51 28.11.2019
3414 Clouds 21 1025 43 16093 3.1 10 02:32 28.11.2019
3415 Clouds 23 1025 38 12874 1.5 140 01:25 28.11.2019
3416 Clouds 25 1024 20 12874 1.5 60 00:39 28.11.2019
3417 Clouds 25 1024 20 12874 1.5 60 00:18 28.11.2019
3418 Clouds 26 1024 19 12874 2.1 20 23:39 27.11.2019
3419 Clouds 26 1024 19 12874 2.1 20 23:20 27.11.2019
3420 Clouds 26 1024 24 11265 2.1 360 22:56 27.11.2019
3421 Clouds 26 1024 24 11265 2.1 360 22:38 27.11.2019
3422 Clouds 26 1024 24 11265 2.1 360 22:18 27.11.2019
3423 Clear 25 1025 25 11265 2.1 280 21:55 27.11.2019
3424 Clear 25 1025 25 11265 2.1 280 21:36 27.11.2019
3425 Clear 25 1025 25 11265 2.1 280 21:18 27.11.2019
3426 Clear 24 1026 33 9656 1.5 220 20:56 27.11.2019
3427 Clear 24 1026 33 9656 1.5 220 20:56 27.11.2019
3428 Clear 24 1026 33 9656 1.5 220 20:37 27.11.2019
3429 Clear 24 1026 33 9656 1.5 220 20:18 27.11.2019
3430 Clear 22 1027 40 9656 2.6 80 19:55 27.11.2019
3431 Clear 22 1027 40 9656 2.6 80 19:37 27.11.2019
3432 Clear 22 1027 40 9656 2.6 80 19:18 27.11.2019
3433 -273 0 0 0 0 0 18:54 27.11.2019
3434 Clouds 19 1028 45 9656 4.1 60 18:36 27.11.2019
3435 Clouds 19 1028 45 9656 4.1 60 18:18 27.11.2019
3436 Clouds 18 1029 49 9656 3.1 10 17:41 27.11.2019
3437 Clouds 18 1029 59 8047 2.1 310 17:23 27.11.2019
3438 -273 0 0 0 0 0 17:23 27.11.2019
3439 Clouds 16 1028 63 8047 2.6 60 16:58 27.11.2019
3440 Clouds 15 1028 63 8047 2.6 60 16:58 27.11.2019
3441 Clouds 15 1028 63 8047 2.6 60 16:40 27.11.2019
3442 Clouds 15 1028 63 8047 2.6 60 16:40 27.11.2019
3443 Clouds 15 1028 63 8047 2.6 60 16:21 27.11.2019
3444 Clouds 15 1028 63 8047 2.6 60 16:21 27.11.2019
3445 Clouds 14 1028 71 8047 0.88 6 15:58 27.11.2019
3446 Clouds 13 1028 71 8047 0.88 6 15:58 27.11.2019
3447 Clouds 13 1028 71 8047 0.88 6 15:40 27.11.2019
3448 Clouds 13 1028 71 8047 0.88 6 15:21 27.11.2019
3449 Clouds 12 1027 81 8047 1.5 360 14:59 27.11.2019
3450 Clouds 12 1027 81 8047 1.5 360 14:41 27.11.2019
3451 Clouds 11 1027 81 8047 1.5 360 14:23 27.11.2019
3452 Clear 10 1026 81 8047 2.6 70 13:58 27.11.2019
3453 Clear 9 1026 81 8047 2.6 70 13:39 27.11.2019
3454 Clear 9 1026 81 8047 2.6 70 13:19 27.11.2019
3455 Clear 9 1026 81 8047 3.6 70 12:57 27.11.2019
3456 Clear 9 1026 81 8047 3.6 70 12:39 27.11.2019
3457 Clear 9 1026 81 8047 3.6 70 12:19 27.11.2019
3458 Clear 10 1026 82 8047 0.91 66 11:39 27.11.2019
3459 Clear 10 1026 82 8047 0.91 66 11:39 27.11.2019
3460 Clear 10 1026 82 8047 0.77 80 11:19 27.11.2019
3461 Clouds 11 1026 76 8047 1 50 10:59 27.11.2019
3462 Clouds 11 1026 76 8047 1 50 10:41 27.11.2019
3463 Clouds 11 1026 76 8047 1 50 10:23 27.11.2019
3464 Clouds 11 1026 76 9656 1 80 09:45 27.11.2019
3465 Clouds 12 1026 76 9656 1 80 09:26 27.11.2019
3466 Clouds 13 1027 67 8047 1 250 08:58 27.11.2019
3467 Clouds 13 1027 67 8047 1 250 08:40 27.11.2019
3468 Clouds 13 1027 67 8047 1 250 08:21 27.11.2019
3469 Clouds 14 1027 63 9656 1 160 07:46 27.11.2019
3470 Clouds 14 1027 63 9656 1 160 07:28 27.11.2019
3471 Clouds 14 1027 63 9656 2.1 90 06:48 27.11.2019
3472 Clouds 14 1027 63 9656 2.1 90 06:29 27.11.2019
3473 Clouds 15 1026 63 11265 3.1 100 05:43 27.11.2019
3474 Clouds 15 1026 63 11265 3.1 100 05:19 27.11.2019
3475 Clouds 16 1025 63 16093 3.1 90 04:41 27.11.2019
3476 Clouds 16 1024 59 16093 1.5 100 03:55 27.11.2019
3477 Clouds 16 1024 59 16093 1.5 100 03:23 27.11.2019
3478 Clouds 19 1023 52 12874 4.6 140 02:54 27.11.2019
3479 Clouds 21 1023 42 12874 2.6 160 01:39 27.11.2019
3480 Clouds 23 1021 27 12874 3.6 130 00:45 27.11.2019
3481 Clouds 23 1021 27 12874 3.6 130 00:26 27.11.2019
3482 Clouds 24 1021 23 12874 6.2 160 23:49 26.11.2019
3483 Clouds 24 1021 23 12874 6.2 160 23:27 26.11.2019
3484 Clouds 24 1021 33 11265 7.7 100 22:59 26.11.2019
3485 Clouds 24 1021 33 11265 7.7 100 22:38 26.11.2019
3486 Clouds 24 1021 33 11265 7.7 100 22:19 26.11.2019
3487 Clouds 24 1021 33 11265 4.6 110 21:58 26.11.2019
3488 Clouds 24 1021 33 11265 4.6 110 21:58 26.11.2019
3489 Clouds 24 1021 33 11265 4.6 110 21:38 26.11.2019
3490 Clouds 24 1021 33 11265 4.6 110 21:19 26.11.2019
3491 Clouds 23 1023 38 9656 3.6 80 20:55 26.11.2019
3492 Clouds 23 1023 38 9656 3.6 80 20:37 26.11.2019
3493 Clouds 23 1023 38 9656 3.6 80 20:18 26.11.2019
3494 Clouds 22 1024 40 8047 4.6 130 19:55 26.11.2019
3495 Clouds 22 1024 40 8047 4.6 130 19:37 26.11.2019
3496 Clouds 22 1024 40 8047 4.6 130 19:18 26.11.2019
3497 Clouds 20 1024 46 8047 2.6 80 18:56 26.11.2019
3498 Clouds 20 1024 46 8047 2.6 80 18:38 26.11.2019
3499 Clouds 20 1024 46 8047 2.6 80 18:20 26.11.2019
3500 Clouds 18 1025 55 8047 1.5 170 17:54 26.11.2019
3501 Clouds 18 1025 55 8047 1.5 170 17:36 26.11.2019
3502 Clouds 18 1025 55 8047 1.5 170 17:18 26.11.2019
3503 Clouds 16 1025 67 8047 1.5 70 16:54 26.11.2019
3504 Clouds 16 1025 67 8047 1.5 70 16:36 26.11.2019
3505 Clouds 16 1025 67 8047 1.5 70 16:18 26.11.2019
3506 Clouds 15 1024 72 8047 1 110 15:56 26.11.2019
3507 Clouds 15 1024 72 8047 1 110 15:56 26.11.2019
3508 Clouds 15 1024 72 8047 1 110 15:37 26.11.2019
3509 Clouds 14 1024 82 8047 3.6 80 15:18 26.11.2019
3510 Clouds 13 1023 76 9656 1.44 154 14:43 26.11.2019
3511 Clouds 13 1023 76 9656 1.44 154 14:24 26.11.2019
3512 Fog 12 1025 87 805 1.5 60 13:43 26.11.2019
3513 Clear 12 1022 87 8047 2.1 240 13:24 26.11.2019
3514 Clouds 13 1022 87 8047 2.1 280 12:57 26.11.2019
3515 Clouds 13 1022 87 8047 2.1 280 12:36 26.11.2019
3516 Clouds 13 1022 82 8047 1.85 140 12:18 26.11.2019
3517 Clouds 14 1022 82 8047 1.85 140 11:55 26.11.2019
3518 Clouds 14 1022 82 8047 1.85 140 11:36 26.11.2019
3519 Clouds 14 1022 82 8047 1.95 145 11:18 26.11.2019
3520 Clouds 14 1022 72 8047 2.1 140 10:55 26.11.2019
3521 Clouds 14 1022 72 8047 2.1 140 10:37 26.11.2019
3522 Clouds 14 1022 72 8047 2.1 140 10:18 26.11.2019
3523 Clouds 14 1023 72 9656 2.6 110 09:42 26.11.2019
3524 Clouds 15 1023 72 9656 2.6 110 09:23 26.11.2019
3525 Clouds 15 1023 67 9656 2.6 130 08:47 26.11.2019
3526 Clouds 15 1023 67 9656 2.6 130 08:28 26.11.2019
3527 Clouds 16 1023 55 9656 1.5 160 07:57 26.11.2019
3528 Clouds 16 1023 55 9656 1.5 160 07:38 26.11.2019
3529 Clouds 16 1023 55 9656 1.5 160 07:19 26.11.2019
3530 Clouds 16 1024 55 9656 2.1 210 06:46 26.11.2019
3531 Clouds 17 1023 55 9656 3.6 130 05:59 26.11.2019
3532 Clouds 17 1023 55 9656 3.6 130 05:19 26.11.2019
3533 Clouds 19 1022 52 11265 2.6 140 03:21 26.11.2019
3534 Clouds 20 1021 52 9656 5.7 130 01:37 26.11.2019
3535 Clouds 21 1020 43 9656 6.7 120 01:19 26.11.2019
3536 Clouds 23 1020 25 9656 4.1 110 00:41 26.11.2019
3537 Clouds 25 1020 23 9656 2.6 90 23:59 25.11.2019
3538 Clouds 25 1020 23 9656 2.6 90 23:38 25.11.2019
3539 Clouds 25 1020 23 9656 2.6 90 23:19 25.11.2019
3540 Clouds 25 1020 23 9656 2.1 190 22:40 25.11.2019
3541 Clouds 25 1020 23 9656 2.1 190 22:19 25.11.2019
3542 Clouds 24 1021 25 9656 2.6 360 21:59 25.11.2019
3543 Clouds 24 1021 25 9656 2.6 360 21:41 25.11.2019
3544 Clouds 25 1021 25 9656 2.6 360 21:23 25.11.2019
3545 Clouds 24 1023 31 9656 3.1 110 20:58 25.11.2019
3546 Clouds 23 1023 31 9656 3.1 110 20:40 25.11.2019
3547 Clouds 23 1023 31 9656 3.1 110 20:20 25.11.2019
3548 Clouds 22 1024 35 9656 1.13 320 19:57 25.11.2019
3549 Clouds 22 1024 35 9656 1.13 320 19:39 25.11.2019
3550 Clouds 22 1024 35 9656 1.13 320 19:20 25.11.2019
3551 Clouds 21 1025 35 9656 2.1 350 18:58 25.11.2019
3552 Clouds 21 1025 35 9656 2.1 350 18:58 25.11.2019
3553 Clouds 21 1025 35 9656 2.1 350 18:58 25.11.2019
3554 Clouds 20 1025 35 9656 2.1 350 18:40 25.11.2019
3555 Clouds 19 1026 45 9656 2.1 90 18:22 25.11.2019
3556 Clouds 17 1026 45 9656 1.13 320 17:58 25.11.2019
3557 Clouds 17 1026 45 9656 1.13 320 17:40 25.11.2019
3558 Clouds 17 1026 45 9656 0.55 167 17:22 25.11.2019
3559 Clear 16 1026 62 11265 0.55 167 16:59 25.11.2019
3560 Clear 16 1026 62 11265 0.55 167 16:59 25.11.2019
3561 Clear 15 1026 62 11265 0.55 167 16:41 25.11.2019
3562 Clear 15 1026 62 11265 0.55 167 16:22 25.11.2019
3563 Clear 13 1026 71 11265 2.1 90 15:56 25.11.2019
3564 Clear 12 1026 71 11265 2.1 90 15:37 25.11.2019
3565 Clear 12 1026 71 11265 2.1 90 15:19 25.11.2019
3566 Clear 12 1026 71 11265 2.1 90 15:19 25.11.2019
3567 Clear 11 1025 71 9656 2.6 80 14:44 25.11.2019
3568 Clear 9 1025 71 9656 2.6 80 14:26 25.11.2019
3569 Clear 10 1025 71 9656 2.1 60 13:58 25.11.2019
3570 Clear 10 1025 71 9656 2.1 60 13:38 25.11.2019
3571 Clear 10 1025 71 9656 2.1 60 13:38 25.11.2019
3572 Clear 10 1025 71 9656 2.1 60 13:20 25.11.2019
3573 Clear 10 1024 71 9656 1 70 12:58 25.11.2019
3574 Clear 10 1024 71 9656 1 70 12:39 25.11.2019
3575 Clear 10 1024 71 9656 1 70 12:19 25.11.2019
3576 Clear 9 1024 71 11265 2.1 80 11:40 25.11.2019
3577 Clear 9 1024 71 11265 2.1 80 11:21 25.11.2019
3578 Clear 11 1025 67 11265 1 110 10:59 25.11.2019
3579 Clear 11 1025 67 11265 1 110 10:41 25.11.2019
3580 Clear 11 1025 67 11265 1 110 10:41 25.11.2019
3581 Clear 11 1025 67 11265 1 110 10:19 25.11.2019
3582 Clouds 12 1025 62 11265 1 80 09:44 25.11.2019
3583 Clouds 12 1025 62 11265 1 80 09:26 25.11.2019
3584 Clouds 13 1026 63 11265 1 240 08:57 25.11.2019
3585 Clouds 13 1026 63 11265 1 240 08:38 25.11.2019
3586 Clouds 13 1026 63 11265 1 240 08:18 25.11.2019
3587 Clouds 14 1026 59 11265 2.1 240 07:39 25.11.2019
3588 Clouds 14 1026 59 11265 2.1 240 07:18 25.11.2019
3589 Clouds 15 1026 55 11265 2.6 240 06:39 25.11.2019
3590 Clouds 15 1026 55 11265 2.6 240 06:19 25.11.2019
3591 Clouds 15 1026 45 11265 3.6 260 05:33 25.11.2019
3592 Clouds 16 1026 42 14484 3.1 310 04:50 25.11.2019
3593 Clouds 18 1025 52 12874 2.6 90 02:45 25.11.2019
3594 Clouds 19 1024 46 12874 4.1 110 01:56 25.11.2019
3595 Clouds 20 1024 46 12874 4.1 110 01:36 25.11.2019
3596 Clouds 20 1024 46 12874 4.1 110 01:18 25.11.2019
3597 Clouds 21 1024 23 11265 3.1 360 00:21 25.11.2019
3598 Clouds 23 1024 22 9656 2.6 50 23:45 24.11.2019
3599 Clouds 23 1024 22 9656 2.6 50 23:45 24.11.2019
3600 Clouds 23 1024 22 9656 2.6 50 23:21 24.11.2019
3601 Clouds 24 1024 23 9656 3.6 80 22:58 24.11.2019
3602 Clouds 24 1024 23 9656 3.6 80 22:39 24.11.2019
3603 Clouds 24 1024 23 9656 3.6 80 22:19 24.11.2019
3604 Smoke 23 1025 25 9656 1.5 330 21:57 24.11.2019
3605 Smoke 23 1025 25 9656 1.5 330 21:39 24.11.2019
3606 Clear 23 1025 23 9656 2.6 290 21:20 24.11.2019
3607 Clear 23 1025 27 9656 2.1 230 20:58 24.11.2019
3608 Clear 23 1025 27 9656 2.1 230 20:38 24.11.2019
3609 Clear 23 1026 40 9656 3.1 110 20:18 24.11.2019
3610 Clear 22 1027 46 6437 1.5 70 19:56 24.11.2019
3611 Clear 21 1027 46 6437 1.5 70 19:38 24.11.2019
3612 Haze 21 1027 52 4828 2.1 200 19:20 24.11.2019
3613 Haze 20 1028 52 4828 2.1 160 18:57 24.11.2019
3614 Haze 19 1028 63 4828 2.6 60 18:37 24.11.2019
3615 Haze 18 1028 63 4828 2.6 60 18:19 24.11.2019
3616 Haze 18 1028 63 4828 2.6 60 18:19 24.11.2019
3617 Haze 18 1029 63 4828 3.1 60 17:55 24.11.2019
3618 Clear 17 1029 67 6437 2.6 100 17:37 24.11.2019
3619 Clear 17 1029 67 6437 2.6 100 17:19 24.11.2019
3620 Clear 17 1029 67 6437 2.6 100 17:19 24.11.2019
3621 Clear 15 1029 67 6437 2.1 120 16:57 24.11.2019
3622 Clear 15 1029 67 6437 2.1 120 16:38 24.11.2019
3623 Clear 14 1029 76 6437 2.6 80 16:19 24.11.2019
3624 Haze 12 1028 81 4828 3.1 90 15:43 24.11.2019
3625 Haze 12 1028 81 4828 3.1 90 15:25 24.11.2019
3626 Mist 10 1028 93 3219 2.6 70 14:57 24.11.2019
3627 Mist 11 1028 93 3219 2.6 70 14:57 24.11.2019
3628 Mist 10 1028 93 3219 2.6 70 14:38 24.11.2019
3629 Mist 10 1028 93 3219 2.6 70 14:38 24.11.2019
3630 Mist 10 1028 93 3219 2.6 70 14:18 24.11.2019
3631 Mist 8 1028 93 3219 3.6 80 13:41 24.11.2019
3632 Smoke 9 1027 93 4828 2.6 70 13:22 24.11.2019
3633 Clouds 9 1027 87 6437 2.6 80 12:59 24.11.2019
3634 Clouds 9 1027 87 6437 2.6 80 12:41 24.11.2019
3635 Clouds 9 1027 87 6437 2.6 80 12:18 24.11.2019
3636 Clouds 9 1027 81 8047 2.1 80 11:56 24.11.2019
3637 Clouds 9 1027 81 8047 2.1 80 11:37 24.11.2019
3638 Clouds 9 1027 81 8047 2.1 80 11:18 24.11.2019
3639 Clouds 10 1027 71 8047 2.6 70 10:46 24.11.2019
3640 Clouds 11 1027 62 8047 1.5 260 10:28 24.11.2019
3641 Clouds 11 1027 62 8047 1.5 260 10:28 24.11.2019
3642 Clouds 12 1027 67 9656 2.1 280 09:56 24.11.2019
3643 Clouds 13 1027 67 9656 2.1 280 09:37 24.11.2019
3644 Clouds 13 1027 67 9656 2.1 280 09:18 24.11.2019
3645 Clouds 13 1027 55 12874 2.6 290 08:44 24.11.2019
3646 Clouds 13 1027 55 12874 2.6 290 08:22 24.11.2019
3647 Clouds 13 1028 44 16093 2.31 7 07:57 24.11.2019
3648 Clouds 13 1028 44 16093 2.31 7 07:57 24.11.2019
3649 Clouds 13 1028 44 16093 2.31 7 07:37 24.11.2019
3650 Clouds 13 1028 44 16093 2.31 7 07:18 24.11.2019
3651 Clouds 14 1028 39 16093 2.6 100 06:19 24.11.2019
3652 Clouds 14 1028 39 16093 2.6 100 06:19 24.11.2019
3653 Clouds 14 1028 39 16093 2.6 100 06:19 24.11.2019
3654 Clouds 17 1027 32 16093 2.6 60 04:48 24.11.2019
3655 Clouds 17 1026 30 16093 3.1 40 03:33 24.11.2019
3656 Clouds 22 1025 24 16093 7.7 40 01:59 24.11.2019
3657 Clouds 22 1025 24 16093 7.7 40 01:39 24.11.2019
3658 Clouds 22 1024 25 12874 3.1 330 01:20 24.11.2019
3659 Clouds 23 1024 22 12874 2.6 350 00:47 24.11.2019
3660 Clouds 23 1024 22 12874 2.6 350 00:23 24.11.2019
3661 Clear 24 1024 22 12874 3.1 100 23:45 23.11.2019
3662 Clear 24 1024 22 12874 3.1 100 23:22 23.11.2019
3663 Clear 24 1024 22 12874 2.6 30 22:59 23.11.2019
3664 Clear 24 1024 22 12874 2.6 30 22:59 23.11.2019
3665 Clear 24 1024 22 12874 2.6 30 22:40 23.11.2019
3666 Clear 24 1024 22 12874 2.6 30 22:22 23.11.2019
3667 Clear 24 1025 28 9656 4.1 40 21:58 23.11.2019
3668 Clear 24 1025 28 9656 4.1 40 21:40 23.11.2019
3669 Clear 23 1025 28 9656 4.1 40 21:21 23.11.2019
3670 Clear 23 1026 28 9656 2.6 20 20:55 23.11.2019
3671 Clear 23 1026 28 9656 2.6 20 20:36 23.11.2019
3672 Clear 23 1026 28 9656 2.6 20 20:18 23.11.2019
3673 Clear 21 1028 35 8047 1.5 60 19:54 23.11.2019
3674 Clear 21 1028 35 8047 1.5 60 19:36 23.11.2019
3675 Clear 21 1028 35 8047 1.5 60 19:18 23.11.2019
3676 Clear 20 1029 42 8047 2.1 20 18:39 23.11.2019
3677 Clear 20 1029 42 8047 2.1 20 18:20 23.11.2019
3678 Clear 20 1029 42 8047 2.1 20 18:20 23.11.2019
3679 Clear 18 1029 42 8047 2.6 50 17:54 23.11.2019
3680 Clear 18 1029 45 9656 2.1 90 17:36 23.11.2019
3681 Clear 18 1029 45 9656 2.1 90 17:36 23.11.2019
3682 Clear 17 1029 45 9656 2.1 90 17:18 23.11.2019
3683 Clouds 15 1028 51 11265 2.1 90 16:55 23.11.2019
3684 Clouds 15 1028 51 11265 2.1 90 16:36 23.11.2019
3685 Clouds 15 1028 51 11265 2.1 90 16:36 23.11.2019
3686 Clouds 15 1028 51 11265 2.1 90 16:18 23.11.2019
3687 Mist 14 1030 87 3219 1.02 17 15:54 23.11.2019
3688 Mist 14 1030 87 3219 1.02 17 15:54 23.11.2019
3689 Mist 14 1030 87 3219 1.02 17 15:36 23.11.2019
3690 Clouds 14 1028 50 12874 2.1 30 15:18 23.11.2019
3691 Clouds 12 1028 58 12874 1 70 14:42 23.11.2019
3692 Clouds 12 1027 61 12874 3.1 70 14:21 23.11.2019
3693 Clouds 11 1027 61 12874 3.1 70 14:21 23.11.2019
3694 Clouds 9 1027 57 11265 2.1 80 13:57 23.11.2019
3695 Clouds 9 1027 57 11265 2.1 80 13:38 23.11.2019
3696 Clouds 9 1027 57 11265 2.1 80 13:18 23.11.2019
3697 Clouds 9 1026 62 11265 2.6 80 12:43 23.11.2019
3698 Clouds 9 1026 62 11265 2.6 80 12:24 23.11.2019
3699 Clouds 8 1026 66 11265 2.6 80 11:45 23.11.2019
3700 Clouds 9 1026 66 11265 2.6 80 11:24 23.11.2019
3701 Clouds 10 1028 81 8047 1.02 39 10:57 23.11.2019
3702 Clouds 11 1028 81 8047 1.02 39 10:39 23.11.2019
3703 Clouds 11 1028 81 8047 1.02 39 10:18 23.11.2019
3704 Clouds 13 1027 47 11265 1.5 50 09:41 23.11.2019
3705 Clouds 13 1027 47 11265 1.5 50 09:18 23.11.2019
3706 Clouds 13 1027 51 16093 2.1 70 08:41 23.11.2019
3707 Clouds 13 1027 51 16093 2.1 70 08:41 23.11.2019
3708 Clouds 13 1027 51 16093 2.1 70 08:19 23.11.2019
3709 Clear 14 1027 67 16093 3.6 90 07:42 23.11.2019
3710 Clear 15 1027 31 16093 2.1 360 07:00 23.11.2019
3711 Clear 15 1027 31 16093 2.1 360 06:40 23.11.2019
3712 Clear 15 1027 31 16093 2.1 360 06:19 23.11.2019
3713 Clear 16 1027 32 11265 3.1 350 05:41 23.11.2019
3714 Clear 16 1027 32 11265 3.1 350 05:22 23.11.2019
3715 Clouds 17 1026 37 12874 3.1 60 04:34 23.11.2019
3716 Clouds 19 1025 52 12874 2.6 80 03:32 23.11.2019
3717 Clouds 19 1024 56 14484 5.1 110 02:39 23.11.2019
3718 Clouds 19 1024 56 14484 5.1 110 02:39 23.11.2019
3719 Clouds 21 1024 23 14484 3.1 320 01:40 23.11.2019
3720 Clouds 23 1023 22 12874 4.1 310 00:49 23.11.2019
3721 Clouds 23 1023 22 12874 4.1 310 00:21 23.11.2019
3722 Clouds 23 1023 20 12874 2.6 280 23:56 22.11.2019
3723 Clouds 23 1023 20 12874 2.6 280 23:37 22.11.2019
3724 Clouds 24 1023 20 12874 2.6 280 23:18 22.11.2019
3725 Clouds 24 1023 23 12874 3.1 30 22:55 22.11.2019
3726 Clouds 24 1023 23 12874 3.1 30 22:37 22.11.2019
3727 Clouds 24 1023 23 12874 3.1 30 22:18 22.11.2019
3728 Clouds 24 1023 23 12874 3.1 30 22:18 22.11.2019
3729 Clear 24 1025 23 16093 3.6 60 21:41 22.11.2019
3730 Clear 25 1025 23 16093 3.6 60 21:21 22.11.2019
3731 Clear 24 1026 23 9656 3.6 20 20:55 22.11.2019
3732 Clear 24 1026 23 9656 3.6 20 20:37 22.11.2019
3733 Clear 24 1026 23 9656 3.6 20 20:19 22.11.2019
3734 Clear 22 1027 37 9656 2.44 359 19:39 22.11.2019
3735 Clear 22 1027 37 9656 2.44 359 19:20 22.11.2019
3736 Clear 21 1028 45 9656 2.1 70 18:59 22.11.2019
3737 Clear 21 1028 45 9656 2.1 70 18:38 22.11.2019
3738 Clear 21 1028 45 9656 2.1 70 18:20 22.11.2019
3739 Clear 20 1029 49 9656 1.5 140 17:42 22.11.2019
3740 Clear 18 1029 55 8047 1.06 16 17:22 22.11.2019
3741 Clear 16 1029 55 9656 1.5 90 16:48 22.11.2019
3742 Clear 15 1029 58 9656 1.5 60 16:30 22.11.2019
3743 Clear 13 1028 66 12874 2.6 90 15:58 22.11.2019
3744 Clear 12 1028 66 12874 2.6 90 15:38 22.11.2019
3745 Clear 12 1028 66 12874 2.6 90 15:20 22.11.2019
3746 Clear 11 1028 66 11265 1.06 16 14:54 22.11.2019
3747 Clear 11 1028 66 11265 1.06 16 14:36 22.11.2019
3748 Clear 11 1028 66 11265 1.33 28 14:18 22.11.2019
3749 Clear 9 1027 71 9656 2.1 70 13:39 22.11.2019
3750 Clear 9 1027 71 9656 2.1 70 13:19 22.11.2019
3751 Clear 8 1026 71 9656 1.5 80 12:58 22.11.2019
3752 Clear 8 1026 71 9656 1.5 80 12:58 22.11.2019
3753 Clear 8 1026 71 9656 1.5 80 12:40 22.11.2019
3754 Clear 8 1026 71 9656 1.5 80 12:19 22.11.2019
3755 Clear 9 1026 71 11265 1.5 80 11:57 22.11.2019
3756 Clear 9 1026 71 11265 1.5 80 11:37 22.11.2019
3757 Clear 10 1026 71 11265 1.5 80 11:18 22.11.2019
3758 Clear 10 1026 66 12874 3.1 60 10:55 22.11.2019
3759 Clear 10 1026 66 12874 3.1 60 10:37 22.11.2019
3760 Clear 10 1026 66 12874 3.1 60 10:18 22.11.2019
3761 Clear 9 1027 66 12874 2.6 60 09:41 22.11.2019
3762 Clear 12 1027 62 12874 2.1 70 09:21 22.11.2019
3763 Clouds 12 1027 58 16093 3.1 60 08:58 22.11.2019
3764 Clouds 13 1027 58 16093 3.1 60 08:38 22.11.2019
3765 Clouds 13 1027 58 16093 3.1 60 08:38 22.11.2019
3766 Clouds 13 1027 58 16093 3.1 60 08:38 22.11.2019
3767 Clouds 13 1027 58 16093 3.1 60 08:20 22.11.2019
3768 Clouds 14 1028 52 16093 3.1 290 07:42 22.11.2019
3769 Clouds 15 1028 52 16093 3.1 290 07:20 22.11.2019
3770 Clouds 15 1028 48 16093 2.1 310 06:47 22.11.2019
3771 Clouds 15 1028 48 16093 2.1 310 06:27 22.11.2019
3772 Clouds 16 1028 45 16093 2.6 350 05:33 22.11.2019
3773 Clouds 18 1026 40 16093 5.1 40 03:26 22.11.2019
3774 Clouds 20 1025 35 16093 2.1 360 02:43 22.11.2019
3775 Clouds 20 1025 35 16093 2.1 360 02:23 22.11.2019
3776 Clouds 22 1025 33 12874 3.6 340 01:43 22.11.2019
3777 Clouds 22 1025 33 12874 3.6 340 01:18 22.11.2019
3778 Clouds 23 1024 31 12874 2.1 310 00:43 22.11.2019
3779 Clouds 23 1024 31 12874 2.1 310 00:22 22.11.2019
3780 Clouds 23 1024 31 12874 3.6 350 23:43 21.11.2019
3781 Clouds 23 1024 31 12874 3.6 350 23:24 21.11.2019
3782 Clouds 24 1025 33 12874 2.24 9 22:56 21.11.2019
3783 Clouds 24 1025 33 12874 2.24 9 22:38 21.11.2019
3784 Clouds 24 1025 33 12874 2.24 9 22:19 21.11.2019
3785 Clouds 24 1025 33 12874 2.6 330 21:55 21.11.2019
3786 Clouds 24 1025 33 12874 2.6 330 21:36 21.11.2019
3787 Clouds 24 1025 33 12874 2.6 330 21:18 21.11.2019
3788 Clouds 22 1026 40 8047 2.6 350 20:57 21.11.2019
3789 Clouds 22 1026 40 8047 2.6 350 20:37 21.11.2019
3790 Clouds 21 1026 40 8047 2.6 350 20:18 21.11.2019
3791 Clouds 19 1028 46 8047 2.6 340 19:56 21.11.2019
3792 Clouds 19 1028 46 8047 2.6 340 19:37 21.11.2019
3793 Clouds 21 1028 46 8047 2.6 340 19:19 21.11.2019
3794 Clouds 20 1028 46 8047 2.1 330 18:42 21.11.2019
3795 Clouds 19 1029 52 8047 3.6 40 18:21 21.11.2019
3796 Clouds 18 1029 55 6437 1.5 110 17:58 21.11.2019
3797 Clouds 18 1029 55 6437 1.5 110 17:39 21.11.2019
3798 Clouds 17 1029 63 8047 2.6 100 17:21 21.11.2019
3799 Clouds 15 1029 72 8047 2.6 90 16:58 21.11.2019
3800 Clouds 15 1029 72 8047 2.6 90 16:40 21.11.2019
3801 Clouds 15 1029 72 8047 2.6 90 16:20 21.11.2019
3802 Fog 13 1030 93 402 0.42 334 15:55 21.11.2019
3803 Fog 13 1030 93 402 0.42 334 15:37 21.11.2019
3804 Clouds 13 1028 71 8047 2.6 70 15:18 21.11.2019
3805 Fog 12 1030 93 402 0.42 334 14:39 21.11.2019
3806 Mist 11 1028 76 8047 1.5 70 14:20 21.11.2019
3807 Clouds 10 1027 76 8047 2.1 70 13:59 21.11.2019
3808 Clouds 10 1027 76 8047 2.1 70 13:37 21.11.2019
3809 Clouds 10 1027 76 8047 2.1 70 13:19 21.11.2019
3810 Mist 11 1029 93 1609 0.69 88 12:43 21.11.2019
3811 Clouds 11 1027 71 9656 1.5 70 12:24 21.11.2019
3812 Clouds 11 1027 71 9656 3.1 80 11:56 21.11.2019
3813 Clouds 11 1027 71 9656 3.1 80 11:38 21.11.2019
3814 Clouds 11 1027 71 9656 3.1 80 11:20 21.11.2019
3815 Clouds 11 1027 71 9656 3.1 80 11:20 21.11.2019
3816 Mist 12 1027 67 8047 1.5 240 10:43 21.11.2019
3817 Mist 13 1027 67 8047 1.5 240 10:25 21.11.2019
3818 Mist 11 1027 76 8047 2.6 60 09:59 21.11.2019
3819 Mist 12 1027 76 8047 2.6 60 09:41 21.11.2019
3820 Mist 12 1027 76 8047 2.6 60 09:23 21.11.2019
3821 Clouds 13 1028 67 9656 1.5 60 08:55 21.11.2019
3822 Clouds 13 1028 67 9656 1.5 60 08:37 21.11.2019
3823 Clouds 13 1028 67 9656 1.5 60 08:18 21.11.2019
3824 Clouds 15 1028 59 9656 3.1 120 07:39 21.11.2019
3825 Clouds 15 1028 59 9656 3.1 120 07:18 21.11.2019
3826 Clear 15 1028 63 9656 2.1 60 06:45 21.11.2019
3827 Clear 15 1028 63 9656 2.1 60 06:24 21.11.2019
3828 Clouds 16 1028 59 9656 1 80 05:27 21.11.2019
3829 Clouds 17 1026 59 14484 3.6 90 03:31 21.11.2019
3830 Clouds 19 1025 52 12874 3.6 120 02:40 21.11.2019
3831 Clouds 20 1024 33 11265 2.6 100 01:52 21.11.2019
3832 Clouds 20 1024 33 11265 2.6 100 01:23 21.11.2019
3833 Clouds 22 1024 28 11265 2.6 340 00:47 21.11.2019
3834 Clouds 22 1024 28 11265 2.6 340 00:20 21.11.2019
3835 Clouds 22 1024 31 11265 1.5 70 23:51 20.11.2019
3836 Clouds 22 1024 31 11265 1.5 70 23:23 20.11.2019
3837 Clouds 22 1024 35 9656 4.6 90 22:59 20.11.2019
3838 Clouds 22 1024 35 9656 4.6 90 22:41 20.11.2019
3839 Clouds 22 1024 35 9656 4.6 90 22:20 20.11.2019
3840 Clouds 22 1024 35 9656 4.6 80 21:59 20.11.2019
3841 Clouds 22 1024 35 9656 4.6 80 21:59 20.11.2019
3842 Clouds 22 1024 35 9656 4.6 80 21:40 20.11.2019
3843 Clouds 23 1025 36 8047 2.6 80 21:22 20.11.2019
3844 Clouds 22 1026 38 8047 2.49 7 20:58 20.11.2019
3845 Clouds 22 1026 38 8047 2.49 7 20:40 20.11.2019
3846 Clouds 22 1026 38 8047 1.67 340 20:22 20.11.2019
3847 Clouds 21 1027 40 9656 1.5 350 19:58 20.11.2019
3848 Clouds 21 1027 40 9656 1.5 350 19:58 20.11.2019
3849 Clouds 21 1027 40 9656 1.5 350 19:37 20.11.2019
3850 Clouds 21 1027 40 9656 1.5 350 19:19 20.11.2019
3851 Clouds 20 1027 46 9656 3.1 100 18:59 20.11.2019
3852 Clouds 19 1027 46 9656 3.1 100 18:40 20.11.2019
3853 Clouds 19 1028 52 9656 3.1 50 18:21 20.11.2019
3854 Clouds 18 1028 55 9656 2.6 80 17:58 20.11.2019
3855 Clouds 17 1028 55 9656 2.6 80 17:39 20.11.2019
3856 Clouds 17 1028 55 9656 2.6 80 17:20 20.11.2019
3857 Clouds 16 1029 55 9656 0.54 1 16:57 20.11.2019
3858 Clouds 16 1029 55 9656 0.54 1 16:39 20.11.2019
3859 Clouds 15 1028 63 9656 1.5 340 16:19 20.11.2019
3860 Clouds 14 1028 67 11265 1.5 30 15:56 20.11.2019
3861 Clouds 14 1028 67 11265 1.5 30 15:56 20.11.2019
3862 Clouds 14 1028 67 11265 1.5 30 15:38 20.11.2019
3863 Clouds 14 1028 67 11265 1.5 30 15:18 20.11.2019
3864 Clouds 13 1027 76 9656 2.1 90 14:40 20.11.2019
3865 Clouds 11 1027 76 9656 2.1 90 14:22 20.11.2019
3866 Clouds 11 1027 76 9656 2.1 90 14:22 20.11.2019
3867 Clouds 11 1027 76 9656 2.1 90 14:22 20.11.2019
3868 Clouds 11 1027 76 9656 2.1 90 14:22 20.11.2019
3869 Clouds 11 1027 76 9656 2.1 90 14:22 20.11.2019
3870 Clouds 12 1027 76 12874 2.1 80 13:58 20.11.2019
3871 Clouds 12 1027 76 12874 2.1 80 13:58 20.11.2019
3872 Clouds 12 1027 76 12874 2.1 80 13:39 20.11.2019
3873 Clouds 11 1027 76 12874 2.1 80 13:20 20.11.2019
3874 Clouds 12 1026 76 12874 2.1 70 12:57 20.11.2019
3875 Clouds 12 1026 76 12874 2.1 70 12:37 20.11.2019
3876 Clouds 12 1026 76 12874 2.1 70 12:19 20.11.2019
3877 Clouds 13 1026 67 12874 1.09 53 11:45 20.11.2019
3878 Clouds 13 1026 67 12874 1.12 14 11:22 20.11.2019
3879 Clouds 13 1026 62 12874 1.5 270 10:56 20.11.2019
3880 Clouds 13 1026 62 12874 1.5 270 10:38 20.11.2019
3881 Clouds 13 1026 62 12874 1.5 270 10:20 20.11.2019
3882 Clouds 14 1026 59 16093 1.5 290 09:55 20.11.2019
3883 Clouds 14 1026 59 16093 1.5 290 09:37 20.11.2019
3884 Clouds 14 1026 59 16093 1.5 290 09:18 20.11.2019
3885 Clouds 15 1026 55 16093 2.1 300 08:39 20.11.2019
3886 Clouds 15 1026 55 16093 2.1 300 08:21 20.11.2019
3887 Clouds 15 1027 59 12874 1.5 10 07:48 20.11.2019
3888 Clouds 15 1027 59 12874 1.5 10 07:28 20.11.2019
3889 Clouds 15 1027 63 11265 2.6 30 06:50 20.11.2019
3890 Clouds 15 1027 63 11265 2.6 30 06:22 20.11.2019
3891 Clouds 16 1026 63 11265 2.1 40 05:51 20.11.2019
3892 Clouds 18 1025 56 12874 4.1 100 03:52 20.11.2019
3893 Clouds 20 1025 49 12874 2.6 100 02:22 20.11.2019
3894 Clouds 21 1023 37 11265 2.6 350 01:33 20.11.2019
3895 Clouds 22 1023 37 8047 2.6 50 00:43 20.11.2019
3896 Clouds 23 1023 37 8047 2.6 20 23:59 19.11.2019
3897 Clouds 23 1023 37 8047 2.6 20 23:36 19.11.2019
3898 Clouds 22 1023 37 8047 2.6 20 23:18 19.11.2019
3899 Clouds 24 1023 38 6437 1.5 160 22:42 19.11.2019
3900 Clouds 24 1023 38 6437 1.5 160 22:19 19.11.2019
3901 Clouds 23 1024 40 6437 2.6 90 21:57 19.11.2019
3902 Clouds 22 1024 40 6437 2.6 90 21:38 19.11.2019
3903 Clouds 22 1024 40 6437 2.6 90 21:20 19.11.2019
3904 Clouds 22 1025 40 8047 3.6 60 20:57 19.11.2019
3905 Clouds 22 1025 40 8047 3.6 60 20:39 19.11.2019
3906 Clouds 22 1025 40 8047 3.6 60 20:20 19.11.2019
3907 Clouds 22 1026 49 6437 2.1 180 19:57 19.11.2019
3908 Clouds 22 1026 49 6437 2.1 180 19:57 19.11.2019
3909 Clouds 22 1026 49 6437 2.1 180 19:39 19.11.2019
3910 Clouds 22 1026 49 6437 2.1 180 19:19 19.11.2019
3911 Clouds 21 1027 59 6437 1.5 290 18:55 19.11.2019
3912 Clouds 20 1027 59 6437 1.5 290 18:36 19.11.2019
3913 Clouds 20 1027 59 6437 1.5 290 18:18 19.11.2019
3914 Clouds 19 1028 68 6437 1.54 331 17:55 19.11.2019
3915 Clouds 19 1028 68 6437 1.54 331 17:37 19.11.2019
3916 Clouds 19 1028 68 6437 1.54 331 17:37 19.11.2019
3917 Clouds 19 1028 68 6437 0.54 358 17:18 19.11.2019
3918 Clouds 16 1027 72 6437 2.1 100 16:43 19.11.2019
3919 Clouds 16 1027 72 6437 2.1 100 16:24 19.11.2019
3920 Clouds 14 1027 82 6437 2.1 110 15:57 19.11.2019
3921 Clouds 14 1027 82 6437 2.1 110 15:39 19.11.2019
3922 Clouds 14 1027 82 6437 2.1 110 15:20 19.11.2019
3923 Clouds 12 1026 87 6437 3.1 90 14:55 19.11.2019
3924 Clouds 12 1026 87 6437 3.1 90 14:37 19.11.2019
3925 Clouds 12 1026 87 6437 3.1 90 14:37 19.11.2019
3926 Clouds 12 1026 87 6437 3.1 90 14:19 19.11.2019
3927 Clouds 11 1026 87 8047 1.5 80 13:40 19.11.2019
3928 Clouds 11 1026 87 8047 1.5 80 13:19 19.11.2019
3929 Clouds 11 1025 82 8047 1.5 180 12:41 19.11.2019
3930 Clouds 12 1025 82 8047 1.5 180 12:22 19.11.2019
3931 Mist 11 1025 87 9656 1.5 260 11:58 19.11.2019
3932 Mist 11 1025 87 9656 1.5 260 11:38 19.11.2019
3933 Mist 11 1025 87 9656 1.5 260 11:19 19.11.2019
3934 Clouds 12 1025 82 9656 1.23 359 10:48 19.11.2019
3935 Clouds 12 1025 82 9656 1.23 359 10:23 19.11.2019
3936 Clouds 13 1026 77 11265 1.5 220 09:58 19.11.2019
3937 Clouds 13 1026 77 11265 1.5 220 09:40 19.11.2019
3938 Clouds 13 1026 77 11265 1.5 220 09:19 19.11.2019
3939 Clouds 14 1026 72 11265 2.1 300 08:41 19.11.2019
3940 Clouds 14 1026 72 11265 2.1 300 08:23 19.11.2019
3941 Clouds 13 1026 77 11265 2.1 220 07:57 19.11.2019
3942 Clouds 13 1026 77 11265 2.1 220 07:39 19.11.2019
3943 Clouds 13 1026 77 11265 2.1 220 07:20 19.11.2019
3944 Clouds 14 1026 77 9656 2.6 230 06:50 19.11.2019
3945 Clouds 14 1026 77 9656 2.6 230 06:30 19.11.2019
3946 Clouds 14 1026 82 11265 1.5 170 05:28 19.11.2019
3947 Clouds 16 1025 59 11265 2.6 160 03:50 19.11.2019
3948 Clouds 16 1025 59 11265 2.6 160 03:31 19.11.2019
3949 Clouds 18 1024 55 11265 2.6 70 02:55 19.11.2019
3950 Clouds 19 1023 55 11265 2.6 350 01:59 19.11.2019
3951 Rain 20 1023 55 11265 3.6 330 01:27 19.11.2019
3952 Clouds 22 1022 35 11265 3.1 80 00:21 19.11.2019
3953 Clouds 23 1022 33 11265 2.6 290 23:56 18.11.2019
3954 Clouds 23 1022 33 11265 2.6 290 23:37 18.11.2019
3955 Clouds 23 1022 33 11265 2.6 290 23:18 18.11.2019
3956 Clouds 23 1022 33 9656 2.6 240 22:42 18.11.2019
3957 Clouds 23 1022 33 9656 2.6 240 22:23 18.11.2019
3958 Clouds 23 1023 35 9656 2.6 210 21:55 18.11.2019
3959 Clouds 23 1023 35 9656 2.6 210 21:36 18.11.2019
3960 Clouds 23 1023 35 9656 2.6 210 21:18 18.11.2019
3961 Clouds 22 1024 35 11265 1.5 10 20:42 18.11.2019
3962 Clouds 22 1024 35 11265 1.5 10 20:20 18.11.2019
3963 Clouds 21 1025 37 11265 1 200 19:58 18.11.2019
3964 Clouds 21 1025 37 11265 1 200 19:39 18.11.2019
3965 Clouds 21 1026 37 12874 0.73 324 19:21 18.11.2019
3966 Clouds 20 1026 42 12874 2.6 60 18:57 18.11.2019
3967 Clouds 20 1026 42 12874 2.6 60 18:38 18.11.2019
3968 Clouds 19 1027 45 14484 1.5 110 18:20 18.11.2019
3969 Clouds 19 1027 45 14484 1.5 110 18:20 18.11.2019
3970 Clouds 17 1028 44 14484 0.73 324 17:59 18.11.2019
3971 Clouds 17 1028 44 14484 0.73 324 17:38 18.11.2019
3972 Clouds 17 1028 44 14484 1.27 356 17:19 18.11.2019
3973 Clouds 17 1028 44 14484 1.27 356 17:19 18.11.2019
3974 Clouds 15 1028 50 16093 2.6 50 16:43 18.11.2019
3975 Clouds 15 1028 50 16093 2.6 50 16:25 18.11.2019
3976 Clouds 15 1028 50 16093 2.6 50 16:25 18.11.2019
3977 Clouds 14 1021 64 19312 1 80 15:59 18.11.2019
3978 Clouds 13 1027 54 16093 1 180 15:41 18.11.2019
3979 Clouds 13 1027 54 16093 1 180 15:41 18.11.2019
3980 Clouds 13 1027 54 16093 1 180 15:22 18.11.2019
3981 Clouds 11 1027 62 24140 3.1 70 14:59 18.11.2019
3982 Clouds 11 1027 62 24140 3.1 70 14:41 18.11.2019
3983 Clouds 11 1027 62 24140 3.1 70 14:22 18.11.2019
3984 Clouds 9 1026 57 16093 2.6 90 13:45 18.11.2019
3985 Clouds 9 1026 57 16093 2.6 90 13:27 18.11.2019
3986 Clouds 9 1026 57 16093 2.6 90 13:27 18.11.2019
3987 Clouds 10 1026 54 16093 1.5 70 12:57 18.11.2019
3988 Clouds 10 1026 54 16093 1.5 70 12:37 18.11.2019
3989 Clouds 10 1026 54 16093 1.5 70 12:18 18.11.2019
3990 Clouds 10 1026 50 16093 2.1 80 11:43 18.11.2019
3991 Clouds 10 1026 50 16093 2.1 80 11:25 18.11.2019
3992 Clouds 11 1026 50 19312 3.6 290 10:46 18.11.2019
3993 Clouds 12 1026 50 19312 3.6 290 10:27 18.11.2019
3994 Clouds 12 1026 50 19312 3.1 280 09:59 18.11.2019
3995 Clouds 12 1026 50 19312 3.1 280 09:39 18.11.2019
3996 Clouds 12 1026 50 19312 3.1 280 09:21 18.11.2019
3997 Clouds 12 1026 47 19312 3.6 280 08:59 18.11.2019
3998 Clouds 12 1026 47 19312 3.6 280 08:41 18.11.2019
3999 Clouds 13 1026 47 19312 3.6 280 08:19 18.11.2019
4000 Clouds 13 1027 41 19312 2.1 320 07:47 18.11.2019
4001 Clouds 13 1027 41 19312 2.1 320 07:47 18.11.2019
4002 Clouds 13 1027 41 19312 2.1 320 07:27 18.11.2019
4003 Clouds 15 1027 39 19312 2.6 10 06:49 18.11.2019
4004 Clouds 15 1027 39 19312 2.6 10 06:29 18.11.2019
4005 Clouds 15 1027 39 19312 2.1 310 05:46 18.11.2019
4006 Clouds 16 1026 39 12874 4.6 350 04:35 18.11.2019
4007 Clouds 19 1024 42 12874 5.1 60 01:49 18.11.2019
4008 Clouds 20 1023 35 12874 3.1 350 01:30 18.11.2019
4009 Clouds 21 1023 30 12874 3.1 310 00:21 18.11.2019
4010 Rain 22 1025 55 8047 5.1 170 23:43 17.11.2019
4011 Clouds 22 1023 30 11265 1.5 320 23:24 17.11.2019
4012 Clouds 22 1023 30 11265 2.4 351 22:58 17.11.2019
4013 Clouds 22 1023 30 11265 2.4 351 22:39 17.11.2019
4014 Clouds 22 1023 30 11265 2.4 351 22:21 17.11.2019
4015 Clouds 23 1024 31 11265 2.4 351 21:57 17.11.2019
4016 Clouds 23 1024 31 11265 2.4 351 21:39 17.11.2019
4017 Clouds 23 1024 31 11265 2.4 351 21:19 17.11.2019
4018 Clouds 22 1025 33 11265 2.4 351 20:55 17.11.2019
4019 Clouds 22 1025 33 11265 2.4 351 20:55 17.11.2019
4020 Clouds 22 1025 33 11265 2.4 351 20:37 17.11.2019
4021 Clouds 22 1025 33 11265 2.19 345 20:19 17.11.2019
4022 Clouds 21 1026 40 11265 2.6 20 19:56 17.11.2019
4023 Clouds 21 1026 40 11265 2.6 20 19:37 17.11.2019
4024 Clouds 21 1026 40 11265 2.6 20 19:19 17.11.2019
4025 Clouds 19 1027 39 11265 2.6 280 18:54 17.11.2019
4026 Clouds 19 1027 39 11265 2.6 280 18:36 17.11.2019
4027 Clouds 19 1027 39 11265 2.6 280 18:36 17.11.2019
4028 Clouds 19 1027 39 11265 2.6 280 18:18 17.11.2019
4029 Clear 17 1028 45 11265 2.19 345 17:57 17.11.2019
4030 Clear 17 1028 45 11265 2.19 345 17:38 17.11.2019
4031 Clear 16 1028 51 11265 2.6 80 17:19 17.11.2019
4032 Clear 14 1028 62 11265 2.1 90 16:55 17.11.2019
4033 Clear 14 1028 62 11265 2.1 90 16:37 17.11.2019
4034 Clear 14 1028 62 11265 2.1 90 16:19 17.11.2019
4035 Clear 12 1027 76 12874 2.6 90 15:54 17.11.2019
4036 Clear 11 1027 76 12874 2.6 90 15:36 17.11.2019
4037 Clear 11 1027 76 12874 2.6 90 15:18 17.11.2019
4038 Clear 11 1027 76 12874 2.6 90 15:18 17.11.2019
4039 Clear 9 1026 81 11265 3.1 70 14:54 17.11.2019
4040 Clear 9 1026 81 11265 3.1 70 14:36 17.11.2019
4041 Clear 7 1026 81 11265 3.1 70 14:18 17.11.2019
4042 Clear 8 1026 71 11265 1 80 13:40 17.11.2019
4043 Clear 8 1026 71 11265 1 80 13:20 17.11.2019
4044 Clear 9 1026 66 11265 1.5 50 12:55 17.11.2019
4045 Clear 9 1026 66 11265 1.5 50 12:36 17.11.2019
4046 Clear 9 1026 66 11265 1.5 50 12:18 17.11.2019
4047 Clear 9 1026 66 11265 1.5 50 12:18 17.11.2019
4048 Fog 10 1027 93 805 0.93 31 11:54 17.11.2019
4049 Fog 10 1027 93 805 0.93 31 11:36 17.11.2019
4050 Clear 10 1026 62 11265 2.1 40 11:18 17.11.2019
4051 Clouds 11 1026 54 11265 1 250 10:41 17.11.2019
4052 Clouds 11 1026 54 11265 1 250 10:21 17.11.2019
4053 Clouds 12 1026 54 11265 2.6 310 09:42 17.11.2019
4054 Clouds 12 1026 54 11265 2.6 310 09:24 17.11.2019
4055 Clouds 12 1026 54 11265 3.1 280 08:47 17.11.2019
4056 Clouds 13 1026 54 11265 3.1 280 08:27 17.11.2019
4057 Clouds 13 1027 48 11265 2.6 310 07:59 17.11.2019
4058 Clouds 13 1027 48 11265 2.6 310 07:40 17.11.2019
4059 Clouds 13 1027 48 11265 2.6 310 07:20 17.11.2019
4060 Clouds 14 1027 51 11265 3.1 340 06:54 17.11.2019
4061 Clouds 14 1027 51 11265 3.1 340 06:29 17.11.2019
4062 Clouds 15 1027 48 11265 3.1 320 05:24 17.11.2019
4063 Clouds 16 1027 42 12874 3.1 10 04:18 17.11.2019
4064 Clouds 15 1026 42 9656 2.1 330 03:39 17.11.2019
4065 Clouds 17 1026 42 9656 2.1 330 03:20 17.11.2019
4066 Clouds 19 1024 40 9656 4.6 310 01:59 17.11.2019
4067 Clouds 19 1024 40 9656 4.6 310 01:21 17.11.2019
4068 Clouds 20 1024 40 9656 5.1 300 00:41 17.11.2019
4069 Clouds 20 1024 40 9656 5.1 300 00:21 17.11.2019
4070 Clouds 20 1024 37 6437 2.6 320 23:42 16.11.2019
4071 Clouds 20 1024 37 6437 2.6 320 23:42 16.11.2019
4072 Clouds 20 1024 37 6437 2.6 320 23:19 16.11.2019
4073 Clouds 20 1024 37 8047 2.6 350 22:42 16.11.2019
4074 Clouds 20 1024 37 8047 2.6 350 22:20 16.11.2019
4075 Clouds 20 1025 37 9656 1.5 20 21:59 16.11.2019
4076 Clouds 20 1025 37 9656 1.5 20 21:40 16.11.2019
4077 Clouds 20 1025 37 9656 1.5 20 21:21 16.11.2019
4078 Clouds 21 1027 40 9656 3.4 349 20:58 16.11.2019
4079 Clouds 21 1027 40 9656 3.4 349 20:39 16.11.2019
4080 Clouds 21 1027 40 9656 2.3 345 20:19 16.11.2019
4081 Clouds 21 1027 42 11265 1.5 80 19:41 16.11.2019
4082 Clouds 20 1027 45 11265 2.3 345 19:22 16.11.2019
4083 Clouds 19 1028 48 8047 1.5 10 18:59 16.11.2019
4084 Clouds 19 1028 48 8047 1.5 10 18:39 16.11.2019
4085 Clouds 17 1029 59 6437 2.6 40 18:20 16.11.2019
4086 Clouds 17 1029 59 6437 2.3 345 17:55 16.11.2019
4087 Clouds 17 1029 59 6437 2.3 345 17:36 16.11.2019
4088 Haze 16 1029 67 4828 1.5 70 17:18 16.11.2019
4089 Haze 15 1029 71 4828 3.1 70 16:44 16.11.2019
4090 Mist 14 1029 81 4828 3.6 80 16:26 16.11.2019
4091 Mist 12 1029 81 3219 2.6 70 15:56 16.11.2019
4092 Mist 12 1029 81 3219 2.6 70 15:37 16.11.2019
4093 Mist 12 1029 81 3219 2.6 70 15:18 16.11.2019
4094 Mist 10 1028 87 3219 2.6 80 14:40 16.11.2019
4095 Mist 11 1028 81 4828 2.6 70 14:21 16.11.2019
4096 Clouds 10 1028 87 6437 3.6 80 13:56 16.11.2019
4097 Clouds 10 1028 87 6437 3.6 80 13:38 16.11.2019
4098 Clouds 9 1028 87 6437 3.6 80 13:19 16.11.2019
4099 Clouds 10 1027 81 8047 3.6 90 12:58 16.11.2019
4100 Clouds 10 1027 81 8047 3.6 90 12:40 16.11.2019
4101 Clouds 10 1027 81 8047 3.6 90 12:20 16.11.2019
4102 Clouds 10 1027 81 8047 3.1 70 11:45 16.11.2019
4103 Clouds 10 1027 81 8047 3.1 70 11:26 16.11.2019
4104 Clouds 10 1028 81 8047 3.1 90 10:57 16.11.2019
4105 Clouds 10 1028 81 8047 3.1 90 10:39 16.11.2019
4106 Clouds 10 1028 81 8047 3.1 90 10:20 16.11.2019
4107 Clouds 10 1028 81 9656 4.6 80 09:43 16.11.2019
4108 Clouds 11 1028 71 9656 4.1 80 09:21 16.11.2019
4109 Clouds 12 1028 66 9656 3.1 80 08:58 16.11.2019
4110 Clouds 12 1028 66 9656 3.1 80 08:38 16.11.2019
4111 Clouds 12 1028 66 9656 3.1 80 08:18 16.11.2019
4112 Clouds 13 1029 62 11265 2.45 353 07:41 16.11.2019
4113 Clouds 13 1029 62 11265 2.45 353 07:41 16.11.2019
4114 Clouds 13 1029 62 11265 2.45 353 07:20 16.11.2019
4115 Clouds 13 1029 58 11265 4.1 300 06:45 16.11.2019
4116 Clouds 13 1029 58 11265 4.1 300 06:26 16.11.2019
4117 Clouds 14 1029 55 9656 2.6 300 05:28 16.11.2019
4118 Clouds 14 1028 52 9656 2.6 300 03:42 16.11.2019
4119 Clouds 17 1028 52 9656 2.6 300 03:23 16.11.2019
4120 Clouds 18 1026 42 9656 3.1 340 01:44 16.11.2019
4121 Clouds 19 1026 42 9656 3.1 340 01:19 16.11.2019
4122 Clouds 19 1029 81 6437 4.1 80 00:41 16.11.2019
4123 Clouds 19 1026 40 9656 3.9 356 00:20 16.11.2019
4124 Thunderstorm 20 1028 76 6437 3.6 100 23:39 15.11.2019
4125 Clouds 21 1026 40 9656 2.6 90 23:20 15.11.2019
4126 Clouds 22 1026 43 9656 4.1 120 22:55 15.11.2019
4127 Clouds 22 1026 43 9656 4.1 120 22:36 15.11.2019
4128 Clouds 22 1026 43 9656 4.1 120 22:18 15.11.2019
4129 Clouds 22 1027 45 9656 3.1 60 21:41 15.11.2019
4130 Clouds 22 1027 45 9656 3.1 60 21:40 15.11.2019
4131 Clouds 22 1027 45 9656 3.1 60 21:20 15.11.2019
4132 Clouds 21 1028 40 9656 1.5 50 20:58 15.11.2019
4133 Clouds 21 1028 40 9656 1.5 50 20:39 15.11.2019
4134 Clouds 21 1028 40 9656 1.5 50 20:39 15.11.2019
4135 Clouds 22 1028 40 9656 1.5 50 20:21 15.11.2019
4136 Clouds 21 1029 45 9656 1.5 250 19:58 15.11.2019
4137 Clouds 20 1029 45 9656 1.5 250 19:39 15.11.2019
4138 Clouds 19 1029 51 9656 3.1 280 19:20 15.11.2019
4139 Clouds 19 1030 52 9656 2.1 220 18:58 15.11.2019
4140 Clouds 19 1030 52 9656 2.1 220 18:39 15.11.2019
4141 Clouds 18 1031 59 9656 1.5 220 18:21 15.11.2019
4142 Clouds 17 1031 62 9656 2.1 110 17:42 15.11.2019
4143 Clouds 17 1031 62 9656 2.1 110 17:24 15.11.2019
4144 Clouds 15 1031 62 11265 3.1 10 16:56 15.11.2019
4145 Clouds 15 1031 62 11265 3.1 10 16:37 15.11.2019
4146 Clouds 15 1031 62 11265 3.1 10 16:19 15.11.2019
4147 Clouds 13 1030 66 11265 2.6 290 15:38 15.11.2019
4148 Clouds 13 1030 66 11265 2.6 290 15:20 15.11.2019
4149 Clouds 13 1029 66 8047 2.6 260 14:57 15.11.2019
4150 Clouds 13 1029 66 8047 2.6 260 14:38 15.11.2019
4151 Clouds 13 1029 66 8047 2.6 260 14:19 15.11.2019
4152 Clouds 11 1029 66 9656 3.6 270 13:58 15.11.2019
4153 Clouds 12 1029 66 9656 3.6 270 13:39 15.11.2019
4154 Clouds 12 1029 66 9656 3.6 270 13:20 15.11.2019
4155 Clouds 11 1029 66 9656 2.6 360 12:58 15.11.2019
4156 Clouds 11 1029 66 9656 2.6 360 12:39 15.11.2019
4157 Clouds 12 1029 66 9656 2.6 360 12:20 15.11.2019
4158 Clouds 11 1029 66 9656 2.6 30 11:57 15.11.2019
4159 Clouds 11 1029 66 9656 2.6 30 11:38 15.11.2019
4160 Mist 12 1029 87 6437 3.12 349 11:20 15.11.2019
4161 Clouds 12 1029 67 9656 2.6 360 10:56 15.11.2019
4162 Clouds 12 1029 67 9656 2.6 360 10:38 15.11.2019
4163 Clouds 12 1029 67 9656 2.6 360 10:18 15.11.2019
4164 Clouds 13 1029 67 9656 2.6 30 09:40 15.11.2019
4165 Clouds 13 1029 67 9656 2.6 30 09:19 15.11.2019
4166 Clouds 13 1029 67 9656 3.6 20 08:44 15.11.2019
4167 Clouds 13 1029 67 9656 3.6 20 08:23 15.11.2019
4168 Clouds 13 1030 67 9656 4.6 20 07:48 15.11.2019
4169 Clouds 13 1030 67 9656 4.6 20 07:28 15.11.2019
4170 Clouds 14 1029 63 9656 5.1 350 06:44 15.11.2019
4171 Clouds 14 1029 63 9656 5.1 350 06:25 15.11.2019
4172 Clouds 14 1029 63 11265 3.6 10 05:40 15.11.2019
4173 Clouds 14 1029 63 11265 3.6 10 05:22 15.11.2019
4174 Clouds 16 1027 55 16093 3.1 50 03:50 15.11.2019
4175 Clouds 16 1027 55 16093 3.1 50 03:22 15.11.2019
4176 Clouds 18 1028 71 11265 3.1 130 02:18 15.11.2019
4177 Clouds 19 1025 52 19312 5.7 110 01:33 15.11.2019
4178 Clouds 19 1025 52 19312 5.7 110 01:33 15.11.2019
4179 Clouds 21 1024 46 19312 6.2 120 00:49 15.11.2019
4180 Clouds 21 1024 46 19312 6.2 120 00:31 15.11.2019
4181 Clouds 22 1024 33 17702 3.6 70 23:50 14.11.2019
4182 Clouds 22 1024 33 17702 3.6 70 23:28 14.11.2019
4183 Clouds 22 1024 33 17702 4.1 150 22:58 14.11.2019
4184 Clouds 22 1024 33 17702 4.1 150 22:39 14.11.2019
4185 Clouds 22 1024 33 17702 4.1 150 22:21 14.11.2019
4186 Clouds 22 1025 30 19312 2.1 220 21:55 14.11.2019
4187 Clouds 22 1025 30 19312 2.1 220 21:37 14.11.2019
4188 Clouds 22 1025 30 19312 2.1 220 21:18 14.11.2019
4189 Clouds 23 1026 31 19312 3.6 220 20:42 14.11.2019
4190 Clouds 23 1026 31 19312 3.6 220 20:23 14.11.2019
4191 Clouds 22 1027 35 16093 2.6 220 19:59 14.11.2019
4192 Clouds 22 1027 35 16093 2.6 220 19:40 14.11.2019
4193 Clouds 22 1027 35 16093 2.6 220 19:18 14.11.2019
4194 Clouds 20 1028 37 16093 3.6 210 18:55 14.11.2019
4195 Clouds 21 1027 37 0 3.58 210 18:36 14.11.2019
4196 Clouds 18 1028 45 16093 2.1 300 18:18 14.11.2019
4197 Clouds 18 1028 45 16093 2.1 300 17:39 14.11.2019
4198 Clouds 18 1028 45 16093 2.1 300 17:20 14.11.2019
4199 Clouds 16 1028 59 19312 2.1 20 16:58 14.11.2019
4200 Clouds 16 1028 59 19312 2.1 20 16:39 14.11.2019
4201 Clouds 16 1028 59 19312 2.1 20 16:21 14.11.2019
4202 Clouds 14 1027 67 19312 2.1 90 15:59 14.11.2019
4203 Clouds 14 1027 67 19312 2.1 90 15:41 14.11.2019
4204 Clouds 14 1027 67 19312 2.1 90 15:22 14.11.2019
4205 Clouds 12 1026 71 24140 1.58 173 14:58 14.11.2019
4206 Clouds 12 1026 71 24140 1.58 173 14:40 14.11.2019
4207 Clouds 12 1026 71 24140 2.05 158 14:22 14.11.2019
4208 Clouds 11 1026 66 24140 2.05 158 13:55 14.11.2019
4209 Clouds 11 1026 66 24140 2.05 158 13:36 14.11.2019
4210 Clouds 11 1026 66 24140 2.08 160 13:18 14.11.2019
4211 Clouds 11 1026 62 24140 2.1 280 12:44 14.11.2019
4212 Clouds 11 1026 62 24140 2.1 280 12:24 14.11.2019
4213 Clouds 11 1026 62 24140 2.08 160 11:56 14.11.2019
4214 Clouds 11 1026 62 24140 2.08 160 11:37 14.11.2019
4215 Clouds 11 1026 62 24140 2.66 161 11:19 14.11.2019
4216 Clouds 11 1026 62 24140 2.66 161 10:57 14.11.2019
4217 Clouds 11 1026 62 24140 2.66 161 10:37 14.11.2019
4218 Clouds 12 1026 62 24140 2.66 161 10:19 14.11.2019
4219 Clouds 12 1027 58 24140 3.1 140 09:42 14.11.2019
4220 Clouds 14 1018 55 0 2.66 161 09:24 14.11.2019
4221 Clouds 11 1026 51 24140 4.1 150 08:59 14.11.2019
4222 Clouds 12 1026 51 24140 4.1 150 08:40 14.11.2019
4223 Clouds 12 1026 51 24140 4.1 150 08:22 14.11.2019
4224 Clouds 12 1026 51 24140 4.1 180 07:42 14.11.2019
4225 Clouds 12 1026 51 24140 4.1 180 07:24 14.11.2019
4226 Clouds 13 1026 48 19312 6.2 150 06:46 14.11.2019
4227 Clouds 13 1026 48 19312 6.2 150 06:21 14.11.2019
4228 Clouds 13 1027 51 19312 6.2 160 05:38 14.11.2019
4229 Clouds 16 1019 48 0 3.58 172 04:38 14.11.2019
4230 Clouds 14 1026 48 16093 3.1 170 03:27 14.11.2019
4231 Clouds 17 1025 45 16093 3.1 170 02:35 14.11.2019
4232 Clouds 18 1025 39 16093 3.1 170 01:40 14.11.2019
4233 Clouds 20 1024 37 19312 6.2 170 00:57 14.11.2019
4234 Clouds 20 1024 37 19312 6.2 170 00:37 14.11.2019
4235 Clouds 20 1024 37 19312 6.2 170 00:18 14.11.2019
4236 Clouds 20 1024 37 19312 6.2 170 23:38 13.11.2019
4237 Clouds 20 1024 37 19312 6.2 170 23:19 13.11.2019
4238 Clouds 21 1024 34 19312 8.2 190 22:42 13.11.2019
4239 Clouds 21 1024 34 19312 8.2 190 22:23 13.11.2019
4240 Clouds 21 1024 34 19312 8.2 190 22:23 13.11.2019
4241 Clouds 21 1025 35 19312 8.2 210 21:57 13.11.2019
4242 Clouds 21 1025 35 19312 8.2 210 21:39 13.11.2019
4243 Clouds 21 1025 35 19312 8.2 210 21:21 13.11.2019
4244 Clouds 21 1025 35 19312 6.7 180 20:58 13.11.2019
4245 Clouds 21 1025 35 19312 6.7 180 20:58 13.11.2019
4246 Clouds 21 1025 35 19312 6.7 180 20:38 13.11.2019
4247 Clouds 21 1025 35 19312 6.7 180 20:38 13.11.2019
4248 Clouds 20 1026 42 19312 3.1 190 20:20 13.11.2019
4249 Clear 19 1026 42 0 2.68 190 19:59 13.11.2019
4250 Clear 19 1027 42 0 4.92 140 19:40 13.11.2019
4251 Clouds 19 1027 42 19312 5.1 140 19:18 13.11.2019
4252 Clouds 19 1027 42 19312 5.1 140 18:56 13.11.2019
4253 Clouds 19 1027 42 19312 5.1 140 18:37 13.11.2019
4254 Clouds 19 1027 42 19312 5.1 140 18:18 13.11.2019
4255 Clouds 19 1028 45 19312 3.1 180 17:56 13.11.2019
4256 Clouds 18 1028 45 19312 3.1 180 17:38 13.11.2019
4257 Clouds 17 1028 51 19312 1.5 180 17:19 13.11.2019
4258 Clouds 15 1028 54 16093 3.1 140 16:56 13.11.2019
4259 Clouds 15 1028 54 16093 3.1 140 16:37 13.11.2019
4260 Clouds 15 1028 54 16093 3.1 140 16:19 13.11.2019
4261 Clouds 14 1028 71 16093 3.1 110 15:57 13.11.2019
4262 Clouds 14 1028 71 16093 3.1 110 15:37 13.11.2019
4263 Clouds 13 1028 71 16093 3.1 110 15:18 13.11.2019
4264 Clouds 12 1028 81 11265 3.1 80 14:41 13.11.2019
4265 Clouds 12 1028 81 11265 3.1 80 14:21 13.11.2019
4266 Clouds 11 1027 81 9656 2.1 80 13:39 13.11.2019
4267 Clouds 11 1027 81 9656 2.1 80 13:39 13.11.2019
4268 Clouds 11 1027 81 9656 2.1 80 13:20 13.11.2019
4269 Clouds 11 1027 81 9656 1 20 12:59 13.11.2019
4270 Clouds 11 1027 81 9656 1 20 12:41 13.11.2019
4271 Clouds 11 1027 81 9656 1 20 12:23 13.11.2019
4272 Clouds 10 1028 71 11265 6.2 160 11:55 13.11.2019
4273 Clouds 10 1028 71 11265 6.2 160 11:37 13.11.2019
4274 Clouds 10 1027 81 9656 2.1 60 11:18 13.11.2019
4275 Clouds 11 1027 81 9656 3.1 80 10:55 13.11.2019
4276 Clouds 11 1027 81 9656 3.1 80 10:37 13.11.2019
4277 Clouds 11 1027 81 9656 3.1 80 10:18 13.11.2019
4278 Clouds 11 1027 76 9656 2.1 80 09:41 13.11.2019
4279 Clouds 11 1027 76 9656 2.1 80 09:20 13.11.2019
4280 Clouds 12 1027 71 11265 2.6 100 08:41 13.11.2019
4281 Clouds 14 1027 71 11265 2.6 100 08:23 13.11.2019
4282 Clouds 15 1027 67 12874 2.1 100 07:58 13.11.2019
4283 Clouds 15 1027 67 12874 2.1 100 07:39 13.11.2019
4284 Clouds 15 1027 67 12874 2.1 100 07:18 13.11.2019
4285 Clouds 15 1028 67 12874 1 60 06:41 13.11.2019
4286 Clouds 15 1028 67 12874 1 60 06:18 13.11.2019
4287 Clouds 16 1027 62 12874 3.6 300 05:47 13.11.2019
4288 Clouds 16 1027 62 12874 3.6 280 04:59 13.11.2019
4289 Clouds 19 1026 52 14484 4.1 300 03:51 13.11.2019
4290 Clouds 20 1024 37 11265 3.1 170 01:50 13.11.2019
4291 Clouds 20 1024 37 11265 3.1 170 01:25 13.11.2019
4292 Clouds 21 1023 33 11265 3.1 130 00:42 13.11.2019
4293 Clouds 23 1023 30 11265 2.97 339 23:56 12.11.2019
4294 Clouds 23 1023 30 11265 2.97 339 23:37 12.11.2019
4295 Clouds 23 1023 30 11265 2.47 3 23:18 12.11.2019
4296 Clouds 23 1024 33 12874 2.1 340 22:40 12.11.2019
4297 Clouds 23 1024 33 12874 2.1 340 22:18 12.11.2019
4298 Clouds 22 1025 35 12874 2.47 3 21:54 12.11.2019
4299 Clouds 22 1025 35 12874 2.47 3 21:36 12.11.2019
4300 Clouds 22 1025 35 12874 2.47 3 21:18 12.11.2019
4301 Clouds 21 1026 40 12874 2.6 340 20:54 12.11.2019
4302 Clouds 21 1026 40 12874 2.6 340 20:36 12.11.2019
4303 Clouds 21 1026 40 12874 2.6 340 20:18 12.11.2019
4304 Clouds 20 1028 42 12874 2.6 340 19:54 12.11.2019
4305 Clouds 20 1028 42 12874 2.6 340 19:36 12.11.2019
4306 Clouds 20 1028 42 12874 2.6 340 19:18 12.11.2019
4307 Clouds 18 1029 48 16093 2.61 50 18:41 12.11.2019
4308 Clouds 17 1029 48 16093 2.61 50 18:23 12.11.2019
4309 Clouds 17 1030 51 14484 3.1 100 17:58 12.11.2019
4310 Clouds 17 1030 51 14484 3.1 100 17:58 12.11.2019
4311 Clouds 17 1030 51 14484 3.1 100 17:40 12.11.2019
4312 Clouds 17 1030 51 14484 3.1 100 17:21 12.11.2019
4313 Clouds 15 1030 51 14484 2.6 60 16:59 12.11.2019
4314 Clouds 15 1030 51 14484 2.6 60 16:40 12.11.2019
4315 Clouds 15 1030 51 14484 2.6 60 16:22 12.11.2019
4316 Mist 15 1030 76 4828 3.6 130 15:42 12.11.2019
4317 Clouds 14 1029 62 14484 2.6 290 15:23 12.11.2019
4318 Clouds 11 1029 66 16093 3.1 20 14:57 12.11.2019
4319 Clouds 11 1029 66 16093 3.1 20 14:39 12.11.2019
4320 Clouds 11 1029 66 16093 3.1 20 14:19 12.11.2019
4321 Clouds 10 1028 66 19312 3.6 350 13:57 12.11.2019
4322 Clouds 10 1028 66 19312 3.6 350 13:57 12.11.2019
4323 Clouds 10 1028 66 19312 3.6 350 13:38 12.11.2019
4324 Clouds 11 1028 66 19312 3.6 350 13:19 12.11.2019
4325 Clouds 11 1027 62 24140 4.6 360 12:43 12.11.2019
4326 Clouds 12 1027 62 24140 4.6 360 12:20 12.11.2019
4327 Clouds 11 1027 58 24140 2.6 320 11:59 12.11.2019
4328 Clouds 12 1027 58 24140 2.6 320 11:41 12.11.2019
4329 Clouds 12 1027 58 24140 2.6 320 11:22 12.11.2019
4330 Clouds 12 1027 62 19312 2.1 30 10:57 12.11.2019
4331 Clouds 12 1027 62 19312 2.1 30 10:38 12.11.2019
4332 Clouds 12 1027 62 19312 2.1 30 10:20 12.11.2019
4333 Clouds 12 1027 62 19312 2.55 15 09:56 12.11.2019
4334 Clouds 12 1027 62 19312 2.51 9 09:38 12.11.2019
4335 Clouds 13 1027 51 19312 1.5 280 09:38 12.11.2019
4336 Clouds 14 1027 51 19312 1.5 280 09:18 12.11.2019
4337 Clouds 13 1027 55 19312 2.1 320 08:41 12.11.2019
4338 Clouds 13 1027 55 19312 2.1 320 08:41 12.11.2019
4339 Clear 17 1027 55 0 1.79 320 08:22 12.11.2019
4340 Clouds 14 1028 55 19312 2.6 310 07:41 12.11.2019
4341 Clouds 14 1028 55 19312 2.6 310 07:23 12.11.2019
4342 Clouds 15 1028 52 19312 5.1 320 06:45 12.11.2019
4343 Clouds 15 1028 52 19312 5.1 320 06:23 12.11.2019
4344 Clouds 15 1028 52 19312 5.7 300 05:46 12.11.2019
4345 Clouds 17 1027 40 16093 3.6 360 04:50 12.11.2019
4346 Clouds 17 1027 42 12874 4.6 60 03:49 12.11.2019
4347 Rain 20 1025 40 9656 2.6 310 01:49 12.11.2019
4348 Rain 19 1025 40 9656 4.1 110 01:22 12.11.2019
4349 Rain 19 1025 40 9656 4.1 110 01:22 12.11.2019
4350 Rain 20 1025 42 9656 6.2 120 00:48 12.11.2019
4351 Clouds 21 1024 43 12874 5.1 120 00:29 12.11.2019
4352 Clouds 23 1024 31 12874 4.6 40 23:47 11.11.2019
4353 Clouds 23 1024 31 12874 4.6 40 23:24 11.11.2019
4354 Clouds 24 1024 29 12874 4.1 320 22:58 11.11.2019
4355 Clouds 24 1024 29 12874 4.1 320 22:37 11.11.2019
4356 Clouds 24 1024 29 12874 4.1 320 22:18 11.11.2019
4357 Clouds 24 1025 31 11265 2.1 300 21:57 11.11.2019
4358 Clouds 24 1025 31 11265 2.1 300 21:38 11.11.2019
4359 Clouds 24 1025 31 11265 2.1 300 21:19 11.11.2019
4360 Clouds 23 1026 38 11265 4.6 30 20:43 11.11.2019
4361 Clouds 23 1026 38 11265 4.6 30 20:20 11.11.2019
4362 Clouds 22 1027 40 11265 4.1 40 19:59 11.11.2019
4363 Clouds 22 1027 40 11265 4.1 40 19:41 11.11.2019
4364 Clouds 22 1027 40 11265 4.1 40 19:19 11.11.2019
4365 Clouds 21 1028 43 9656 4.1 40 18:56 11.11.2019
4366 Clouds 21 1028 43 9656 4.1 40 18:37 11.11.2019
4367 Clouds 21 1028 52 9656 2.6 50 18:19 11.11.2019
4368 Clouds 19 1029 55 9656 1.5 70 17:42 11.11.2019
4369 Clouds 19 1029 55 9656 1.5 70 17:24 11.11.2019
4370 Haze 18 1031 76 4828 2.6 350 16:43 11.11.2019
4371 Clouds 17 1029 59 11265 1.24 359 16:24 11.11.2019
4372 Clouds 16 1029 59 11265 1.24 359 15:59 11.11.2019
4373 Clouds 15 1028 63 12874 2.1 60 15:40 11.11.2019
4374 Clouds 15 1028 71 12874 3.6 80 15:19 11.11.2019
4375 Clouds 15 1028 71 12874 3.6 80 15:19 11.11.2019
4376 Mist 13 1030 87 4828 1.24 359 14:44 11.11.2019
4377 Clouds 11 1027 76 11265 3.1 70 14:25 11.11.2019
4378 Clouds 11 1027 76 11265 3.1 70 13:58 11.11.2019
4379 Clouds 11 1027 71 11265 3.6 80 13:38 11.11.2019
4380 Clouds 12 1027 71 11265 3.6 80 13:19 11.11.2019
4381 Clouds 12 1027 67 11265 1.5 70 12:57 11.11.2019
4382 Clouds 13 1027 67 11265 1.5 70 12:39 11.11.2019
4383 Clouds 13 1027 67 11265 1.5 70 12:39 11.11.2019
4384 Clouds 13 1027 67 11265 1.5 70 12:39 11.11.2019
4385 Clouds 13 1027 67 11265 1.5 70 12:21 11.11.2019
4386 Clouds 13 1027 67 9656 2.1 80 11:42 11.11.2019
4387 Clouds 13 1027 67 9656 2.1 80 11:22 11.11.2019
4388 Clouds 13 1027 67 9656 3.1 70 10:57 11.11.2019
4389 Clouds 13 1027 67 9656 3.1 70 10:38 11.11.2019
4390 Clouds 13 1027 67 9656 3.1 70 10:18 11.11.2019
4391 Clouds 14 1027 72 11265 1 60 09:54 11.11.2019
4392 Clouds 14 1027 72 11265 1 60 09:36 11.11.2019
4393 Clouds 14 1027 72 11265 1 60 09:18 11.11.2019
4394 Clouds 14 1027 67 11265 3.6 80 08:37 11.11.2019
4395 Clouds 14 1027 67 11265 3.6 80 08:19 11.11.2019
4396 -273 0 0 0 0 0 07:54 11.11.2019
4397 Clouds 15 1028 63 11265 2.6 360 07:36 11.11.2019
4398 Clouds 15 1028 63 11265 2.6 360 07:36 11.11.2019
4399 Clouds 15 1028 63 11265 2.6 360 07:18 11.11.2019
4400 Clouds 16 1028 59 11265 1.42 6 06:41 11.11.2019
4401 Clouds 16 1028 59 11265 1.42 6 06:20 11.11.2019
4402 Clouds 16 1028 55 11265 3.6 50 05:49 11.11.2019
4403 Clouds 17 1027 48 12874 3.1 140 03:56 11.11.2019
4404 Clouds 19 1027 48 12874 3.1 140 03:20 11.11.2019
4405 Clouds 20 1026 49 11265 6.7 90 02:19 11.11.2019
4406 Thunderstorm 22 1029 77 9656 1.5 70 01:51 11.11.2019
4407 Clouds 22 1025 31 12874 3.1 10 01:31 11.11.2019
4408 Clouds 23 1024 31 12874 2.6 360 00:41 11.11.2019
4409 Clouds 23 1024 31 12874 2.6 360 23:58 10.11.2019
4410 Clouds 24 1024 33 12874 3.1 20 23:38 10.11.2019
4411 Clouds 24 1024 33 12874 3.1 20 23:19 10.11.2019
4412 Thunderstorm 24 1027 42 9656 4.1 90 22:57 10.11.2019
4413 Thunderstorm 24 1027 42 9656 4.1 90 22:38 10.11.2019
4414 Clouds 24 1025 31 11265 2.6 90 22:20 10.11.2019
4415 Clouds 24 1026 33 11265 3.6 30 21:56 10.11.2019
4416 Clouds 24 1026 33 11265 3.6 30 21:38 10.11.2019
4417 Clouds 24 1026 33 11265 3.6 30 21:20 10.11.2019
4418 Clouds 22 1028 43 9656 2.5 8 20:41 10.11.2019
4419 Clouds 22 1028 43 9656 1.92 341 20:22 10.11.2019
4420 Clouds 22 1029 49 8047 2.1 100 19:56 10.11.2019
4421 Clouds 22 1029 49 8047 2.1 100 19:38 10.11.2019
4422 Clouds 22 1029 49 8047 2.1 100 19:19 10.11.2019
4423 Clear 21 1029 52 8047 3.1 80 18:58 10.11.2019
4424 Clear 21 1029 52 8047 3.1 80 18:58 10.11.2019
4425 Clear 21 1029 52 8047 3.1 80 18:40 10.11.2019
4426 Clear 21 1029 52 8047 3.1 80 18:40 10.11.2019
4427 Clear 21 1029 52 8047 3.1 80 18:40 10.11.2019
4428 Clear 20 1030 63 6437 2.1 90 18:19 10.11.2019
4429 Clear 18 1031 67 6437 2.6 80 17:57 10.11.2019
4430 Clear 18 1031 67 6437 2.6 80 17:38 10.11.2019
4431 Clear 17 1031 77 6437 1.44 352 17:20 10.11.2019
4432 Mist 15 1031 93 4828 1.5 60 16:58 10.11.2019
4433 Mist 15 1031 93 4828 1.5 60 16:39 10.11.2019
4434 Mist 15 1031 93 2414 2.1 70 16:21 10.11.2019
4435 Fog 12 1031 100 0 1.5 50 15:56 10.11.2019
4436 Fog 12 1031 100 0 1.5 50 15:36 10.11.2019
4437 Fog 12 1031 100 0 1.5 50 15:18 10.11.2019
4438 Fog 11 1030 93 201 2.1 60 14:55 10.11.2019
4439 Fog 11 1030 93 201 2.1 60 14:36 10.11.2019
4440 Fog 8 1030 93 402 1.5 90 14:18 10.11.2019
4441 Fog 9 1030 87 402 3.1 80 13:41 10.11.2019
4442 Fog 9 1030 93 805 1.5 80 13:20 10.11.2019
4443 Clouds 11 1029 87 16093 1.21 18 12:54 10.11.2019
4444 Clouds 11 1029 87 16093 1.21 18 12:36 10.11.2019
4445 Clouds 11 1029 87 16093 1.21 18 12:18 10.11.2019
4446 Clouds 10 1029 81 16093 1.5 60 11:54 10.11.2019
4447 Clouds 10 1029 81 16093 1.5 60 11:36 10.11.2019
4448 Clouds 11 1029 81 16093 1.5 60 11:18 10.11.2019
4449 Clouds 12 1029 82 16093 2.6 80 10:41 10.11.2019
4450 Clouds 12 1029 82 16093 2.6 80 10:20 10.11.2019
4451 Clouds 12 1029 76 16093 2.6 260 09:44 10.11.2019
4452 Clouds 12 1029 76 16093 2.6 260 09:26 10.11.2019
4453 Clouds 12 1029 76 16093 2.6 260 08:59 10.11.2019
4454 Clouds 13 1030 72 19312 3.6 280 08:37 10.11.2019
4455 Clouds 13 1030 72 19312 3.6 280 08:18 10.11.2019
4456 Clouds 14 1030 67 19312 3.1 280 07:42 10.11.2019
4457 Clouds 14 1030 67 19312 3.1 280 07:24 10.11.2019
4458 Clouds 14 1030 63 19312 4.1 310 06:33 10.11.2019
4459 Clouds 15 1030 59 19312 4.6 300 05:33 10.11.2019
4460 Clouds 17 1028 48 17702 6.2 40 03:22 10.11.2019
4461 Clouds 21 1026 40 17702 5.1 20 01:53 10.11.2019
4462 Clouds 21 1026 40 17702 5.1 20 01:19 10.11.2019
4463 Clouds 23 1026 33 16093 3.6 10 00:41 10.11.2019
4464 Clouds 23 1026 33 16093 3.6 10 00:41 10.11.2019
4465 Clouds 24 1026 33 16093 2.1 220 23:56 09.11.2019
4466 Clouds 24 1026 33 16093 2.1 220 23:37 09.11.2019
4467 Clouds 24 1026 33 16093 2.1 220 23:18 09.11.2019
4468 Clouds 24 1026 33 16093 3.1 240 22:41 09.11.2019
4469 Clouds 23 1026 33 16093 3.1 240 22:21 09.11.2019
4470 Clouds 23 1027 33 14484 2.6 30 21:56 09.11.2019
4471 Clouds 23 1027 33 14484 2.6 30 21:37 09.11.2019
4472 Clouds 23 1027 33 14484 2.6 30 21:19 09.11.2019
4473 Clouds 23 1027 33 14484 2.6 30 21:19 09.11.2019
4474 Clouds 23 1028 37 14484 2.6 300 20:42 09.11.2019
4475 Clouds 22 1028 37 14484 2.6 300 20:22 09.11.2019
4476 Clouds 22 1030 40 14484 5.1 360 19:58 09.11.2019
4477 Clouds 22 1030 40 14484 5.1 360 19:39 09.11.2019
4478 Clouds 22 1030 40 14484 5.1 360 19:21 09.11.2019
4479 Clouds 21 1031 52 14484 2.6 300 18:55 09.11.2019
4480 Clouds 20 1031 52 14484 2.6 300 18:36 09.11.2019
4481 Clouds 20 1031 52 14484 2.6 300 18:18 09.11.2019
4482 Clouds 18 1031 59 14484 1.5 300 17:41 09.11.2019
4483 Clouds 18 1031 59 14484 1.5 300 17:22 09.11.2019
4484 Clouds 16 1031 67 14484 4.1 50 16:44 09.11.2019
4485 Clouds 16 1031 67 14484 4.1 50 16:23 09.11.2019
4486 Clouds 15 1031 67 14484 4.1 50 15:59 09.11.2019
4487 Clouds 15 1031 62 14484 2.1 20 15:41 09.11.2019
4488 Clouds 15 1031 62 14484 2.1 20 15:23 09.11.2019
4489 Clouds 13 1030 67 14484 3.1 360 14:44 09.11.2019
4490 Clouds 13 1030 67 14484 3.1 360 14:22 09.11.2019
4491 Clouds 13 1030 67 14484 3.1 360 13:58 09.11.2019
4492 Clouds 12 1030 71 16093 3.1 20 13:39 09.11.2019
4493 Clouds 12 1030 71 16093 3.1 20 13:19 09.11.2019
4494 Clouds 13 1030 71 16093 3.1 360 12:56 09.11.2019
4495 Clouds 13 1030 71 16093 3.1 360 12:56 09.11.2019
4496 Clouds 13 1030 71 16093 3.1 360 12:38 09.11.2019
4497 Clouds 13 1030 71 16093 3.1 360 12:20 09.11.2019
4498 Clouds 12 1030 71 16093 4.1 20 11:47 09.11.2019
4499 Clouds 12 1030 71 16093 4.1 20 11:21 09.11.2019
4500 Clouds 12 1030 71 16093 2.6 40 10:56 09.11.2019
4501 Clouds 12 1030 71 16093 2.6 40 10:38 09.11.2019
4502 Clouds 12 1030 71 16093 2.6 40 10:18 09.11.2019
4503 Clouds 12 1030 71 14484 4.1 20 09:43 09.11.2019
4504 Clouds 12 1030 71 14484 4.1 20 09:21 09.11.2019
4505 Clouds 13 1031 67 12874 4.1 20 08:52 09.11.2019
4506 Clouds 13 1031 67 12874 4.1 20 08:26 09.11.2019
4507 Clouds 13 1031 67 12874 5.1 300 07:57 09.11.2019
4508 Clouds 13 1031 67 12874 5.1 300 07:38 09.11.2019
4509 Clouds 16 1031 67 12874 5.1 300 07:19 09.11.2019
4510 Clouds 16 1031 67 16093 4.1 20 06:45 09.11.2019
4511 Clouds 16 1031 67 16093 4.1 20 06:27 09.11.2019
4512 Clouds 14 1030 63 16093 3.6 20 05:40 09.11.2019
4513 Clouds 15 1030 59 16093 4.1 20 04:30 09.11.2019
4514 Clouds 19 1027 49 16093 6.2 30 02:52 09.11.2019
4515 Clouds 19 1027 49 16093 6.2 30 02:34 09.11.2019
4516 Clouds 21 1026 46 14484 4.1 10 01:18 09.11.2019
4517 Clouds 23 1025 43 14484 6.7 40 00:41 09.11.2019
4518 Clouds 23 1025 43 14484 6.7 40 00:22 09.11.2019
4519 Clouds 24 1025 35 14484 5.7 280 23:41 08.11.2019
4520 Clouds 24 1025 35 14484 5.7 280 23:22 08.11.2019
4521 Clouds 24 1026 33 14484 3.6 280 22:59 08.11.2019
4522 Clouds 24 1026 33 14484 3.6 280 22:39 08.11.2019
4523 Clouds 23 1026 33 14484 3.6 280 22:21 08.11.2019
4524 Clouds 23 1026 35 16093 2.6 60 21:42 08.11.2019
4525 Clouds 23 1026 35 16093 2.6 60 21:23 08.11.2019
4526 Clouds 23 1027 37 16093 3.1 10 20:58 08.11.2019
4527 Clouds 23 1027 37 16093 3.1 10 20:40 08.11.2019
4528 Clouds 23 1027 37 16093 3.1 10 20:20 08.11.2019
4529 Clouds 22 1029 45 16093 4.1 310 19:55 08.11.2019
4530 Clouds 21 1029 45 16093 4.1 310 19:36 08.11.2019
4531 Clouds 21 1029 45 16093 4.1 310 19:18 08.11.2019
4532 Clouds 20 1030 52 16093 2.1 280 18:54 08.11.2019
4533 Clouds 20 1030 52 16093 2.1 280 18:36 08.11.2019
4534 Clouds 19 1030 55 16093 3.6 10 18:18 08.11.2019
4535 Clouds 19 1030 55 16093 3.6 10 18:18 08.11.2019
4536 Clouds 18 1031 55 16093 2.6 360 17:54 08.11.2019
4537 Clouds 18 1031 55 16093 2.6 360 17:36 08.11.2019
4538 Clouds 18 1031 55 16093 2.6 360 17:18 08.11.2019
4539 Clear 17 1031 62 8047 2.1 40 16:57 08.11.2019
4540 Clear 17 1031 62 8047 2.1 40 16:57 08.11.2019
4541 Clear 17 1031 62 8047 2.1 40 16:38 08.11.2019
4542 Clouds 16 1031 63 12874 3.6 30 16:18 08.11.2019
4543 Clouds 14 1030 71 11265 2.6 20 15:41 08.11.2019
4544 Clouds 14 1030 71 11265 2.6 20 15:23 08.11.2019
4545 Clouds 13 1030 76 11265 3.1 300 14:57 08.11.2019
4546 Clouds 13 1030 76 11265 3.1 300 14:38 08.11.2019
4547 Clouds 13 1030 76 11265 3.1 300 14:20 08.11.2019
4548 Clouds 9 1029 87 11265 3.1 340 13:59 08.11.2019
4549 Clouds 9 1029 87 11265 3.1 340 13:39 08.11.2019
4550 Clouds 9 1029 87 11265 3.1 340 13:21 08.11.2019
4551 Clouds 10 1028 87 12874 2.65 20 12:48 08.11.2019
4552 Clouds 10 1028 87 12874 2.65 20 12:29 08.11.2019
4553 Clouds 11 1028 82 12874 2.1 320 11:58 08.11.2019
4554 Clouds 11 1028 82 12874 2.1 320 11:40 08.11.2019
4555 Clouds 11 1028 82 12874 2.1 320 11:21 08.11.2019
4556 Clouds 11 1028 76 12874 3.6 300 10:58 08.11.2019
4557 Clouds 11 1028 76 12874 3.6 300 10:40 08.11.2019
4558 Clouds 10 1028 76 12874 3.6 300 10:21 08.11.2019
4559 Clouds 10 1028 71 16093 3.6 290 09:58 08.11.2019
4560 Clouds 10 1028 71 16093 3.6 290 09:37 08.11.2019
4561 Clouds 10 1028 71 16093 3.6 290 09:19 08.11.2019
4562 Clear 12 1029 67 16093 2.6 300 08:45 08.11.2019
4563 Clear 12 1029 67 16093 2.6 300 08:21 08.11.2019
4564 Clear 12 1029 63 16093 2.6 320 07:44 08.11.2019
4565 Clear 12 1029 63 16093 2.6 320 07:23 08.11.2019
4566 Clear 13 1029 51 19312 3.1 300 06:56 08.11.2019
4567 Clear 13 1029 51 19312 3.1 300 06:37 08.11.2019
4568 Clear 13 1029 51 19312 3.1 300 06:19 08.11.2019
4569 Clear 14 1028 48 19312 2.6 10 05:25 08.11.2019
4570 Clear 16 1028 42 16093 3.1 350 04:28 08.11.2019
4571 Clear 16 1027 34 16093 4.6 20 03:42 08.11.2019
4572 Clear 16 1027 34 16093 4.6 20 03:42 08.11.2019
4573 Clear 20 1026 64 16093 7.2 10 02:55 08.11.2019
4574 Clear 21 1026 24 16093 7.2 10 01:53 08.11.2019
4575 Clear 22 1025 22 14484 5.7 360 01:33 08.11.2019
4576 Clouds 24 1025 22 14484 2.1 340 00:40 08.11.2019
4577 Clouds 24 1025 22 14484 2.1 340 00:20 08.11.2019
4578 Clouds 24 1025 22 14484 2.6 280 23:46 07.11.2019
4579 Clouds 24 1025 22 14484 2.6 280 23:27 07.11.2019
4580 Clouds 25 1025 29 12874 1.5 70 22:57 07.11.2019
4581 Clouds 25 1025 29 12874 1.5 70 22:37 07.11.2019
4582 Clouds 25 1025 29 12874 1.5 70 22:19 07.11.2019
4583 Clouds 24 1027 31 12874 4.6 10 21:39 07.11.2019
4584 Clouds 24 1027 31 12874 4.6 10 21:21 07.11.2019
4585 Clouds 23 1028 30 11265 3.1 360 20:59 07.11.2019
4586 Clouds 23 1028 30 11265 3.1 360 20:40 07.11.2019
4587 Clouds 23 1028 30 11265 3.1 360 20:21 07.11.2019
4588 Clouds 23 1028 30 11265 3.1 360 20:21 07.11.2019
4589 Clouds 22 1029 46 8047 4.6 30 19:58 07.11.2019
4590 Clouds 22 1029 46 8047 4.6 30 19:39 07.11.2019
4591 Clouds 22 1029 46 8047 4.6 30 19:20 07.11.2019
4592 Clouds 22 1029 46 8047 4.6 30 19:20 07.11.2019
4593 Clear 20 1030 59 8047 2.25 352 18:57 07.11.2019
4594 Clear 20 1030 59 8047 2.25 352 18:38 07.11.2019
4595 Clear 20 1030 59 8047 2.25 352 18:19 07.11.2019
4596 Clear 17 1031 67 8047 1.5 110 17:55 07.11.2019
4597 Clear 17 1031 67 8047 1.5 110 17:37 07.11.2019
4598 Clear 17 1031 67 8047 1.5 110 17:19 07.11.2019
4599 Clear 16 1031 77 8047 2.6 80 16:54 07.11.2019
4600 Clear 16 1031 77 8047 2.6 80 16:36 07.11.2019
4601 Clear 16 1031 77 8047 2.6 80 16:18 07.11.2019
4602 Clouds 14 1030 87 8047 3.1 80 15:40 07.11.2019
4603 Clouds 13 1030 87 8047 3.1 80 15:20 07.11.2019
4604 Clouds 12 1029 93 8047 2.1 80 14:57 07.11.2019
4605 Clouds 12 1029 93 8047 2.1 80 14:37 07.11.2019
4606 Clouds 12 1029 93 8047 2.1 80 14:19 07.11.2019
4607 Clouds 10 1029 87 11265 2.6 80 13:55 07.11.2019
4608 Clouds 10 1029 87 11265 2.6 80 13:36 07.11.2019
4609 Clouds 10 1029 87 11265 2.6 80 13:18 07.11.2019
4610 Clouds 11 1028 82 12874 3.1 90 12:55 07.11.2019
4611 Clouds 11 1028 82 12874 3.1 90 12:37 07.11.2019
4612 Clouds 11 1028 82 12874 3.1 90 12:18 07.11.2019
4613 Clouds 11 1028 82 12874 3.1 90 12:18 07.11.2019
4614 Clouds 12 1028 76 12874 1.5 160 11:41 07.11.2019
4615 Clouds 12 1028 76 12874 1.5 160 11:22 07.11.2019
4616 Clouds 12 1028 76 12874 2.1 70 10:42 07.11.2019
4617 Clouds 12 1028 76 12874 2.1 70 10:42 07.11.2019
4618 Clouds 12 1028 76 12874 2.1 70 10:19 07.11.2019
4619 Clouds 12 1028 76 12874 2.1 70 10:19 07.11.2019
4620 Clouds 12 1028 71 16093 2.6 300 09:55 07.11.2019
4621 Clouds 12 1028 71 16093 2.6 300 09:36 07.11.2019
4622 Clouds 12 1028 71 16093 2.6 300 09:18 07.11.2019
4623 Clouds 12 1029 76 16093 3.6 290 08:41 07.11.2019
4624 Clouds 12 1029 76 16093 3.6 290 08:22 07.11.2019
4625 -273 0 0 0 0 0 07:57 07.11.2019
4626 Clouds 13 1029 72 16093 3.6 300 07:56 07.11.2019
4627 Clouds 13 1029 72 16093 3.6 300 07:37 07.11.2019
4628 Clouds 13 1029 72 16093 3.6 300 07:19 07.11.2019
4629 Clouds 14 1029 72 16093 4.1 290 06:42 07.11.2019
4630 Clouds 14 1029 72 16093 4.1 290 06:23 07.11.2019
4631 Clouds 14 1029 72 16093 4.1 290 06:22 07.11.2019
4632 Clouds 14 1029 63 16093 4.1 290 05:48 07.11.2019
4633 -273 0 0 0 0 0 05:29 07.11.2019
4634 Clouds 14 1029 63 16093 4.1 290 05:29 07.11.2019
4635 Clouds 15 1028 59 17702 4.1 280 04:42 07.11.2019
4636 -273 0 0 0 0 0 03:01 07.11.2019
4637 Clouds 22 1026 38 11265 1.5 290 00:58 07.11.2019
4638 Clouds 22 1026 38 11265 1.5 290 00:22 07.11.2019
4639 Clouds 22 1026 38 11265 1.5 290 00:22 07.11.2019
4640 -273 0 0 0 0 0 00:22 07.11.2019
4641 Clouds 23 1025 38 11265 2.1 280 23:48 06.11.2019
4642 Clouds 23 1025 38 11265 2.1 280 23:22 06.11.2019
4643 Clouds 23 1026 40 11265 2.1 240 22:57 06.11.2019
4644 Clouds 23 1026 40 11265 2.1 240 22:38 06.11.2019
4645 Clouds 23 1026 40 11265 2.1 240 22:19 06.11.2019
4646 Clouds 22 1027 46 11265 3.1 340 21:56 06.11.2019
4647 Clouds 22 1027 46 11265 3.1 340 21:38 06.11.2019
4648 Clouds 22 1027 46 11265 3.1 340 21:18 06.11.2019
4649 Clouds 22 1028 45 11265 2.1 250 20:41 06.11.2019
4650 Clouds 21 1028 45 11265 2.1 250 20:23 06.11.2019
4651 Clouds 21 1030 52 11265 1.5 290 19:59 06.11.2019
4652 Clouds 21 1030 52 11265 1.5 290 19:40 06.11.2019
4653 Clouds 21 1030 52 11265 1.5 290 19:21 06.11.2019
4654 Clouds 21 1030 52 11265 1.5 290 19:21 06.11.2019
4655 Clouds 21 1030 52 11265 1.5 290 19:21 06.11.2019
4656 Clouds 20 1031 55 11265 2.6 310 18:59 06.11.2019
4657 Clouds 20 1031 55 11265 2.6 310 18:39 06.11.2019
4658 Clouds 20 1031 55 11265 2.6 310 18:19 06.11.2019
4659 Clouds 18 1031 63 11265 3.6 50 17:58 06.11.2019
4660 Clouds 18 1031 63 11265 3.6 50 17:40 06.11.2019
4661 Clouds 17 1031 63 11265 3.6 50 17:21 06.11.2019
4662 Clouds 16 1031 76 11265 2.1 80 16:55 06.11.2019
4663 Clouds 16 1031 76 11265 2.1 80 16:37 06.11.2019
4664 Clouds 16 1031 76 11265 2.1 80 16:18 06.11.2019
4665 Clouds 13 1031 81 11265 2.6 110 15:56 06.11.2019
4666 Clouds 13 1031 81 11265 2.6 110 15:37 06.11.2019
4667 Clouds 13 1031 81 11265 2.6 110 15:18 06.11.2019
4668 Clouds 12 1030 76 11265 3.6 310 14:56 06.11.2019
4669 Clouds 12 1030 76 11265 3.6 310 14:38 06.11.2019
4670 Clouds 11 1030 76 11265 3.6 310 14:20 06.11.2019
4671 Clouds 10 1029 81 19312 2.6 320 13:41 06.11.2019
4672 Clouds 10 1029 81 19312 2.6 320 13:22 06.11.2019
4673 Clouds 10 1029 81 19312 3.1 310 12:58 06.11.2019
4674 Clouds 10 1029 81 19312 3.1 310 12:39 06.11.2019
4675 Clouds 10 1029 81 19312 3.1 310 12:21 06.11.2019
4676 Clouds 11 1029 76 19312 3.1 300 11:58 06.11.2019
4677 Clouds 11 1029 76 19312 3.1 300 11:38 06.11.2019
4678 Clouds 11 1029 76 19312 3.1 300 11:18 06.11.2019
4679 Clouds 11 1029 76 19312 4.6 290 10:56 06.11.2019
4680 Clouds 11 1029 76 19312 4.6 290 10:38 06.11.2019
4681 Clouds 12 1029 76 19312 4.6 290 10:20 06.11.2019
4682 Clouds 12 1029 71 19312 2.6 300 09:56 06.11.2019
4683 Clouds 13 1029 71 19312 2.6 300 09:36 06.11.2019
4684 Clouds 13 1029 71 19312 2.6 300 09:18 06.11.2019
4685 Clouds 12 1029 71 19312 2.1 270 08:54 06.11.2019
4686 Clouds 13 1029 71 19312 2.1 270 08:36 06.11.2019
4687 Clouds 13 1029 71 19312 2.1 270 08:18 06.11.2019
4688 Clouds 14 1029 67 16093 1.5 290 07:40 06.11.2019
4689 Clouds 14 1029 67 16093 1.5 290 07:21 06.11.2019
4690 Clouds 14 1029 67 16093 1.5 290 07:21 06.11.2019
4691 Clouds 14 1030 67 16093 4.6 340 06:45 06.11.2019
4692 Clouds 14 1030 67 16093 4.6 340 06:25 06.11.2019
4693 Clouds 14 1030 63 14484 5.1 310 04:52 06.11.2019
4694 Rain 17 1028 77 12874 3.1 220 02:22 06.11.2019
4695 Clouds 17 1026 82 9656 5.1 280 01:37 06.11.2019
4696 Rain 17 1026 82 4828 5.1 320 00:39 06.11.2019
4697 Thunderstorm 19 1025 87 4023 7.7 230 23:58 05.11.2019
4698 Thunderstorm 19 1025 87 4023 7.7 230 23:38 05.11.2019
4699 Thunderstorm 19 1025 82 1609 5.1 280 23:20 05.11.2019
4700 Thunderstorm 21 1024 63 9656 5.1 110 22:43 05.11.2019
4701 Clouds 24 1024 38 12874 7.2 340 22:20 05.11.2019
4702 Clouds 24 1025 38 11265 4.6 310 21:59 05.11.2019
4703 Clouds 24 1025 38 11265 4.6 310 21:59 05.11.2019
4704 Clouds 24 1025 38 11265 4.6 310 21:41 05.11.2019
4705 Clouds 24 1025 38 11265 4.6 310 21:21 05.11.2019
4706 Clouds 23 1027 43 9656 4.1 30 20:57 05.11.2019
4707 Clouds 23 1027 43 9656 4.1 30 20:38 05.11.2019
4708 Clouds 23 1027 43 9656 4.1 30 20:20 05.11.2019
4709 Clouds 22 1028 49 8047 3.1 90 19:56 05.11.2019
4710 Clouds 22 1028 49 8047 3.1 90 19:38 05.11.2019
4711 Clouds 22 1028 49 8047 3.1 90 19:38 05.11.2019
4712 Clouds 22 1028 49 8047 3.1 90 19:20 05.11.2019
4713 Clouds 21 1029 55 8047 2.6 320 18:56 05.11.2019
4714 Clouds 21 1029 55 8047 2.6 320 18:56 05.11.2019
4715 Clouds 20 1029 55 8047 2.6 320 18:38 05.11.2019
4716 Clouds 20 1029 55 8047 2.6 320 18:19 05.11.2019
4717 Mist 19 1031 59 4828 3.05 347 17:56 05.11.2019
4718 Clouds 19 1029 59 8047 1.5 60 17:37 05.11.2019
4719 Clouds 19 1029 59 8047 1.5 60 17:18 05.11.2019
4720 Clouds 18 1029 63 8047 1.5 330 16:42 05.11.2019
4721 Clouds 16 1029 67 9656 2.49 353 16:21 05.11.2019
4722 Clouds 15 1029 72 9656 1 130 15:59 05.11.2019
4723 Clouds 15 1029 72 9656 1 130 15:37 05.11.2019
4724 Clouds 14 1029 82 9656 1.5 60 15:18 05.11.2019
4725 Clouds 12 1028 87 9656 2.49 353 14:55 05.11.2019
4726 Clouds 12 1028 87 9656 2.49 353 14:55 05.11.2019
4727 Clouds 12 1028 87 9656 2.49 353 14:55 05.11.2019
4728 Clouds 12 1028 87 9656 2.49 353 14:36 05.11.2019
4729 Clouds 10 1028 87 9656 1.61 24 14:18 05.11.2019
4730 Clouds 11 1028 87 12874 2.1 80 13:43 05.11.2019
4731 Clouds 11 1028 87 12874 2.1 80 13:24 05.11.2019
4732 Clouds 10 1027 87 12874 2.1 40 12:42 05.11.2019
4733 Clouds 11 1027 87 12874 2.1 40 12:23 05.11.2019
4734 Clouds 11 1027 87 12874 2.1 40 12:23 05.11.2019
4735 Clouds 10 1027 81 12874 2.6 60 11:59 05.11.2019
4736 Clouds 10 1027 81 12874 2.6 60 11:40 05.11.2019
4737 Clouds 10 1027 81 12874 2.6 60 11:21 05.11.2019
4738 Clouds 10 1027 82 16093 1.5 70 10:58 05.11.2019
4739 Clouds 11 1027 82 16093 1.5 70 10:40 05.11.2019
4740 Clouds 11 1027 82 16093 1.5 70 10:21 05.11.2019
4741 Clouds 12 1027 76 16093 2.6 90 09:55 05.11.2019
4742 Clouds 12 1027 76 16093 2.6 90 09:37 05.11.2019
4743 Clouds 12 1027 76 16093 2.6 90 09:18 05.11.2019
4744 Clouds 13 1027 72 16093 2.1 70 08:39 05.11.2019
4745 Clouds 13 1027 72 16093 2.1 70 08:20 05.11.2019
4746 Clouds 13 1027 72 16093 2.1 70 08:20 05.11.2019
4747 Clouds 14 1028 63 16093 2.6 290 07:57 05.11.2019
4748 Clouds 14 1028 63 16093 2.6 290 07:38 05.11.2019
4749 Clouds 14 1028 63 16093 2.6 290 07:19 05.11.2019
4750 Clouds 14 1028 63 16093 2.6 290 07:19 05.11.2019
4751 Clouds 14 1027 63 16093 2.6 310 06:46 05.11.2019
4752 Clouds 16 1027 52 16093 2.6 10 05:51 05.11.2019
4753 Clouds 16 1027 52 16093 2.6 10 05:22 05.11.2019
4754 Clouds 17 1027 52 14484 3.1 360 04:25 05.11.2019
4755 Clouds 17 1026 55 12874 2.6 20 03:49 05.11.2019
4756 Clouds 19 1025 55 12874 3.1 70 02:44 05.11.2019
4757 Clouds 20 1024 52 9656 4.1 60 01:59 05.11.2019
4758 Clouds 21 1024 45 9656 7.2 70 00:50 05.11.2019
4759 Clouds 22 1024 40 9656 3.1 80 00:29 05.11.2019
4760 Clouds 22 1024 40 9656 4.1 60 23:55 04.11.2019
4761 Clouds 22 1024 40 9656 4.1 60 23:36 04.11.2019
4762 Clouds 22 1024 40 9656 4.1 60 23:18 04.11.2019
4763 Clouds 22 1024 40 9656 4.1 60 23:18 04.11.2019
4764 Clouds 22 1024 40 9656 2.1 110 22:41 04.11.2019
4765 Clouds 22 1024 40 9656 2.1 110 22:22 04.11.2019
4766 Clouds 23 1025 46 8047 2.93 10 21:56 04.11.2019
4767 Clouds 23 1025 46 8047 2.93 10 21:37 04.11.2019
4768 Clouds 23 1025 46 8047 2.93 10 21:19 04.11.2019
4769 Clouds 21 1026 52 6437 1.5 40 20:58 04.11.2019
4770 Clouds 21 1026 52 6437 1.5 40 20:39 04.11.2019
4771 Clouds 21 1026 52 6437 1.5 40 20:21 04.11.2019
4772 Haze 20 1028 63 6437 2.6 20 19:58 04.11.2019
4773 Haze 20 1028 63 6437 2.6 20 19:40 04.11.2019
4774 Haze 20 1028 63 6437 2.6 20 19:21 04.11.2019
4775 Clouds 18 1029 68 6437 1.5 20 18:56 04.11.2019
4776 Clouds 18 1029 68 6437 1.5 20 18:56 04.11.2019
4777 Clouds 18 1029 68 6437 1.5 20 18:37 04.11.2019
4778 Clouds 18 1029 68 6437 1.5 20 18:19 04.11.2019
4779 Clouds 17 1029 72 8047 2.69 352 17:39 04.11.2019
4780 Clouds 17 1029 72 8047 0.86 357 17:21 04.11.2019
4781 Clouds 16 1028 82 8047 0.86 357 16:57 04.11.2019
4782 Clouds 15 1028 82 8047 0.86 357 16:39 04.11.2019
4783 Clouds 15 1028 82 8047 0.86 357 16:20 04.11.2019
4784 Clouds 15 1028 82 8047 2.1 100 15:54 04.11.2019
4785 Clouds 15 1028 82 8047 2.1 100 15:36 04.11.2019
4786 Clouds 15 1028 82 8047 2.1 100 15:18 04.11.2019
4787 Clouds 13 1028 87 8047 1.5 240 14:41 04.11.2019
4788 Clouds 12 1028 87 8047 1.5 240 14:21 04.11.2019
4789 Clouds 11 1027 93 8047 2.1 40 13:58 04.11.2019
4790 Clouds 11 1027 93 8047 2.1 40 13:40 04.11.2019
4791 Clouds 11 1027 93 8047 2.1 40 13:21 04.11.2019
4792 Clouds 11 1027 93 8047 2.1 40 13:21 04.11.2019
4793 Clouds 11 1027 93 8047 1.09 19 12:58 04.11.2019
4794 Clouds 11 1027 93 8047 1.09 19 12:39 04.11.2019
4795 Clouds 11 1027 93 8047 1.09 19 12:21 04.11.2019
4796 Clouds 11 1026 93 8047 1.09 19 11:55 04.11.2019
4797 Clouds 12 1026 93 8047 1.09 19 11:37 04.11.2019
4798 Clouds 12 1026 93 8047 1.47 23 11:19 04.11.2019
4799 Clouds 12 1026 87 8047 1.47 23 10:42 04.11.2019
4800 Clouds 12 1026 87 8047 1.47 23 10:42 04.11.2019
4801 Clouds 12 1026 87 8047 1.47 23 10:24 04.11.2019
4802 Clouds 13 1026 82 9656 2.1 170 09:46 04.11.2019
4803 Clouds 13 1026 82 9656 2.1 170 09:28 04.11.2019
4804 Clouds 13 1026 82 9656 2.1 170 09:28 04.11.2019
4805 Clouds 13 1027 82 9656 1.47 23 08:59 04.11.2019
4806 Clouds 13 1027 82 9656 1.47 23 08:38 04.11.2019
4807 Clouds 13 1027 82 9656 1.47 23 08:38 04.11.2019
4808 Clouds 13 1027 82 9656 1.85 3 08:20 04.11.2019
4809 Clouds 13 1027 77 9656 1.85 3 07:44 04.11.2019
4810 Clouds 13 1027 77 9656 1.85 3 07:24 04.11.2019
4811 Clouds 12 1028 82 9656 1.85 3 06:57 04.11.2019
4812 Clouds 13 1028 82 9656 1.85 3 06:34 04.11.2019
4813 Clouds 13 1028 82 8047 2.1 190 05:49 04.11.2019
4814 Thunderstorm 13 1028 93 9656 2.1 120 04:44 04.11.2019
4815 Thunderstorm 13 1028 93 9656 2.1 120 04:21 04.11.2019
4816 Thunderstorm 13 1028 93 9656 2.1 120 04:21 04.11.2019
4817 Rain 17 1026 55 9656 3.1 280 02:32 04.11.2019
4818 Clouds 18 1025 48 9656 3.1 260 01:22 04.11.2019
4819 Clouds 20 1025 49 9656 3.02 3 00:41 04.11.2019
4820 Clouds 20 1025 49 9656 3.02 3 00:20 04.11.2019
4821 Clouds 19 1025 52 9656 3.1 90 23:43 03.11.2019
4822 Clouds 19 1025 52 9656 3.1 90 23:21 03.11.2019
4823 Clouds 20 1025 49 9656 2.46 0 22:59 03.11.2019
4824 Clouds 20 1025 49 9656 2.46 0 22:41 03.11.2019
4825 Clouds 20 1025 49 9656 2.46 0 22:20 03.11.2019
4826 Thunderstorm 21 1027 48 11265 4.1 100 21:57 03.11.2019
4827 Thunderstorm 21 1027 48 11265 4.1 100 21:57 03.11.2019
4828 Thunderstorm 21 1027 48 11265 4.1 100 21:38 03.11.2019
4829 Clouds 21 1026 52 11265 2.6 10 21:20 03.11.2019
4830 Clouds 20 1028 52 11265 2.6 230 20:55 03.11.2019
4831 Clouds 20 1028 52 11265 2.6 230 20:36 03.11.2019
4832 Clouds 20 1028 52 11265 2.6 230 20:18 03.11.2019
4833 Clouds 20 1029 55 12874 3.1 30 19:55 03.11.2019
4834 Clouds 20 1029 55 12874 3.1 30 19:37 03.11.2019
4835 Clouds 20 1029 55 12874 3.1 30 19:18 03.11.2019
4836 Clouds 19 1030 63 14484 3.1 340 18:38 03.11.2019
4837 Clouds 19 1030 63 14484 3.1 340 18:38 03.11.2019
4838 Clouds 18 1030 71 14484 2.6 10 18:18 03.11.2019
4839 Clouds 17 1030 71 12874 2.6 310 17:58 03.11.2019
4840 Clouds 17 1030 71 12874 2.6 310 17:39 03.11.2019
4841 Clouds 17 1030 71 12874 2.6 310 17:18 03.11.2019
4842 Clouds 16 1030 76 11265 2.45 360 16:54 03.11.2019
4843 Clouds 16 1030 76 11265 2.45 360 16:54 03.11.2019
4844 Clouds 16 1030 76 11265 2.45 360 16:54 03.11.2019
4845 Clouds 16 1030 76 11265 2.45 360 16:36 03.11.2019
4846 Clouds 16 1030 76 11265 2.45 360 16:18 03.11.2019
4847 Clouds 14 1030 76 11265 2.1 340 15:45 03.11.2019
4848 Clouds 14 1030 76 11265 2.1 340 15:25 03.11.2019
4849 Clouds 13 1030 81 12874 3.1 310 14:58 03.11.2019
4850 Clouds 12 1030 81 12874 3.1 310 14:39 03.11.2019
4851 Clouds 12 1030 81 12874 3.1 310 14:18 03.11.2019
4852 Clouds 11 1030 81 12874 3.1 300 13:54 03.11.2019
4853 Clouds 11 1030 81 12874 3.1 300 13:54 03.11.2019
4854 Clouds 11 1030 81 12874 3.1 300 13:36 03.11.2019
4855 Clouds 11 1030 81 12874 3.1 300 13:18 03.11.2019
4856 Clouds 12 1030 87 12874 2.6 320 12:38 03.11.2019
4857 Clouds 11 1030 87 12874 2.6 320 12:19 03.11.2019
4858 Clouds 12 1030 81 16093 2.6 290 11:55 03.11.2019
4859 Clouds 12 1030 81 16093 2.6 290 11:37 03.11.2019
4860 Clouds 12 1030 81 16093 2.6 290 11:19 03.11.2019
4861 Rain 12 1030 76 16093 2.6 310 10:40 03.11.2019
4862 Clouds 12 1030 76 16093 4.1 290 10:22 03.11.2019
4863 Clouds 12 1030 76 16093 4.1 290 10:22 03.11.2019
4864 Clouds 12 1030 76 16093 4.1 290 10:22 03.11.2019
4865 Clouds 12 1030 76 16093 4.1 290 10:22 03.11.2019
4866 Clouds 12 1030 76 16093 3.1 310 09:57 03.11.2019
4867 Clouds 12 1030 76 16093 3.1 310 09:39 03.11.2019
4868 Clouds 12 1030 76 16093 3.1 310 09:39 03.11.2019
4869 Clouds 12 1030 76 16093 3.1 310 09:21 03.11.2019
4870 Clouds 12 1030 71 19312 3.1 290 08:42 03.11.2019
4871 Clouds 12 1030 71 19312 3.1 290 08:24 03.11.2019
4872 Clouds 12 1031 71 19312 5.1 290 07:46 03.11.2019
4873 Clouds 12 1031 71 19312 5.1 290 07:28 03.11.2019
4874 Clouds 12 1031 76 19312 3.1 270 06:52 03.11.2019
4875 Clouds 12 1031 76 19312 3.1 270 06:33 03.11.2019
4876 Clouds 13 1030 67 19312 2.6 350 05:40 03.11.2019
4877 Clouds 13 1030 67 19312 5.1 350 04:58 03.11.2019
4878 Clouds 13 1030 67 19312 5.1 350 04:37 03.11.2019
4879 Clouds 14 1029 62 19312 3.6 30 03:35 03.11.2019
4880 Clouds 17 1028 63 19312 7.2 30 02:42 03.11.2019
4881 Clouds 17 1028 63 19312 7.2 30 02:20 03.11.2019
4882 Clouds 17 1028 63 19312 7.2 30 02:20 03.11.2019
4883 Clouds 16 1028 59 11265 3.6 350 01:39 03.11.2019
4884 Clouds 16 1028 59 11265 3.6 350 01:20 03.11.2019
4885 Clouds 18 1027 77 12874 4.6 290 00:45 03.11.2019
4886 Clouds 18 1027 77 12874 4.6 290 00:26 03.11.2019
4887 Clouds 18 1027 77 12874 4.6 290 23:58 02.11.2019
4888 Clouds 18 1027 77 12874 4.6 290 23:38 02.11.2019
4889 Clouds 18 1027 77 12874 4.6 290 23:19 02.11.2019
4890 Clouds 18 1027 77 12874 4.6 290 23:19 02.11.2019
4891 Clouds 18 1028 82 9656 4.1 300 22:55 02.11.2019
4892 Clouds 18 1028 82 9656 4.1 300 22:37 02.11.2019
4893 Clouds 18 1028 82 9656 4.1 300 22:18 02.11.2019
4894 Clouds 18 1028 82 9656 5.1 340 21:56 02.11.2019
4895 Clouds 18 1028 82 9656 5.1 340 21:37 02.11.2019
4896 Clouds 19 1028 82 9656 5.1 340 21:18 02.11.2019
4897 Clouds 19 1028 82 9656 5.1 340 21:18 02.11.2019
4898 Rain 19 1028 82 4828 5.7 10 20:58 02.11.2019
4899 Rain 19 1028 82 4828 5.7 10 20:39 02.11.2019
4900 Clouds 20 1028 59 8047 1 10 20:19 02.11.2019
4901 Clouds 20 1028 59 8047 1 10 20:19 02.11.2019
4902 Clouds 19 1029 59 6437 2.6 320 19:41 02.11.2019
4903 Clouds 20 1029 59 6437 2.6 320 19:23 02.11.2019
4904 Clouds 20 1030 63 6437 2.6 280 18:57 02.11.2019
4905 Clouds 20 1030 63 6437 2.6 280 18:38 02.11.2019
4906 Clouds 20 1030 63 6437 2.6 280 18:38 02.11.2019
4907 Clouds 20 1030 63 6437 2.6 280 18:20 02.11.2019
4908 Clouds 20 1030 63 6437 2.6 280 18:20 02.11.2019
4909 Clouds 18 1031 67 6437 2.1 10 17:57 02.11.2019
4910 Clouds 18 1031 67 6437 2.1 10 17:38 02.11.2019
4911 Clouds 18 1031 67 6437 2.1 10 17:20 02.11.2019
4912 Clouds 16 1030 77 6437 1.99 350 16:57 02.11.2019
4913 Clouds 16 1030 77 6437 1.99 350 16:36 02.11.2019
4914 Clouds 16 1030 77 6437 1.99 350 16:18 02.11.2019
4915 Clouds 16 1030 77 6437 1.99 350 16:18 02.11.2019
4916 Clouds 15 1030 82 8047 1 40 15:41 02.11.2019
4917 Clouds 15 1030 82 8047 1 40 15:20 02.11.2019
4918 Haze 13 1031 87 6437 2.1 330 14:43 02.11.2019
4919 Clouds 12 1029 82 8047 1.5 240 14:23 02.11.2019
4920 Mist 12 1031 87 3219 1.68 3 13:58 02.11.2019
4921 Mist 12 1031 87 3219 1.68 3 13:38 02.11.2019
4922 Clouds 12 1029 87 9656 1.5 70 13:19 02.11.2019
4923 Clouds 12 1029 87 11265 2.6 70 12:41 02.11.2019
4924 Clouds 12 1029 87 11265 2.6 70 12:23 02.11.2019
4925 Clouds 13 1029 82 11265 2.1 80 11:58 02.11.2019
4926 Clouds 13 1029 82 11265 2.1 80 11:39 02.11.2019
4927 Clouds 13 1029 82 11265 2.1 80 11:21 02.11.2019
4928 Clouds 13 1029 82 12874 2.1 80 10:50 02.11.2019
4929 Clouds 12 1029 82 12874 2.1 80 10:28 02.11.2019
4930 Clouds 13 1029 82 12874 2.1 70 09:58 02.11.2019
4931 Clouds 13 1029 82 12874 2.1 70 09:39 02.11.2019
4932 Clouds 13 1029 82 12874 2.1 70 09:19 02.11.2019
4933 Clouds 14 1029 67 16093 1.5 300 08:45 02.11.2019
4934 Clouds 14 1029 67 16093 1.5 300 08:22 02.11.2019
4935 Clouds 14 1030 72 16093 1.5 280 07:49 02.11.2019
4936 Clouds 14 1030 72 16093 1.5 280 07:29 02.11.2019
4937 Clouds 15 1030 67 16093 3.1 270 06:55 02.11.2019
4938 Clouds 15 1030 67 16093 3.1 270 06:37 02.11.2019
4939 Clouds 15 1030 72 16093 1.5 280 05:56 02.11.2019
4940 Clouds 15 1030 72 16093 1.5 280 05:20 02.11.2019
4941 Clouds 16 1029 63 16093 3.1 360 04:21 02.11.2019
4942 Rain 16 1032 82 3219 4.6 130 03:49 02.11.2019
4943 Clouds 19 1028 63 12874 3.6 50 02:42 02.11.2019
4944 Clouds 18 1028 68 12874 5.7 40 01:44 02.11.2019
4945 Clouds 19 1027 56 12874 5.1 110 01:23 02.11.2019
4946 Clouds 20 1027 56 12874 5.7 130 00:51 02.11.2019
4947 Clouds 21 1026 43 12874 3.1 80 00:26 02.11.2019
4948 Clouds 22 1026 43 12874 2.6 110 23:48 01.11.2019
4949 Clouds 22 1026 43 12874 2.6 110 23:22 01.11.2019
4950 Clouds 22 1027 43 9656 1.5 60 22:58 01.11.2019
4951 Clouds 22 1027 43 9656 1.5 60 22:39 01.11.2019
4952 Clouds 22 1027 43 9656 1.5 60 22:20 01.11.2019
4953 Clouds 23 1027 43 9656 2.6 340 21:41 01.11.2019
4954 Clouds 22 1027 43 9656 2.6 340 21:23 01.11.2019
4955 Clouds 21 1028 48 8047 1.65 348 20:57 01.11.2019
4956 Clouds 21 1028 48 8047 1.65 348 20:39 01.11.2019
4957 Clouds 21 1028 48 8047 1.79 342 20:19 01.11.2019
4958 Clouds 21 1029 48 6437 1.5 160 19:55 01.11.2019
4959 Clouds 21 1029 48 6437 1.5 160 19:37 01.11.2019
4960 Clouds 20 1030 59 8047 2.1 90 19:18 01.11.2019
4961 Clouds 18 1031 63 8047 1 330 18:39 01.11.2019
4962 Clouds 18 1031 63 8047 1 330 18:20 01.11.2019
4963 Clouds 17 1031 67 8047 1.5 90 17:55 01.11.2019
4964 Clouds 17 1031 67 8047 1.5 90 17:37 01.11.2019
4965 Clouds 16 1032 76 8047 2.1 90 17:18 01.11.2019
4966 Clouds 14 1032 87 8047 3.6 60 16:38 01.11.2019
4967 Clouds 14 1032 87 8047 3.6 60 16:19 01.11.2019
4968 Clouds 12 1031 87 8047 3.6 90 15:41 01.11.2019
4969 Clouds 12 1031 87 8047 3.6 90 15:23 01.11.2019
4970 Clouds 11 1031 87 8047 3.1 70 14:58 01.11.2019
4971 Clouds 11 1031 87 8047 3.1 70 14:40 01.11.2019
4972 Clouds 11 1031 87 8047 3.1 70 14:22 01.11.2019
4973 Clouds 10 1031 87 8047 3.6 60 13:56 01.11.2019
4974 Clouds 10 1031 87 8047 3.6 60 13:37 01.11.2019
4975 Clouds 10 1031 87 8047 3.6 60 13:19 01.11.2019
4976 Clouds 11 1030 76 8047 2.44 10 12:43 01.11.2019
4977 Clouds 11 1030 76 8047 2.44 10 12:25 01.11.2019
4978 Clouds 11 1030 76 8047 2.44 10 11:44 01.11.2019
4979 Clouds 11 1030 76 8047 2.03 8 11:25 01.11.2019
4980 Clouds 11 1030 76 8047 2.6 50 10:59 01.11.2019
4981 Clouds 11 1030 76 8047 2.6 50 10:40 01.11.2019
4982 Clouds 11 1030 76 8047 2.6 50 10:21 01.11.2019
4983 Clouds 11 1030 81 9656 2.6 70 09:56 01.11.2019
4984 Clouds 11 1030 81 9656 2.6 70 09:56 01.11.2019
4985 Clouds 11 1030 81 9656 2.6 70 09:36 01.11.2019
4986 Clouds 11 1030 81 9656 2.6 70 09:36 01.11.2019
4987 Clouds 11 1030 81 9656 2.6 70 09:18 01.11.2019
4988 Clouds 11 1030 81 11265 2.1 310 08:42 01.11.2019
4989 Clouds 11 1030 81 11265 2.1 310 08:21 01.11.2019
4990 Clouds 11 1030 76 14484 4.1 310 07:53 01.11.2019
4991 Clouds 12 1030 76 14484 4.1 310 07:26 01.11.2019
4992 Clouds 12 1031 76 16093 4.1 290 06:56 01.11.2019
4993 Clouds 12 1031 76 16093 4.1 290 06:37 01.11.2019
4994 Clouds 12 1031 76 16093 4.1 290 06:18 01.11.2019
4995 Clouds 13 1030 71 16093 4.1 290 05:43 01.11.2019
4996 Clouds 14 1030 62 16093 5.1 300 03:33 01.11.2019
4997 Clouds 17 1028 59 16093 4.6 320 01:52 01.11.2019
4998 Clouds 18 1027 55 16093 5.7 340 01:28 01.11.2019
4999 Clouds 20 1026 52 19312 5.1 360 00:21 01.11.2019
5000 Clouds 21 1026 49 19312 5.1 30 23:56 31.10.2019
5001 Clouds 21 1026 49 19312 5.1 30 23:38 31.10.2019
5002 Clouds 21 1026 49 19312 5.1 30 23:19 31.10.2019
5003 Clouds 22 1026 52 19312 3.6 330 22:42 31.10.2019
5004 Clouds 22 1026 52 19312 3.6 330 22:24 31.10.2019
5005 Clouds 21 1027 52 16093 4.6 340 21:58 31.10.2019
5006 Clouds 21 1027 52 16093 4.6 340 21:40 31.10.2019
5007 Clouds 21 1027 52 16093 4.6 340 21:19 31.10.2019
5008 Clouds 20 1027 52 12874 7.7 360 20:41 31.10.2019
5009 Clouds 20 1027 52 12874 7.7 360 20:23 31.10.2019
5010 Clouds 20 1028 48 12874 5.1 20 19:59 31.10.2019
5011 Clouds 20 1028 48 12874 5.1 20 19:38 31.10.2019
5012 Clouds 20 1028 48 12874 5.1 20 19:38 31.10.2019
5013 Clouds 20 1028 48 12874 5.1 20 19:20 31.10.2019
5014 Clouds 19 1029 55 12874 3.1 50 18:44 31.10.2019
5015 Clouds 19 1029 55 12874 3.1 50 18:26 31.10.2019
5016 Clouds 19 1030 63 9656 3.6 300 17:59 31.10.2019
5017 Clouds 18 1030 63 9656 3.6 300 17:40 31.10.2019
5018 Rain 18 1030 72 9656 2.6 350 17:20 31.10.2019
5019 Rain 17 1030 77 9656 2.1 360 16:54 31.10.2019
5020 Rain 17 1030 77 9656 2.1 360 16:36 31.10.2019
5021 Clouds 16 1030 77 8047 4.1 30 16:18 31.10.2019
5022 Rain 15 1030 77 8047 2.6 350 15:40 31.10.2019
5023 Clouds 15 1030 77 8047 1.5 310 15:21 31.10.2019
5024 Clouds 15 1029 72 8047 2.6 10 14:58 31.10.2019
5025 Clouds 15 1029 72 8047 2.6 10 14:40 31.10.2019
5026 Clouds 13 1029 72 8047 2.6 10 14:22 31.10.2019
5027 Clouds 13 1029 72 8047 2.6 10 14:22 31.10.2019
5028 Clouds 13 1027 87 11265 3.1 290 13:59 31.10.2019
5029 Clouds 13 1027 87 11265 3.1 290 13:38 31.10.2019
5030 Clouds 13 1027 87 11265 3.1 290 13:19 31.10.2019
5031 Clouds 13 1027 87 11265 3.1 290 13:19 31.10.2019
5032 Clouds 13 1027 82 12874 2.6 320 12:55 31.10.2019
5033 Clouds 13 1027 82 12874 2.6 320 12:37 31.10.2019
5034 Clouds 13 1027 82 12874 2.6 320 12:18 31.10.2019
5035 Clouds 14 1027 82 12874 2.6 360 11:45 31.10.2019
5036 Clouds 14 1027 82 12874 2.6 360 11:20 31.10.2019
5037 Clouds 14 1027 82 12874 2.6 300 10:58 31.10.2019
5038 Clouds 14 1027 82 12874 2.6 300 10:39 31.10.2019
5039 Clouds 14 1027 82 12874 2.6 300 10:20 31.10.2019
5040 Clouds 14 1027 82 12874 3.3 11 09:45 31.10.2019
5041 Clouds 14 1027 82 12874 3.3 11 09:20 31.10.2019
5042 Clouds 15 1029 87 8047 3.3 11 08:57 31.10.2019
5043 Clouds 15 1029 87 8047 3.3 11 08:39 31.10.2019
5044 Clouds 14 1027 82 12874 2.1 270 08:20 31.10.2019
5045 Clouds 15 1027 72 12874 3.1 280 07:45 31.10.2019
5046 Clouds 15 1027 72 12874 3.1 280 07:24 31.10.2019
5047 Clouds 16 1027 77 12874 2.6 250 06:50 31.10.2019
5048 Thunderstorm 15 1027 77 12874 2.6 270 06:30 31.10.2019
5049 Thunderstorm 15 1027 82 9656 3.1 320 05:18 31.10.2019
5050 Rain 18 1025 77 6437 2.6 290 02:47 31.10.2019
5051 Thunderstorm 18 1024 88 6437 2.6 120 02:22 31.10.2019
5052 Thunderstorm 20 1023 55 4828 14.4 50 00:48 31.10.2019
5053 Clouds 20 1022 56 6437 3.1 150 00:25 31.10.2019
5054 Clouds 21 1022 56 6437 5.1 150 23:41 30.10.2019
5055 Clouds 21 1022 56 6437 5.1 150 23:22 30.10.2019
5056 Clouds 22 1022 43 6437 4.1 110 22:41 30.10.2019
5057 Clouds 22 1022 43 6437 6.2 90 22:19 30.10.2019
5058 Clouds 23 1023 41 6437 3.1 120 21:54 30.10.2019
5059 Clouds 23 1023 41 6437 3.1 120 21:36 30.10.2019
5060 Clouds 23 1023 41 6437 3.1 120 21:36 30.10.2019
5061 Clouds 23 1023 41 6437 3.1 120 21:18 30.10.2019
5062 Clouds 23 1023 41 6437 3.1 120 21:18 30.10.2019
5063 Rain 23 1025 52 6437 3.28 14 20:57 30.10.2019
5064 Rain 23 1025 52 6437 3.28 14 20:37 30.10.2019
5065 Clouds 23 1024 49 6437 1.5 170 20:18 30.10.2019
5066 Clouds 21 1025 56 6437 2.6 100 19:42 30.10.2019
5067 Clouds 21 1025 56 6437 2.6 100 19:23 30.10.2019
5068 Clouds 21 1025 53 6437 2.1 90 18:59 30.10.2019
5069 Clouds 21 1025 53 6437 2.1 90 18:38 30.10.2019
5070 Clouds 21 1026 60 6437 1.5 340 18:19 30.10.2019
5071 Clouds 20 1026 64 6437 2.37 6 17:55 30.10.2019
5072 Clouds 20 1026 64 6437 2.37 6 17:55 30.10.2019
5073 Clouds 20 1026 64 6437 2.37 6 17:37 30.10.2019
5074 Clouds 20 1026 64 6437 0.54 53 17:18 30.10.2019
5075 Clouds 18 1026 72 8047 2.1 80 16:42 30.10.2019
5076 Clouds 18 1026 72 8047 2.1 80 16:23 30.10.2019
5077 Clouds 17 1026 77 6437 0.54 53 15:59 30.10.2019
5078 Clouds 16 1026 77 6437 0.54 53 15:38 30.10.2019
5079 Clouds 16 1026 77 6437 0.54 53 15:19 30.10.2019
5080 Clouds 15 1025 82 6437 0.54 53 14:57 30.10.2019
5081 Clouds 15 1025 82 6437 0.54 53 14:39 30.10.2019
5082 Clouds 15 1025 82 6437 1.67 111 14:21 30.10.2019
5083 Clouds 14 1025 82 8047 1.67 111 13:54 30.10.2019
5084 Clouds 14 1025 82 8047 1.67 111 13:36 30.10.2019
5085 Clouds 14 1025 82 8047 1.72 127 13:18 30.10.2019
5086 Clouds 15 1024 82 9656 1.5 200 12:43 30.10.2019
5087 Clouds 15 1024 82 9656 1.5 200 12:43 30.10.2019
5088 Clouds 15 1024 82 9656 1.5 200 12:25 30.10.2019
5089 Clouds 15 1024 72 9656 1.72 127 11:57 30.10.2019
5090 Clouds 15 1024 72 9656 1.72 127 11:57 30.10.2019
5091 Clouds 15 1024 72 9656 1.72 127 11:38 30.10.2019
5092 Clouds 16 1024 72 9656 1.97 170 11:18 30.10.2019
5093 Clouds 15 1025 82 9656 1.97 170 10:42 30.10.2019
5094 Clouds 15 1025 82 9656 1.97 170 10:23 30.10.2019
5095 Clouds 15 1025 77 9656 1.97 170 09:42 30.10.2019
5096 Clouds 15 1025 77 9656 1.97 170 09:42 30.10.2019
5097 Clouds 16 1025 77 9656 1.97 170 09:23 30.10.2019
5098 Clouds 15 1025 77 11265 3.6 280 08:57 30.10.2019
5099 Clouds 15 1025 77 11265 3.6 280 08:39 30.10.2019
5100 Clouds 16 1025 77 11265 3.6 280 08:19 30.10.2019
5101 Clouds 15 1025 77 11265 3.1 290 07:43 30.10.2019
5102 Clouds 16 1025 63 12874 2.1 130 06:59 30.10.2019
5103 Clouds 16 1025 63 12874 2.1 130 06:41 30.10.2019
5104 Clouds 17 1025 63 12874 2.1 130 06:18 30.10.2019
5105 Clouds 17 1025 68 16093 3.6 140 05:41 30.10.2019
5106 Clouds 17 1024 68 16093 5.1 110 04:42 30.10.2019
5107 Clouds 18 1023 59 14484 2.6 150 03:43 30.10.2019
5108 Clouds 19 1022 56 14484 2.6 140 02:50 30.10.2019
5109 Clouds 20 1021 52 12874 5.7 120 01:51 30.10.2019
5110 Clouds 20 1021 49 11265 4.1 140 00:55 30.10.2019
5111 Clouds 22 1021 49 11265 4.1 140 00:28 30.10.2019
5112 Clouds 23 1021 43 11265 7.2 130 23:42 29.10.2019
5113 Clouds 23 1021 43 11265 7.2 130 23:22 29.10.2019
5114 Clouds 23 1021 41 11265 4.6 110 22:46 29.10.2019
5115 Clouds 23 1021 41 11265 4.6 110 22:20 29.10.2019
5116 Clouds 23 1022 43 11265 4.6 100 21:56 29.10.2019
5117 Clouds 23 1022 43 11265 4.6 100 21:38 29.10.2019
5118 Clouds 23 1022 43 11265 4.6 100 21:20 29.10.2019
5119 Clouds 23 1023 43 11265 3.1 110 20:54 29.10.2019
5120 Clouds 23 1023 43 11265 3.1 110 20:36 29.10.2019
5121 Clouds 23 1023 43 11265 3.1 110 20:18 29.10.2019
5122 Clouds 22 1024 46 9656 2.6 70 19:55 29.10.2019
5123 Clouds 22 1024 46 9656 2.6 70 19:36 29.10.2019
5124 Clouds 22 1024 46 9656 2.6 70 19:18 29.10.2019
5125 Clouds 21 1025 49 8047 4.6 110 18:54 29.10.2019
5126 Clouds 21 1025 49 8047 4.6 110 18:36 29.10.2019
5127 Clouds 21 1025 49 8047 4.6 110 18:18 29.10.2019
5128 Clouds 20 1026 60 8047 3.6 130 17:40 29.10.2019
5129 Clouds 20 1026 60 8047 3.6 130 17:21 29.10.2019
5130 Clouds 18 1025 72 6437 2.1 70 16:58 29.10.2019
5131 Clouds 18 1025 72 6437 2.1 70 16:38 29.10.2019
5132 Clouds 18 1025 72 6437 2.1 70 16:19 29.10.2019
5133 Clouds 16 1025 77 6437 2.6 60 15:54 29.10.2019
5134 Clouds 16 1025 77 6437 2.6 60 15:36 29.10.2019
5135 Clouds 16 1025 77 6437 2.6 60 15:18 29.10.2019
5136 Mist 15 1026 87 3219 1 30 14:42 29.10.2019
5137 Clouds 14 1024 82 6437 2.1 270 14:23 29.10.2019
5138 Mist 15 1026 87 4828 1.11 108 13:58 29.10.2019
5139 Mist 15 1026 87 4828 1.11 108 13:39 29.10.2019
5140 Clouds 15 1024 82 6437 1 240 13:21 29.10.2019
5141 Clouds 14 1024 82 6437 2.6 110 12:43 29.10.2019
5142 Clouds 14 1024 82 6437 2.6 110 12:43 29.10.2019
5143 Clouds 14 1024 82 6437 2.6 110 12:25 29.10.2019
5144 Clouds 14 1024 82 8047 3.1 130 11:55 29.10.2019
5145 Clouds 14 1024 82 8047 3.1 130 11:37 29.10.2019
5146 Clouds 14 1024 82 8047 3.1 130 11:18 29.10.2019
5147 Clouds 15 1024 77 6437 2.1 140 10:57 29.10.2019
5148 Clouds 15 1024 77 6437 2.1 140 10:38 29.10.2019
5149 Clouds 15 1024 77 6437 2.1 140 10:19 29.10.2019
5150 Clouds 15 1024 77 6437 2.1 210 09:42 29.10.2019
5151 Clouds 15 1024 77 6437 2.1 210 09:23 29.10.2019
5152 Clouds 15 1024 77 6437 2.1 190 08:57 29.10.2019
5153 Clouds 15 1024 77 6437 2.1 190 08:39 29.10.2019
5154 Clouds 15 1024 77 6437 2.1 190 08:20 29.10.2019
5155 Rain 16 1027 87 4828 1.23 190 07:48 29.10.2019
5156 Clouds 16 1025 72 6437 2.6 130 07:21 29.10.2019
5157 Mist 16 1027 87 4828 1.23 190 06:54 29.10.2019
5158 Clouds 16 1025 72 8047 1.23 190 06:31 29.10.2019
5159 Clouds 16 1025 72 8047 1.5 190 05:56 29.10.2019
5160 Clouds 16 1025 72 8047 1.5 190 05:38 29.10.2019
5161 Clouds 17 1025 68 9656 2.6 110 04:41 29.10.2019
5162 Clouds 18 1024 63 9656 1.5 140 02:39 29.10.2019
5163 Clouds 20 1022 56 8047 3.6 240 01:56 29.10.2019
5164 Clouds 20 1022 56 8047 3.6 240 01:35 29.10.2019
5165 Clouds 21 1021 49 8047 3.1 140 00:52 29.10.2019
5166 Clouds 21 1021 49 8047 3.1 140 00:24 29.10.2019
5167 Clouds 22 1021 46 8047 5.1 130 23:38 28.10.2019
5168 Clouds 22 1021 46 8047 5.1 130 23:20 28.10.2019
5169 Clouds 22 1021 46 8047 5.1 130 23:20 28.10.2019
5170 Clouds 24 1021 36 6437 2.63 59 22:39 28.10.2019
5171 Clouds 24 1021 36 6437 2.63 59 22:20 28.10.2019
5172 Clouds 24 1023 43 6437 3.1 30 21:58 28.10.2019
5173 Clouds 23 1023 43 6437 3.1 30 21:39 28.10.2019
5174 Clouds 23 1023 43 6437 3.1 30 21:21 28.10.2019
5175 Haze 23 1024 49 6437 2.63 59 20:59 28.10.2019
5176 Haze 23 1024 49 6437 2.63 59 20:40 28.10.2019
5177 Haze 23 1024 49 6437 0.15 99 20:20 28.10.2019
5178 Haze 22 1025 52 4828 0.15 99 19:54 28.10.2019
5179 Haze 22 1025 52 4828 0.15 99 19:36 28.10.2019
5180 Haze 22 1025 52 4828 0.15 99 19:36 28.10.2019
5181 Haze 22 1025 52 4828 0.15 99 19:18 28.10.2019
5182 Haze 22 1025 52 4828 0.15 99 19:18 28.10.2019
5183 Mist 20 1026 63 4828 0.15 99 18:56 28.10.2019
5184 Mist 20 1026 63 4828 0.15 99 18:56 28.10.2019
5185 Mist 20 1026 63 4828 0.15 99 18:38 28.10.2019
5186 Mist 20 1026 63 4828 0.15 99 18:20 28.10.2019
5187 Mist 18 1026 68 4828 2.1 120 17:55 28.10.2019
5188 Mist 18 1026 68 4828 2.1 120 17:55 28.10.2019
5189 Mist 18 1026 68 4828 2.1 120 17:36 28.10.2019
5190 Mist 17 1027 72 3219 2.6 110 17:18 28.10.2019
5191 Mist 16 1027 77 4023 3.1 90 16:54 28.10.2019
5192 Mist 16 1027 77 4023 3.1 90 16:36 28.10.2019
5193 Mist 16 1026 77 4023 2.1 50 16:18 28.10.2019
5194 Mist 15 1026 87 3219 1.5 70 15:42 28.10.2019
5195 Mist 15 1026 87 3219 1.5 70 15:24 28.10.2019
5196 Fog 14 1027 93 402 0.45 124 14:59 28.10.2019
5197 Fog 14 1027 93 402 0.45 124 14:40 28.10.2019
5198 Mist 12 1025 87 2414 3.6 70 14:19 28.10.2019
5199 Mist 11 1025 100 4828 3.1 40 13:58 28.10.2019
5200 Mist 11 1025 100 4828 3.1 40 13:40 28.10.2019
5201 Mist 11 1025 93 3219 3.6 60 13:18 28.10.2019
5202 Fog 12 1026 93 805 1.35 76 12:43 28.10.2019
5203 Clouds 11 1024 87 6437 1.35 76 12:21 28.10.2019
5204 Clouds 12 1024 93 6437 1.35 76 11:58 28.10.2019
5205 Clouds 12 1024 93 6437 1.35 76 11:37 28.10.2019
5206 Clouds 12 1024 93 6437 0.93 51 11:19 28.10.2019
5207 Clouds 12 1025 93 6437 2.1 270 10:41 28.10.2019
5208 Clouds 12 1025 93 6437 2.1 270 10:22 28.10.2019
5209 Clouds 12 1025 93 6437 0.93 51 09:58 28.10.2019
5210 Clouds 12 1025 93 6437 0.93 51 09:39 28.10.2019
5211 Clouds 12 1025 93 6437 0.93 51 09:19 28.10.2019
5212 Clouds 13 1026 93 8047 0.93 51 08:57 28.10.2019
5213 Clouds 13 1026 93 8047 0.93 51 08:57 28.10.2019
5214 Clouds 13 1026 93 8047 0.93 51 08:38 28.10.2019
5215 Clouds 13 1026 93 8047 1.3 62 08:19 28.10.2019
5216 Mist 13 1027 87 3219 1.3 62 07:56 28.10.2019
5217 Mist 13 1027 87 3219 1.3 62 07:56 28.10.2019
5218 Mist 13 1027 87 3219 1.3 62 07:36 28.10.2019
5219 Clouds 13 1026 87 9656 2.1 230 07:18 28.10.2019
5220 Clouds 14 1026 82 9656 2.1 340 06:39 28.10.2019
5221 Clouds 14 1027 82 9656 2.1 190 05:40 28.10.2019
5222 Rain 14 1026 87 9656 3.1 260 03:45 28.10.2019
5223 Thunderstorm 16 1025 87 8047 6.2 250 02:46 28.10.2019
5224 Thunderstorm 17 1024 87 3219 3.1 250 01:55 28.10.2019
5225 Thunderstorm 18 1023 87 3219 3.1 240 00:56 28.10.2019
5226 Thunderstorm 18 1023 72 1609 4.66 52 00:33 28.10.2019
5227 Thunderstorm 20 1022 68 6437 5.1 20 23:47 27.10.2019
5228 Haze 21 1022 43 4828 3.1 50 23:23 27.10.2019
5229 Haze 21 1022 43 4828 3.1 50 23:23 27.10.2019
5230 Clouds 23 1022 46 6437 2.1 110 22:58 27.10.2019
5231 Clouds 23 1022 46 6437 2.1 110 22:58 27.10.2019
5232 Clouds 22 1022 46 6437 2.1 110 22:39 27.10.2019
5233 Clouds 22 1022 46 6437 2.1 110 22:21 27.10.2019
5234 Clouds 22 1022 46 6437 2.1 110 22:21 27.10.2019
5235 Clouds 23 1023 46 8047 2.1 70 21:57 27.10.2019
5236 Clouds 23 1023 46 8047 2.1 70 21:39 27.10.2019
5237 Clouds 23 1023 46 8047 2.1 70 21:21 27.10.2019
5238 Clouds 23 1024 46 8047 3.1 80 20:56 27.10.2019
5239 Clouds 23 1024 46 8047 3.1 80 20:38 27.10.2019
5240 Clouds 23 1024 46 8047 3.1 80 20:20 27.10.2019
5241 Clouds 21 1025 52 8047 3.1 10 19:54 27.10.2019
5242 Clouds 21 1025 52 8047 3.1 10 19:36 27.10.2019
5243 Clouds 21 1025 52 8047 3.1 10 19:18 27.10.2019
5244 Clouds 20 1026 56 8047 1.5 80 18:54 27.10.2019
5245 Clouds 20 1026 56 8047 1.5 80 18:36 27.10.2019
5246 Clouds 20 1026 56 8047 1.5 80 18:18 27.10.2019
5247 Clouds 19 1026 68 6437 1.5 200 17:40 27.10.2019
5248 Clouds 19 1026 68 6437 1.5 200 17:19 27.10.2019
5249 Clouds 17 1026 77 6437 0.87 4 16:57 27.10.2019
5250 Clouds 17 1026 77 6437 0.87 4 16:39 27.10.2019
5251 Clouds 17 1026 77 6437 0.87 4 16:20 27.10.2019
5252 Mist 15 1027 82 4828 2.1 340 15:56 27.10.2019
5253 Mist 15 1027 82 4828 2.1 340 15:37 27.10.2019
5254 Clouds 15 1026 77 8047 1.5 260 15:19 27.10.2019
5255 Clouds 14 1025 82 9656 2.1 320 14:42 27.10.2019
5256 Clouds 14 1025 82 9656 2.1 320 14:42 27.10.2019
5257 Clouds 14 1025 82 9656 2.1 320 14:20 27.10.2019
5258 Clouds 14 1025 82 9656 1.5 300 13:58 27.10.2019
5259 Clouds 14 1025 82 9656 1.5 300 13:38 27.10.2019
5260 Clouds 14 1025 82 9656 1.5 300 13:20 27.10.2019
5261 Clouds 14 1024 82 9656 0.77 105 12:46 27.10.2019
5262 Clouds 14 1024 82 9656 0.77 105 12:24 27.10.2019
5263 Clouds 13 1024 82 8047 0.77 105 11:59 27.10.2019
5264 Clouds 14 1024 82 8047 0.77 105 11:41 27.10.2019
5265 Clouds 14 1024 82 8047 1.54 113 11:21 27.10.2019
5266 Clouds 14 1024 82 8047 2.1 320 10:44 27.10.2019
5267 Clouds 14 1024 82 8047 2.1 320 10:25 27.10.2019
5268 Clouds 14 1024 82 6437 2.1 310 09:57 27.10.2019
5269 Clouds 14 1024 82 6437 2.1 310 09:39 27.10.2019
5270 Clouds 14 1024 82 6437 2.1 310 09:18 27.10.2019
5271 Clouds 14 1025 82 6437 1.54 113 08:42 27.10.2019
5272 Clouds 14 1025 82 6437 1.86 158 08:22 27.10.2019
5273 Clouds 14 1025 77 8047 1.86 158 07:59 27.10.2019
5274 Clouds 14 1025 77 8047 1.86 158 07:41 27.10.2019
5275 Clouds 14 1025 77 8047 1.86 158 07:20 27.10.2019
5276 Clouds 14 1025 77 8047 1.5 110 06:47 27.10.2019
5277 Clouds 14 1025 77 8047 1.5 110 06:26 27.10.2019
5278 Clouds 14 1026 77 9656 1.5 60 05:39 27.10.2019
5279 Clouds 14 1025 77 9656 2.1 140 04:51 27.10.2019
5280 Rain 17 1024 67 9656 4.6 310 02:54 27.10.2019
5281 Thunderstorm 19 1025 87 3219 5.1 350 01:49 27.10.2019
5282 Clouds 20 1022 56 9656 4.1 110 01:20 27.10.2019
5283 Clouds 21 1022 59 8047 2.1 110 00:43 27.10.2019
5284 Clouds 21 1022 59 8047 2.1 110 00:18 27.10.2019
5285 Rain 21 1022 68 6437 3.1 220 23:41 26.10.2019
5286 Rain 21 1022 68 6437 3.1 220 23:22 26.10.2019
5287 Clouds 22 1022 49 6437 2.1 40 22:59 26.10.2019
5288 Clouds 22 1022 49 6437 2.1 40 22:40 26.10.2019
5289 Clouds 22 1022 49 6437 2.1 40 22:20 26.10.2019
5290 Clouds 21 1023 52 8047 2.6 90 21:59 26.10.2019
5291 Clouds 21 1023 52 8047 2.6 90 21:41 26.10.2019
5292 Clouds 21 1023 52 8047 2.6 90 21:20 26.10.2019
5293 Clouds 21 1025 52 8047 1 190 20:45 26.10.2019
5294 Clouds 21 1025 52 8047 1 190 20:20 26.10.2019
5295 Clouds 20 1025 56 8047 2.1 40 19:57 26.10.2019
5296 Clouds 20 1025 56 8047 2.1 40 19:38 26.10.2019
5297 Clouds 19 1025 68 8047 1.5 80 19:19 26.10.2019
5298 Clouds 17 1026 77 8047 1.5 100 18:56 26.10.2019
5299 Clouds 17 1026 77 8047 1.5 100 18:37 26.10.2019
5300 Clouds 17 1026 77 8047 1.5 100 18:18 26.10.2019
5301 Clouds 17 1026 77 8047 1.5 100 17:39 26.10.2019
5302 Clouds 17 1026 77 8047 1.5 100 17:39 26.10.2019
5303 Clouds 16 1026 87 8047 3.1 90 17:21 26.10.2019
5304 Clouds 15 1025 87 8047 3.1 70 16:59 26.10.2019
5305 Clouds 15 1025 87 8047 3.1 70 16:59 26.10.2019
5306 Clouds 15 1025 87 8047 3.1 70 16:41 26.10.2019
5307 Clouds 15 1025 87 8047 3.1 70 16:41 26.10.2019
5308 Clouds 15 1025 87 8047 3.1 70 16:22 26.10.2019
5309 Clouds 14 1025 93 8047 2.6 80 15:41 26.10.2019
5310 Clouds 14 1025 93 8047 2.6 80 15:20 26.10.2019
5311 Clouds 14 1024 87 6437 3.1 70 14:41 26.10.2019
5312 Clouds 14 1024 87 6437 3.1 70 14:22 26.10.2019
5313 Clouds 13 1024 87 6437 2.6 360 13:59 26.10.2019
5314 Clouds 13 1024 87 6437 2.6 360 13:41 26.10.2019
5315 Clouds 14 1016 76 0 2.04 24 13:21 26.10.2019
5316 Clouds 14 1024 87 0 1.79 200 12:48 26.10.2019
5317 Clouds 14 1024 87 0 1.79 200 12:25 26.10.2019
5318 Clouds 13 1024 87 6437 2.1 200 11:50 26.10.2019
5319 Clouds 13 1024 87 6437 2.1 200 11:29 26.10.2019
5320 Clouds 12 1025 93 4828 2.1 360 10:57 26.10.2019
5321 Clouds 12 1025 93 4828 2.1 360 10:39 26.10.2019
5322 Clouds 12 1025 93 4828 2.1 360 10:21 26.10.2019
5323 Rain 12 1025 93 3219 2.6 20 09:44 26.10.2019
5324 Rain 12 1025 93 3219 2.6 20 09:26 26.10.2019
5325 Rain 12 1026 93 3219 2.1 40 08:44 26.10.2019
5326 Rain 12 1026 93 3219 2.1 40 08:25 26.10.2019
5327 Rain 12 1026 93 3219 2.6 40 07:55 26.10.2019
5328 Rain 12 1026 93 3219 2.6 40 07:31 26.10.2019
5329 Rain 13 1026 93 9656 3.1 10 06:46 26.10.2019
5330 Rain 13 1026 93 9656 3.1 10 06:27 26.10.2019
5331 Rain 14 1025 87 9656 2.6 320 05:21 26.10.2019
5332 Rain 14 1024 82 12874 5.1 300 04:30 26.10.2019
5333 Clouds 17 1022 63 9656 4.1 310 02:49 26.10.2019
5334 Rain 18 1022 72 6437 3.6 300 01:56 26.10.2019
5335 Clouds 18 1021 59 8047 3.1 260 01:29 26.10.2019
5336 Clouds 19 1021 49 9656 3.1 70 00:26 26.10.2019
5337 Clouds 19 1021 49 9656 3.1 100 23:44 25.10.2019
5338 Clouds 19 1021 49 9656 3.1 100 23:44 25.10.2019
5339 Clouds 20 1021 49 9656 3.1 100 23:20 25.10.2019
5340 Clouds 21 1022 49 8047 1.5 30 22:41 25.10.2019
5341 Clouds 21 1022 49 8047 1.5 30 22:23 25.10.2019
5342 Clouds 21 1023 56 8047 4.1 340 21:58 25.10.2019
5343 Clouds 21 1023 56 8047 4.1 340 21:40 25.10.2019
5344 Clouds 21 1023 56 8047 4.1 340 21:21 25.10.2019
5345 Haze 21 1025 59 4828 2.6 20 20:56 25.10.2019
5346 Haze 21 1025 59 4828 2.6 20 20:38 25.10.2019
5347 Haze 21 1025 59 4828 2.6 20 20:19 25.10.2019
5348 Haze 19 1026 72 4828 1.5 50 19:44 25.10.2019
5349 Haze 19 1026 72 4828 1.5 50 19:25 25.10.2019
5350 Smoke 18 1019 69 4828 2.93 5 18:46 25.10.2019
5351 Clouds 18 1026 72 6437 2.1 320 18:24 25.10.2019
5352 Clouds 16 1025 77 6437 1.5 270 17:42 25.10.2019
5353 Clouds 16 1025 77 6437 1.5 270 17:22 25.10.2019
5354 Clouds 15 1025 82 8047 2.1 310 16:58 25.10.2019
5355 Clouds 15 1025 82 8047 2.1 310 16:40 25.10.2019
5356 Clouds 15 1025 82 8047 2.1 310 16:19 25.10.2019
5357 Clouds 15 1024 82 8047 2.1 250 15:41 25.10.2019
5358 Clouds 15 1024 82 8047 2.1 250 15:23 25.10.2019
5359 Clouds 15 1024 82 9656 2.6 300 14:59 25.10.2019
5360 Clouds 15 1024 82 9656 2.6 300 14:40 25.10.2019
5361 Clouds 15 1024 82 9656 2.6 300 14:21 25.10.2019
5362 Mist 13 1025 93 3219 1.05 32 13:44 25.10.2019
5363 Mist 13 1025 93 3219 1.05 32 13:44 25.10.2019
5364 Clouds 14 1024 82 12874 2.1 360 13:24 25.10.2019
5365 Clouds 14 1023 82 16093 1.05 32 12:57 25.10.2019
5366 Clouds 14 1023 82 16093 1.05 32 12:39 25.10.2019
5367 Clouds 14 1023 82 16093 0.9 159 12:19 25.10.2019
5368 Clouds 13 1023 82 19312 2.1 280 11:41 25.10.2019
5369 Clouds 13 1023 82 19312 2.1 280 11:22 25.10.2019
5370 Clouds 13 1024 82 19312 1.5 250 10:59 25.10.2019
5371 Clouds 14 1024 82 19312 1.5 250 10:39 25.10.2019
5372 Clouds 14 1024 82 19312 1.5 250 10:19 25.10.2019
5373 Clouds 14 1024 82 16093 1.5 240 09:54 25.10.2019
5374 Clouds 14 1024 82 16093 1.5 240 09:36 25.10.2019
5375 Clouds 14 1024 82 16093 1.5 240 09:18 25.10.2019
5376 Clouds 14 1024 87 12874 1.5 270 08:42 25.10.2019
5377 Clouds 14 1024 87 12874 1.5 270 08:23 25.10.2019
5378 Clouds 13 1025 87 12874 2.4 190 07:49 25.10.2019
5379 Clouds 13 1025 87 12874 2.4 190 07:49 25.10.2019
5380 Rain 13 1025 87 11265 2.4 190 07:30 25.10.2019
5381 Clouds 13 1025 87 11265 2.1 330 06:38 25.10.2019
5382 Rain 13 1024 87 8047 3.6 260 05:50 25.10.2019
5383 Rain 13 1024 87 8047 3.6 260 05:32 25.10.2019
5384 Rain 14 1024 82 8047 7.2 280 04:37 25.10.2019
5385 Rain 18 1022 72 9656 3.6 280 02:42 25.10.2019
5386 Rain 18 1020 77 11265 5.7 280 01:53 25.10.2019
5387 Rain 19 1020 67 8047 7.2 270 00:36 25.10.2019
5388 Rain 19 1020 67 8047 7.7 280 23:56 24.10.2019
5389 Clouds 22 1020 46 9656 6.7 280 23:37 24.10.2019
5390 Clouds 22 1020 46 9656 6.7 280 23:19 24.10.2019
5391 Clouds 22 1020 46 9656 6.7 280 23:19 24.10.2019
5392 Clouds 23 1021 38 6437 4.6 80 22:39 24.10.2019
5393 Clouds 23 1021 38 6437 4.6 80 22:19 24.10.2019
5394 Clouds 22 1022 40 8047 1.5 40 21:58 24.10.2019
5395 Clouds 22 1022 40 8047 1.5 40 21:40 24.10.2019
5396 Clouds 22 1022 40 8047 1.5 40 21:20 24.10.2019
5397 Clouds 22 1022 43 8047 2.1 140 20:59 24.10.2019
5398 Clouds 22 1022 43 8047 2.1 140 20:39 24.10.2019
5399 Clouds 21 1023 52 8047 2.1 240 20:21 24.10.2019
5400 Clouds 20 1025 55 8047 1.95 1 19:57 24.10.2019
5401 Clouds 20 1025 55 8047 1.95 1 19:57 24.10.2019
5402 Clouds 20 1025 55 8047 1.95 1 19:38 24.10.2019
5403 Clouds 20 1025 55 8047 1.95 1 19:20 24.10.2019
5404 Clouds 19 1025 55 8047 1.5 70 18:56 24.10.2019
5405 Clouds 19 1025 55 8047 1.5 70 18:38 24.10.2019
5406 Clouds 18 1025 63 8047 2.6 110 18:18 24.10.2019
5407 Mist 16 1026 93 3219 1.35 355 17:42 24.10.2019
5408 Clouds 15 1025 72 6437 2.1 90 17:20 24.10.2019
5409 Mist 14 1026 93 1609 2.1 290 16:58 24.10.2019
5410 Mist 14 1026 93 1609 2.1 290 16:39 24.10.2019
5411 Clouds 13 1025 82 8047 2.1 80 16:21 24.10.2019
5412 Clouds 13 1025 87 9656 2.6 60 15:58 24.10.2019
5413 Clouds 13 1025 87 9656 2.6 60 15:40 24.10.2019
5414 Clouds 13 1024 82 9656 2.6 70 15:21 24.10.2019
5415 Mist 13 1025 87 3219 1.8 16 14:57 24.10.2019
5416 Mist 13 1025 87 3219 1.8 16 14:38 24.10.2019
5417 Clouds 13 1024 82 9656 3.1 60 14:20 24.10.2019
5418 Clouds 11 1023 87 9656 2.6 90 13:40 24.10.2019
5419 Clouds 11 1023 87 9656 2.6 90 13:19 24.10.2019
5420 Clouds 11 1023 82 9656 3.1 80 12:57 24.10.2019
5421 Clouds 11 1023 82 9656 3.1 80 12:57 24.10.2019
5422 Clouds 12 1023 82 9656 3.1 80 12:39 24.10.2019
5423 Clouds 12 1023 82 9656 3.1 80 12:19 24.10.2019
5424 Clouds 13 1024 76 11265 1 80 11:56 24.10.2019
5425 Clouds 13 1024 76 11265 1 80 11:38 24.10.2019
5426 Clouds 13 1024 76 11265 1 80 11:19 24.10.2019
5427 Clouds 14 1025 67 14484 2.1 80 10:55 24.10.2019
5428 Clouds 14 1025 67 14484 2.1 80 10:36 24.10.2019
5429 Clouds 14 1025 67 14484 2.1 80 10:18 24.10.2019
5430 Clouds 14 1025 67 14484 4.1 40 09:38 24.10.2019
5431 Clouds 15 1025 67 14484 4.1 40 09:18 24.10.2019
5432 Clouds 15 1025 67 12874 2.6 80 08:44 24.10.2019
5433 Clouds 15 1025 67 12874 2.6 80 08:21 24.10.2019
5434 Clouds 15 1026 63 12874 2.6 30 07:56 24.10.2019
5435 Clouds 15 1026 63 12874 2.6 30 07:38 24.10.2019
5436 Clouds 15 1026 63 12874 2.6 30 07:20 24.10.2019
5437 Clouds 15 1026 59 12874 4.6 360 06:39 24.10.2019
5438 Clouds 15 1025 59 12874 6.2 360 05:57 24.10.2019
5439 Clouds 15 1025 59 12874 6.2 360 05:39 24.10.2019
5440 Clouds 16 1024 55 16093 5.1 10 04:49 24.10.2019
5441 Clouds 18 1023 52 16093 5.1 20 03:36 24.10.2019
5442 Clouds 20 1022 49 16093 7.2 10 02:51 24.10.2019
5443 Clouds 20 1022 49 16093 7.2 10 02:22 24.10.2019
5444 Clouds 21 1021 40 11265 5.1 360 01:33 24.10.2019
5445 Clouds 22 1021 37 11265 2.1 150 00:57 24.10.2019
5446 Clouds 22 1021 37 11265 2.1 150 00:37 24.10.2019
5447 Clouds 22 1021 37 11265 2.1 150 00:18 24.10.2019
5448 Clouds 23 1022 40 9656 3.1 320 23:42 23.10.2019
5449 Clouds 23 1022 40 9656 3.1 320 23:21 23.10.2019
5450 Clouds 23 1023 40 9656 3.6 360 22:57 23.10.2019
5451 Clouds 23 1023 40 9656 3.6 360 22:37 23.10.2019
5452 Clouds 23 1023 40 9656 3.6 360 22:18 23.10.2019
5453 Clouds 22 1025 49 9656 3.21 349 21:57 23.10.2019
5454 Clouds 22 1025 49 9656 2.63 12 21:38 23.10.2019
5455 Clouds 22 1025 49 9656 2.99 359 21:19 23.10.2019
5456 Clouds 21 1026 52 9656 2.6 230 20:56 23.10.2019
5457 Clouds 21 1026 52 9656 2.6 230 20:37 23.10.2019
5458 Clouds 21 1026 52 9656 2.6 230 20:19 23.10.2019
5459 Clouds 20 1027 52 9656 2.99 359 19:44 23.10.2019
5460 Clouds 20 1027 52 9656 2.99 359 19:44 23.10.2019
5461 Clouds 19 1027 59 9656 2.1 350 19:20 23.10.2019
5462 Clouds 17 1028 67 8047 1.5 300 18:59 23.10.2019
5463 Clouds 17 1028 67 8047 1.5 300 18:39 23.10.2019
5464 Clouds 17 1028 67 8047 1.5 300 18:19 23.10.2019
5465 Clouds 17 1028 67 9656 3.1 70 17:57 23.10.2019
5466 Clouds 16 1028 67 9656 3.1 70 17:39 23.10.2019
5467 Clouds 15 1028 82 9656 4.6 80 17:18 23.10.2019
5468 Clouds 14 1027 87 9656 4.6 80 16:41 23.10.2019
5469 Clouds 14 1027 87 9656 4.6 80 16:21 23.10.2019
5470 Clouds 13 1027 82 9656 3.6 80 15:57 23.10.2019
5471 Clouds 13 1027 82 9656 3.6 80 15:39 23.10.2019
5472 Clouds 13 1027 82 9656 3.6 80 15:21 23.10.2019
5473 Clouds 14 1026 76 12874 2.1 40 14:56 23.10.2019
5474 Clouds 14 1020 100 12874 1.87 343 14:37 23.10.2019
5475 Clouds 13 1026 76 12874 2.1 40 14:18 23.10.2019
5476 Clouds 13 1026 76 12874 2.1 40 14:18 23.10.2019
5477 Clouds 11 1026 76 11265 3.1 70 13:43 23.10.2019
5478 Clouds 12 1026 76 11265 3.1 70 13:25 23.10.2019
5479 Clouds 12 1026 76 12874 2.6 320 12:57 23.10.2019
5480 Clouds 13 1026 76 12874 2.6 320 12:39 23.10.2019
5481 Clouds 13 1026 76 12874 2.6 320 12:19 23.10.2019
5482 Clouds 13 1026 72 19312 3.1 340 11:58 23.10.2019
5483 Clouds 13 1026 72 19312 3.1 340 11:39 23.10.2019
5484 Clouds 13 1026 72 19312 3.1 340 11:21 23.10.2019
5485 Clouds 14 1027 67 19312 2.1 360 10:55 23.10.2019
5486 Clouds 14 1027 67 19312 2.1 360 10:37 23.10.2019
5487 Clouds 14 1027 67 19312 2.1 360 10:18 23.10.2019
5488 Clouds 14 1028 67 19312 2.1 10 09:40 23.10.2019
5489 Clouds 14 1028 67 19312 2.1 10 09:21 23.10.2019
5490 Clouds 14 1028 67 19312 3.1 320 08:43 23.10.2019
5491 Clouds 15 1028 67 19312 3.1 320 08:25 23.10.2019
5492 Clouds 14 1028 67 19312 2.1 340 07:58 23.10.2019
5493 Clouds 14 1028 67 19312 2.1 340 07:39 23.10.2019
5494 Clouds 14 1028 67 19312 2.1 340 07:18 23.10.2019
5495 Clouds 16 1029 67 19312 3.1 360 06:41 23.10.2019
5496 Clouds 14 1029 67 19312 3.1 360 06:18 23.10.2019
5497 Clouds 15 1028 67 19312 5.1 60 05:18 23.10.2019
5498 Clouds 16 1026 59 14484 5.7 40 03:46 23.10.2019
5499 Clouds 18 1026 59 14484 6.7 40 02:42 23.10.2019
5500 Thunderstorm 19 1025 63 12874 7.2 60 01:35 23.10.2019
5501 Clouds 22 1024 43 14484 5.1 30 00:59 23.10.2019
5502 Clouds 22 1024 43 14484 5.1 30 00:33 23.10.2019
5503 Clouds 22 1025 49 14484 5.1 350 23:43 22.10.2019
5504 Clouds 22 1025 49 14484 5.1 350 23:20 22.10.2019
5505 Clouds 21 1025 49 14484 5.7 10 22:59 22.10.2019
5506 Clouds 21 1025 49 14484 5.7 10 22:40 22.10.2019
5507 Clouds 21 1025 49 14484 5.7 10 22:22 22.10.2019
5508 Clouds 22 1027 49 16093 5.1 40 21:57 22.10.2019
5509 Clouds 22 1027 49 16093 5.1 40 21:38 22.10.2019
5510 Clouds 22 1027 49 16093 5.1 40 21:19 22.10.2019
5511 Clouds 22 1028 52 16093 6.2 30 20:58 22.10.2019
5512 Clouds 22 1028 52 16093 6.2 30 20:58 22.10.2019
5513 Clouds 22 1028 52 16093 6.2 30 20:40 22.10.2019
5514 Clouds 22 1028 52 16093 6.2 30 20:21 22.10.2019
5515 Clouds 21 1029 56 16093 5.7 30 19:55 22.10.2019
5516 Clouds 21 1029 56 16093 5.7 30 19:37 22.10.2019
5517 Clouds 21 1029 56 16093 5.7 30 19:19 22.10.2019
5518 Clouds 19 1029 59 12874 3.1 360 18:54 22.10.2019
5519 Clouds 19 1029 59 12874 3.1 360 18:36 22.10.2019
5520 Clouds 19 1029 59 12874 3.1 360 18:18 22.10.2019
5521 Mist 18 1031 93 3219 2.1 320 17:39 22.10.2019
5522 Clouds 17 1029 63 11265 3.1 10 17:20 22.10.2019
5523 Clouds 16 1028 82 9656 3.1 40 16:58 22.10.2019
5524 Clouds 15 1028 82 9656 3.1 40 16:39 22.10.2019
5525 Clouds 15 1028 82 9656 3.1 40 16:39 22.10.2019
5526 Clouds 15 1028 82 9656 3.1 40 16:39 22.10.2019
5527 Clouds 15 1028 82 9656 3.1 40 16:20 22.10.2019
5528 Ash 15 1027 77 8047 2.1 30 15:58 22.10.2019
5529 Ash 15 1027 77 8047 2.1 30 15:40 22.10.2019
5530 Ash 15 1027 77 8047 2.1 30 15:19 22.10.2019
5531 Fog 15 1028 87 805 2.02 10 14:44 22.10.2019
5532 Haze 13 1027 82 8047 2.6 60 14:21 22.10.2019
5533 Clouds 12 1026 82 9656 2.1 70 13:43 22.10.2019
5534 Clouds 12 1026 82 9656 2.1 70 13:23 22.10.2019
5535 Clouds 13 1027 82 9656 1.5 280 12:59 22.10.2019
5536 Clouds 13 1027 82 9656 1.5 280 12:41 22.10.2019
5537 Clouds 13 1027 82 9656 1.5 280 12:21 22.10.2019
5538 Clouds 13 1027 82 9656 1 20 11:57 22.10.2019
5539 Clouds 13 1027 82 9656 1 20 11:38 22.10.2019
5540 Clouds 13 1027 82 9656 1 20 11:20 22.10.2019
5541 Clouds 14 1027 82 11265 1.5 360 10:57 22.10.2019
5542 Clouds 14 1027 82 11265 1.5 360 10:37 22.10.2019
5543 Clouds 14 1027 82 11265 1.5 360 10:18 22.10.2019
5544 Clouds 14 1027 82 11265 1.5 360 10:18 22.10.2019
5545 Clouds 14 1028 72 11265 2.6 300 09:55 22.10.2019
5546 Clouds 14 1028 72 11265 2.6 300 09:36 22.10.2019
5547 Clouds 15 1028 72 11265 2.6 300 09:18 22.10.2019
5548 Clouds 15 1027 67 11265 3.1 300 08:42 22.10.2019
5549 Clouds 15 1027 67 11265 3.1 300 08:42 22.10.2019
5550 Clouds 15 1027 67 11265 3.1 300 08:21 22.10.2019
5551 Clouds 15 1027 67 11265 3.1 300 08:21 22.10.2019
5552 Clouds 16 1028 68 11265 4.1 290 07:46 22.10.2019
5553 Clouds 16 1028 68 11265 4.1 290 07:26 22.10.2019
5554 Clouds 16 1028 68 11265 4.1 290 07:26 22.10.2019
5555 Clouds 16 1027 68 11265 3.1 320 06:51 22.10.2019
5556 Clouds 16 1027 68 11265 3.1 320 06:31 22.10.2019
5557 Clouds 16 1027 68 11265 3.1 320 06:31 22.10.2019
5558 Clouds 17 1027 55 11265 1 10 05:56 22.10.2019
5559 Clouds 17 1027 55 11265 1 10 05:20 22.10.2019
5560 Clouds 21 1024 52 16093 3.6 320 02:47 22.10.2019
5561 Clouds 21 1024 52 16093 3.6 320 02:28 22.10.2019
5562 Clouds 23 1023 46 16093 5.1 120 01:27 22.10.2019
5563 Clouds 23 1022 43 16093 7.2 140 00:57 22.10.2019
5564 Clouds 23 1022 43 16093 7.2 140 00:39 22.10.2019
5565 Clouds 23 1022 43 16093 7.2 140 00:20 22.10.2019
5566 Thunderstorm 24 1023 46 16093 5.7 130 23:54 21.10.2019
5567 Thunderstorm 24 1023 46 16093 5.7 130 23:36 21.10.2019
5568 Thunderstorm 24 1023 46 16093 5.7 130 23:36 21.10.2019
5569 Clouds 24 1023 46 16093 6.2 120 23:18 21.10.2019
5570 Clouds 24 1023 46 16093 6.2 120 22:54 21.10.2019
5571 Clouds 24 1023 46 16093 6.2 120 22:54 21.10.2019
5572 Clouds 24 1023 46 16093 6.2 120 22:36 21.10.2019
5573 Clouds 24 1024 38 16093 1.37 66 22:18 21.10.2019
5574 Ash 25 1025 38 16093 1.5 90 21:40 21.10.2019
5575 Ash 25 1025 38 16093 1.5 90 21:22 21.10.2019
5576 Ash 24 1025 44 16093 0.85 182 20:58 21.10.2019
5577 Ash 24 1025 44 16093 0.85 182 20:40 21.10.2019
5578 Ash 24 1025 44 16093 0.85 182 20:21 21.10.2019
5579 Ash 23 1026 40 16093 1.5 190 19:58 21.10.2019
5580 Ash 23 1026 40 16093 1.5 190 19:40 21.10.2019
5581 Ash 22 1026 40 16093 1.5 190 19:22 21.10.2019
5582 Clouds 21 1026 46 16093 1 120 18:56 21.10.2019
5583 Clouds 20 1026 46 16093 1 120 18:37 21.10.2019
5584 Clouds 20 1026 46 16093 1 120 18:19 21.10.2019
5585 Clouds 19 1029 72 8047 2.1 120 17:56 21.10.2019
5586 Clouds 19 1029 72 8047 2.1 120 17:37 21.10.2019
5587 Clouds 18 1026 55 19312 2.6 120 17:18 21.10.2019
5588 Clouds 17 1026 63 19312 2.6 120 16:56 21.10.2019
5589 Clouds 17 1026 63 19312 2.6 120 16:37 21.10.2019
5590 Clouds 17 1025 72 19312 2.6 110 16:19 21.10.2019
5591 Clouds 15 1025 77 19312 2.6 130 15:42 21.10.2019
5592 Clouds 15 1025 77 19312 2.6 130 15:24 21.10.2019
5593 Clear 15 1024 72 19312 2.6 140 14:57 21.10.2019
5594 Clear 15 1024 72 19312 2.6 140 14:38 21.10.2019
5595 Clear 14 1024 72 19312 2.6 140 14:19 21.10.2019
5596 Clear 14 1024 82 24140 3.6 150 13:56 21.10.2019
5597 Clear 14 1024 82 24140 3.6 150 13:37 21.10.2019
5598 Clear 14 1024 82 24140 3.6 150 13:18 21.10.2019
5599 Clear 13 1024 82 24140 2.6 120 12:41 21.10.2019
5600 Clear 13 1024 82 24140 2.6 120 12:22 21.10.2019
5601 Clear 12 1024 77 24140 3.1 140 11:55 21.10.2019
5602 Clear 13 1024 77 24140 3.1 140 11:37 21.10.2019
5603 Clear 13 1024 77 24140 3.1 140 11:19 21.10.2019
5604 Clouds 14 1025 77 19312 3.1 120 10:55 21.10.2019
5605 Clouds 14 1025 77 19312 3.1 120 10:37 21.10.2019
5606 Clouds 14 1025 77 19312 3.1 120 10:18 21.10.2019
5607 Clouds 14 1025 77 19312 3.1 140 09:44 21.10.2019
5608 Clouds 14 1025 77 19312 3.1 140 09:25 21.10.2019
5609 Clear 15 1025 72 19312 4.1 120 08:43 21.10.2019
5610 Clear 15 1025 72 19312 4.1 120 08:24 21.10.2019
5611 Clear 15 1025 67 19312 4.1 120 07:59 21.10.2019
5612 Clear 15 1025 67 19312 4.1 120 07:37 21.10.2019
5613 Clear 15 1025 67 19312 4.1 120 07:19 21.10.2019
5614 Clear 16 1025 63 19312 3.1 140 06:53 21.10.2019
5615 Clear 16 1025 63 19312 3.1 140 06:33 21.10.2019
5616 Clear 17 1024 59 19312 4.1 120 05:50 21.10.2019
5617 Clouds 17 1023 55 19312 3.6 180 04:43 21.10.2019
5618 Clouds 20 1023 56 19312 4.1 170 02:41 21.10.2019
5619 Clouds 21 1022 46 19312 5.1 170 02:22 21.10.2019
5620 Clouds 21 1021 41 19312 5.1 170 01:49 21.10.2019
5621 Clouds 22 1021 41 19312 5.1 170 01:22 21.10.2019
5622 Clouds 24 1021 38 19312 7.2 190 00:42 21.10.2019
5623 Clouds 24 1021 38 19312 7.2 190 00:42 21.10.2019
5624 Clouds 24 1021 38 19312 7.2 190 00:23 21.10.2019
5625 Clouds 25 1022 41 19312 5.7 190 23:40 20.10.2019
5626 Clouds 24 1022 41 19312 5.7 190 23:21 20.10.2019
5627 Clouds 24 1023 41 19312 5.7 200 22:55 20.10.2019
5628 Clouds 24 1023 41 19312 5.7 200 22:36 20.10.2019
5629 Clouds 24 1023 41 19312 5.7 200 22:18 20.10.2019
5630 Clouds 24 1023 44 19312 5.1 200 21:41 20.10.2019
5631 Clouds 24 1023 44 19312 5.1 200 21:41 20.10.2019
5632 Clouds 23 1024 49 16093 4.1 180 21:22 20.10.2019
5633 Clouds 22 1024 49 16093 4.6 160 20:59 20.10.2019
5634 Clouds 22 1024 49 16093 4.6 160 20:39 20.10.2019
5635 Ash 23 1025 41 16093 4.1 180 20:18 20.10.2019
5636 Ash 23 1025 41 16093 4.1 180 20:18 20.10.2019
5637 Ash 22 1019 69 11265 3.1 200 19:56 20.10.2019
5638 Ash 22 1019 69 11265 3.1 200 19:37 20.10.2019
5639 Ash 22 1024 43 16093 5.1 200 19:19 20.10.2019
5640 Ash 21 1024 43 16093 4.1 170 18:42 20.10.2019
5641 Ash 21 1024 43 16093 4.1 170 18:42 20.10.2019
5642 Mist 20 1024 49 16093 4.1 160 18:23 20.10.2019
5643 Clouds 19 1024 60 14484 4.6 150 17:59 20.10.2019
5644 Clouds 19 1024 60 14484 4.6 150 17:40 20.10.2019
5645 Clouds 19 1024 60 14484 4.6 150 17:21 20.10.2019
5646 Fog 18 1024 68 14484 1 160 16:56 20.10.2019
5647 Fog 18 1024 68 14484 1 160 16:37 20.10.2019
5648 Fog 17 1024 77 16093 1 330 16:18 20.10.2019
5649 Fog 16 1025 87 11265 4.6 130 15:54 20.10.2019
5650 Fog 16 1025 87 11265 4.6 130 15:54 20.10.2019
5651 Fog 16 1025 87 11265 4.6 130 15:36 20.10.2019
5652 Fog 15 1023 82 16093 1.7 182.773 15:18 20.10.2019
5653 Fog 15 1023 82 16093 1 20 14:39 20.10.2019
5654 Fog 15 1023 82 16093 1 20 14:21 20.10.2019
5655 Mist 15 1023 82 16093 1 170 13:56 20.10.2019
5656 Mist 15 1023 82 16093 1 170 13:37 20.10.2019
5657 Mist 15 1023 82 16093 1 170 13:19 20.10.2019
5658 Mist 15 1022 82 16093 1.58 182.001 12:57 20.10.2019
5659 Mist 15 1022 82 16093 1.58 182.001 12:39 20.10.2019
5660 Mist 15 1022 82 16093 1.58 182.001 12:39 20.10.2019
5661 Mist 15 1022 82 16093 1.33 178.23 12:21 20.10.2019
5662 Clouds 14 1022 82 14484 1.5 130 11:59 20.10.2019
5663 Clouds 14 1022 82 14484 1.5 130 11:40 20.10.2019
5664 Clouds 14 1022 82 14484 1.5 130 11:22 20.10.2019
5665 Clouds 14 1022 82 14484 1.5 130 11:22 20.10.2019
5666 Clouds 15 1023 77 14484 3.6 130 10:57 20.10.2019
5667 Clouds 15 1023 77 14484 3.6 130 10:38 20.10.2019
5668 Clouds 15 1023 77 14484 3.6 130 10:20 20.10.2019
5669 Clouds 15 1023 72 12874 3.6 110 09:44 20.10.2019
5670 Clouds 15 1023 72 12874 3.6 110 09:23 20.10.2019
5671 Clouds 15 1024 72 11265 2.1 110 08:59 20.10.2019
5672 Clouds 15 1024 72 11265 2.1 110 08:39 20.10.2019
5673 Clouds 15 1024 72 11265 2.1 110 08:20 20.10.2019
5674 Clouds 16 1024 63 12874 3.6 140 07:47 20.10.2019
5675 Clouds 16 1024 63 12874 3.6 140 07:26 20.10.2019
5676 Clouds 17 1024 63 16093 5.1 130 06:28 20.10.2019
5677 Clouds 18 1022 59 16093 5.1 140 04:28 20.10.2019
5678 Clouds 17 1021 56 16093 6.2 140 03:49 20.10.2019
5679 Clouds 18 1021 56 16093 6.2 140 03:22 20.10.2019
5680 Clouds 21 1020 52 16093 7.7 130 02:46 20.10.2019
5681 Clouds 21 1020 52 16093 7.7 130 02:18 20.10.2019
5682 Clouds 23 1020 46 16093 7.2 110 01:45 20.10.2019
5683 Clouds 23 1020 46 16093 7.2 110 01:19 20.10.2019
5684 Clouds 23 1020 43 16093 6.2 140 00:47 20.10.2019
5685 Clouds 23 1020 43 16093 6.2 140 00:47 20.10.2019
5686 Clouds 23 1020 43 16093 6.2 140 00:20 20.10.2019
5687 Clouds 23 1020 44 16093 3.1 160 23:44 19.10.2019
5688 Clouds 23 1020 44 16093 3.1 160 23:24 19.10.2019
5689 Clouds 23 1021 46 16093 4.1 180 22:58 19.10.2019
5690 Clouds 23 1021 46 16093 4.1 180 22:40 19.10.2019
5691 Clouds 23 1021 38 16093 4.1 120 22:20 19.10.2019
5692 Clouds 23 1022 41 16093 1.5 230 21:46 19.10.2019
5693 Clouds 23 1022 41 16093 1.5 230 21:25 19.10.2019
5694 Clouds 23 1018 65 14484 1 190 20:57 19.10.2019
5695 Clouds 23 1018 65 14484 1 190 20:57 19.10.2019
5696 Clouds 23 1018 65 14484 1 190 20:39 19.10.2019
5697 -273 0 0 0 0 0 20:20 19.10.2019
5698 Clouds 21 1024 52 12874 2.6 360 19:41 19.10.2019
5699 Clouds 21 1024 52 12874 2.6 360 19:23 19.10.2019
5700 Clouds 20 1025 63 9656 1 40 18:54 19.10.2019
5701 Clouds 20 1025 63 9656 1 40 18:54 19.10.2019
5702 Clouds 20 1025 63 9656 1 40 18:36 19.10.2019
5703 Clouds 20 1025 63 9656 1 40 18:18 19.10.2019
5704 Clouds 20 1025 63 9656 1 40 18:18 19.10.2019
5705 Clouds 20 1025 63 9656 1 40 18:18 19.10.2019
5706 Mist 16 1024 72 9656 0.5 70 17:41 19.10.2019
5707 Mist 17 1024 72 9656 0.5 70 17:21 19.10.2019
5708 Mist 16 1024 72 12874 1 110 16:55 19.10.2019
5709 Mist 16 1024 72 12874 1 110 16:37 19.10.2019
5710 Mist 16 1024 72 12874 1 110 16:18 19.10.2019
5711 Mist 16 1024 72 12874 1 110 16:18 19.10.2019
5712 Fog 15 1023 82 16093 1.33 106.484 15:40 19.10.2019
5713 Fog 15 1023 82 16093 0.48 242.952 15:22 19.10.2019
5714 Fog 15 1025 93 805 0.48 242.952 14:39 19.10.2019
5715 Mist 15 1023 82 14484 2.1 180 14:20 19.10.2019
5716 Clouds 14 1023 87 16093 1 290 13:57 19.10.2019
5717 Clouds 14 1023 87 16093 1 290 13:39 19.10.2019
5718 Clouds 14 1023 87 16093 1 290 13:18 19.10.2019
5719 Clouds 14 1023 87 16093 1.5 300 12:55 19.10.2019
5720 Clouds 14 1023 87 16093 1.5 300 12:36 19.10.2019
5721 Clouds 14 1023 87 16093 1.5 300 12:18 19.10.2019
5722 Clouds 14 1023 87 16093 2.1 270 11:41 19.10.2019
5723 Clouds 14 1023 87 16093 2.1 270 11:22 19.10.2019
5724 Clouds 15 1024 82 12874 2.1 60 10:55 19.10.2019
5725 Clouds 15 1024 82 12874 2.1 60 10:37 19.10.2019
5726 Clouds 15 1024 82 12874 2.1 60 10:19 19.10.2019
5727 Rain 15 1024 82 12874 2.1 360 09:41 19.10.2019
5728 Rain 15 1024 82 12874 2.1 360 09:23 19.10.2019
5729 Rain 15 1024 82 12874 2.1 360 09:23 19.10.2019
5730 Rain 15 1024 82 12874 2.1 360 08:58 19.10.2019
5731 Rain 15 1024 82 12874 2.1 360 08:58 19.10.2019
5732 Clouds 15 1024 77 12874 1.36 247.134 08:39 19.10.2019
5733 Clouds 15 1024 77 12874 1.36 247.134 08:20 19.10.2019
5734 Clouds 15 1024 72 16093 4.1 110 07:43 19.10.2019
5735 Clouds 15 1024 72 16093 4.1 110 07:24 19.10.2019
5736 Clouds 15 1024 77 16093 4.6 120 06:45 19.10.2019
5737 Clouds 16 1024 67 16093 5.1 120 05:56 19.10.2019
5738 Clouds 16 1024 67 16093 5.1 120 05:27 19.10.2019
5739 Clouds 16 1024 67 16093 5.1 120 05:27 19.10.2019
5740 Clouds 16 1022 68 16093 5.7 130 03:25 19.10.2019
5741 Rain 19 1022 68 16093 4.6 100 02:38 19.10.2019
5742 Rain 19 1021 60 16093 5.1 100 01:51 19.10.2019
5743 Rain 21 1021 60 16093 5.1 100 01:18 19.10.2019
5744 Smoke 21 1021 52 16093 2.1 180 00:45 19.10.2019
5745 Smoke 21 1021 52 16093 2.1 180 00:22 19.10.2019
5746 Rain 20 1022 52 16093 4.6 150 23:40 18.10.2019
5747 Rain 20 1022 52 16093 4.6 150 23:21 18.10.2019
5748 Rain 21 1022 53 16093 5.1 120 22:55 18.10.2019
5749 Rain 21 1022 53 16093 5.1 120 22:37 18.10.2019
5750 Rain 21 1022 53 16093 5.1 120 22:37 18.10.2019
5751 Clouds 21 1022 53 16093 5.1 120 22:19 18.10.2019
5752 Clouds 21 1025 77 11265 5.1 160 21:56 18.10.2019
5753 Clouds 21 1025 77 11265 5.1 160 21:56 18.10.2019
5754 Clouds 21 1025 77 11265 5.1 160 21:37 18.10.2019
5755 Clouds 21 1023 46 16093 5.1 130 21:18 18.10.2019
5756 Clouds 22 1024 43 12874 2.6 120 20:43 18.10.2019
5757 Clouds 22 1024 43 12874 2.6 120 20:24 18.10.2019
5758 Clouds 21 1024 46 14484 1.5 90 19:59 18.10.2019
5759 Clouds 21 1024 46 14484 1.5 90 19:40 18.10.2019
5760 Clouds 20 1025 49 16093 2.6 110 19:22 18.10.2019
5761 Clouds 20 1025 56 16093 2.1 90 18:59 18.10.2019
5762 Clouds 20 1025 56 16093 2.1 90 18:41 18.10.2019
5763 Clouds 20 1025 56 16093 2.1 90 18:41 18.10.2019
5764 Clouds 19 1025 56 16093 2.1 90 18:23 18.10.2019
5765 Clouds 19 1025 56 16093 1 170 17:56 18.10.2019
5766 Clouds 19 1025 56 16093 1 170 17:37 18.10.2019
5767 Clouds 19 1025 56 16093 1 170 17:19 18.10.2019
5768 Mist 18 1025 59 16093 1.5 190 16:40 18.10.2019
5769 Mist 17 1025 72 16093 1.5 210 16:21 18.10.2019
5770 Mist 15 1025 82 16093 1.5 180 15:58 18.10.2019
5771 Mist 15 1025 82 16093 1.5 180 15:38 18.10.2019
5772 Mist 15 1025 82 16093 1.5 180 15:20 18.10.2019
5773 Mist 15 1025 82 16093 1.5 180 15:20 18.10.2019
5774 Mist 15 1024 87 12874 3.1 110 14:57 18.10.2019
5775 Mist 15 1024 87 12874 3.1 110 14:38 18.10.2019
5776 Mist 15 1024 87 12874 3.1 110 14:19 18.10.2019
5777 Clouds 14 1024 87 11265 1 170 13:56 18.10.2019
5778 Clouds 14 1024 87 11265 1 170 13:37 18.10.2019
5779 Clouds 14 1024 87 11265 1 170 13:18 18.10.2019
5780 Clouds 14 1024 87 11265 0.75 180.836 12:55 18.10.2019
5781 -273 0 0 0 0 0 12:55 18.10.2019
5782 Clouds 14 1024 87 11265 0.75 180.836 12:37 18.10.2019
5783 Clouds 14 1024 87 11265 1.11 209.349 12:18 18.10.2019
5784 Clouds 14 1024 87 12874 2.6 130 11:41 18.10.2019
5785 Clouds 14 1024 87 12874 2.6 130 11:20 18.10.2019
5786 Clouds 14 1024 87 12874 1.11 209.349 10:57 18.10.2019
5787 Clouds 14 1024 87 12874 1.11 209.349 10:39 18.10.2019
5788 Clouds 14 1024 87 12874 1.11 209.349 10:20 18.10.2019
5789 Clouds 14 1025 87 16093 2.6 110 09:57 18.10.2019
5790 Clouds 14 1025 87 16093 2.6 110 09:39 18.10.2019
5791 Clouds 14 1025 87 16093 2.6 110 09:19 18.10.2019
5792 Clouds 14 1025 87 12874 1.5 190 08:44 18.10.2019
5793 -273 0 0 0 0 0 08:25 18.10.2019
5794 Clouds 15 1025 82 11265 2.6 120 07:53 18.10.2019
5795 Clouds 15 1025 82 11265 2.6 120 07:35 18.10.2019
5796 Clouds 15 1027 87 8047 3.6 140 06:55 18.10.2019
5797 Rain 15 1025 82 11265 3.1 160 06:35 18.10.2019
5798 Rain 15 1027 87 4828 2.1 120 05:59 18.10.2019
5799 Rain 14 1027 87 4828 2.1 120 05:41 18.10.2019
5800 Clouds 14 1025 93 11265 3.6 120 05:18 18.10.2019
5801 Rain 15 1024 82 12874 1 30 03:36 18.10.2019
5802 Rain 17 1023 77 8047 2.1 360 02:51 18.10.2019
5803 Rain 17 1023 77 8047 2.1 360 02:32 18.10.2019
5804 Rain 18 1023 77 8047 1.5 340 01:39 18.10.2019
5805 Rain 18 1023 77 8047 1.5 340 01:20 18.10.2019
5806 Rain 18 1023 82 6437 1.5 330 00:41 18.10.2019
5807 Rain 18 1023 82 6437 1.5 330 00:19 18.10.2019
5808 Rain 18 1023 93 6437 2.6 360 23:39 17.10.2019
5809 Thunderstorm 18 1023 93 3219 1 60 23:20 17.10.2019
5810 Rain 18 1023 87 3219 3.6 250 22:56 17.10.2019
5811 Rain 18 1023 87 3219 3.6 250 22:56 17.10.2019
5812 Rain 18 1023 87 3219 3.6 250 22:56 17.10.2019
5813 Rain 18 1023 87 3219 3.6 250 22:56 17.10.2019
5814 Rain 18 1023 87 3219 3.6 250 22:38 17.10.2019
5815 Rain 18 1023 82 8047 3.6 10 22:19 17.10.2019
5816 Mist 17 1024 87 8047 3.1 10 21:56 17.10.2019
5817 Mist 17 1024 87 8047 3.1 10 21:38 17.10.2019
5818 Mist 17 1024 87 8047 3.1 10 21:20 17.10.2019
5819 Rain 17 1024 82 4828 4.1 10 20:57 17.10.2019
5820 Rain 17 1024 82 4828 4.1 10 20:39 17.10.2019
5821 Rain 17 1024 82 4828 4.1 10 20:39 17.10.2019
5822 Rain 17 1025 77 8047 2.6 60 20:19 17.10.2019
5823 Rain 18 1025 77 9656 1.5 70 19:57 17.10.2019
5824 Rain 18 1025 77 9656 1.5 70 19:38 17.10.2019
5825 Rain 18 1026 87 6437 3.6 40 19:19 17.10.2019
5826 Rain 17 1026 87 4828 3.1 30 18:43 17.10.2019
5827 Rain 16 1026 82 3219 2.6 70 18:21 17.10.2019
5828 Mist 16 1026 87 8047 3.1 20 17:58 17.10.2019
5829 Clouds 16 1026 87 8047 3.1 20 17:40 17.10.2019
5830 Clouds 16 1026 87 8047 3.1 20 17:22 17.10.2019
5831 Rain 15 1025 93 4828 3.6 20 16:56 17.10.2019
5832 Rain 15 1025 93 4828 3.6 20 16:37 17.10.2019
5833 Rain 15 1025 93 4828 3.6 20 16:18 17.10.2019
5834 Rain 15 1025 87 4828 3.1 360 15:55 17.10.2019
5835 Rain 15 1025 87 4828 3.1 360 15:37 17.10.2019
5836 Rain 15 1025 87 4828 3.1 360 15:18 17.10.2019
5837 Rain 15 1024 87 6437 2.6 340 14:42 17.10.2019
5838 Rain 15 1024 87 6437 2.6 340 14:23 17.10.2019
5839 Rain 13 1024 87 4828 2.1 20 13:54 17.10.2019
5840 Rain 13 1024 87 4828 2.1 20 13:36 17.10.2019
5841 Rain 14 1024 87 8047 2.1 320 13:18 17.10.2019
5842 Clouds 13 1024 93 6437 2.1 310 12:41 17.10.2019
5843 Clouds 13 1024 93 6437 2.1 310 12:20 17.10.2019
5844 Rain 14 1024 93 6437 2.1 340 11:58 17.10.2019
5845 Rain 14 1024 93 6437 2.1 340 11:40 17.10.2019
5846 Rain 14 1024 93 6437 2.1 340 11:19 17.10.2019
5847 Rain 14 1025 93 4828 4.1 20 10:54 17.10.2019
5848 Rain 14 1025 93 4828 4.1 20 10:54 17.10.2019
5849 Rain 14 1025 93 4828 4.1 20 10:54 17.10.2019
5850 Rain 14 1025 93 4828 4.1 20 10:36 17.10.2019
5851 Rain 14 1025 93 4828 4.1 20 10:18 17.10.2019
5852 Rain 14 1025 93 4828 4.1 20 10:18 17.10.2019
5853 Rain 14 1025 93 4828 2.6 10 09:41 17.10.2019
5854 Rain 14 1025 87 9656 4.1 340 09:21 17.10.2019
5855 Rain 14 1025 82 12874 5.1 360 08:58 17.10.2019
5856 Rain 14 1025 82 12874 5.1 360 08:39 17.10.2019
5857 Clouds 15 1025 72 16093 4.6 20 08:20 17.10.2019
5858 Clouds 15 1025 72 16093 5.1 360 07:54 17.10.2019
5859 Clouds 15 1025 72 16093 5.1 360 07:54 17.10.2019
5860 Clouds 15 1025 72 16093 5.1 360 07:36 17.10.2019
5861 Clouds 15 1025 72 16093 5.1 360 07:18 17.10.2019
5862 Rain 15 1027 82 9656 4.1 40 06:39 17.10.2019
5863 Clouds 15 1025 72 16093 3.6 340 06:20 17.10.2019
5864 Rain 16 1023 67 16093 5.7 340 05:49 17.10.2019
5865 Rain 16 1023 67 16093 5.7 340 05:30 17.10.2019
5866 Rain 16 1024 67 16093 4.1 340 04:51 17.10.2019
5867 Clouds 17 1023 59 14484 7.2 40 03:54 17.10.2019
5868 Clouds 19 1022 59 11265 8.2 30 02:36 17.10.2019
5869 Rain 20 1022 63 8047 4.6 30 00:56 17.10.2019
5870 Rain 20 1022 63 8047 4.6 30 00:38 17.10.2019
5871 Rain 20 1022 63 8047 4.6 30 00:18 17.10.2019
5872 Clouds 19 1022 56 11265 6.7 360 23:42 16.10.2019
5873 Clouds 21 1022 56 11265 6.7 360 23:20 16.10.2019
5874 Clouds 22 1022 52 11265 6.2 10 22:55 16.10.2019
5875 Clouds 22 1022 52 11265 6.2 10 22:36 16.10.2019
5876 Clouds 22 1022 52 11265 6.2 10 22:18 16.10.2019
5877 Clouds 22 1023 52 12874 4.6 340 21:56 16.10.2019
5878 Clouds 22 1023 52 12874 4.6 340 21:37 16.10.2019
5879 Clouds 22 1023 52 12874 4.6 340 21:18 16.10.2019
5880 Clouds 22 1024 49 12874 4.6 330 20:56 16.10.2019
5881 Clouds 22 1024 49 12874 4.6 330 20:38 16.10.2019
5882 Clouds 22 1024 49 12874 4.6 330 20:20 16.10.2019
5883 Clouds 22 1025 56 12874 1 320 19:56 16.10.2019
5884 Clouds 21 1025 56 12874 1 320 19:38 16.10.2019
5885 Clouds 21 1025 56 12874 1 320 19:19 16.10.2019
5886 Clouds 20 1025 56 12874 2.6 30 18:39 16.10.2019
5887 Clouds 19 1026 63 12874 1.5 300 18:19 16.10.2019
5888 Clouds 18 1025 63 11265 1.5 50 17:56 16.10.2019
5889 Clouds 18 1025 63 11265 1.5 50 17:38 16.10.2019
5890 Clouds 18 1025 63 11265 1.5 50 17:19 16.10.2019
5891 Clouds 17 1025 67 9656 2.6 10 16:58 16.10.2019
5892 Clouds 17 1025 67 9656 2.6 10 16:39 16.10.2019
5893 Clouds 17 1025 67 9656 2.6 10 16:20 16.10.2019
5894 Clouds 15 1024 67 9656 2.1 280 15:55 16.10.2019
5895 Clouds 16 1024 67 9656 2.1 280 15:36 16.10.2019
5896 Clouds 16 1024 72 9656 4.1 280 15:18 16.10.2019
5897 Clouds 16 1024 72 9656 4.1 280 15:18 16.10.2019
5898 Clouds 15 1024 72 9656 4.1 280 14:55 16.10.2019
5899 Clouds 15 1024 72 9656 4.1 280 14:36 16.10.2019
5900 Clouds 14 1024 72 9656 4.1 280 14:18 16.10.2019
5901 Clouds 14 1024 72 9656 3.1 280 13:42 16.10.2019
5902 Clouds 14 1024 72 9656 3.1 280 13:23 16.10.2019
5903 Clouds 15 1024 67 9656 3.1 20 12:57 16.10.2019
5904 Clouds 14 1024 67 9656 3.1 20 12:39 16.10.2019
5905 Clouds 15 1024 67 9656 3.1 20 12:18 16.10.2019
5906 Clouds 14 1024 67 9656 4.1 20 11:42 16.10.2019
5907 Clouds 14 1024 67 9656 4.1 20 11:42 16.10.2019
5908 Rain 14 1024 72 9656 4.1 30 11:18 16.10.2019
5909 Rain 14 1024 72 9656 4.1 30 11:18 16.10.2019
5910 Clouds 15 1024 63 11265 5.1 310 10:38 16.10.2019
5911 Clouds 15 1024 63 11265 5.1 310 10:20 16.10.2019
5912 Clouds 15 1025 63 12874 4.6 290 09:55 16.10.2019
5913 Clouds 15 1025 63 12874 4.6 290 09:37 16.10.2019
5914 Clouds 15 1025 63 12874 4.6 290 09:19 16.10.2019
5915 Clouds 16 1025 52 12874 4.6 300 08:42 16.10.2019
5916 Clouds 16 1025 52 12874 4.6 300 08:24 16.10.2019
5917 Clouds 17 1025 45 12874 5.1 300 07:45 16.10.2019
5918 Clouds 17 1025 45 12874 5.1 300 07:45 16.10.2019
5919 Clouds 17 1025 45 12874 5.1 300 07:25 16.10.2019
5920 Clouds 17 1025 45 12874 5.1 300 07:24 16.10.2019
5921 Clouds 17 1025 48 14484 5.1 340 06:56 16.10.2019
5922 Clouds 17 1025 48 14484 5.1 340 06:35 16.10.2019
5923 Clouds 18 1024 42 16093 5.1 10 05:39 16.10.2019
5924 Clouds 23 1021 31 12874 5.1 350 02:57 16.10.2019
5925 Clouds 23 1021 31 12874 5.1 350 02:37 16.10.2019
5926 Clouds 25 1021 26 12874 4.1 300 01:18 16.10.2019
5927 Clouds 26 1021 24 11265 3.6 240 00:46 16.10.2019
5928 Clouds 26 1021 24 11265 3.6 240 00:25 16.10.2019
5929 Clouds 26 1022 26 9656 4.6 360 23:39 15.10.2019
5930 Clouds 26 1022 26 9656 4.6 360 23:21 15.10.2019
5931 Clouds 26 1022 29 9656 2.6 70 22:55 15.10.2019
5932 Clouds 25 1022 29 9656 2.6 70 22:37 15.10.2019
5933 Clouds 25 1023 33 9656 2.6 340 22:19 15.10.2019
5934 Clouds 25 1023 31 9656 2.437 329 21:55 15.10.2019
5935 Clouds 25 1023 31 9656 2.437 329 21:55 15.10.2019
5936 Clouds 24 1023 31 9656 2.234 332 21:37 15.10.2019
5937 Clouds 24 1024 40 8047 4.1 350 21:19 15.10.2019
5938 Clouds 23 1025 43 8047 2.1 10 20:57 15.10.2019
5939 Clouds 23 1025 43 8047 2.1 10 20:38 15.10.2019
5940 Clouds 23 1025 43 8047 2.1 10 20:19 15.10.2019
5941 Clouds 22 1026 43 8047 2.412 337 19:56 15.10.2019
5942 Clouds 22 1026 43 8047 2.412 337 19:56 15.10.2019
5943 Clouds 22 1026 43 8047 2.412 337 19:37 15.10.2019
5944 Clouds 22 1026 43 8047 2.412 337 19:37 15.10.2019
5945 Clouds 21 1027 56 8047 1.5 270 19:19 15.10.2019
5946 Clouds 19 1027 59 9656 2.1 110 18:44 15.10.2019
5947 Clouds 19 1027 59 9656 2.1 110 18:26 15.10.2019
5948 Clouds 16 1027 59 9656 2.092 359 17:56 15.10.2019
5949 Clouds 16 1027 59 9656 2.092 359 17:38 15.10.2019
5950 Clouds 16 1027 63 9656 2.1 90 17:19 15.10.2019
5951 Clouds 15 1027 77 9656 3.1 80 16:45 15.10.2019
5952 Clouds 15 1027 77 9656 3.1 80 16:45 15.10.2019
5953 Clouds 15 1027 82 9656 3.1 80 16:22 15.10.2019
5954 Clouds 13 1027 81 9656 2.6 70 15:58 15.10.2019
5955 Clouds 13 1027 81 9656 2.6 70 15:40 15.10.2019
5956 Clouds 13 1027 81 9656 2.6 70 15:40 15.10.2019
5957 Clouds 12 1027 81 9656 2.6 70 15:20 15.10.2019
5958 Fog 13 1028 93 805 1.92 10 14:56 15.10.2019
5959 Clouds 11 1026 81 12874 3.1 90 14:37 15.10.2019
5960 Clouds 11 1026 81 12874 3.1 90 14:19 15.10.2019
5961 Fog 12 1028 93 805 2.1 320 13:43 15.10.2019
5962 Clouds 12 1026 76 11265 2.6 60 13:21 15.10.2019
5963 Clouds 12 1026 71 11265 2.6 60 12:59 15.10.2019
5964 Clouds 12 1026 71 11265 2.6 60 12:59 15.10.2019
5965 Clouds 13 1026 71 11265 2.6 60 12:38 15.10.2019
5966 Clouds 13 1026 71 11265 2.6 60 12:20 15.10.2019
5967 Clouds 13 1028 87 11265 2.64 19 11:44 15.10.2019
5968 Clouds 13 1028 87 11265 2.64 19 11:20 15.10.2019
5969 Clouds 14 1027 67 14484 3.1 60 10:57 15.10.2019
5970 Clouds 14 1027 67 14484 3.1 60 10:39 15.10.2019
5971 Clouds 14 1027 67 14484 3.1 60 10:19 15.10.2019
5972 Clouds 14 1027 63 16093 4.1 330 09:56 15.10.2019
5973 Clouds 14 1027 63 16093 4.1 330 09:37 15.10.2019
5974 Clouds 14 1027 63 16093 4.1 330 09:19 15.10.2019
5975 Clouds 15 1027 59 17702 3.1 300 08:41 15.10.2019
5976 Clouds 15 1027 59 17702 3.1 300 08:21 15.10.2019
5977 Clouds 16 1027 59 17702 3.1 290 07:55 15.10.2019
5978 Clouds 16 1027 59 17702 3.1 290 07:36 15.10.2019
5979 Clouds 16 1027 59 17702 3.1 290 07:18 15.10.2019
5980 Clouds 16 1027 55 17702 4.1 300 06:43 15.10.2019
5981 Clouds 16 1027 55 17702 4.1 300 06:20 15.10.2019
5982 Clouds 17 1026 55 17702 4.1 340 05:37 15.10.2019
5983 Clouds 18 1025 49 16093 5.1 360 04:54 15.10.2019
5984 Clouds 18 1025 49 16093 5.1 360 04:20 15.10.2019
5985 Clouds 19 1025 49 16093 4.6 360 03:35 15.10.2019
5986 Clouds 19 1025 49 16093 4.6 360 03:35 15.10.2019
5987 Clouds 22 1023 46 12874 5.1 110 02:19 15.10.2019
5988 Clouds 25 1022 29 12874 4.6 340 01:41 15.10.2019
5989 Clouds 25 1022 29 12874 4.6 340 01:18 15.10.2019
5990 Clouds 25 1022 22 14484 3.1 330 00:26 15.10.2019
5991 Clouds 26 1022 21 12874 2.6 60 23:59 14.10.2019
5992 Clouds 26 1022 21 12874 2.6 60 23:38 14.10.2019
5993 Clouds 26 1022 21 12874 2.6 60 23:19 14.10.2019
5994 Clouds 26 1024 26 12874 2.6 130 22:40 14.10.2019
5995 Clouds 26 1024 26 12874 2.6 130 22:21 14.10.2019
5996 Clouds 25 1025 33 11265 5.7 330 21:59 14.10.2019
5997 Clouds 25 1025 33 11265 5.7 330 21:40 14.10.2019
5998 Clouds 25 1025 33 11265 5.7 330 21:40 14.10.2019
5999 Clouds 25 1025 33 11265 5.7 330 21:21 14.10.2019
6000 Clouds 24 1025 36 11265 2.6 280 20:58 14.10.2019
6001 Clouds 23 1026 43 11265 2.35 70.856 20:38 14.10.2019
6002 Clouds 23 1026 43 11265 2.35 70.856 20:19 14.10.2019
6003 Clouds 22 1027 49 8047 2.1 60 19:56 14.10.2019
6004 Clouds 22 1027 49 8047 2.1 60 19:37 14.10.2019
6005 Clouds 22 1027 49 8047 2.1 60 19:19 14.10.2019
6006 Clouds 20 1027 52 8047 3.1 350 18:57 14.10.2019
6007 Clouds 20 1027 63 9656 1.5 270 18:37 14.10.2019
6008 Clouds 19 1027 63 9656 1.5 270 18:18 14.10.2019
6009 Clouds 18 1028 68 9656 1.5 60 17:41 14.10.2019
6010 Clouds 18 1028 77 9656 1.5 120 17:23 14.10.2019
6011 Ash 15 1027 82 9656 2.6 80 16:54 14.10.2019
6012 Ash 15 1027 82 9656 2.6 80 16:36 14.10.2019
6013 Ash 15 1027 82 9656 2.6 80 16:18 14.10.2019
6014 Ash 14 1027 82 9656 2.6 90 15:40 14.10.2019
6015 Ash 14 1027 82 9656 2.6 90 15:21 14.10.2019
6016 Ash 13 1026 82 9656 2.6 100 14:44 14.10.2019
6017 Clouds 12 1026 82 9656 2.6 100 14:25 14.10.2019
6018 Clear 12 1026 77 9656 1.5 70 13:58 14.10.2019
6019 Clear 13 1026 77 9656 1.5 70 13:40 14.10.2019
6020 Clear 13 1026 77 9656 1.5 70 13:20 14.10.2019
6021 Clear 14 1026 82 11265 2.1 300 12:41 14.10.2019
6022 Clear 14 1026 82 11265 2.1 300 12:21 14.10.2019
6023 Clear 14 1026 72 12874 3.1 310 11:55 14.10.2019
6024 Clear 14 1026 72 12874 3.1 310 11:54 14.10.2019
6025 Clear 14 1026 72 12874 3.1 310 11:36 14.10.2019
6026 Clear 14 1026 72 12874 3.1 310 11:18 14.10.2019
6027 Clouds 15 1027 59 14484 3.1 280 10:43 14.10.2019
6028 Clouds 15 1027 59 14484 3.1 280 10:21 14.10.2019
6029 Clouds 15 1027 59 14484 3.1 280 10:21 14.10.2019
6030 Clouds 16 1027 55 14484 3.6 300 09:57 14.10.2019
6031 Clouds 16 1027 55 14484 3.6 300 09:38 14.10.2019
6032 Clouds 16 1027 55 14484 3.6 300 09:19 14.10.2019
6033 Clouds 16 1027 55 12874 3.6 320 08:46 14.10.2019
6034 Clouds 17 1027 55 12874 3.6 320 08:23 14.10.2019
6035 Clouds 17 1027 63 12874 0.65 1.776 07:44 14.10.2019
6036 Clouds 17 1027 63 12874 0.65 1.776 07:21 14.10.2019
6037 Clouds 17 1026 63 12874 2.1 10 06:54 14.10.2019
6038 Clouds 17 1026 63 12874 2.1 10 06:27 14.10.2019
6039 Clouds 18 1026 59 11265 2.6 110 05:51 14.10.2019
6040 Clouds 18 1025 59 12874 2.6 80 04:50 14.10.2019
6041 Thunderstorm 18 1025 63 11265 4.6 30 03:48 14.10.2019
6042 -273 0 0 0 0 0 03:21 14.10.2019
6043 Clouds 24 1022 46 11265 6.2 120 01:36 14.10.2019
6044 Clouds 25 1022 31 11265 3.1 100 01:18 14.10.2019
6045 Clouds 25 1022 31 11265 3.1 100 00:23 14.10.2019
6046 Clouds 24 1023 33 9656 2.6 310 23:46 13.10.2019
6047 Ash 25 1023 33 9656 2.6 310 23:21 13.10.2019
6048 Ash 25 1024 38 9656 3.6 90 23:00 13.10.2019
6049 Ash 25 1024 38 9656 3.6 90 22:41 13.10.2019
6050 Ash 25 1024 38 9656 3.6 90 22:22 13.10.2019
6051 Ash 25 1024 38 9656 3.6 90 22:22 13.10.2019
6052 Ash 24 1024 38 9656 4.6 80 21:58 13.10.2019
6053 Ash 24 1024 38 9656 4.6 80 21:38 13.10.2019
6054 Ash 23 1025 40 9656 2.08 75.076 21:19 13.10.2019
6055 Ash 22 1026 46 9656 3.6 90 20:58 13.10.2019
6056 Ash 22 1026 46 9656 3.6 90 20:40 13.10.2019
6057 Ash 22 1026 46 9656 3.6 90 20:21 13.10.2019
6058 Clear 21 1027 52 8047 1.5 310 20:00 13.10.2019
6059 Clear 21 1027 52 8047 1.5 310 19:39 13.10.2019
6060 Clear 21 1027 52 8047 1.5 310 19:39 13.10.2019
6061 Clear 21 1027 52 8047 1.5 310 19:39 13.10.2019
6062 Clear 21 1027 52 8047 1.5 310 19:21 13.10.2019
6063 Haze 20 1027 52 8047 2.1 210 18:59 13.10.2019
6064 Haze 20 1027 52 8047 2.1 210 18:59 13.10.2019
6065 Haze 20 1027 52 8047 2.1 210 18:58 13.10.2019
6066 -273 0 0 0 0 0 18:58 13.10.2019
6067 Haze 20 1027 52 8047 2.1 210 18:38 13.10.2019
6068 Haze 20 1027 52 8047 2.1 210 18:38 13.10.2019
6069 Haze 19 1027 59 6437 1.19 59.89 18:19 13.10.2019
6070 Mist 18 1027 72 8047 2.1 110 17:58 13.10.2019
6071 Mist 18 1027 72 8047 2.1 110 17:39 13.10.2019
6072 Mist 18 1027 72 8047 2.1 110 17:21 13.10.2019
6073 Mist 16 1027 72 8047 1.5 110 16:43 13.10.2019
6074 Mist 15 1027 82 8047 1.19 59.89 16:19 13.10.2019
6075 Mist 14 1027 93 8047 3.6 80 15:57 13.10.2019
6076 Mist 14 1027 93 8047 3.6 80 15:57 13.10.2019
6077 Mist 14 1027 93 8047 3.6 80 15:57 13.10.2019
6078 Mist 13 1027 93 8047 3.6 80 15:38 13.10.2019
6079 Mist 13 1027 93 8047 3.6 80 15:19 13.10.2019
6080 Clouds 13 1026 87 8047 3.6 90 14:57 13.10.2019
6081 Clouds 13 1026 87 8047 3.6 90 14:38 13.10.2019
6082 Clouds 13 1026 87 8047 3.6 90 14:19 13.10.2019
6083 Clouds 12 1026 82 11265 2.1 90 13:42 13.10.2019
6084 Clouds 12 1026 82 11265 2.1 90 13:23 13.10.2019
6085 Clouds 12 1026 82 11265 2.1 90 13:23 13.10.2019
6086 Clouds 12 1026 87 12874 2.1 50 12:59 13.10.2019
6087 Clouds 12 1026 87 12874 2.1 50 12:39 13.10.2019
6088 Clouds 12 1026 87 12874 2.1 50 12:21 13.10.2019
6089 Clouds 12 1026 82 16093 2.6 100 11:59 13.10.2019
6090 Clouds 13 1026 82 16093 2.6 100 11:39 13.10.2019
6091 Clouds 13 1026 82 16093 2.6 100 11:20 13.10.2019
6092 Clear 13 1026 72 16093 2.6 90 10:57 13.10.2019
6093 Clear 13 1026 72 16093 2.6 90 10:38 13.10.2019
6094 Clear 13 1026 72 16093 2.6 90 10:20 13.10.2019
6095 Clear 12 1026 76 16093 2.1 80 09:39 13.10.2019
6096 Clear 14 1027 67 16093 2.6 310 09:21 13.10.2019
6097 Clouds 14 1027 67 19312 3.6 310 08:44 13.10.2019
6098 Clouds 14 1027 67 19312 3.6 310 08:25 13.10.2019
6099 Clouds 14 1027 67 19312 3.1 290 07:52 13.10.2019
6100 Clouds 14 1027 67 19312 3.1 290 07:33 13.10.2019
6101 Clouds 15 1026 59 19312 3.1 340 06:53 13.10.2019
6102 Clouds 16 1026 59 19312 3.1 340 06:24 13.10.2019
6103 Clouds 18 1025 68 19312 4.1 70 05:19 13.10.2019
6104 Clouds 18 1025 56 16093 3.1 120 04:34 13.10.2019
6105 Clouds 18 1025 56 16093 3.1 120 04:34 13.10.2019
6106 Clouds 22 1024 35 16093 4.1 40 02:53 13.10.2019
6107 Clouds 22 1024 35 16093 4.1 40 02:30 13.10.2019
6108 Clouds 23 1024 38 12874 5.7 50 01:36 13.10.2019
6109 Clouds 23 1024 38 12874 5.7 50 01:36 13.10.2019
6110 Clouds 24 1024 38 12874 5.1 70 00:55 13.10.2019
6111 Clouds 24 1024 38 12874 5.1 70 00:37 13.10.2019
6112 Clouds 24 1024 38 12874 5.1 70 00:37 13.10.2019
6113 Clouds 24 1024 38 12874 5.1 70 00:18 13.10.2019
6114 Clouds 25 1024 38 12874 3.6 68.364 23:41 12.10.2019
6115 Clouds 25 1024 38 12874 3.6 68.364 23:22 12.10.2019
6116 Clouds 24 1025 38 12874 3.1 150 22:58 12.10.2019
6117 Clouds 24 1025 38 12874 3.1 150 22:58 12.10.2019
6118 Clouds 24 1025 38 12874 3.1 150 22:40 12.10.2019
6119 Clouds 24 1025 38 12874 3.1 150 22:40 12.10.2019
6120 Clouds 24 1025 38 12874 3.1 150 22:22 12.10.2019
6121 Clouds 23 1026 40 12874 2.1 260 21:57 12.10.2019
6122 Clouds 23 1026 40 12874 2.1 260 21:39 12.10.2019
6123 Clouds 23 1026 40 12874 2.1 260 21:20 12.10.2019
6124 Clouds 22 1026 43 12874 3.1 220 20:46 12.10.2019
6125 Clouds 22 1027 49 12874 2.6 340 20:28 12.10.2019
6126 Clouds 22 1028 49 12874 1.5 240 19:57 12.10.2019
6127 Clouds 21 1028 49 12874 1.5 240 19:36 12.10.2019
6128 Clouds 21 1028 49 12874 1.5 240 19:18 12.10.2019
6129 Clouds 19 1028 55 16093 1.5 240 18:41 12.10.2019
6130 Mist 20 1028 55 16093 1.5 240 18:23 12.10.2019
6131 Mist 18 1027 59 16093 2.6 40 17:45 12.10.2019
6132 Mist 18 1027 59 16093 2.6 40 17:21 12.10.2019
6133 Mist 16 1027 67 16093 2.6 360 16:58 12.10.2019
6134 Mist 16 1027 67 16093 2.6 360 16:58 12.10.2019
6135 Mist 16 1027 67 16093 2.6 360 16:40 12.10.2019
6136 Mist 16 1027 67 16093 2.6 360 16:19 12.10.2019
6137 Mist 15 1026 72 12874 3.1 350 15:45 12.10.2019
6138 Fog 16 1026 72 12874 3.1 350 15:26 12.10.2019
6139 Fog 16 1026 72 14484 3.1 20 14:59 12.10.2019
6140 Fog 16 1026 72 14484 3.1 20 14:38 12.10.2019
6141 Fog 16 1026 72 14484 3.1 20 14:20 12.10.2019
6142 Clouds 15 1026 72 14484 2.6 320 13:49 12.10.2019
6143 Clouds 15 1026 72 14484 2.6 320 13:31 12.10.2019
6144 Clouds 15 1025 72 14484 4.1 20 12:55 12.10.2019
6145 Clouds 15 1025 72 14484 4.1 20 12:37 12.10.2019
6146 Clouds 15 1025 72 14484 4.1 20 12:18 12.10.2019
6147 Clouds 15 1025 63 12874 2.6 10 11:40 12.10.2019
6148 Clouds 16 1025 63 12874 2.6 10 11:22 12.10.2019
6149 Clouds 15 1026 63 11265 3.6 20 10:57 12.10.2019
6150 Clouds 15 1026 63 11265 3.6 20 10:37 12.10.2019
6151 Clouds 16 1026 63 11265 3.6 20 10:19 12.10.2019
6152 -273 0 0 0 0 0 09:56 12.10.2019
6153 Clouds 15 1026 63 11265 3.1 360 09:56 12.10.2019
6154 Clouds 15 1026 63 11265 3.1 360 09:37 12.10.2019
6155 Clouds 16 1026 63 11265 3.1 360 09:19 12.10.2019
6156 Clouds 15 1027 67 11265 5.1 360 08:42 12.10.2019
6157 Clouds 16 1027 67 11265 5.1 360 08:22 12.10.2019
6158 Clouds 16 1027 68 11265 5.1 350 07:40 12.10.2019
6159 Clouds 16 1027 68 11265 5.1 350 07:22 12.10.2019
6160 Rain 16 1026 63 12874 7.2 20 05:54 12.10.2019
6161 Rain 17 1026 63 12874 7.2 20 05:25 12.10.2019
6162 Thunderstorm 18 1025 59 11265 5.1 20 04:29 12.10.2019
6163 Clouds 19 1024 60 8047 7.2 30 03:46 12.10.2019
6164 Thunderstorm 20 1024 72 4828 8.7 90 02:37 12.10.2019
6165 Rain 22 1022 63 8047 10.3 60 01:31 12.10.2019
6166 Clouds 25 1022 28 11265 6.7 30 00:44 12.10.2019
6167 Clouds 26 1022 28 11265 6.7 30 00:24 12.10.2019
6168 Clouds 25 1022 29 9656 3.6 310 23:41 11.10.2019
6169 Clouds 25 1022 29 9656 3.6 310 23:21 11.10.2019
6170 Clouds 25 1023 33 9656 2.1 320 22:59 11.10.2019
6171 Clouds 25 1023 33 9656 2.1 320 22:37 11.10.2019
6172 Clouds 25 1023 33 9656 2.1 320 22:37 11.10.2019
6173 Clouds 25 1023 33 9656 2.1 320 22:18 11.10.2019
6174 Clouds 26 1024 33 9656 6.2 340 21:40 11.10.2019
6175 Clouds 24 1024 33 9656 6.2 340 21:21 11.10.2019
6176 Clouds 23 1025 44 9656 3.1 290 20:54 11.10.2019
6177 Clouds 23 1025 44 9656 3.1 290 20:54 11.10.2019
6178 Clouds 23 1025 44 9656 3.1 290 20:36 11.10.2019
6179 Clouds 23 1025 44 9656 3.1 290 20:18 11.10.2019
6180 Clouds 22 1026 49 9656 3.1 310 19:54 11.10.2019
6181 Clouds 22 1026 49 9656 3.1 310 19:54 11.10.2019
6182 Clouds 22 1026 49 9656 3.1 310 19:36 11.10.2019
6183 Clouds 22 1026 49 9656 3.1 310 19:18 11.10.2019
6184 Clouds 22 1026 49 9656 3.1 310 19:18 11.10.2019
6185 Clouds 20 1027 56 9656 1.5 30 18:39 11.10.2019
6186 Clouds 20 1027 56 9656 1.5 30 18:19 11.10.2019
6187 Drizzle 19 1027 63 9656 0.84 35.411 17:59 11.10.2019
6188 Drizzle 18 1027 63 9656 0.84 35.411 17:38 11.10.2019
6189 Drizzle 18 1027 63 9656 0.84 35.411 17:19 11.10.2019
6190 Rain 17 1027 63 9656 0.84 35.411 16:59 11.10.2019
6191 Rain 17 1027 63 9656 0.84 35.411 16:39 11.10.2019
6192 Rain 17 1027 63 9656 0.84 35.411 16:39 11.10.2019
6193 Rain 17 1027 63 9656 0.84 35.411 16:39 11.10.2019
6194 Rain 17 1027 72 9656 2.1 70 16:19 11.10.2019
6195 Fog 15 1026 77 9656 3.1 60 15:55 11.10.2019
6196 Fog 15 1026 77 9656 3.1 60 15:36 11.10.2019
6197 Fog 15 1026 77 9656 3.1 60 15:18 11.10.2019
6198 Fog 15 1026 77 9656 3.1 60 15:18 11.10.2019
6199 Thunderstorm 15 1025 77 11265 2.1 80 14:42 11.10.2019
6200 Thunderstorm 15 1025 77 11265 2.1 80 14:23 11.10.2019
6201 Clouds 14 1025 77 11265 1.5 60 13:47 11.10.2019
6202 Clouds 14 1025 77 11265 1.5 60 13:26 11.10.2019
6203 Clouds 14 1025 82 12874 2.1 60 12:58 11.10.2019
6204 Clouds 14 1025 82 12874 2.1 60 12:40 11.10.2019
6205 Clouds 14 1025 82 12874 2.1 60 12:21 11.10.2019
6206 Clouds 14 1025 77 12874 1 30 11:59 11.10.2019
6207 Clouds 14 1025 77 12874 1 30 11:39 11.10.2019
6208 Clouds 14 1025 77 12874 1 30 11:21 11.10.2019
6209 Clouds 15 1025 72 14484 3.1 40 10:56 11.10.2019
6210 Clouds 15 1025 72 14484 3.1 40 10:37 11.10.2019
6211 Clouds 16 1025 72 14484 3.1 40 10:18 11.10.2019
6212 Rain 16 1025 63 16093 1.38 293.962 09:42 11.10.2019
6213 Rain 16 1025 63 16093 0.65 212.857 09:21 11.10.2019
6214 Clouds 16 1025 72 17702 2.1 350 08:59 11.10.2019
6215 Clouds 16 1025 72 17702 2.1 350 08:39 11.10.2019
6216 Clouds 17 1025 72 17702 2.1 350 08:20 11.10.2019
6217 Clouds 17 1028 87 8047 3.1 300 07:54 11.10.2019
6218 Rain 17 1025 68 17702 3.1 280 07:34 11.10.2019
6219 Clouds 17 1026 68 16093 2.6 30 06:50 11.10.2019
6220 Clouds 17 1026 68 16093 2.6 30 06:25 11.10.2019
6221 Clouds 18 1025 56 16093 4.1 60 05:48 11.10.2019
6222 Clouds 18 1025 56 16093 4.1 60 05:30 11.10.2019
6223 Clouds 19 1024 49 14484 4.6 110 04:58 11.10.2019
6224 Clouds 18 1023 49 14484 2.1 330 03:40 11.10.2019
6225 Clouds 23 1021 38 11265 5.7 120 01:26 11.10.2019
6226 Thunderstorm 24 1021 36 11265 6.2 130 00:41 11.10.2019
6227 Thunderstorm 23 1021 49 9656 3.1 50 00:20 11.10.2019
6228 Rain 23 1022 60 8047 5.7 50 23:41 10.10.2019
6229 Rain 23 1022 60 8047 5.7 50 23:20 10.10.2019
6230 Rain 24 1022 38 9656 4.1 110 22:56 10.10.2019
6231 Clouds 24 1023 36 9656 3.6 90 22:36 10.10.2019
6232 Clouds 25 1023 36 9656 3.6 90 22:18 10.10.2019
6233 Clouds 25 1023 34 9656 1.5 230 21:42 10.10.2019
6234 Clouds 25 1023 34 9656 1.5 230 21:42 10.10.2019
6235 Clouds 24 1024 38 9656 4.1 110 21:22 10.10.2019
6236 Clouds 24 1024 38 8047 2.6 170 20:59 10.10.2019
6237 Clouds 23 1024 38 8047 2.6 170 20:40 10.10.2019
6238 Clouds 23 1025 46 6437 1.5 40 20:20 10.10.2019
6239 Clouds 22 1026 49 8047 2.1 30 19:57 10.10.2019
6240 Clouds 22 1026 49 8047 2.1 30 19:39 10.10.2019
6241 Clouds 21 1027 60 8047 2.1 130 19:19 10.10.2019
6242 Clouds 19 1027 63 8047 2.1 30 18:42 10.10.2019
6243 Clouds 19 1027 63 8047 2.1 30 18:21 10.10.2019
6244 Haze 18 1027 63 8047 1 160 17:59 10.10.2019
6245 Haze 18 1027 63 8047 1 160 17:40 10.10.2019
6246 Haze 18 1027 72 8047 3.1 80 17:19 10.10.2019
6247 Haze 17 1029 77 4828 2.1 90 16:57 10.10.2019
6248 Haze 16 1027 72 9656 2.6 90 16:38 10.10.2019
6249 Haze 16 1027 72 9656 2.6 90 16:20 10.10.2019
6250 Haze 14 1026 82 9656 2.6 60 15:42 10.10.2019
6251 Haze 14 1026 82 9656 2.6 60 15:23 10.10.2019
6252 Rain 15 1026 82 8047 2.1 80 14:59 10.10.2019
6253 Rain 15 1026 82 8047 2.1 80 14:37 10.10.2019
6254 Rain 15 1026 82 8047 2.1 80 14:19 10.10.2019
6255 Clouds 14 1025 82 8047 3.1 90 13:58 10.10.2019
6256 Clouds 14 1025 82 8047 3.1 90 13:39 10.10.2019
6257 Clouds 14 1025 82 8047 3.1 90 13:18 10.10.2019
6258 Rain 14 1025 82 8047 3.1 90 12:42 10.10.2019
6259 Clouds 14 1025 77 8047 1.5 260 12:21 10.10.2019
6260 Clouds 14 1025 72 9656 0.93 44.344 11:58 10.10.2019
6261 Clouds 14 1025 72 9656 0.93 44.344 11:40 10.10.2019
6262 Clouds 14 1025 72 9656 0.93 44.344 11:19 10.10.2019
6263 Clouds 14 1025 72 9656 1.5 80 10:47 10.10.2019
6264 Clouds 14 1025 72 9656 1.5 80 10:47 10.10.2019
6265 Clouds 14 1025 72 9656 1.5 80 10:28 10.10.2019
6266 Clouds 14 1025 72 9656 1.5 80 10:28 10.10.2019
6267 Clouds 15 1025 67 11265 2.1 310 09:59 10.10.2019
6268 Clouds 15 1025 67 11265 2.1 310 09:41 10.10.2019
6269 Clouds 15 1025 67 11265 2.1 310 09:23 10.10.2019
6270 Clouds 15 1026 67 11265 2.6 280 08:59 10.10.2019
6271 Clouds 15 1026 67 11265 2.6 280 08:40 10.10.2019
6272 Clouds 16 1026 67 11265 2.6 280 08:20 10.10.2019
6273 Clouds 16 1026 63 12874 2.6 20 07:47 10.10.2019
6274 Clouds 16 1026 63 12874 2.6 20 07:26 10.10.2019
6275 Clouds 16 1025 63 12874 3.6 20 06:55 10.10.2019
6276 Clouds 17 1025 63 12874 3.6 20 06:36 10.10.2019
6277 Clouds 17 1025 59 12874 4.1 360 05:39 10.10.2019
6278 Clouds 17 1025 59 12874 4.1 360 05:18 10.10.2019
6279 Rain 18 1023 60 16093 5.1 20 04:34 10.10.2019
6280 Thunderstorm 20 1022 63 9656 5.1 300 02:29 10.10.2019
6281 Rain 22 1022 46 12874 4.1 310 01:37 10.10.2019
6282 Ash 22 1022 49 12874 3.6 300 01:18 10.10.2019
6283 Rain 23 1022 35 11265 4.6 360 00:29 10.10.2019
6284 Ash 25 1022 33 14484 2.6 110 23:42 09.10.2019
6285 Ash 25 1022 33 14484 2.6 110 23:24 09.10.2019
6286 Clouds 24 1024 36 14484 4.1 60 22:59 09.10.2019
6287 Clouds 24 1024 36 14484 4.1 60 22:41 09.10.2019
6288 Clouds 24 1024 36 14484 4.1 60 22:22 09.10.2019
6289 Clouds 23 1025 38 16093 1.5 210 21:56 09.10.2019
6290 Clouds 23 1025 38 16093 1.5 210 21:56 09.10.2019
6291 Clouds 23 1025 38 16093 1.5 210 21:38 09.10.2019
6292 Clouds 23 1025 38 16093 1.5 210 21:38 09.10.2019
6293 Clouds 23 1025 38 16093 1.5 210 21:18 09.10.2019
6294 Clouds 22 1027 43 16093 3.1 90 20:54 09.10.2019
6295 Clouds 22 1027 43 16093 3.1 90 20:36 09.10.2019
6296 Clouds 22 1027 43 16093 3.1 90 20:18 09.10.2019
6297 Clouds 22 1027 43 16093 3.1 90 20:18 09.10.2019
6298 Clouds 22 1027 43 16093 3.1 90 20:18 09.10.2019
6299 Clouds 21 1027 45 16093 1.5 140 19:43 09.10.2019
6300 Clouds 21 1027 45 16093 1.5 140 19:22 09.10.2019
6301 Clouds 19 1028 48 16093 1.5 50 18:39 09.10.2019
6302 Clouds 19 1028 48 16093 1.5 50 18:21 09.10.2019
6303 Haze 18 1028 52 16093 3.1 20 17:58 09.10.2019
6304 Haze 18 1028 52 16093 3.1 20 17:40 09.10.2019
6305 Haze 18 1028 52 16093 3.1 20 17:22 09.10.2019
6306 Haze 15 1028 63 16093 3.6 20 16:57 09.10.2019
6307 Haze 15 1028 63 16093 3.6 20 16:39 09.10.2019
6308 Haze 15 1028 63 16093 3.6 20 16:20 09.10.2019
6309 Haze 15 1028 63 16093 3.6 20 16:20 09.10.2019
6310 Haze 14 1027 67 16093 3.6 360 15:56 09.10.2019
6311 Haze 14 1027 67 16093 3.6 360 15:37 09.10.2019
6312 Haze 14 1027 67 16093 3.6 360 15:37 09.10.2019
6313 Haze 14 1027 67 16093 3.6 360 15:18 09.10.2019
6314 Clouds 13 1027 67 19312 4.1 10 14:45 09.10.2019
6315 Clouds 12 1027 67 19312 4.1 10 14:19 09.10.2019
6316 Clouds 12 1026 67 19312 4.1 350 13:59 09.10.2019
6317 Clouds 13 1026 67 19312 4.1 350 13:38 09.10.2019
6318 Clouds 13 1026 67 19312 4.1 350 13:18 09.10.2019
6319 Clouds 12 1026 72 19312 3.6 350 12:44 09.10.2019
6320 Clouds 12 1026 72 19312 3.6 350 12:44 09.10.2019
6321 Clouds 13 1026 72 19312 3.6 350 12:23 09.10.2019
6322 Clouds 12 1026 67 19312 3.1 340 11:58 09.10.2019
6323 Clouds 12 1026 67 19312 3.1 340 11:40 09.10.2019
6324 Clouds 13 1026 67 19312 3.1 340 11:20 09.10.2019
6325 Clouds 13 1027 72 16093 2.1 300 10:58 09.10.2019
6326 Clouds 13 1027 72 16093 2.1 300 10:40 09.10.2019
6327 Clouds 13 1027 72 16093 2.1 300 10:18 09.10.2019
6328 Clouds 13 1027 77 16093 3.6 300 09:43 09.10.2019
6329 Clouds 13 1027 77 16093 3.6 300 09:20 09.10.2019
6330 Clouds 13 1027 77 16093 4.1 300 08:57 09.10.2019
6331 Clouds 14 1027 77 16093 4.1 300 08:37 09.10.2019
6332 Clouds 14 1027 77 16093 4.1 300 08:18 09.10.2019
6333 Clouds 14 1028 77 16093 4.1 300 07:46 09.10.2019
6334 Clouds 14 1028 77 16093 4.1 300 07:24 09.10.2019
6335 Clouds 14 1028 77 16093 4.1 300 07:24 09.10.2019
6336 Clouds 15 1028 67 16093 3.1 360 06:54 09.10.2019
6337 Clouds 15 1028 67 16093 3.1 360 06:20 09.10.2019
6338 Clouds 16 1027 63 16093 3.1 10 05:46 09.10.2019
6339 Clouds 16 1027 67 16093 4.1 340 04:41 09.10.2019
6340 Clouds 17 1026 63 16093 2.1 340 03:24 09.10.2019
6341 Clouds 20 1025 59 16093 3.6 320 01:48 09.10.2019
6342 Clouds 20 1025 59 16093 3.6 320 01:22 09.10.2019
6343 Clouds 20 1025 63 16093 4.1 300 00:58 09.10.2019
6344 Clouds 20 1025 63 16093 4.1 300 00:40 09.10.2019
6345 Clouds 20 1025 63 16093 4.1 300 00:21 09.10.2019
6346 Clouds 17 1025 67 16093 4.6 310 23:57 08.10.2019
6347 Clouds 17 1025 67 16093 4.6 310 23:36 08.10.2019
6348 Clouds 20 1025 67 16093 4.6 310 23:18 08.10.2019
6349 Clouds 20 1026 63 12874 3.6 330 22:39 08.10.2019
6350 Clouds 20 1026 63 12874 3.6 330 22:20 08.10.2019
6351 Clouds 20 1026 63 12874 3.6 330 22:20 08.10.2019
6352 Clouds 20 1026 63 12874 3.6 330 22:20 08.10.2019
6353 Clouds 20 1027 59 11265 4.1 340 21:57 08.10.2019
6354 Clouds 20 1027 59 11265 4.1 340 21:39 08.10.2019
6355 Clouds 20 1027 59 11265 4.1 340 21:19 08.10.2019
6356 Clouds 19 1028 63 11265 4.6 40 20:57 08.10.2019
6357 Clouds 19 1028 63 11265 4.6 40 20:39 08.10.2019
6358 Clouds 19 1028 63 11265 4.6 40 20:21 08.10.2019
6359 Clouds 17 1028 59 12874 2.1 360 19:58 08.10.2019
6360 Clouds 17 1028 59 12874 2.1 360 19:58 08.10.2019
6361 Clouds 17 1028 59 12874 2.1 360 19:58 08.10.2019
6362 Clouds 17 1028 59 12874 2.1 360 19:40 08.10.2019
6363 Clouds 19 1028 59 12874 2.1 360 19:21 08.10.2019
6364 Clouds 19 1028 59 12874 2.1 360 19:21 08.10.2019
6365 Clouds 18 1029 63 12874 4.1 20 18:55 08.10.2019
6366 Clouds 18 1029 63 12874 4.1 20 18:36 08.10.2019
6367 Clouds 17 1029 63 12874 4.1 20 18:18 08.10.2019
6368 Clouds 18 1029 63 8047 3.6 280 17:40 08.10.2019
6369 Clouds 17 1028 62 14484 4.1 20 17:21 08.10.2019
6370 Clouds 13 1028 62 16093 4.1 360 16:59 08.10.2019
6371 Clouds 13 1028 62 16093 4.1 360 16:40 08.10.2019
6372 Clouds 13 1028 62 16093 4.1 360 16:21 08.10.2019
6373 Clouds 14 1027 62 16093 3.6 10 15:41 08.10.2019
6374 Clouds 14 1027 62 16093 3.6 10 15:22 08.10.2019
6375 Clouds 14 1027 62 16093 3.6 10 15:22 08.10.2019
6376 Clouds 15 1027 67 16093 4.1 40 14:58 08.10.2019
6377 Clouds 14 1027 67 16093 4.1 40 14:39 08.10.2019
6378 Clouds 14 1027 67 16093 4.1 40 14:21 08.10.2019
6379 Clouds 14 1027 67 16093 4.1 350 13:57 08.10.2019
6380 Clouds 14 1027 67 16093 4.1 350 13:38 08.10.2019
6381 Clouds 14 1027 67 16093 4.1 350 13:19 08.10.2019
6382 Clouds 14 1027 67 16093 6.2 20 12:58 08.10.2019
6383 Clouds 14 1027 67 16093 6.2 20 12:37 08.10.2019
6384 Clouds 14 1027 67 16093 6.2 20 12:18 08.10.2019
6385 Clouds 14 1027 72 16093 2.1 20 11:42 08.10.2019
6386 Clouds 14 1027 72 16093 2.1 20 11:24 08.10.2019
6387 Clouds 14 1027 72 12874 5.1 40 10:56 08.10.2019
6388 Clouds 14 1027 72 12874 5.1 40 10:37 08.10.2019
6389 Clouds 14 1027 72 12874 5.1 40 10:19 08.10.2019
6390 Haze 14 1027 72 8047 2.6 350 09:55 08.10.2019
6391 Haze 14 1027 72 8047 2.6 350 09:37 08.10.2019
6392 Haze 14 1027 72 8047 2.6 350 09:19 08.10.2019
6393 Clouds 15 1028 63 16093 3.6 10 08:42 08.10.2019
6394 Clouds 15 1028 63 16093 3.6 10 08:23 08.10.2019
6395 Clouds 17 1028 63 16093 3.1 360 07:44 08.10.2019
6396 Clouds 17 1028 63 16093 3.1 360 07:21 08.10.2019
6397 Clouds 17 1028 63 16093 3.1 360 07:21 08.10.2019
6398 Clouds 16 1028 63 14484 5.1 10 06:49 08.10.2019
6399 Clouds 17 1028 63 14484 5.1 10 06:28 08.10.2019
6400 Clouds 16 1028 63 12874 6.2 10 05:45 08.10.2019
6401 Rain 17 1028 59 12874 5.1 10 05:25 08.10.2019
6402 Clouds 18 1026 55 16093 9.3 20 03:33 08.10.2019
6403 Clouds 20 1025 48 16093 8.2 10 02:48 08.10.2019
6404 Clouds 21 1025 40 16093 8.2 10 02:29 08.10.2019
6405 Clouds 23 1024 33 16093 6.7 10 01:43 08.10.2019
6406 Clouds 22 1024 33 16093 6.7 10 01:25 08.10.2019
6407 Clouds 24 1024 31 16093 3.94 32.283 00:38 08.10.2019
6408 Clouds 24 1024 31 16093 5.13 34.108 00:19 08.10.2019
6409 Clouds 24 1024 31 16093 6.2 50 23:39 07.10.2019
6410 Clouds 24 1024 31 16093 6.2 50 23:19 07.10.2019
6411 Clouds 23 1025 35 16093 6.2 40 22:55 07.10.2019
6412 Clouds 23 1025 35 16093 6.2 40 22:55 07.10.2019
6413 Clouds 23 1025 35 16093 6.2 40 22:37 07.10.2019
6414 Clouds 23 1025 35 16093 6.2 40 22:19 07.10.2019
6415 Clouds 22 1026 40 14484 5.1 350 21:55 07.10.2019
6416 Clouds 22 1026 40 14484 5.1 350 21:37 07.10.2019
6417 Clouds 22 1026 40 14484 5.1 350 21:18 07.10.2019
6418 Clouds 21 1027 42 14484 4.1 40 20:56 07.10.2019
6419 Clouds 21 1027 42 14484 4.1 40 20:38 07.10.2019
6420 Clouds 21 1027 42 14484 4.1 40 20:38 07.10.2019
6421 Clouds 21 1027 42 14484 4.1 40 20:19 07.10.2019
6422 Clouds 20 1028 48 14484 5.1 30 19:54 07.10.2019
6423 Clouds 20 1028 48 14484 5.1 30 19:36 07.10.2019
6424 Clouds 20 1028 48 14484 5.1 30 19:18 07.10.2019
6425 Clouds 19 1028 45 12874 5.7 30 18:43 07.10.2019
6426 Clouds 19 1028 45 12874 5.7 30 18:19 07.10.2019
6427 Clouds 17 1028 59 12874 3.1 50 17:59 07.10.2019
6428 Clouds 17 1028 59 12874 3.1 50 17:41 07.10.2019
6429 Clouds 17 1028 59 12874 3.1 50 17:19 07.10.2019
6430 Ash 14 1028 72 12874 2.1 80 16:46 07.10.2019
6431 Ash 14 1028 72 12874 2.1 80 16:46 07.10.2019
6432 Ash 14 1028 72 12874 2.1 80 16:28 07.10.2019
6433 Ash 12 1027 82 12874 2.1 80 15:59 07.10.2019
6434 Ash 12 1027 82 12874 2.1 80 15:40 07.10.2019
6435 Ash 12 1027 82 12874 2.1 80 15:21 07.10.2019
6436 Mist 12 1027 76 12874 3.1 310 14:42 07.10.2019
6437 Mist 11 1027 76 12874 3.1 310 14:23 07.10.2019
6438 Clouds 11 1027 76 12874 2.6 310 13:45 07.10.2019
6439 Clouds 12 1027 76 12874 2.6 310 13:21 07.10.2019
6440 Clouds 11 1026 76 16093 2.6 310 12:59 07.10.2019
6441 Clouds 11 1026 76 16093 2.6 310 12:40 07.10.2019
6442 Clouds 11 1026 76 16093 2.6 310 12:40 07.10.2019
6443 Clouds 11 1026 76 16093 2.6 310 12:21 07.10.2019
6444 Clouds 11 1026 76 16093 2.6 310 12:21 07.10.2019
6445 Clouds 11 1026 76 16093 2.6 310 12:21 07.10.2019
6446 Clouds 12 1026 76 16093 1.5 310 11:59 07.10.2019
6447 Clouds 12 1026 76 16093 1.5 310 11:59 07.10.2019
6448 Clouds 11 1026 76 16093 1.5 310 11:40 07.10.2019
6449 Clouds 12 1026 76 16093 1.5 310 11:21 07.10.2019
6450 Clouds 12 1026 76 16093 1.5 310 11:21 07.10.2019
6451 Clouds 12 1027 71 16093 2.6 340 10:57 07.10.2019
6452 Clouds 12 1027 71 16093 2.6 340 10:39 07.10.2019
6453 Clouds 12 1027 71 16093 2.6 340 10:20 07.10.2019
6454 Clouds 13 1027 67 16093 2.6 360 09:39 07.10.2019
6455 Clouds 13 1027 67 16093 2.6 360 09:39 07.10.2019
6456 Clouds 13 1027 67 16093 2.6 360 09:21 07.10.2019
6457 Clear 12 1029 76 11265 2.6 280 08:44 07.10.2019
6458 Clear 14 1029 76 11265 2.6 280 08:21 07.10.2019
6459 Clouds 14 1028 63 16093 3.1 360 07:56 07.10.2019
6460 Clouds 14 1028 63 16093 3.1 360 07:36 07.10.2019
6461 Clouds 14 1028 63 16093 3.1 360 07:18 07.10.2019
6462 Clouds 15 1028 59 16093 5.1 30 06:43 07.10.2019
6463 Clouds 15 1028 59 16093 5.1 30 06:20 07.10.2019
6464 Clouds 15 1027 59 16093 7.2 20 05:27 07.10.2019
6465 Clouds 16 1026 55 16093 7.7 40 04:54 07.10.2019
6466 Clouds 17 1025 55 16093 7.7 40 03:48 07.10.2019
6467 Clouds 17 1025 55 16093 7.7 40 03:48 07.10.2019
6468 Clouds 18 1025 49 16093 8.7 50 03:30 07.10.2019
6469 Clouds 21 1024 49 16093 9.8 60 02:39 07.10.2019
6470 Clouds 22 1023 35 14484 7.2 10 02:19 07.10.2019
6471 Clouds 24 1023 29 12874 6.2 20 01:24 07.10.2019
6472 Clouds 24 1023 25 12874 3.1 340 00:53 07.10.2019
6473 Clouds 24 1023 25 12874 3.1 340 00:26 07.10.2019
6474 Clouds 24 1024 29 12874 4.6 80 23:59 06.10.2019
6475 Clouds 24 1024 29 12874 4.6 80 23:40 06.10.2019
6476 Clouds 24 1024 29 12874 4.6 80 23:20 06.10.2019
6477 Clouds 24 1024 31 12874 5.1 30 22:56 06.10.2019
6478 Clouds 24 1024 31 12874 5.1 30 22:37 06.10.2019
6479 Clouds 24 1024 31 12874 5.1 30 22:19 06.10.2019
6480 Clouds 22 1026 40 12874 5.1 60 21:55 06.10.2019
6481 Clouds 22 1026 40 12874 5.1 60 21:36 06.10.2019
6482 Clouds 22 1026 40 12874 5.1 60 21:18 06.10.2019
6483 Clouds 22 1026 35 12874 3.1 20 20:54 06.10.2019
6484 Clouds 22 1027 45 12874 3.6 40 20:36 06.10.2019
6485 Clouds 22 1027 45 12874 3.6 40 20:36 06.10.2019
6486 Clouds 22 1027 45 12874 3.6 40 20:36 06.10.2019
6487 Clouds 21 1027 45 12874 3.6 40 20:18 06.10.2019
6488 Clouds 20 1028 55 12874 2.5 38.137 19:55 06.10.2019
6489 Clouds 20 1028 55 12874 2.5 38.137 19:55 06.10.2019
6490 Clouds 20 1028 55 12874 2.5 38.137 19:36 06.10.2019
6491 Clouds 20 1028 55 12874 2.5 38.137 19:18 06.10.2019
6492 Clouds 17 1029 59 12874 1.5 140 18:55 06.10.2019
6493 Clouds 17 1029 59 12874 1.5 140 18:55 06.10.2019
6494 Clouds 17 1029 59 12874 1.5 140 18:36 06.10.2019
6495 Clouds 18 1029 59 12874 1.5 140 18:18 06.10.2019
6496 Clouds 18 1029 59 12874 1.5 140 18:18 06.10.2019
6497 Clouds 17 1029 67 14484 2.6 70 17:42 06.10.2019
6498 Clouds 16 1029 67 14484 2.6 70 17:20 06.10.2019
6499 Haze 15 1028 77 14484 3.6 80 16:55 06.10.2019
6500 Haze 15 1028 77 14484 3.6 80 16:55 06.10.2019
6501 Haze 15 1028 77 14484 3.6 80 16:37 06.10.2019
6502 Haze 15 1028 77 14484 3.6 80 16:18 06.10.2019
6503 Mist 13 1027 82 12874 2.1 70 15:42 06.10.2019
6504 Mist 13 1027 82 12874 2.1 70 15:42 06.10.2019
6505 Mist 13 1027 82 12874 2.1 70 15:21 06.10.2019
6506 Mist 13 1027 76 9656 1 80 14:44 06.10.2019
6507 Mist 12 1027 76 9656 1 80 14:26 06.10.2019
6508 Mist 11 1027 71 9656 0.9 65.029 13:59 06.10.2019
6509 Mist 11 1027 71 9656 0.9 65.029 13:40 06.10.2019
6510 Mist 12 1027 71 9656 0.89 61.096 13:21 06.10.2019
6511 Clouds 12 1027 72 11265 2.1 330 12:58 06.10.2019
6512 Clouds 13 1027 72 11265 2.1 330 12:39 06.10.2019
6513 Clouds 13 1027 72 11265 2.1 330 12:21 06.10.2019
6514 Clouds 13 1027 67 11265 2.6 360 11:58 06.10.2019
6515 Clouds 13 1027 67 11265 2.6 360 11:39 06.10.2019
6516 Clouds 13 1027 67 11265 2.6 360 11:20 06.10.2019
6517 Clouds 13 1027 67 11265 3.1 20 10:54 06.10.2019
6518 Clouds 13 1027 67 11265 3.1 20 10:36 06.10.2019
6519 Clouds 13 1027 67 11265 3.1 20 10:18 06.10.2019
6520 Clouds 14 1027 63 12874 3.6 20 09:40 06.10.2019
6521 Clouds 14 1027 63 12874 3.6 20 09:19 06.10.2019
6522 Clouds 14 1027 63 12874 3.6 20 09:19 06.10.2019
6523 Clouds 14 1028 63 14484 3.1 350 08:47 06.10.2019
6524 Clouds 14 1028 63 14484 3.1 350 08:21 06.10.2019
6525 Clouds 15 1028 55 14484 6.2 340 07:57 06.10.2019
6526 Clouds 15 1028 55 14484 6.2 340 07:38 06.10.2019
6527 Clouds 15 1028 59 14484 3.6 350 06:39 06.10.2019
6528 Clouds 16 1027 63 14484 4.6 360 05:36 06.10.2019
6529 Clouds 17 1026 59 12874 8.2 40 04:29 06.10.2019
6530 Clouds 21 1024 52 12874 7.7 60 02:48 06.10.2019
6531 Clouds 21 1024 43 11265 6.7 40 02:28 06.10.2019
6532 Clouds 22 1023 31 11265 6.2 30 01:46 06.10.2019
6533 Clouds 23 1023 31 11265 6.2 30 01:27 06.10.2019
6534 Clouds 23 1023 31 11265 6.2 30 01:27 06.10.2019
6535 Clouds 24 1023 31 11265 3.1 330 00:59 06.10.2019
6536 Clouds 24 1023 31 11265 3.1 330 00:29 06.10.2019
6537 Clouds 24 1024 33 9656 4.1 20 23:46 05.10.2019
6538 Clouds 24 1024 33 9656 4.1 20 23:23 05.10.2019
6539 Clouds 24 1025 38 9656 2.6 270 22:59 05.10.2019
6540 Clouds 23 1025 38 9656 2.6 270 22:40 05.10.2019
6541 Clouds 23 1025 38 9656 2.6 270 22:21 05.10.2019
6542 Clouds 23 1026 35 9656 3.1 350 21:57 05.10.2019
6543 Clouds 23 1026 35 9656 3.1 350 21:57 05.10.2019
6544 Clouds 23 1026 35 9656 3.1 350 21:39 05.10.2019
6545 Clouds 23 1026 35 9656 3.1 350 21:20 05.10.2019
6546 Clouds 22 1027 49 9656 2.1 80 20:56 05.10.2019
6547 Clouds 22 1027 49 9656 2.1 80 20:38 05.10.2019
6548 Clouds 22 1027 49 9656 2.1 80 20:19 05.10.2019
6549 Clouds 21 1029 52 9656 2.1 40 19:39 05.10.2019
6550 Clouds 21 1029 52 9656 2.1 40 19:21 05.10.2019
6551 Haze 20 1029 59 9656 1.92 31.516 18:57 05.10.2019
6552 Haze 20 1029 59 9656 1.92 31.516 18:39 05.10.2019
6553 Haze 20 1029 59 9656 0.68 44.643 18:20 05.10.2019
6554 Mist 17 1029 67 9656 2.6 40 17:46 05.10.2019
6555 Mist 17 1029 67 9656 2.6 40 17:28 05.10.2019
6556 Fog 16 1029 77 9656 3.1 50 16:59 05.10.2019
6557 Fog 16 1029 77 9656 3.1 50 16:41 05.10.2019
6558 Fog 16 1029 77 9656 3.1 50 16:21 05.10.2019
6559 Fog 14 1030 93 201 2.1 330 15:57 05.10.2019
6560 Fog 14 1030 93 201 2.1 330 15:39 05.10.2019
6561 Mist 15 1028 82 11265 3.6 70 15:21 05.10.2019
6562 Mist 15 1028 77 14484 3.6 70 14:56 05.10.2019
6563 Mist 15 1028 77 14484 3.6 70 14:56 05.10.2019
6564 Mist 15 1028 77 14484 3.6 70 14:56 05.10.2019
6565 Mist 15 1028 77 14484 3.6 70 14:38 05.10.2019
6566 Mist 13 1028 77 14484 3.6 70 14:19 05.10.2019
6567 Mist 14 1028 77 16093 2.1 80 13:41 05.10.2019
6568 Mist 14 1028 77 16093 2.1 80 13:21 05.10.2019
6569 Clouds 14 1028 72 16093 3.1 80 12:46 05.10.2019
6570 Clouds 14 1028 72 16093 3.1 80 12:21 05.10.2019
6571 Clouds 14 1028 67 12874 2.1 20 11:54 05.10.2019
6572 Clouds 14 1028 67 12874 2.1 20 11:36 05.10.2019
6573 Clouds 14 1028 67 12874 2.1 20 11:18 05.10.2019
6574 Clouds 14 1028 67 12874 4.1 20 10:44 05.10.2019
6575 Clouds 14 1028 67 12874 4.1 20 10:24 05.10.2019
6576 Clouds 15 1029 63 12874 4.1 20 09:57 05.10.2019
6577 Clouds 15 1029 63 12874 4.1 20 09:38 05.10.2019
6578 Clouds 15 1029 63 12874 4.1 20 09:20 05.10.2019
6579 Clouds 16 1030 87 8047 1.17 27.005 08:39 05.10.2019
6580 Clouds 16 1030 87 8047 1.17 27.005 08:39 05.10.2019
6581 Rain 16 1029 59 14484 3.1 310 08:19 05.10.2019
6582 Rain 16 1029 59 14484 3.6 40 07:56 05.10.2019
6583 Rain 16 1029 59 14484 3.6 40 07:33 05.10.2019
6584 Clouds 15 1029 59 14484 4.1 30 06:58 05.10.2019
6585 Clouds 15 1029 59 14484 4.1 30 06:26 05.10.2019
6586 Clouds 15 1028 59 14484 5.1 40 05:40 05.10.2019
6587 Clouds 16 1026 59 16093 5.7 60 03:42 05.10.2019
6588 Clouds 16 1026 59 16093 5.7 60 03:42 05.10.2019
6589 Clouds 19 1026 59 16093 5.7 60 03:22 05.10.2019
6590 Clouds 22 1024 33 9656 1 60 01:30 05.10.2019
6591 Thunderstorm 21 1024 33 9656 2.1 110 00:58 05.10.2019
6592 Thunderstorm 21 1024 33 9656 2.1 110 00:40 05.10.2019
6593 Thunderstorm 21 1024 33 9656 2.1 110 00:22 05.10.2019
6594 Thunderstorm 21 1025 38 8047 2.1 310 23:43 04.10.2019
6595 Thunderstorm 21 1025 38 8047 2.1 310 23:43 04.10.2019
6596 Thunderstorm 21 1025 38 8047 2.1 310 23:24 04.10.2019
6597 Clouds 23 1026 43 9656 2.1 150 22:58 04.10.2019
6598 Clouds 22 1026 43 9656 2.1 150 22:38 04.10.2019
6599 Clouds 22 1026 43 9656 2.1 150 22:38 04.10.2019
6600 Clouds 22 1026 43 9656 2.1 150 22:19 04.10.2019
6601 Clouds 22 1027 45 9656 2.1 50 21:55 04.10.2019
6602 Clouds 22 1027 45 9656 2.1 50 21:36 04.10.2019
6603 Clouds 22 1027 45 9656 2.1 50 21:36 04.10.2019
6604 Clouds 22 1027 45 9656 2.1 50 21:18 04.10.2019
6605 Clouds 21 1028 49 9656 2.6 360 20:42 04.10.2019
6606 Clouds 21 1028 49 9656 2.6 360 20:23 04.10.2019
6607 Clouds 21 1028 52 9656 2.1 70 19:57 04.10.2019
6608 Clouds 21 1028 52 9656 2.1 70 19:39 04.10.2019
6609 Clouds 20 1029 59 11265 1.5 60 19:20 04.10.2019
6610 Clouds 19 1029 55 11265 3.1 40 18:56 04.10.2019
6611 Clouds 19 1029 55 11265 3.1 40 18:37 04.10.2019
6612 Clouds 19 1029 55 11265 3.1 40 18:18 04.10.2019
6613 Clouds 17 1029 63 12874 4.6 50 17:41 04.10.2019
6614 Clouds 17 1029 63 12874 4.6 50 17:22 04.10.2019
6615 Haze 15 1029 72 12874 3.6 40 16:58 04.10.2019
6616 Haze 15 1029 72 12874 3.6 40 16:39 04.10.2019
6617 Haze 15 1029 72 12874 3.6 40 16:39 04.10.2019
6618 Haze 15 1029 72 12874 3.6 40 16:18 04.10.2019
6619 Haze 15 1029 72 12874 3.6 40 16:18 04.10.2019
6620 Haze 15 1029 72 12874 3.6 40 16:18 04.10.2019
6621 Mist 14 1028 71 12874 3.6 50 15:56 04.10.2019
6622 Mist 14 1028 71 12874 3.6 50 15:38 04.10.2019
6623 Mist 14 1028 71 12874 3.6 50 15:38 04.10.2019
6624 Mist 14 1028 71 12874 3.6 50 15:19 04.10.2019
6625 Haze 14 1029 87 3219 1.18 35.571 14:55 04.10.2019
6626 Haze 14 1029 87 3219 1.18 35.571 14:37 04.10.2019
6627 Fog 14 1028 76 11265 2.1 20 14:19 04.10.2019
6628 Clouds 14 1027 67 12874 2.1 360 13:44 04.10.2019
6629 Clouds 14 1027 67 12874 2.1 360 13:22 04.10.2019
6630 Clouds 14 1027 72 12874 3.1 360 12:54 04.10.2019
6631 Clouds 14 1027 72 12874 3.1 360 12:36 04.10.2019
6632 Clouds 14 1027 72 12874 3.1 360 12:18 04.10.2019
6633 Clouds 14 1027 67 11265 3.1 10 11:42 04.10.2019
6634 Clouds 14 1027 67 11265 3.1 10 11:41 04.10.2019
6635 Clouds 14 1027 67 11265 3.1 10 11:41 04.10.2019
6636 Clouds 14 1027 67 11265 3.1 10 11:21 04.10.2019
6637 Clouds 16 1027 67 11265 2.6 20 10:41 04.10.2019
6638 Clouds 16 1027 67 11265 2.6 20 10:21 04.10.2019
6639 Clouds 14 1027 67 11265 2.6 20 10:21 04.10.2019
6640 Clouds 14 1027 67 12874 3.1 30 09:50 04.10.2019
6641 Clouds 14 1027 67 12874 3.1 30 09:32 04.10.2019
6642 Clouds 14 1028 67 12874 4.1 10 08:59 04.10.2019
6643 Clouds 14 1028 67 12874 4.1 10 08:41 04.10.2019
6644 Clouds 14 1028 67 12874 4.1 10 08:23 04.10.2019
6645 Rain 15 1028 63 12874 5.1 30 07:47 04.10.2019
6646 Rain 15 1028 63 12874 5.1 30 07:23 04.10.2019
6647 Rain 15 1027 67 12874 2.6 60 06:48 04.10.2019
6648 Rain 15 1027 67 12874 2.6 60 06:27 04.10.2019
6649 Rain 15 1027 67 12874 2.6 60 06:27 04.10.2019
6650 Rain 15 1027 72 12874 2.1 30 05:52 04.10.2019
6651 Rain 15 1027 72 12874 2.1 30 05:52 04.10.2019
6652 Rain 15 1027 72 12874 2.1 30 05:19 04.10.2019
6653 Rain 17 1025 72 16093 5.1 90 03:56 04.10.2019
6654 Clouds 19 1024 59 16093 7.2 80 02:54 04.10.2019
6655 Clouds 20 1023 43 14484 6.2 10 02:21 04.10.2019
6656 Clouds 22 1022 40 14484 6.7 20 01:43 04.10.2019
6657 Clouds 22 1022 40 14484 6.7 20 01:24 04.10.2019
6658 Ash 23 1022 35 12874 4.6 360 00:18 04.10.2019
6659 Ash 24 1023 36 12874 3.25 59.209 23:37 03.10.2019
6660 Ash 24 1023 36 12874 3.25 59.209 23:18 03.10.2019
6661 Ash 24 1024 33 12874 3.1 350 22:57 03.10.2019
6662 Ash 24 1024 33 12874 3.1 350 22:57 03.10.2019
6663 Ash 24 1024 33 12874 3.1 350 22:39 03.10.2019
6664 Ash 24 1024 33 12874 3.1 350 22:21 03.10.2019
6665 Ash 22 1025 40 14484 4.1 340 21:56 03.10.2019
6666 Ash 22 1025 40 14484 4.1 340 21:37 03.10.2019
6667 Ash 22 1025 40 14484 4.1 340 21:19 03.10.2019
6668 Clouds 22 1026 45 14484 3.1 320 20:56 03.10.2019
6669 Clouds 22 1026 45 14484 3.1 320 20:37 03.10.2019
6670 Clouds 22 1026 45 14484 3.1 320 20:37 03.10.2019
6671 Clouds 21 1026 45 14484 3.1 320 20:19 03.10.2019
6672 Clouds 19 1027 48 12874 3.1 350 19:41 03.10.2019
6673 Clouds 20 1027 48 12874 3.1 350 19:22 03.10.2019
6674 Clouds 19 1027 59 12874 1.5 150 18:59 03.10.2019
6675 Clouds 19 1027 59 12874 1.5 150 18:39 03.10.2019
6676 Clouds 19 1027 59 12874 1.5 150 18:19 03.10.2019
6677 Clouds 17 1027 63 12874 1.38 66.349 17:59 03.10.2019
6678 Clouds 17 1027 63 12874 1.38 66.349 17:59 03.10.2019
6679 Clouds 17 1027 63 12874 1.38 66.349 17:41 03.10.2019
6680 Clouds 16 1027 77 12874 4.1 70 17:19 03.10.2019
6681 Clouds 14 1027 76 11265 1.5 60 16:44 03.10.2019
6682 Clouds 14 1027 76 11265 1.5 60 16:26 03.10.2019
6683 Fog 12 1026 87 11265 2.6 90 15:56 03.10.2019
6684 Fog 12 1026 87 11265 2.6 90 15:38 03.10.2019
6685 Fog 12 1026 87 11265 2.6 90 15:20 03.10.2019
6686 Fog 12 1026 82 12874 2.1 40 14:46 03.10.2019
6687 Fog 12 1026 82 12874 2.1 40 14:27 03.10.2019
6688 Clouds 11 1025 82 12874 2.6 100 13:59 03.10.2019
6689 Clouds 11 1025 82 12874 2.6 100 13:41 03.10.2019
6690 Clouds 12 1025 82 12874 2.6 100 13:19 03.10.2019
6691 Clouds 12 1025 82 12874 2.6 100 12:56 03.10.2019
6692 Clouds 12 1025 82 12874 2.6 100 12:37 03.10.2019
6693 Clouds 13 1025 72 12874 2.1 320 12:19 03.10.2019
6694 Clouds 13 1025 72 12874 2.1 320 12:19 03.10.2019
6695 Clouds 13 1025 67 12874 1 30 11:41 03.